<?xml version='1.0' encoding='UTF-8'?><gpx version="1.1" creator="JPX - https://github.com/jenetics/jpx" xmlns="http://www.topografix.com/GPX/1/1"><trk><trkseg><trkpt lat="43.8699017" lon="11.123334"><ele>55.0</ele><time>2026-03-28T07:28:10.602Z</time></trkpt><trkpt lat="43.869945" lon="11.1232338"><ele>55.0</ele><time>2026-03-28T07:29:10.892Z</time></trkpt><trkpt lat="43.8699531" lon="11.1233239"><ele>55.0</ele><time>2026-03-28T07:35:56.887Z</time></trkpt><trkpt lat="43.8698088" lon="11.123603"><ele>55.0</ele><time>2026-03-28T07:36:06.899Z</time></trkpt><trkpt lat="43.8697263" lon="11.1237587"><ele>55.0</ele><time>2026-03-28T07:36:20.885Z</time></trkpt><trkpt lat="43.8696771" lon="11.1238547"><ele>55.0</ele><time>2026-03-28T07:36:21.877Z</time></trkpt><trkpt lat="43.8696197" lon="11.1239581"><ele>55.0</ele><time>2026-03-28T07:36:22.877Z</time></trkpt><trkpt lat="43.8695494" lon="11.1240752"><ele>55.0</ele><time>2026-03-28T07:36:23.871Z</time></trkpt><trkpt lat="43.8694738" lon="11.124195"><ele>55.0</ele><time>2026-03-28T07:36:24.879Z</time></trkpt><trkpt lat="43.8693962" lon="11.1243124"><ele>55.25</ele><time>2026-03-28T07:36:25.871Z</time></trkpt><trkpt lat="43.8693146" lon="11.1244358"><ele>55.5</ele><time>2026-03-28T07:36:26.874Z</time></trkpt><trkpt lat="43.8692247" lon="11.1245575"><ele>55.75</ele><time>2026-03-28T07:36:27.877Z</time></trkpt><trkpt lat="43.8691196" lon="11.1246763"><ele>56.0</ele><time>2026-03-28T07:36:28.883Z</time></trkpt><trkpt lat="43.8690112" lon="11.1247941"><ele>56.75</ele><time>2026-03-28T07:36:29.871Z</time></trkpt><trkpt lat="43.868905" lon="11.1249126"><ele>57.5</ele><time>2026-03-28T07:36:30.871Z</time></trkpt><trkpt lat="43.8687968" lon="11.1250292"><ele>58.25</ele><time>2026-03-28T07:36:31.869Z</time></trkpt><trkpt lat="43.8687" lon="11.1251346"><ele>59.0</ele><time>2026-03-28T07:36:32.871Z</time></trkpt><trkpt lat="43.8686034" lon="11.1252325"><ele>59.0</ele><time>2026-03-28T07:36:33.871Z</time></trkpt><trkpt lat="43.8685049" lon="11.1253364"><ele>59.0</ele><time>2026-03-28T07:36:34.867Z</time></trkpt><trkpt lat="43.8684057" lon="11.1254423"><ele>59.0</ele><time>2026-03-28T07:36:35.867Z</time></trkpt><trkpt lat="43.8683126" lon="11.1255559"><ele>59.0</ele><time>2026-03-28T07:36:36.874Z</time></trkpt><trkpt lat="43.8682216" lon="11.1256732"><ele>58.75</ele><time>2026-03-28T07:36:37.882Z</time></trkpt><trkpt lat="43.8681326" lon="11.1257967"><ele>58.5</ele><time>2026-03-28T07:36:38.878Z</time></trkpt><trkpt lat="43.8680472" lon="11.1259296"><ele>58.25</ele><time>2026-03-28T07:36:39.875Z</time></trkpt><trkpt lat="43.8679682" lon="11.1260603"><ele>58.0</ele><time>2026-03-28T07:36:40.879Z</time></trkpt><trkpt lat="43.8678948" lon="11.1261943"><ele>58.0</ele><time>2026-03-28T07:36:41.873Z</time></trkpt><trkpt lat="43.8678256" lon="11.1263338"><ele>58.0</ele><time>2026-03-28T07:36:42.877Z</time></trkpt><trkpt lat="43.867758" lon="11.1264752"><ele>58.0</ele><time>2026-03-28T07:36:43.872Z</time></trkpt><trkpt lat="43.8676825" lon="11.1266137"><ele>58.0</ele><time>2026-03-28T07:36:44.883Z</time></trkpt><trkpt lat="43.8676096" lon="11.1267507"><ele>57.5</ele><time>2026-03-28T07:36:45.871Z</time></trkpt><trkpt lat="43.8675354" lon="11.1268905"><ele>57.0</ele><time>2026-03-28T07:36:46.881Z</time></trkpt><trkpt lat="43.867463" lon="11.1270357"><ele>56.5</ele><time>2026-03-28T07:36:47.872Z</time></trkpt><trkpt lat="43.8673878" lon="11.1271845"><ele>56.0</ele><time>2026-03-28T07:36:48.873Z</time></trkpt><trkpt lat="43.8673058" lon="11.1273315"><ele>56.5</ele><time>2026-03-28T07:36:49.878Z</time></trkpt><trkpt lat="43.8672207" lon="11.1274804"><ele>57.0</ele><time>2026-03-28T07:36:50.874Z</time></trkpt><trkpt lat="43.867144" lon="11.1276333"><ele>57.5</ele><time>2026-03-28T07:36:51.874Z</time></trkpt><trkpt lat="43.8670673" lon="11.127783"><ele>58.0</ele><time>2026-03-28T07:36:52.874Z</time></trkpt><trkpt lat="43.8669944" lon="11.1279342"><ele>58.0</ele><time>2026-03-28T07:36:53.872Z</time></trkpt><trkpt lat="43.8669165" lon="11.1280852"><ele>58.0</ele><time>2026-03-28T07:36:54.875Z</time></trkpt><trkpt lat="43.8668401" lon="11.1282347"><ele>58.0</ele><time>2026-03-28T07:36:55.879Z</time></trkpt><trkpt lat="43.8667711" lon="11.1283893"><ele>58.0</ele><time>2026-03-28T07:36:56.873Z</time></trkpt><trkpt lat="43.8666991" lon="11.1285454"><ele>57.75</ele><time>2026-03-28T07:36:57.873Z</time></trkpt><trkpt lat="43.8666269" lon="11.1287012"><ele>57.5</ele><time>2026-03-28T07:36:58.883Z</time></trkpt><trkpt lat="43.8665595" lon="11.128857"><ele>57.25</ele><time>2026-03-28T07:36:59.882Z</time></trkpt><trkpt lat="43.866488" lon="11.1290055"><ele>57.0</ele><time>2026-03-28T07:37:00.888Z</time></trkpt><trkpt lat="43.8664097" lon="11.1291469"><ele>57.0</ele><time>2026-03-28T07:37:01.872Z</time></trkpt><trkpt lat="43.8663232" lon="11.1292886"><ele>57.0</ele><time>2026-03-28T07:37:02.88Z</time></trkpt><trkpt lat="43.8662284" lon="11.1294234"><ele>57.0</ele><time>2026-03-28T07:37:03.88Z</time></trkpt><trkpt lat="43.8661387" lon="11.1295661"><ele>57.0</ele><time>2026-03-28T07:37:04.88Z</time></trkpt><trkpt lat="43.8660333" lon="11.1296963"><ele>56.25</ele><time>2026-03-28T07:37:05.878Z</time></trkpt><trkpt lat="43.8659407" lon="11.1298405"><ele>55.5</ele><time>2026-03-28T07:37:06.877Z</time></trkpt><trkpt lat="43.8658539" lon="11.1299907"><ele>54.75</ele><time>2026-03-28T07:37:07.888Z</time></trkpt><trkpt lat="43.8657644" lon="11.1301382"><ele>54.0</ele><time>2026-03-28T07:37:08.884Z</time></trkpt><trkpt lat="43.865673" lon="11.13028"><ele>54.0</ele><time>2026-03-28T07:37:09.879Z</time></trkpt><trkpt lat="43.8655835" lon="11.1304262"><ele>54.0</ele><time>2026-03-28T07:37:10.873Z</time></trkpt><trkpt lat="43.8654904" lon="11.1305711"><ele>54.0</ele><time>2026-03-28T07:37:11.874Z</time></trkpt><trkpt lat="43.8654013" lon="11.13071"><ele>54.0</ele><time>2026-03-28T07:37:12.876Z</time></trkpt><trkpt lat="43.8653133" lon="11.1308453"><ele>54.75</ele><time>2026-03-28T07:37:13.882Z</time></trkpt><trkpt lat="43.8652244" lon="11.1309893"><ele>55.5</ele><time>2026-03-28T07:37:14.885Z</time></trkpt><trkpt lat="43.8651361" lon="11.1311331"><ele>56.25</ele><time>2026-03-28T07:37:15.887Z</time></trkpt><trkpt lat="43.8650439" lon="11.1312758"><ele>57.0</ele><time>2026-03-28T07:37:16.886Z</time></trkpt><trkpt lat="43.8649576" lon="11.13141"><ele>57.0</ele><time>2026-03-28T07:37:17.895Z</time></trkpt><trkpt lat="43.8648758" lon="11.1315511"><ele>57.0</ele><time>2026-03-28T07:37:18.878Z</time></trkpt><trkpt lat="43.8648014" lon="11.1316946"><ele>57.0</ele><time>2026-03-28T07:37:19.883Z</time></trkpt><trkpt lat="43.8647162" lon="11.1318402"><ele>57.0</ele><time>2026-03-28T07:37:20.887Z</time></trkpt><trkpt lat="43.8646335" lon="11.1319819"><ele>57.5</ele><time>2026-03-28T07:37:21.881Z</time></trkpt><trkpt lat="43.8645533" lon="11.1321294"><ele>58.0</ele><time>2026-03-28T07:37:22.892Z</time></trkpt><trkpt lat="43.8644747" lon="11.1322804"><ele>58.5</ele><time>2026-03-28T07:37:23.891Z</time></trkpt><trkpt lat="43.8643941" lon="11.1324334"><ele>59.0</ele><time>2026-03-28T07:37:24.899Z</time></trkpt><trkpt lat="43.8643022" lon="11.1325825"><ele>58.0</ele><time>2026-03-28T07:37:25.895Z</time></trkpt><trkpt lat="43.864222" lon="11.1327297"><ele>57.0</ele><time>2026-03-28T07:37:26.889Z</time></trkpt><trkpt lat="43.8641447" lon="11.1328571"><ele>56.0</ele><time>2026-03-28T07:37:27.876Z</time></trkpt><trkpt lat="43.8640582" lon="11.1329916"><ele>55.0</ele><time>2026-03-28T07:37:28.874Z</time></trkpt><trkpt lat="43.8639678" lon="11.1331302"><ele>56.0</ele><time>2026-03-28T07:37:29.877Z</time></trkpt><trkpt lat="43.8638826" lon="11.1332653"><ele>57.0</ele><time>2026-03-28T07:37:30.874Z</time></trkpt><trkpt lat="43.8638051" lon="11.1334028"><ele>58.0</ele><time>2026-03-28T07:37:31.878Z</time></trkpt><trkpt lat="43.8637323" lon="11.133538"><ele>59.0</ele><time>2026-03-28T07:37:32.877Z</time></trkpt><trkpt lat="43.8636612" lon="11.1336798"><ele>59.0</ele><time>2026-03-28T07:37:33.876Z</time></trkpt><trkpt lat="43.8635892" lon="11.1338168"><ele>59.0</ele><time>2026-03-28T07:37:34.879Z</time></trkpt><trkpt lat="43.8635249" lon="11.1339503"><ele>59.0</ele><time>2026-03-28T07:37:35.876Z</time></trkpt><trkpt lat="43.8634655" lon="11.1340731"><ele>59.0</ele><time>2026-03-28T07:37:36.877Z</time></trkpt><trkpt lat="43.8634049" lon="11.1341924"><ele>58.6</ele><time>2026-03-28T07:37:37.87Z</time></trkpt><trkpt lat="43.8633526" lon="11.134307"><ele>58.2</ele><time>2026-03-28T07:37:38.876Z</time></trkpt><trkpt lat="43.8633057" lon="11.1344176"><ele>57.800000000000004</ele><time>2026-03-28T07:37:39.882Z</time></trkpt><trkpt lat="43.8632523" lon="11.1345367"><ele>57.400000000000006</ele><time>2026-03-28T07:37:40.883Z</time></trkpt><trkpt lat="43.8632021" lon="11.134665"><ele>57.0</ele><time>2026-03-28T07:37:41.883Z</time></trkpt><trkpt lat="43.8631491" lon="11.1348061"><ele>58.75</ele><time>2026-03-28T07:37:42.88Z</time></trkpt><trkpt lat="43.8630836" lon="11.1349523"><ele>60.5</ele><time>2026-03-28T07:37:43.87Z</time></trkpt><trkpt lat="43.8630161" lon="11.1351087"><ele>62.25</ele><time>2026-03-28T07:37:44.876Z</time></trkpt><trkpt lat="43.8629462" lon="11.1352622"><ele>64.0</ele><time>2026-03-28T07:37:45.887Z</time></trkpt><trkpt lat="43.8628827" lon="11.1354113"><ele>64.0</ele><time>2026-03-28T07:37:46.875Z</time></trkpt><trkpt lat="43.8628156" lon="11.1355525"><ele>64.0</ele><time>2026-03-28T07:37:47.875Z</time></trkpt><trkpt lat="43.8627541" lon="11.135682"><ele>64.0</ele><time>2026-03-28T07:37:48.901Z</time></trkpt><trkpt lat="43.86269" lon="11.1357991"><ele>64.0</ele><time>2026-03-28T07:37:49.895Z</time></trkpt><trkpt lat="43.8626247" lon="11.1359161"><ele>64.0</ele><time>2026-03-28T07:37:50.886Z</time></trkpt><trkpt lat="43.8625583" lon="11.136032"><ele>62.800000000000004</ele><time>2026-03-28T07:37:51.89Z</time></trkpt><trkpt lat="43.8624932" lon="11.136149"><ele>61.60000000000001</ele><time>2026-03-28T07:37:52.894Z</time></trkpt><trkpt lat="43.8624283" lon="11.1362635"><ele>60.4</ele><time>2026-03-28T07:37:53.89Z</time></trkpt><trkpt lat="43.8623614" lon="11.1363682"><ele>59.2</ele><time>2026-03-28T07:37:54.895Z</time></trkpt><trkpt lat="43.8623031" lon="11.1364683"><ele>58.0</ele><time>2026-03-28T07:37:55.898Z</time></trkpt><trkpt lat="43.8622505" lon="11.1365609"><ele>57.99999999999999</ele><time>2026-03-28T07:37:56.889Z</time></trkpt><trkpt lat="43.8622035" lon="11.1366416"><ele>58.0</ele><time>2026-03-28T07:37:57.884Z</time></trkpt><trkpt lat="43.8621581" lon="11.1367205"><ele>58.0</ele><time>2026-03-28T07:37:58.883Z</time></trkpt><trkpt lat="43.8621117" lon="11.1367941"><ele>58.0</ele><time>2026-03-28T07:37:59.876Z</time></trkpt><trkpt lat="43.8620589" lon="11.1368588"><ele>57.99999999999999</ele><time>2026-03-28T07:38:00.875Z</time></trkpt><trkpt lat="43.8619768" lon="11.1369719"><ele>58.0</ele><time>2026-03-28T07:38:02.871Z</time></trkpt><trkpt lat="43.8619622" lon="11.1370864"><ele>58.0</ele><time>2026-03-28T07:38:04.877Z</time></trkpt><trkpt lat="43.8620662" lon="11.1371571"><ele>58.0</ele><time>2026-03-28T07:38:06.878Z</time></trkpt><trkpt lat="43.8621355" lon="11.1371917"><ele>58.0</ele><time>2026-03-28T07:38:07.884Z</time></trkpt><trkpt lat="43.8622131" lon="11.1372334"><ele>58.0</ele><time>2026-03-28T07:38:08.878Z</time></trkpt><trkpt lat="43.862301" lon="11.1372877"><ele>58.0</ele><time>2026-03-28T07:38:09.869Z</time></trkpt><trkpt lat="43.8623791" lon="11.13734"><ele>57.99999999999999</ele><time>2026-03-28T07:38:10.87Z</time></trkpt><trkpt lat="43.8624514" lon="11.1373794"><ele>58.0</ele><time>2026-03-28T07:38:11.885Z</time></trkpt><trkpt lat="43.8625055" lon="11.1374304"><ele>58.0</ele><time>2026-03-28T07:38:12.881Z</time></trkpt><trkpt lat="43.8625476" lon="11.1374988"><ele>58.0</ele><time>2026-03-28T07:38:13.879Z</time></trkpt><trkpt lat="43.8625652" lon="11.1375938"><ele>57.99999999999999</ele><time>2026-03-28T07:38:14.876Z</time></trkpt><trkpt lat="43.8625911" lon="11.1377261"><ele>58.0</ele><time>2026-03-28T07:38:15.88Z</time></trkpt><trkpt lat="43.8626158" lon="11.1378712"><ele>60.166666666666664</ele><time>2026-03-28T07:38:16.872Z</time></trkpt><trkpt lat="43.8626391" lon="11.1380053"><ele>62.33333333333333</ele><time>2026-03-28T07:38:17.883Z</time></trkpt><trkpt lat="43.8626598" lon="11.1381181"><ele>64.5</ele><time>2026-03-28T07:38:18.877Z</time></trkpt><trkpt lat="43.8626792" lon="11.1382274"><ele>66.66666666666667</ele><time>2026-03-28T07:38:19.888Z</time></trkpt><trkpt lat="43.8627058" lon="11.1383398"><ele>68.83333333333334</ele><time>2026-03-28T07:38:20.886Z</time></trkpt><trkpt lat="43.86275" lon="11.138459"><ele>71.0</ele><time>2026-03-28T07:38:21.892Z</time></trkpt><trkpt lat="43.8628038" lon="11.1385853"><ele>71.0</ele><time>2026-03-28T07:38:22.894Z</time></trkpt><trkpt lat="43.8628765" lon="11.1387204"><ele>71.0</ele><time>2026-03-28T07:38:23.894Z</time></trkpt><trkpt lat="43.8629568" lon="11.138855"><ele>71.0</ele><time>2026-03-28T07:38:24.893Z</time></trkpt><trkpt lat="43.8630494" lon="11.1389858"><ele>71.0</ele><time>2026-03-28T07:38:25.885Z</time></trkpt><trkpt lat="43.8631424" lon="11.1391139"><ele>72.25</ele><time>2026-03-28T07:38:26.88Z</time></trkpt><trkpt lat="43.8632398" lon="11.1392332"><ele>73.5</ele><time>2026-03-28T07:38:27.88Z</time></trkpt><trkpt lat="43.8633444" lon="11.1393433"><ele>74.75</ele><time>2026-03-28T07:38:28.885Z</time></trkpt><trkpt lat="43.8634427" lon="11.1394528"><ele>76.0</ele><time>2026-03-28T07:38:29.877Z</time></trkpt><trkpt lat="43.8635412" lon="11.1395556"><ele>76.0</ele><time>2026-03-28T07:38:30.886Z</time></trkpt><trkpt lat="43.86364" lon="11.1396504"><ele>76.0</ele><time>2026-03-28T07:38:31.873Z</time></trkpt><trkpt lat="43.8637362" lon="11.1397518"><ele>76.0</ele><time>2026-03-28T07:38:32.879Z</time></trkpt><trkpt lat="43.8638313" lon="11.1398563"><ele>76.0</ele><time>2026-03-28T07:38:33.895Z</time></trkpt><trkpt lat="43.8639277" lon="11.1399582"><ele>75.0</ele><time>2026-03-28T07:38:34.881Z</time></trkpt><trkpt lat="43.8640248" lon="11.1400548"><ele>74.0</ele><time>2026-03-28T07:38:35.885Z</time></trkpt><trkpt lat="43.8641217" lon="11.1401497"><ele>73.0</ele><time>2026-03-28T07:38:36.889Z</time></trkpt><trkpt lat="43.8642208" lon="11.1402358"><ele>72.0</ele><time>2026-03-28T07:38:37.88Z</time></trkpt><trkpt lat="43.8643205" lon="11.140313"><ele>72.0</ele><time>2026-03-28T07:38:38.886Z</time></trkpt><trkpt lat="43.8644267" lon="11.1403821"><ele>72.0</ele><time>2026-03-28T07:38:39.867Z</time></trkpt><trkpt lat="43.8645395" lon="11.1404555"><ele>72.0</ele><time>2026-03-28T07:38:40.877Z</time></trkpt><trkpt lat="43.8646519" lon="11.140538"><ele>72.0</ele><time>2026-03-28T07:38:41.877Z</time></trkpt><trkpt lat="43.864761" lon="11.1406266"><ele>72.0</ele><time>2026-03-28T07:38:42.879Z</time></trkpt><trkpt lat="43.8648733" lon="11.1407179"><ele>72.0</ele><time>2026-03-28T07:38:43.876Z</time></trkpt><trkpt lat="43.8649852" lon="11.1408201"><ele>72.0</ele><time>2026-03-28T07:38:44.877Z</time></trkpt><trkpt lat="43.8650989" lon="11.1409256"><ele>72.0</ele><time>2026-03-28T07:38:45.873Z</time></trkpt><trkpt lat="43.8652133" lon="11.1410264"><ele>72.0</ele><time>2026-03-28T07:38:46.876Z</time></trkpt><trkpt lat="43.8653228" lon="11.1411264"><ele>72.0</ele><time>2026-03-28T07:38:47.875Z</time></trkpt><trkpt lat="43.86543" lon="11.1412353"><ele>72.0</ele><time>2026-03-28T07:38:48.888Z</time></trkpt><trkpt lat="43.8655327" lon="11.1413524"><ele>72.0</ele><time>2026-03-28T07:38:49.878Z</time></trkpt><trkpt lat="43.8656293" lon="11.1414804"><ele>73.75</ele><time>2026-03-28T07:38:50.891Z</time></trkpt><trkpt lat="43.8657168" lon="11.1416183"><ele>75.5</ele><time>2026-03-28T07:38:51.878Z</time></trkpt><trkpt lat="43.8658005" lon="11.1417588"><ele>77.25</ele><time>2026-03-28T07:38:52.875Z</time></trkpt><trkpt lat="43.8658852" lon="11.1419039"><ele>79.0</ele><time>2026-03-28T07:38:53.875Z</time></trkpt><trkpt lat="43.8659746" lon="11.1420608"><ele>79.0</ele><time>2026-03-28T07:38:54.878Z</time></trkpt><trkpt lat="43.8660647" lon="11.142239"><ele>79.0</ele><time>2026-03-28T07:38:55.881Z</time></trkpt><trkpt lat="43.8661553" lon="11.1424031"><ele>79.0</ele><time>2026-03-28T07:38:56.889Z</time></trkpt><trkpt lat="43.866253" lon="11.1425608"><ele>76.5</ele><time>2026-03-28T07:38:57.89Z</time></trkpt><trkpt lat="43.866347" lon="11.1427144"><ele>74.0</ele><time>2026-03-28T07:38:58.888Z</time></trkpt><trkpt lat="43.8664404" lon="11.1428698"><ele>71.5</ele><time>2026-03-28T07:38:59.879Z</time></trkpt><trkpt lat="43.8665332" lon="11.1430238"><ele>69.0</ele><time>2026-03-28T07:39:00.881Z</time></trkpt><trkpt lat="43.8666303" lon="11.143173"><ele>67.0</ele><time>2026-03-28T07:39:01.875Z</time></trkpt><trkpt lat="43.8667207" lon="11.1433107"><ele>65.0</ele><time>2026-03-28T07:39:02.882Z</time></trkpt><trkpt lat="43.8668045" lon="11.1434526"><ele>63.0</ele><time>2026-03-28T07:39:03.877Z</time></trkpt><trkpt lat="43.8668918" lon="11.1435828"><ele>61.0</ele><time>2026-03-28T07:39:04.878Z</time></trkpt><trkpt lat="43.8669845" lon="11.1437208"><ele>62.5</ele><time>2026-03-28T07:39:05.881Z</time></trkpt><trkpt lat="43.8670832" lon="11.1438592"><ele>64.0</ele><time>2026-03-28T07:39:06.877Z</time></trkpt><trkpt lat="43.8671816" lon="11.1439966"><ele>65.5</ele><time>2026-03-28T07:39:07.875Z</time></trkpt><trkpt lat="43.8672777" lon="11.1441267"><ele>67.0</ele><time>2026-03-28T07:39:08.88Z</time></trkpt><trkpt lat="43.8673743" lon="11.1442571"><ele>67.0</ele><time>2026-03-28T07:39:09.878Z</time></trkpt><trkpt lat="43.8674658" lon="11.1443989"><ele>67.0</ele><time>2026-03-28T07:39:10.878Z</time></trkpt><trkpt lat="43.8675568" lon="11.1445472"><ele>67.0</ele><time>2026-03-28T07:39:11.88Z</time></trkpt><trkpt lat="43.8676501" lon="11.1446985"><ele>67.0</ele><time>2026-03-28T07:39:12.878Z</time></trkpt><trkpt lat="43.8677536" lon="11.1448489"><ele>66.75</ele><time>2026-03-28T07:39:13.881Z</time></trkpt><trkpt lat="43.8678593" lon="11.1449987"><ele>66.5</ele><time>2026-03-28T07:39:14.883Z</time></trkpt><trkpt lat="43.8679606" lon="11.1451538"><ele>66.25</ele><time>2026-03-28T07:39:15.882Z</time></trkpt><trkpt lat="43.868058" lon="11.1453024"><ele>66.0</ele><time>2026-03-28T07:39:16.874Z</time></trkpt><trkpt lat="43.8681498" lon="11.1454519"><ele>66.0</ele><time>2026-03-28T07:39:17.881Z</time></trkpt><trkpt lat="43.8682275" lon="11.1456086"><ele>66.0</ele><time>2026-03-28T07:39:18.879Z</time></trkpt><trkpt lat="43.8683037" lon="11.145783"><ele>66.0</ele><time>2026-03-28T07:39:19.877Z</time></trkpt><trkpt lat="43.8683883" lon="11.1459562"><ele>66.0</ele><time>2026-03-28T07:39:20.884Z</time></trkpt><trkpt lat="43.8684719" lon="11.1461362"><ele>65.33333333333333</ele><time>2026-03-28T07:39:21.917Z</time></trkpt><trkpt lat="43.8685608" lon="11.1463046"><ele>64.66666666666666</ele><time>2026-03-28T07:39:22.88Z</time></trkpt><trkpt lat="43.8686649" lon="11.1464734"><ele>64.0</ele><time>2026-03-28T07:39:23.875Z</time></trkpt><trkpt lat="43.8687709" lon="11.1466194"><ele>64.0</ele><time>2026-03-28T07:39:24.88Z</time></trkpt><trkpt lat="43.8688959" lon="11.1467604"><ele>64.0</ele><time>2026-03-28T07:39:25.877Z</time></trkpt><trkpt lat="43.8690067" lon="11.1468916"><ele>64.0</ele><time>2026-03-28T07:39:26.875Z</time></trkpt><trkpt lat="43.8691169" lon="11.1470209"><ele>64.0</ele><time>2026-03-28T07:39:27.871Z</time></trkpt><trkpt lat="43.8692292" lon="11.1471489"><ele>64.0</ele><time>2026-03-28T07:39:28.873Z</time></trkpt><trkpt lat="43.8693335" lon="11.1472788"><ele>64.0</ele><time>2026-03-28T07:39:29.878Z</time></trkpt><trkpt lat="43.8694368" lon="11.1474058"><ele>64.0</ele><time>2026-03-28T07:39:30.878Z</time></trkpt><trkpt lat="43.8695332" lon="11.14752"><ele>65.8</ele><time>2026-03-28T07:39:31.876Z</time></trkpt><trkpt lat="43.8696079" lon="11.1476175"><ele>67.60000000000001</ele><time>2026-03-28T07:39:32.879Z</time></trkpt><trkpt lat="43.8696664" lon="11.147716"><ele>69.4</ele><time>2026-03-28T07:39:33.876Z</time></trkpt><trkpt lat="43.8696967" lon="11.1478208"><ele>71.2</ele><time>2026-03-28T07:39:34.881Z</time></trkpt><trkpt lat="43.8697171" lon="11.1479393"><ele>73.0</ele><time>2026-03-28T07:39:35.876Z</time></trkpt><trkpt lat="43.8697291" lon="11.1480899"><ele>71.5</ele><time>2026-03-28T07:39:36.877Z</time></trkpt><trkpt lat="43.8697659" lon="11.1482431"><ele>70.0</ele><time>2026-03-28T07:39:37.876Z</time></trkpt><trkpt lat="43.8698361" lon="11.1483856"><ele>68.5</ele><time>2026-03-28T07:39:38.874Z</time></trkpt><trkpt lat="43.869907" lon="11.148529"><ele>67.0</ele><time>2026-03-28T07:39:39.877Z</time></trkpt><trkpt lat="43.8699919" lon="11.1486724"><ele>67.0</ele><time>2026-03-28T07:39:40.881Z</time></trkpt><trkpt lat="43.8700839" lon="11.1488185"><ele>67.0</ele><time>2026-03-28T07:39:41.873Z</time></trkpt><trkpt lat="43.8701761" lon="11.1489633"><ele>67.0</ele><time>2026-03-28T07:39:42.871Z</time></trkpt><trkpt lat="43.8702664" lon="11.1490978"><ele>67.0</ele><time>2026-03-28T07:39:43.88Z</time></trkpt><trkpt lat="43.8703532" lon="11.1492289"><ele>68.25</ele><time>2026-03-28T07:39:44.877Z</time></trkpt><trkpt lat="43.8704444" lon="11.1493609"><ele>69.5</ele><time>2026-03-28T07:39:45.886Z</time></trkpt><trkpt lat="43.870536" lon="11.1494883"><ele>70.75</ele><time>2026-03-28T07:39:46.879Z</time></trkpt><trkpt lat="43.8706301" lon="11.1496095"><ele>72.0</ele><time>2026-03-28T07:39:47.876Z</time></trkpt><trkpt lat="43.8707265" lon="11.1497294"><ele>72.0</ele><time>2026-03-28T07:39:48.878Z</time></trkpt><trkpt lat="43.8708189" lon="11.1498404"><ele>72.0</ele><time>2026-03-28T07:39:49.879Z</time></trkpt><trkpt lat="43.8709082" lon="11.1499496"><ele>72.0</ele><time>2026-03-28T07:39:50.88Z</time></trkpt><trkpt lat="43.8709976" lon="11.1500605"><ele>72.0</ele><time>2026-03-28T07:39:51.893Z</time></trkpt><trkpt lat="43.8710916" lon="11.1501703"><ele>75.75</ele><time>2026-03-28T07:39:52.875Z</time></trkpt><trkpt lat="43.8711885" lon="11.150284"><ele>79.5</ele><time>2026-03-28T07:39:53.878Z</time></trkpt><trkpt lat="43.871284" lon="11.1504071"><ele>83.25</ele><time>2026-03-28T07:39:54.871Z</time></trkpt><trkpt lat="43.8713785" lon="11.1505348"><ele>87.0</ele><time>2026-03-28T07:39:55.878Z</time></trkpt><trkpt lat="43.8714668" lon="11.150664"><ele>88.5</ele><time>2026-03-28T07:39:56.879Z</time></trkpt><trkpt lat="43.8715535" lon="11.1507961"><ele>90.0</ele><time>2026-03-28T07:39:57.875Z</time></trkpt><trkpt lat="43.871638" lon="11.1509341"><ele>91.5</ele><time>2026-03-28T07:39:58.879Z</time></trkpt><trkpt lat="43.8717221" lon="11.1510806"><ele>93.0</ele><time>2026-03-28T07:39:59.882Z</time></trkpt><trkpt lat="43.8718045" lon="11.1512332"><ele>93.0</ele><time>2026-03-28T07:40:00.882Z</time></trkpt><trkpt lat="43.871887" lon="11.1513873"><ele>93.0</ele><time>2026-03-28T07:40:01.883Z</time></trkpt><trkpt lat="43.8719686" lon="11.1515493"><ele>93.0</ele><time>2026-03-28T07:40:02.881Z</time></trkpt><trkpt lat="43.8720511" lon="11.1517112"><ele>93.0</ele><time>2026-03-28T07:40:03.879Z</time></trkpt><trkpt lat="43.8721162" lon="11.1518796"><ele>88.33333333333333</ele><time>2026-03-28T07:40:04.876Z</time></trkpt><trkpt lat="43.8721875" lon="11.1520708"><ele>83.66666666666666</ele><time>2026-03-28T07:40:05.878Z</time></trkpt><trkpt lat="43.8722541" lon="11.1522572"><ele>79.0</ele><time>2026-03-28T07:40:06.878Z</time></trkpt><trkpt lat="43.8723011" lon="11.1524562"><ele>77.25</ele><time>2026-03-28T07:40:07.876Z</time></trkpt><trkpt lat="43.8723514" lon="11.1526535"><ele>75.5</ele><time>2026-03-28T07:40:08.876Z</time></trkpt><trkpt lat="43.8724014" lon="11.15284"><ele>73.75</ele><time>2026-03-28T07:40:09.871Z</time></trkpt><trkpt lat="43.8724762" lon="11.1530186"><ele>72.0</ele><time>2026-03-28T07:40:10.879Z</time></trkpt><trkpt lat="43.8725582" lon="11.1531956"><ele>75.0</ele><time>2026-03-28T07:40:11.883Z</time></trkpt><trkpt lat="43.8726425" lon="11.1533683"><ele>78.0</ele><time>2026-03-28T07:40:12.885Z</time></trkpt><trkpt lat="43.8727181" lon="11.1535311"><ele>81.0</ele><time>2026-03-28T07:40:13.884Z</time></trkpt><trkpt lat="43.8727839" lon="11.1536817"><ele>84.0</ele><time>2026-03-28T07:40:14.889Z</time></trkpt><trkpt lat="43.8728411" lon="11.1538217"><ele>84.0</ele><time>2026-03-28T07:40:15.886Z</time></trkpt><trkpt lat="43.872902" lon="11.1539559"><ele>84.0</ele><time>2026-03-28T07:40:16.88Z</time></trkpt><trkpt lat="43.8729741" lon="11.1540859"><ele>84.0</ele><time>2026-03-28T07:40:17.876Z</time></trkpt><trkpt lat="43.8730579" lon="11.1541977"><ele>84.0</ele><time>2026-03-28T07:40:18.881Z</time></trkpt><trkpt lat="43.8731496" lon="11.1542892"><ele>84.25</ele><time>2026-03-28T07:40:19.876Z</time></trkpt><trkpt lat="43.873254" lon="11.1543694"><ele>84.5</ele><time>2026-03-28T07:40:20.884Z</time></trkpt><trkpt lat="43.8733615" lon="11.1544341"><ele>84.75</ele><time>2026-03-28T07:40:21.874Z</time></trkpt><trkpt lat="43.87348" lon="11.1544997"><ele>85.0</ele><time>2026-03-28T07:40:22.89Z</time></trkpt><trkpt lat="43.8736067" lon="11.1545617"><ele>85.0</ele><time>2026-03-28T07:40:23.875Z</time></trkpt><trkpt lat="43.8737365" lon="11.1546218"><ele>85.0</ele><time>2026-03-28T07:40:24.871Z</time></trkpt><trkpt lat="43.8738703" lon="11.1546791"><ele>85.0</ele><time>2026-03-28T07:40:25.874Z</time></trkpt><trkpt lat="43.8740163" lon="11.1547291"><ele>85.0</ele><time>2026-03-28T07:40:26.878Z</time></trkpt><trkpt lat="43.8741641" lon="11.1547737"><ele>87.0</ele><time>2026-03-28T07:40:27.876Z</time></trkpt><trkpt lat="43.8743087" lon="11.1548169"><ele>89.0</ele><time>2026-03-28T07:40:28.878Z</time></trkpt><trkpt lat="43.8744471" lon="11.1548645"><ele>91.0</ele><time>2026-03-28T07:40:29.877Z</time></trkpt><trkpt lat="43.8745852" lon="11.1549191"><ele>93.0</ele><time>2026-03-28T07:40:30.88Z</time></trkpt><trkpt lat="43.8747234" lon="11.1549727"><ele>90.5</ele><time>2026-03-28T07:40:31.876Z</time></trkpt><trkpt lat="43.8748601" lon="11.1550205"><ele>88.0</ele><time>2026-03-28T07:40:32.878Z</time></trkpt><trkpt lat="43.8750106" lon="11.1550595"><ele>85.5</ele><time>2026-03-28T07:40:33.871Z</time></trkpt><trkpt lat="43.8751631" lon="11.1550819"><ele>83.0</ele><time>2026-03-28T07:40:34.878Z</time></trkpt><trkpt lat="43.8753139" lon="11.1551048"><ele>83.0</ele><time>2026-03-28T07:40:35.873Z</time></trkpt><trkpt lat="43.8754625" lon="11.1551258"><ele>83.0</ele><time>2026-03-28T07:40:36.879Z</time></trkpt><trkpt lat="43.8756038" lon="11.1551593"><ele>83.0</ele><time>2026-03-28T07:40:37.882Z</time></trkpt><trkpt lat="43.8757416" lon="11.155203"><ele>83.0</ele><time>2026-03-28T07:40:38.876Z</time></trkpt><trkpt lat="43.8758777" lon="11.1552395"><ele>85.5</ele><time>2026-03-28T07:40:39.875Z</time></trkpt><trkpt lat="43.8760128" lon="11.155276"><ele>88.0</ele><time>2026-03-28T07:40:40.871Z</time></trkpt><trkpt lat="43.8761413" lon="11.1553152"><ele>90.5</ele><time>2026-03-28T07:40:41.868Z</time></trkpt><trkpt lat="43.8762499" lon="11.1553457"><ele>93.0</ele><time>2026-03-28T07:40:42.872Z</time></trkpt><trkpt lat="43.8763386" lon="11.1553776"><ele>93.0</ele><time>2026-03-28T07:40:43.869Z</time></trkpt><trkpt lat="43.876408" lon="11.1554024"><ele>93.0</ele><time>2026-03-28T07:40:44.869Z</time></trkpt><trkpt lat="43.8764466" lon="11.1554787"><ele>93.0</ele><time>2026-03-28T07:40:45.876Z</time></trkpt><trkpt lat="43.8764295" lon="11.1556707"><ele>93.0</ele><time>2026-03-28T07:40:47.87Z</time></trkpt><trkpt lat="43.876378" lon="11.1557851"><ele>93.0</ele><time>2026-03-28T07:40:48.869Z</time></trkpt><trkpt lat="43.8763384" lon="11.1558924"><ele>89.2</ele><time>2026-03-28T07:40:49.874Z</time></trkpt><trkpt lat="43.8763224" lon="11.1559799"><ele>85.4</ele><time>2026-03-28T07:40:50.879Z</time></trkpt><trkpt lat="43.8763777" lon="11.1560719"><ele>81.60000000000001</ele><time>2026-03-28T07:40:52.873Z</time></trkpt><trkpt lat="43.8764597" lon="11.1560752"><ele>77.80000000000001</ele><time>2026-03-28T07:40:53.889Z</time></trkpt><trkpt lat="43.8765654" lon="11.1560693"><ele>74.0</ele><time>2026-03-28T07:40:54.876Z</time></trkpt><trkpt lat="43.8766857" lon="11.1560744"><ele>74.25</ele><time>2026-03-28T07:40:55.876Z</time></trkpt><trkpt lat="43.8768014" lon="11.156086"><ele>74.5</ele><time>2026-03-28T07:40:56.871Z</time></trkpt><trkpt lat="43.8769192" lon="11.1560977"><ele>74.75</ele><time>2026-03-28T07:40:57.876Z</time></trkpt><trkpt lat="43.8770395" lon="11.1561076"><ele>75.0</ele><time>2026-03-28T07:40:58.877Z</time></trkpt><trkpt lat="43.8771554" lon="11.1561097"><ele>75.0</ele><time>2026-03-28T07:40:59.876Z</time></trkpt><trkpt lat="43.877262" lon="11.1561077"><ele>75.0</ele><time>2026-03-28T07:41:00.875Z</time></trkpt><trkpt lat="43.8773576" lon="11.1561143"><ele>75.0</ele><time>2026-03-28T07:41:01.881Z</time></trkpt><trkpt lat="43.8774302" lon="11.1561474"><ele>75.0</ele><time>2026-03-28T07:41:02.88Z</time></trkpt><trkpt lat="43.8774597" lon="11.1563256"><ele>75.0</ele><time>2026-03-28T07:41:04.875Z</time></trkpt><trkpt lat="43.8774236" lon="11.1564608"><ele>73.5</ele><time>2026-03-28T07:41:05.872Z</time></trkpt><trkpt lat="43.8773766" lon="11.1566251"><ele>72.0</ele><time>2026-03-28T07:41:06.879Z</time></trkpt><trkpt lat="43.8773226" lon="11.1568119"><ele>70.5</ele><time>2026-03-28T07:41:07.877Z</time></trkpt><trkpt lat="43.877266" lon="11.1570118"><ele>69.0</ele><time>2026-03-28T07:41:08.88Z</time></trkpt><trkpt lat="43.8772168" lon="11.1572171"><ele>69.0</ele><time>2026-03-28T07:41:09.879Z</time></trkpt><trkpt lat="43.8771802" lon="11.1574299"><ele>69.0</ele><time>2026-03-28T07:41:10.876Z</time></trkpt><trkpt lat="43.8771552" lon="11.157648"><ele>69.0</ele><time>2026-03-28T07:41:11.881Z</time></trkpt><trkpt lat="43.8771338" lon="11.1578379"><ele>69.0</ele><time>2026-03-28T07:41:12.885Z</time></trkpt><trkpt lat="43.8771281" lon="11.1580019"><ele>69.0</ele><time>2026-03-28T07:41:13.884Z</time></trkpt><trkpt lat="43.8771331" lon="11.1581479"><ele>69.0</ele><time>2026-03-28T07:41:14.881Z</time></trkpt><trkpt lat="43.8771396" lon="11.1582684"><ele>69.0</ele><time>2026-03-28T07:41:15.881Z</time></trkpt><trkpt lat="43.87717" lon="11.158374"><ele>69.0</ele><time>2026-03-28T07:41:16.879Z</time></trkpt><trkpt lat="43.8772307" lon="11.158458"><ele>69.0</ele><time>2026-03-28T07:41:17.876Z</time></trkpt><trkpt lat="43.8773082" lon="11.1585312"><ele>69.0</ele><time>2026-03-28T07:41:18.881Z</time></trkpt><trkpt lat="43.8773851" lon="11.1586091"><ele>69.0</ele><time>2026-03-28T07:41:19.878Z</time></trkpt><trkpt lat="43.8774475" lon="11.1586992"><ele>69.0</ele><time>2026-03-28T07:41:20.886Z</time></trkpt><trkpt lat="43.8774851" lon="11.1588065"><ele>69.0</ele><time>2026-03-28T07:41:21.877Z</time></trkpt><trkpt lat="43.8775004" lon="11.1589209"><ele>69.0</ele><time>2026-03-28T07:41:22.88Z</time></trkpt><trkpt lat="43.8775038" lon="11.1590218"><ele>69.4</ele><time>2026-03-28T07:41:23.88Z</time></trkpt><trkpt lat="43.877533" lon="11.1591"><ele>69.80000000000001</ele><time>2026-03-28T07:41:25.873Z</time></trkpt><trkpt lat="43.8776397" lon="11.1590601"><ele>70.19999999999999</ele><time>2026-03-28T07:41:27.876Z</time></trkpt><trkpt lat="43.8777167" lon="11.1590257"><ele>70.6</ele><time>2026-03-28T07:41:28.867Z</time></trkpt><trkpt lat="43.8778064" lon="11.1589865"><ele>71.0</ele><time>2026-03-28T07:41:29.876Z</time></trkpt><trkpt lat="43.8779083" lon="11.1589458"><ele>71.0</ele><time>2026-03-28T07:41:30.877Z</time></trkpt><trkpt lat="43.8780181" lon="11.1589011"><ele>71.0</ele><time>2026-03-28T07:41:31.88Z</time></trkpt><trkpt lat="43.8781355" lon="11.1588538"><ele>71.0</ele><time>2026-03-28T07:41:32.879Z</time></trkpt><trkpt lat="43.8782616" lon="11.1588048"><ele>71.0</ele><time>2026-03-28T07:41:33.881Z</time></trkpt><trkpt lat="43.8783959" lon="11.1587558"><ele>70.75</ele><time>2026-03-28T07:41:34.882Z</time></trkpt><trkpt lat="43.8785349" lon="11.158703"><ele>70.5</ele><time>2026-03-28T07:41:35.876Z</time></trkpt><trkpt lat="43.8786777" lon="11.1586491"><ele>70.25</ele><time>2026-03-28T07:41:36.876Z</time></trkpt><trkpt lat="43.8788238" lon="11.158591"><ele>70.0</ele><time>2026-03-28T07:41:37.874Z</time></trkpt><trkpt lat="43.8789601" lon="11.1585334"><ele>70.0</ele><time>2026-03-28T07:41:38.88Z</time></trkpt><trkpt lat="43.8790927" lon="11.1584936"><ele>70.0</ele><time>2026-03-28T07:41:39.876Z</time></trkpt><trkpt lat="43.8792175" lon="11.1584714"><ele>70.0</ele><time>2026-03-28T07:41:40.877Z</time></trkpt><trkpt lat="43.879341" lon="11.158459"><ele>70.0</ele><time>2026-03-28T07:41:41.876Z</time></trkpt><trkpt lat="43.8794649" lon="11.1584369"><ele>70.5</ele><time>2026-03-28T07:41:42.875Z</time></trkpt><trkpt lat="43.8795909" lon="11.1583802"><ele>71.0</ele><time>2026-03-28T07:41:43.882Z</time></trkpt><trkpt lat="43.8797255" lon="11.1583004"><ele>71.5</ele><time>2026-03-28T07:41:44.886Z</time></trkpt><trkpt lat="43.8798656" lon="11.1582072"><ele>72.0</ele><time>2026-03-28T07:41:45.886Z</time></trkpt><trkpt lat="43.8800037" lon="11.1581183"><ele>72.75</ele><time>2026-03-28T07:41:46.896Z</time></trkpt><trkpt lat="43.8801332" lon="11.1580349"><ele>73.5</ele><time>2026-03-28T07:41:47.885Z</time></trkpt><trkpt lat="43.8802577" lon="11.1579463"><ele>74.25</ele><time>2026-03-28T07:41:48.89Z</time></trkpt><trkpt lat="43.8803704" lon="11.1578528"><ele>75.0</ele><time>2026-03-28T07:41:49.882Z</time></trkpt><trkpt lat="43.8804723" lon="11.157755"><ele>75.0</ele><time>2026-03-28T07:41:50.894Z</time></trkpt><trkpt lat="43.8805683" lon="11.1576539"><ele>75.0</ele><time>2026-03-28T07:41:51.889Z</time></trkpt><trkpt lat="43.880655" lon="11.1575473"><ele>75.0</ele><time>2026-03-28T07:41:52.878Z</time></trkpt><trkpt lat="43.8807333" lon="11.1574111"><ele>75.0</ele><time>2026-03-28T07:41:53.886Z</time></trkpt><trkpt lat="43.8807987" lon="11.1572646"><ele>75.4</ele><time>2026-03-28T07:41:54.89Z</time></trkpt><trkpt lat="43.8808582" lon="11.1571307"><ele>75.8</ele><time>2026-03-28T07:41:55.904Z</time></trkpt><trkpt lat="43.8809119" lon="11.1570151"><ele>76.2</ele><time>2026-03-28T07:41:56.888Z</time></trkpt><trkpt lat="43.8809591" lon="11.1569093"><ele>76.6</ele><time>2026-03-28T07:41:57.88Z</time></trkpt><trkpt lat="43.8809922" lon="11.156821"><ele>77.0</ele><time>2026-03-28T07:41:58.881Z</time></trkpt><trkpt lat="43.8810417" lon="11.1567054"><ele>77.4</ele><time>2026-03-28T07:42:00.877Z</time></trkpt><trkpt lat="43.8811527" lon="11.1567157"><ele>77.80000000000001</ele><time>2026-03-28T07:42:02.873Z</time></trkpt><trkpt lat="43.881237" lon="11.1567694"><ele>78.2</ele><time>2026-03-28T07:42:03.87Z</time></trkpt><trkpt lat="43.88133" lon="11.1568265"><ele>78.60000000000001</ele><time>2026-03-28T07:42:04.874Z</time></trkpt><trkpt lat="43.8814237" lon="11.1568783"><ele>79.0</ele><time>2026-03-28T07:42:05.871Z</time></trkpt><trkpt lat="43.8815227" lon="11.1569214"><ele>79.0</ele><time>2026-03-28T07:42:06.874Z</time></trkpt><trkpt lat="43.8816139" lon="11.1569636"><ele>79.0</ele><time>2026-03-28T07:42:07.884Z</time></trkpt><trkpt lat="43.8816925" lon="11.157008"><ele>79.0</ele><time>2026-03-28T07:42:08.885Z</time></trkpt><trkpt lat="43.8817526" lon="11.1570542"><ele>79.0</ele><time>2026-03-28T07:42:09.875Z</time></trkpt><trkpt lat="43.8817797" lon="11.1571534"><ele>79.0</ele><time>2026-03-28T07:42:11.88Z</time></trkpt><trkpt lat="43.8816929" lon="11.1572469"><ele>79.0</ele><time>2026-03-28T07:42:13.889Z</time></trkpt><trkpt lat="43.8816176" lon="11.1572976"><ele>79.0</ele><time>2026-03-28T07:42:14.882Z</time></trkpt><trkpt lat="43.8815427" lon="11.1573606"><ele>79.0</ele><time>2026-03-28T07:42:15.884Z</time></trkpt><trkpt lat="43.8814792" lon="11.1574375"><ele>79.0</ele><time>2026-03-28T07:42:16.873Z</time></trkpt><trkpt lat="43.8814321" lon="11.1575454"><ele>79.0</ele><time>2026-03-28T07:42:17.875Z</time></trkpt><trkpt lat="43.8814029" lon="11.1576707"><ele>79.0</ele><time>2026-03-28T07:42:18.869Z</time></trkpt><trkpt lat="43.8813981" lon="11.1577814"><ele>79.0</ele><time>2026-03-28T07:42:19.874Z</time></trkpt><trkpt lat="43.8814544" lon="11.1579169"><ele>79.4</ele><time>2026-03-28T07:42:21.879Z</time></trkpt><trkpt lat="43.8815156" lon="11.1579603"><ele>79.80000000000001</ele><time>2026-03-28T07:42:22.88Z</time></trkpt><trkpt lat="43.8815978" lon="11.1580206"><ele>80.19999999999999</ele><time>2026-03-28T07:42:23.876Z</time></trkpt><trkpt lat="43.881696" lon="11.158112"><ele>80.6</ele><time>2026-03-28T07:42:24.88Z</time></trkpt><trkpt lat="43.8818023" lon="11.1582196"><ele>81.0</ele><time>2026-03-28T07:42:25.877Z</time></trkpt><trkpt lat="43.8819077" lon="11.1583324"><ele>83.75</ele><time>2026-03-28T07:42:26.893Z</time></trkpt><trkpt lat="43.8820093" lon="11.1584427"><ele>86.5</ele><time>2026-03-28T07:42:27.876Z</time></trkpt><trkpt lat="43.8821077" lon="11.1585456"><ele>89.25</ele><time>2026-03-28T07:42:28.875Z</time></trkpt><trkpt lat="43.8821987" lon="11.1586389"><ele>92.0</ele><time>2026-03-28T07:42:29.877Z</time></trkpt><trkpt lat="43.882282" lon="11.1587333"><ele>92.0</ele><time>2026-03-28T07:42:30.875Z</time></trkpt><trkpt lat="43.8823534" lon="11.1588343"><ele>92.0</ele><time>2026-03-28T07:42:31.872Z</time></trkpt><trkpt lat="43.8824168" lon="11.1589359"><ele>92.0</ele><time>2026-03-28T07:42:32.87Z</time></trkpt><trkpt lat="43.8824837" lon="11.1590316"><ele>92.0</ele><time>2026-03-28T07:42:33.868Z</time></trkpt><trkpt lat="43.8825525" lon="11.1591244"><ele>92.0</ele><time>2026-03-28T07:42:34.874Z</time></trkpt><trkpt lat="43.8826224" lon="11.1592185"><ele>96.0</ele><time>2026-03-28T07:42:35.866Z</time></trkpt><trkpt lat="43.8826893" lon="11.1593122"><ele>100.0</ele><time>2026-03-28T07:42:36.865Z</time></trkpt><trkpt lat="43.8827615" lon="11.1594036"><ele>103.99999999999999</ele><time>2026-03-28T07:42:37.865Z</time></trkpt><trkpt lat="43.8828383" lon="11.1594945"><ele>108.0</ele><time>2026-03-28T07:42:38.876Z</time></trkpt><trkpt lat="43.8829223" lon="11.159577"><ele>112.0</ele><time>2026-03-28T07:42:39.877Z</time></trkpt><trkpt lat="43.8830083" lon="11.1596554"><ele>112.0</ele><time>2026-03-28T07:42:40.87Z</time></trkpt><trkpt lat="43.8830898" lon="11.159737"><ele>111.99999999999999</ele><time>2026-03-28T07:42:41.871Z</time></trkpt><trkpt lat="43.8831665" lon="11.159825"><ele>111.99999999999999</ele><time>2026-03-28T07:42:42.878Z</time></trkpt><trkpt lat="43.8832444" lon="11.1599157"><ele>112.0</ele><time>2026-03-28T07:42:43.879Z</time></trkpt><trkpt lat="43.8833199" lon="11.1600012"><ele>112.0</ele><time>2026-03-28T07:42:44.883Z</time></trkpt><trkpt lat="43.8833895" lon="11.1600747"><ele>113.50000000000001</ele><time>2026-03-28T07:42:45.875Z</time></trkpt><trkpt lat="43.8834568" lon="11.1601292"><ele>115.0</ele><time>2026-03-28T07:42:46.873Z</time></trkpt><trkpt lat="43.8835321" lon="11.1601683"><ele>116.5</ele><time>2026-03-28T07:42:47.872Z</time></trkpt><trkpt lat="43.8836156" lon="11.1602079"><ele>118.0</ele><time>2026-03-28T07:42:48.873Z</time></trkpt><trkpt lat="43.8837063" lon="11.1602483"><ele>119.50000000000001</ele><time>2026-03-28T07:42:49.877Z</time></trkpt><trkpt lat="43.8837899" lon="11.160279"><ele>121.0</ele><time>2026-03-28T07:42:50.876Z</time></trkpt><trkpt lat="43.88386" lon="11.1602816"><ele>121.00000000000001</ele><time>2026-03-28T07:42:51.879Z</time></trkpt><trkpt lat="43.8839173" lon="11.1602405"><ele>121.0</ele><time>2026-03-28T07:42:52.878Z</time></trkpt><trkpt lat="43.8839652" lon="11.1601683"><ele>121.0</ele><time>2026-03-28T07:42:53.88Z</time></trkpt><trkpt lat="43.884008" lon="11.1600767"><ele>121.0</ele><time>2026-03-28T07:42:54.873Z</time></trkpt><trkpt lat="43.8840524" lon="11.1599722"><ele>121.00000000000001</ele><time>2026-03-28T07:42:55.871Z</time></trkpt><trkpt lat="43.8840975" lon="11.1598571"><ele>121.0</ele><time>2026-03-28T07:42:56.868Z</time></trkpt><trkpt lat="43.8841433" lon="11.1597453"><ele>120.8</ele><time>2026-03-28T07:42:57.884Z</time></trkpt><trkpt lat="43.8841934" lon="11.159655"><ele>120.6</ele><time>2026-03-28T07:42:58.873Z</time></trkpt><trkpt lat="43.8842917" lon="11.1595697"><ele>120.4</ele><time>2026-03-28T07:43:00.88Z</time></trkpt><trkpt lat="43.8844058" lon="11.1596505"><ele>120.2</ele><time>2026-03-28T07:43:02.877Z</time></trkpt><trkpt lat="43.8844673" lon="11.1597553"><ele>120.0</ele><time>2026-03-28T07:43:03.876Z</time></trkpt><trkpt lat="43.8845505" lon="11.1598668"><ele>120.75</ele><time>2026-03-28T07:43:04.877Z</time></trkpt><trkpt lat="43.8846401" lon="11.1599764"><ele>121.5</ele><time>2026-03-28T07:43:05.873Z</time></trkpt><trkpt lat="43.8847413" lon="11.1600933"><ele>122.25</ele><time>2026-03-28T07:43:06.88Z</time></trkpt><trkpt lat="43.8848421" lon="11.1602114"><ele>123.0</ele><time>2026-03-28T07:43:07.878Z</time></trkpt><trkpt lat="43.8849425" lon="11.1603205"><ele>123.0</ele><time>2026-03-28T07:43:08.879Z</time></trkpt><trkpt lat="43.8850452" lon="11.1604241"><ele>123.0</ele><time>2026-03-28T07:43:09.876Z</time></trkpt><trkpt lat="43.8851458" lon="11.1605274"><ele>123.0</ele><time>2026-03-28T07:43:10.88Z</time></trkpt><trkpt lat="43.8852448" lon="11.1606355"><ele>123.0</ele><time>2026-03-28T07:43:11.887Z</time></trkpt><trkpt lat="43.8853433" lon="11.1607451"><ele>126.0</ele><time>2026-03-28T07:43:12.886Z</time></trkpt><trkpt lat="43.8854474" lon="11.1608511"><ele>129.0</ele><time>2026-03-28T07:43:13.884Z</time></trkpt><trkpt lat="43.8855459" lon="11.1609523"><ele>132.0</ele><time>2026-03-28T07:43:14.887Z</time></trkpt><trkpt lat="43.8856418" lon="11.1610393"><ele>135.0</ele><time>2026-03-28T07:43:15.879Z</time></trkpt><trkpt lat="43.8857209" lon="11.1611093"><ele>135.0</ele><time>2026-03-28T07:43:16.885Z</time></trkpt><trkpt lat="43.8857951" lon="11.1611567"><ele>135.0</ele><time>2026-03-28T07:43:17.878Z</time></trkpt><trkpt lat="43.8858557" lon="11.1611975"><ele>135.0</ele><time>2026-03-28T07:43:18.878Z</time></trkpt><trkpt lat="43.8859121" lon="11.1612448"><ele>135.0</ele><time>2026-03-28T07:43:19.883Z</time></trkpt><trkpt lat="43.8859824" lon="11.1613113"><ele>135.0</ele><time>2026-03-28T07:43:20.884Z</time></trkpt><trkpt lat="43.8860683" lon="11.161392"><ele>135.0</ele><time>2026-03-28T07:43:21.906Z</time></trkpt><trkpt lat="43.8861772" lon="11.1614973"><ele>136.0</ele><time>2026-03-28T07:43:22.885Z</time></trkpt><trkpt lat="43.8862957" lon="11.1616075"><ele>137.0</ele><time>2026-03-28T07:43:23.892Z</time></trkpt><trkpt lat="43.8864031" lon="11.1617055"><ele>138.0</ele><time>2026-03-28T07:43:24.892Z</time></trkpt><trkpt lat="43.8865022" lon="11.1617918"><ele>139.0</ele><time>2026-03-28T07:43:25.891Z</time></trkpt><trkpt lat="43.8865933" lon="11.1618684"><ele>139.0</ele><time>2026-03-28T07:43:26.895Z</time></trkpt><trkpt lat="43.8866841" lon="11.161934"><ele>139.0</ele><time>2026-03-28T07:43:27.886Z</time></trkpt><trkpt lat="43.886778" lon="11.1620088"><ele>139.0</ele><time>2026-03-28T07:43:28.897Z</time></trkpt><trkpt lat="43.8868688" lon="11.1620904"><ele>139.0</ele><time>2026-03-28T07:43:29.888Z</time></trkpt><trkpt lat="43.8869565" lon="11.1621655"><ele>139.0</ele><time>2026-03-28T07:43:30.897Z</time></trkpt><trkpt lat="43.887043" lon="11.162239"><ele>139.33333333333334</ele><time>2026-03-28T07:43:31.896Z</time></trkpt><trkpt lat="43.8871261" lon="11.162308"><ele>139.66666666666669</ele><time>2026-03-28T07:43:32.888Z</time></trkpt><trkpt lat="43.8872072" lon="11.1623717"><ele>140.0</ele><time>2026-03-28T07:43:33.876Z</time></trkpt><trkpt lat="43.8872811" lon="11.1624371"><ele>140.33333333333334</ele><time>2026-03-28T07:43:34.875Z</time></trkpt><trkpt lat="43.8873533" lon="11.1624987"><ele>140.66666666666666</ele><time>2026-03-28T07:43:35.876Z</time></trkpt><trkpt lat="43.8874201" lon="11.1625593"><ele>141.0</ele><time>2026-03-28T07:43:36.877Z</time></trkpt><trkpt lat="43.8874767" lon="11.1626146"><ele>141.16666666666666</ele><time>2026-03-28T07:43:37.875Z</time></trkpt><trkpt lat="43.8875301" lon="11.1626658"><ele>141.33333333333334</ele><time>2026-03-28T07:43:38.88Z</time></trkpt><trkpt lat="43.8876219" lon="11.1627346"><ele>141.5</ele><time>2026-03-28T07:43:40.881Z</time></trkpt><trkpt lat="43.8876992" lon="11.1627099"><ele>141.66666666666669</ele><time>2026-03-28T07:43:42.892Z</time></trkpt><trkpt lat="43.8877713" lon="11.1626667"><ele>141.83333333333334</ele><time>2026-03-28T07:43:44.899Z</time></trkpt><trkpt lat="43.8878357" lon="11.1627555"><ele>142.0</ele><time>2026-03-28T07:43:46.879Z</time></trkpt><trkpt lat="43.8878898" lon="11.1628522"><ele>142.0</ele><time>2026-03-28T07:43:47.872Z</time></trkpt><trkpt lat="43.8879438" lon="11.1629578"><ele>142.0</ele><time>2026-03-28T07:43:48.874Z</time></trkpt><trkpt lat="43.8879752" lon="11.1630656"><ele>142.0</ele><time>2026-03-28T07:43:49.875Z</time></trkpt><trkpt lat="43.8879896" lon="11.1631714"><ele>142.0</ele><time>2026-03-28T07:43:50.878Z</time></trkpt><trkpt lat="43.8879938" lon="11.1632726"><ele>142.0</ele><time>2026-03-28T07:43:51.886Z</time></trkpt><trkpt lat="43.887981" lon="11.1633655"><ele>142.0</ele><time>2026-03-28T07:43:52.884Z</time></trkpt><trkpt lat="43.8879604" lon="11.1634556"><ele>144.33333333333334</ele><time>2026-03-28T07:43:53.886Z</time></trkpt><trkpt lat="43.8879452" lon="11.1635428"><ele>146.66666666666669</ele><time>2026-03-28T07:43:54.885Z</time></trkpt><trkpt lat="43.8879191" lon="11.163706"><ele>149.0</ele><time>2026-03-28T07:43:56.887Z</time></trkpt><trkpt lat="43.8879401" lon="11.1638566"><ele>151.33333333333334</ele><time>2026-03-28T07:43:58.884Z</time></trkpt><trkpt lat="43.8879807" lon="11.1639376"><ele>153.66666666666666</ele><time>2026-03-28T07:43:59.917Z</time></trkpt><trkpt lat="43.8880287" lon="11.164016"><ele>156.0</ele><time>2026-03-28T07:44:00.874Z</time></trkpt><trkpt lat="43.8880803" lon="11.1640927"><ele>156.83333333333334</ele><time>2026-03-28T07:44:01.88Z</time></trkpt><trkpt lat="43.8881308" lon="11.1641732"><ele>157.66666666666666</ele><time>2026-03-28T07:44:02.879Z</time></trkpt><trkpt lat="43.8881746" lon="11.1642615"><ele>158.5</ele><time>2026-03-28T07:44:03.88Z</time></trkpt><trkpt lat="43.8882093" lon="11.1643593"><ele>159.33333333333331</ele><time>2026-03-28T07:44:04.888Z</time></trkpt><trkpt lat="43.8882435" lon="11.1644643"><ele>160.16666666666666</ele><time>2026-03-28T07:44:05.89Z</time></trkpt><trkpt lat="43.8882813" lon="11.1645792"><ele>161.0</ele><time>2026-03-28T07:44:06.885Z</time></trkpt><trkpt lat="43.8883227" lon="11.1647088"><ele>161.0</ele><time>2026-03-28T07:44:07.881Z</time></trkpt><trkpt lat="43.8883653" lon="11.1648295"><ele>161.0</ele><time>2026-03-28T07:44:08.89Z</time></trkpt><trkpt lat="43.8884029" lon="11.1649318"><ele>161.0</ele><time>2026-03-28T07:44:09.885Z</time></trkpt><trkpt lat="43.8884257" lon="11.1650303"><ele>161.0</ele><time>2026-03-28T07:44:10.89Z</time></trkpt><trkpt lat="43.8884385" lon="11.1651264"><ele>161.0</ele><time>2026-03-28T07:44:11.89Z</time></trkpt><trkpt lat="43.8884454" lon="11.1652225"><ele>161.0</ele><time>2026-03-28T07:44:12.882Z</time></trkpt><trkpt lat="43.888445" lon="11.1653164"><ele>163.5</ele><time>2026-03-28T07:44:13.883Z</time></trkpt><trkpt lat="43.8884454" lon="11.1654116"><ele>166.0</ele><time>2026-03-28T07:44:14.887Z</time></trkpt><trkpt lat="43.8884417" lon="11.1655117"><ele>168.5</ele><time>2026-03-28T07:44:15.889Z</time></trkpt><trkpt lat="43.8884441" lon="11.1656175"><ele>171.0</ele><time>2026-03-28T07:44:16.887Z</time></trkpt><trkpt lat="43.8884578" lon="11.165731"><ele>173.5</ele><time>2026-03-28T07:44:17.891Z</time></trkpt><trkpt lat="43.8884765" lon="11.1658535"><ele>176.0</ele><time>2026-03-28T07:44:18.879Z</time></trkpt><trkpt lat="43.8884933" lon="11.1659815"><ele>177.16666666666666</ele><time>2026-03-28T07:44:19.88Z</time></trkpt><trkpt lat="43.8885085" lon="11.1661058"><ele>178.33333333333331</ele><time>2026-03-28T07:44:20.877Z</time></trkpt><trkpt lat="43.8885269" lon="11.1662227"><ele>179.5</ele><time>2026-03-28T07:44:21.88Z</time></trkpt><trkpt lat="43.8885524" lon="11.1663292"><ele>180.66666666666666</ele><time>2026-03-28T07:44:22.882Z</time></trkpt><trkpt lat="43.8885808" lon="11.1664227"><ele>181.83333333333334</ele><time>2026-03-28T07:44:23.881Z</time></trkpt><trkpt lat="43.8886093" lon="11.1665146"><ele>183.0</ele><time>2026-03-28T07:44:24.881Z</time></trkpt><trkpt lat="43.8886312" lon="11.1666142"><ele>183.66666666666666</ele><time>2026-03-28T07:44:25.873Z</time></trkpt><trkpt lat="43.8886429" lon="11.1667301"><ele>184.33333333333334</ele><time>2026-03-28T07:44:26.871Z</time></trkpt><trkpt lat="43.8886504" lon="11.1668439"><ele>185.0</ele><time>2026-03-28T07:44:27.876Z</time></trkpt><trkpt lat="43.8886503" lon="11.1669382"><ele>185.66666666666669</ele><time>2026-03-28T07:44:28.879Z</time></trkpt><trkpt lat="43.8885892" lon="11.1670419"><ele>186.33333333333334</ele><time>2026-03-28T07:44:30.874Z</time></trkpt><trkpt lat="43.8884919" lon="11.16713"><ele>187.0</ele><time>2026-03-28T07:44:32.88Z</time></trkpt><trkpt lat="43.8883856" lon="11.1672394"><ele>186.33333333333334</ele><time>2026-03-28T07:44:34.886Z</time></trkpt><trkpt lat="43.8883224" lon="11.167296"><ele>185.66666666666669</ele><time>2026-03-28T07:44:35.887Z</time></trkpt><trkpt lat="43.8882586" lon="11.167357"><ele>185.0</ele><time>2026-03-28T07:44:36.88Z</time></trkpt><trkpt lat="43.8881923" lon="11.1674212"><ele>184.33333333333334</ele><time>2026-03-28T07:44:37.88Z</time></trkpt><trkpt lat="43.8881269" lon="11.1674887"><ele>183.66666666666666</ele><time>2026-03-28T07:44:38.876Z</time></trkpt><trkpt lat="43.8880688" lon="11.1675571"><ele>183.0</ele><time>2026-03-28T07:44:39.886Z</time></trkpt><trkpt lat="43.8880076" lon="11.1676083"><ele>183.0</ele><time>2026-03-28T07:44:40.9Z</time></trkpt><trkpt lat="43.887941" lon="11.1676429"><ele>183.0</ele><time>2026-03-28T07:44:41.882Z</time></trkpt><trkpt lat="43.8878638" lon="11.1676666"><ele>183.0</ele><time>2026-03-28T07:44:42.881Z</time></trkpt><trkpt lat="43.8877934" lon="11.1676891"><ele>183.0</ele><time>2026-03-28T07:44:43.873Z</time></trkpt><trkpt lat="43.8877075" lon="11.1677541"><ele>183.0</ele><time>2026-03-28T07:44:45.874Z</time></trkpt><trkpt lat="43.8876422" lon="11.1678183"><ele>183.0</ele><time>2026-03-28T07:44:47.88Z</time></trkpt><trkpt lat="43.8875616" lon="11.1678468"><ele>182.5</ele><time>2026-03-28T07:44:49.892Z</time></trkpt><trkpt lat="43.8874821" lon="11.1679148"><ele>182.0</ele><time>2026-03-28T07:44:51.888Z</time></trkpt><trkpt lat="43.8874604" lon="11.1680248"><ele>181.5</ele><time>2026-03-28T07:44:53.886Z</time></trkpt><trkpt lat="43.8874594" lon="11.1681274"><ele>181.0</ele><time>2026-03-28T07:44:55.888Z</time></trkpt><trkpt lat="43.8874454" lon="11.1682452"><ele>180.5</ele><time>2026-03-28T07:44:57.89Z</time></trkpt><trkpt lat="43.8874419" lon="11.1683733"><ele>180.0</ele><time>2026-03-28T07:44:59.89Z</time></trkpt><trkpt lat="43.8874422" lon="11.1685278"><ele>180.0</ele><time>2026-03-28T07:45:01.878Z</time></trkpt><trkpt lat="43.8874391" lon="11.1686938"><ele>180.0</ele><time>2026-03-28T07:45:03.876Z</time></trkpt><trkpt lat="43.8874441" lon="11.1687849"><ele>180.0</ele><time>2026-03-28T07:45:04.877Z</time></trkpt><trkpt lat="43.8874453" lon="11.1688785"><ele>180.0</ele><time>2026-03-28T07:45:05.876Z</time></trkpt><trkpt lat="43.8874398" lon="11.1689781"><ele>180.0</ele><time>2026-03-28T07:45:06.884Z</time></trkpt><trkpt lat="43.8874281" lon="11.1690833"><ele>180.0</ele><time>2026-03-28T07:45:07.883Z</time></trkpt><trkpt lat="43.8874143" lon="11.1691994"><ele>180.83333333333334</ele><time>2026-03-28T07:45:08.883Z</time></trkpt><trkpt lat="43.8874036" lon="11.1693122"><ele>181.66666666666666</ele><time>2026-03-28T07:45:09.87Z</time></trkpt><trkpt lat="43.8873995" lon="11.1694197"><ele>182.5</ele><time>2026-03-28T07:45:10.884Z</time></trkpt><trkpt lat="43.8874007" lon="11.1695252"><ele>183.33333333333331</ele><time>2026-03-28T07:45:11.884Z</time></trkpt><trkpt lat="43.8874026" lon="11.1696411"><ele>184.16666666666666</ele><time>2026-03-28T07:45:12.885Z</time></trkpt><trkpt lat="43.887404" lon="11.1697665"><ele>185.0</ele><time>2026-03-28T07:45:13.887Z</time></trkpt><trkpt lat="43.8874129" lon="11.1698821"><ele>185.0</ele><time>2026-03-28T07:45:14.891Z</time></trkpt><trkpt lat="43.887428" lon="11.1699801"><ele>185.0</ele><time>2026-03-28T07:45:15.887Z</time></trkpt><trkpt lat="43.8874767" lon="11.1701298"><ele>185.0</ele><time>2026-03-28T07:45:17.882Z</time></trkpt><trkpt lat="43.8875159" lon="11.1702171"><ele>185.0</ele><time>2026-03-28T07:45:19.883Z</time></trkpt><trkpt lat="43.8875291" lon="11.1701222"><ele>185.0</ele><time>2026-03-28T07:45:30.902Z</time></trkpt><trkpt lat="43.8876171" lon="11.1701528"><ele>185.0</ele><time>2026-03-28T07:45:38.896Z</time></trkpt><trkpt lat="43.8877094" lon="11.170168"><ele>186.66666666666666</ele><time>2026-03-28T07:45:40.896Z</time></trkpt><trkpt lat="43.8878229" lon="11.1701485"><ele>188.33333333333331</ele><time>2026-03-28T07:45:42.891Z</time></trkpt><trkpt lat="43.887887" lon="11.170147"><ele>190.0</ele><time>2026-03-28T07:45:43.88Z</time></trkpt><trkpt lat="43.8879556" lon="11.1701448"><ele>191.66666666666666</ele><time>2026-03-28T07:45:44.887Z</time></trkpt><trkpt lat="43.8880218" lon="11.1701481"><ele>193.33333333333334</ele><time>2026-03-28T07:45:45.888Z</time></trkpt><trkpt lat="43.8881365" lon="11.1701472"><ele>195.0</ele><time>2026-03-28T07:45:47.884Z</time></trkpt><trkpt lat="43.8882259" lon="11.1701022"><ele>195.0</ele><time>2026-03-28T07:45:49.888Z</time></trkpt><trkpt lat="43.8883066" lon="11.1700297"><ele>195.0</ele><time>2026-03-28T07:45:51.888Z</time></trkpt><trkpt lat="43.8884044" lon="11.1699555"><ele>195.0</ele><time>2026-03-28T07:45:53.885Z</time></trkpt><trkpt lat="43.8885092" lon="11.1698602"><ele>195.0</ele><time>2026-03-28T07:45:55.885Z</time></trkpt><trkpt lat="43.8885693" lon="11.1697931"><ele>195.0</ele><time>2026-03-28T07:45:56.885Z</time></trkpt><trkpt lat="43.8886315" lon="11.1697111"><ele>196.2</ele><time>2026-03-28T07:45:57.887Z</time></trkpt><trkpt lat="43.8887006" lon="11.1696222"><ele>197.4</ele><time>2026-03-28T07:45:58.889Z</time></trkpt><trkpt lat="43.8887743" lon="11.1695392"><ele>198.60000000000002</ele><time>2026-03-28T07:45:59.893Z</time></trkpt><trkpt lat="43.8888567" lon="11.16947"><ele>199.8</ele><time>2026-03-28T07:46:00.89Z</time></trkpt><trkpt lat="43.8889384" lon="11.1694082"><ele>201.0</ele><time>2026-03-28T07:46:01.887Z</time></trkpt><trkpt lat="43.8890114" lon="11.1693542"><ele>201.0</ele><time>2026-03-28T07:46:02.906Z</time></trkpt><trkpt lat="43.8890841" lon="11.169311"><ele>201.0</ele><time>2026-03-28T07:46:03.896Z</time></trkpt><trkpt lat="43.8891611" lon="11.169278"><ele>201.0</ele><time>2026-03-28T07:46:04.888Z</time></trkpt><trkpt lat="43.8892439" lon="11.1692558"><ele>201.0</ele><time>2026-03-28T07:46:05.885Z</time></trkpt><trkpt lat="43.8893373" lon="11.1692357"><ele>201.0</ele><time>2026-03-28T07:46:06.893Z</time></trkpt><trkpt lat="43.8894343" lon="11.1692065"><ele>201.0</ele><time>2026-03-28T07:46:07.883Z</time></trkpt><trkpt lat="43.8895328" lon="11.1691714"><ele>201.20000000000002</ele><time>2026-03-28T07:46:08.884Z</time></trkpt><trkpt lat="43.8896325" lon="11.1691374"><ele>201.4</ele><time>2026-03-28T07:46:09.885Z</time></trkpt><trkpt lat="43.8897261" lon="11.1691048"><ele>201.6</ele><time>2026-03-28T07:46:10.894Z</time></trkpt><trkpt lat="43.8898207" lon="11.1690683"><ele>201.8</ele><time>2026-03-28T07:46:11.886Z</time></trkpt><trkpt lat="43.8899177" lon="11.1690343"><ele>202.0</ele><time>2026-03-28T07:46:12.889Z</time></trkpt><trkpt lat="43.8900135" lon="11.169"><ele>203.49999999999997</ele><time>2026-03-28T07:46:13.885Z</time></trkpt><trkpt lat="43.8901006" lon="11.1689708"><ele>205.0</ele><time>2026-03-28T07:46:14.881Z</time></trkpt><trkpt lat="43.8901766" lon="11.1689492"><ele>206.5</ele><time>2026-03-28T07:46:15.877Z</time></trkpt><trkpt lat="43.8902501" lon="11.1689272"><ele>208.0</ele><time>2026-03-28T07:46:16.877Z</time></trkpt><trkpt lat="43.8903256" lon="11.1688975"><ele>209.49999999999997</ele><time>2026-03-28T07:46:17.878Z</time></trkpt><trkpt lat="43.8904043" lon="11.168863"><ele>211.0</ele><time>2026-03-28T07:46:18.883Z</time></trkpt><trkpt lat="43.8904825" lon="11.1688196"><ele>210.99999999999997</ele><time>2026-03-28T07:46:19.886Z</time></trkpt><trkpt lat="43.8905649" lon="11.1687701"><ele>211.0</ele><time>2026-03-28T07:46:20.893Z</time></trkpt><trkpt lat="43.8906465" lon="11.1687193"><ele>211.0</ele><time>2026-03-28T07:46:21.893Z</time></trkpt><trkpt lat="43.8907224" lon="11.1686606"><ele>211.0</ele><time>2026-03-28T07:46:22.887Z</time></trkpt><trkpt lat="43.8908009" lon="11.1685945"><ele>210.99999999999997</ele><time>2026-03-28T07:46:23.892Z</time></trkpt><trkpt lat="43.8908782" lon="11.1685309"><ele>211.0</ele><time>2026-03-28T07:46:24.89Z</time></trkpt><trkpt lat="43.8909526" lon="11.1684722"><ele>210.14285714285714</ele><time>2026-03-28T07:46:25.896Z</time></trkpt><trkpt lat="43.8910206" lon="11.1684192"><ele>209.28571428571428</ele><time>2026-03-28T07:46:26.893Z</time></trkpt><trkpt lat="43.8910888" lon="11.1683701"><ele>208.42857142857144</ele><time>2026-03-28T07:46:27.896Z</time></trkpt><trkpt lat="43.8911509" lon="11.1683346"><ele>207.57142857142856</ele><time>2026-03-28T07:46:28.882Z</time></trkpt><trkpt lat="43.8912151" lon="11.1683134"><ele>206.7142857142857</ele><time>2026-03-28T07:46:29.879Z</time></trkpt><trkpt lat="43.8912878" lon="11.1683129"><ele>205.85714285714286</ele><time>2026-03-28T07:46:30.881Z</time></trkpt><trkpt lat="43.8913678" lon="11.1683199"><ele>205.0</ele><time>2026-03-28T07:46:31.886Z</time></trkpt><trkpt lat="43.8914548" lon="11.1683411"><ele>205.0</ele><time>2026-03-28T07:46:32.882Z</time></trkpt><trkpt lat="43.8915438" lon="11.1683635"><ele>205.0</ele><time>2026-03-28T07:46:33.89Z</time></trkpt><trkpt lat="43.891638" lon="11.1683864"><ele>205.0</ele><time>2026-03-28T07:46:34.877Z</time></trkpt><trkpt lat="43.8917324" lon="11.1684159"><ele>205.0</ele><time>2026-03-28T07:46:35.879Z</time></trkpt><trkpt lat="43.891828" lon="11.1684425"><ele>205.0</ele><time>2026-03-28T07:46:36.885Z</time></trkpt><trkpt lat="43.8919151" lon="11.1684626"><ele>204.66666666666666</ele><time>2026-03-28T07:46:37.879Z</time></trkpt><trkpt lat="43.891992" lon="11.1684785"><ele>204.33333333333331</ele><time>2026-03-28T07:46:38.879Z</time></trkpt><trkpt lat="43.8920601" lon="11.1685094"><ele>204.0</ele><time>2026-03-28T07:46:39.882Z</time></trkpt><trkpt lat="43.8921215" lon="11.1685501"><ele>203.66666666666669</ele><time>2026-03-28T07:46:40.88Z</time></trkpt><trkpt lat="43.8921747" lon="11.1686052"><ele>203.33333333333334</ele><time>2026-03-28T07:46:41.879Z</time></trkpt><trkpt lat="43.8922464" lon="11.1686779"><ele>203.0</ele><time>2026-03-28T07:46:43.884Z</time></trkpt><trkpt lat="43.8923501" lon="11.1686353"><ele>203.0</ele><time>2026-03-28T07:46:45.886Z</time></trkpt><trkpt lat="43.8924152" lon="11.1686198"><ele>203.0</ele><time>2026-03-28T07:46:46.877Z</time></trkpt><trkpt lat="43.892528" lon="11.1686405"><ele>203.0</ele><time>2026-03-28T07:46:48.887Z</time></trkpt><trkpt lat="43.8926077" lon="11.1687477"><ele>203.0</ele><time>2026-03-28T07:46:50.882Z</time></trkpt><trkpt lat="43.8927125" lon="11.1688488"><ele>203.0</ele><time>2026-03-28T07:46:52.884Z</time></trkpt><trkpt lat="43.892776" lon="11.1688879"><ele>203.71428571428572</ele><time>2026-03-28T07:46:53.885Z</time></trkpt><trkpt lat="43.892854" lon="11.1689194"><ele>204.42857142857144</ele><time>2026-03-28T07:46:54.885Z</time></trkpt><trkpt lat="43.8929358" lon="11.1689367"><ele>205.14285714285714</ele><time>2026-03-28T07:46:55.881Z</time></trkpt><trkpt lat="43.8930139" lon="11.1689403"><ele>205.85714285714286</ele><time>2026-03-28T07:46:56.878Z</time></trkpt><trkpt lat="43.8930837" lon="11.1689514"><ele>206.57142857142858</ele><time>2026-03-28T07:46:57.877Z</time></trkpt><trkpt lat="43.8931452" lon="11.1689818"><ele>207.28571428571428</ele><time>2026-03-28T07:46:58.877Z</time></trkpt><trkpt lat="43.8931997" lon="11.1690317"><ele>208.0</ele><time>2026-03-28T07:46:59.878Z</time></trkpt><trkpt lat="43.8932931" lon="11.1691439"><ele>207.99999999999997</ele><time>2026-03-28T07:47:01.884Z</time></trkpt><trkpt lat="43.8933489" lon="11.169191"><ele>208.0</ele><time>2026-03-28T07:47:02.885Z</time></trkpt><trkpt lat="43.8934097" lon="11.1692348"><ele>208.0</ele><time>2026-03-28T07:47:03.884Z</time></trkpt><trkpt lat="43.8934804" lon="11.1692813"><ele>208.0</ele><time>2026-03-28T07:47:04.888Z</time></trkpt><trkpt lat="43.8935433" lon="11.1693481"><ele>207.99999999999997</ele><time>2026-03-28T07:47:05.876Z</time></trkpt><trkpt lat="43.8936035" lon="11.1694267"><ele>208.0</ele><time>2026-03-28T07:47:06.878Z</time></trkpt><trkpt lat="43.8936588" lon="11.1695196"><ele>208.0</ele><time>2026-03-28T07:47:07.886Z</time></trkpt><trkpt lat="43.8937109" lon="11.1696018"><ele>208.0</ele><time>2026-03-28T07:47:08.882Z</time></trkpt><trkpt lat="43.8937657" lon="11.1696509"><ele>208.0</ele><time>2026-03-28T07:47:09.873Z</time></trkpt><trkpt lat="43.8938306" lon="11.1696864"><ele>208.0</ele><time>2026-03-28T07:47:10.88Z</time></trkpt><trkpt lat="43.8938937" lon="11.1697306"><ele>208.0</ele><time>2026-03-28T07:47:11.875Z</time></trkpt><trkpt lat="43.8939478" lon="11.1697955"><ele>208.0</ele><time>2026-03-28T07:47:12.881Z</time></trkpt><trkpt lat="43.8940016" lon="11.1698948"><ele>208.0</ele><time>2026-03-28T07:47:13.878Z</time></trkpt><trkpt lat="43.8940533" lon="11.1700232"><ele>208.83333333333331</ele><time>2026-03-28T07:47:14.872Z</time></trkpt><trkpt lat="43.8941015" lon="11.1701479"><ele>209.66666666666666</ele><time>2026-03-28T07:47:15.874Z</time></trkpt><trkpt lat="43.89415" lon="11.1702506"><ele>210.5</ele><time>2026-03-28T07:47:16.874Z</time></trkpt><trkpt lat="43.8941939" lon="11.1703377"><ele>211.33333333333331</ele><time>2026-03-28T07:47:17.873Z</time></trkpt><trkpt lat="43.8942415" lon="11.1704084"><ele>212.16666666666666</ele><time>2026-03-28T07:47:18.875Z</time></trkpt><trkpt lat="43.8942993" lon="11.1704783"><ele>213.0</ele><time>2026-03-28T07:47:19.88Z</time></trkpt><trkpt lat="43.8943583" lon="11.1705461"><ele>212.99999999999997</ele><time>2026-03-28T07:47:20.883Z</time></trkpt><trkpt lat="43.894408" lon="11.1706106"><ele>213.0</ele><time>2026-03-28T07:47:21.879Z</time></trkpt><trkpt lat="43.8944447" lon="11.1706821"><ele>213.0</ele><time>2026-03-28T07:47:22.88Z</time></trkpt><trkpt lat="43.8944664" lon="11.1707739"><ele>213.0</ele><time>2026-03-28T07:47:23.881Z</time></trkpt><trkpt lat="43.8944848" lon="11.1708803"><ele>213.0</ele><time>2026-03-28T07:47:24.883Z</time></trkpt><trkpt lat="43.8944999" lon="11.1709907"><ele>212.99999999999997</ele><time>2026-03-28T07:47:25.88Z</time></trkpt><trkpt lat="43.8945149" lon="11.1710789"><ele>213.0</ele><time>2026-03-28T07:47:26.883Z</time></trkpt><trkpt lat="43.8945548" lon="11.1711925"><ele>211.4</ele><time>2026-03-28T07:47:28.891Z</time></trkpt><trkpt lat="43.8945951" lon="11.1712918"><ele>209.8</ele><time>2026-03-28T07:47:30.894Z</time></trkpt><trkpt lat="43.8946318" lon="11.1714023"><ele>208.2</ele><time>2026-03-28T07:47:32.899Z</time></trkpt><trkpt lat="43.8946354" lon="11.1714907"><ele>206.6</ele><time>2026-03-28T07:47:34.892Z</time></trkpt><trkpt lat="43.8945508" lon="11.1715853"><ele>205.0</ele><time>2026-03-28T07:47:37.904Z</time></trkpt><trkpt lat="43.8944654" lon="11.1716881"><ele>203.83333333333331</ele><time>2026-03-28T07:47:39.888Z</time></trkpt><trkpt lat="43.8943994" lon="11.171838"><ele>202.66666666666666</ele><time>2026-03-28T07:47:41.875Z</time></trkpt><trkpt lat="43.8943759" lon="11.1719246"><ele>201.5</ele><time>2026-03-28T07:47:42.877Z</time></trkpt><trkpt lat="43.8943582" lon="11.1720097"><ele>200.33333333333331</ele><time>2026-03-28T07:47:43.876Z</time></trkpt><trkpt lat="43.8943404" lon="11.1721028"><ele>199.16666666666666</ele><time>2026-03-28T07:47:44.887Z</time></trkpt><trkpt lat="43.8943209" lon="11.1722022"><ele>198.0</ele><time>2026-03-28T07:47:45.886Z</time></trkpt><trkpt lat="43.8942974" lon="11.1723019"><ele>196.66666666666666</ele><time>2026-03-28T07:47:46.884Z</time></trkpt><trkpt lat="43.8942645" lon="11.1723875"><ele>195.33333333333334</ele><time>2026-03-28T07:47:47.891Z</time></trkpt><trkpt lat="43.8942296" lon="11.1724764"><ele>194.0</ele><time>2026-03-28T07:47:48.892Z</time></trkpt><trkpt lat="43.8941973" lon="11.1725668"><ele>192.66666666666669</ele><time>2026-03-28T07:47:49.893Z</time></trkpt><trkpt lat="43.8941422" lon="11.17271"><ele>191.33333333333334</ele><time>2026-03-28T07:47:51.895Z</time></trkpt><trkpt lat="43.8941034" lon="11.1727956"><ele>190.0</ele><time>2026-03-28T07:47:53.906Z</time></trkpt><trkpt lat="43.8940659" lon="11.1728935"><ele>189.5</ele><time>2026-03-28T07:47:55.909Z</time></trkpt><trkpt lat="43.8940418" lon="11.17303"><ele>189.0</ele><time>2026-03-28T07:47:57.91Z</time></trkpt><trkpt lat="43.8940298" lon="11.1731392"><ele>188.5</ele><time>2026-03-28T07:47:58.902Z</time></trkpt><trkpt lat="43.8940069" lon="11.1732617"><ele>188.0</ele><time>2026-03-28T07:47:59.904Z</time></trkpt><trkpt lat="43.893981" lon="11.1733616"><ele>187.5</ele><time>2026-03-28T07:48:00.903Z</time></trkpt><trkpt lat="43.8939573" lon="11.1734555"><ele>187.0</ele><time>2026-03-28T07:48:01.899Z</time></trkpt><trkpt lat="43.8939158" lon="11.1736201"><ele>186.33333333333334</ele><time>2026-03-28T07:48:03.899Z</time></trkpt><trkpt lat="43.8938872" lon="11.1737621"><ele>185.66666666666669</ele><time>2026-03-28T07:48:05.898Z</time></trkpt><trkpt lat="43.8938629" lon="11.1738704"><ele>185.0</ele><time>2026-03-28T07:48:07.904Z</time></trkpt><trkpt lat="43.8938223" lon="11.1739641"><ele>184.33333333333334</ele><time>2026-03-28T07:48:09.898Z</time></trkpt><trkpt lat="43.8937528" lon="11.17403"><ele>183.66666666666666</ele><time>2026-03-28T07:48:12.889Z</time></trkpt><trkpt lat="43.8936886" lon="11.1740683"><ele>183.0</ele><time>2026-03-28T07:48:14.889Z</time></trkpt><trkpt lat="43.8936391" lon="11.1741492"><ele>181.83333333333334</ele><time>2026-03-28T07:48:16.896Z</time></trkpt><trkpt lat="43.8935934" lon="11.1742454"><ele>180.66666666666666</ele><time>2026-03-28T07:48:18.898Z</time></trkpt><trkpt lat="43.8935537" lon="11.1743367"><ele>179.5</ele><time>2026-03-28T07:48:20.89Z</time></trkpt><trkpt lat="43.8935062" lon="11.174397"><ele>178.33333333333331</ele><time>2026-03-28T07:48:22.887Z</time></trkpt><trkpt lat="43.8934589" lon="11.1744887"><ele>177.16666666666666</ele><time>2026-03-28T07:48:25.894Z</time></trkpt><trkpt lat="43.8934409" lon="11.1745882"><ele>176.0</ele><time>2026-03-28T07:48:28.894Z</time></trkpt><trkpt lat="43.8934052" lon="11.1746809"><ele>174.60000000000002</ele><time>2026-03-28T07:48:31.907Z</time></trkpt><trkpt lat="43.8933454" lon="11.1747542"><ele>173.2</ele><time>2026-03-28T07:48:33.893Z</time></trkpt><trkpt lat="43.8932927" lon="11.1748527"><ele>171.8</ele><time>2026-03-28T07:48:35.901Z</time></trkpt><trkpt lat="43.893247" lon="11.1750003"><ele>170.39999999999998</ele><time>2026-03-28T07:48:37.911Z</time></trkpt><trkpt lat="43.8932103" lon="11.1751318"><ele>169.0</ele><time>2026-03-28T07:48:39.879Z</time></trkpt><trkpt lat="43.8931828" lon="11.1752571"><ele>167.83333333333334</ele><time>2026-03-28T07:48:41.885Z</time></trkpt><trkpt lat="43.8931554" lon="11.1753597"><ele>166.66666666666669</ele><time>2026-03-28T07:48:43.897Z</time></trkpt><trkpt lat="43.8931251" lon="11.1754572"><ele>165.5</ele><time>2026-03-28T07:48:45.884Z</time></trkpt><trkpt lat="43.8930893" lon="11.1755387"><ele>164.33333333333334</ele><time>2026-03-28T07:48:47.899Z</time></trkpt><trkpt lat="43.8930518" lon="11.1756331"><ele>163.16666666666666</ele><time>2026-03-28T07:48:49.897Z</time></trkpt><trkpt lat="43.8930246" lon="11.1757381"><ele>162.0</ele><time>2026-03-28T07:48:51.902Z</time></trkpt><trkpt lat="43.8929435" lon="11.175823"><ele>160.2</ele><time>2026-03-28T07:48:53.902Z</time></trkpt><trkpt lat="43.8928218" lon="11.1758779"><ele>158.39999999999998</ele><time>2026-03-28T07:48:55.898Z</time></trkpt><trkpt lat="43.8927415" lon="11.1759096"><ele>156.60000000000002</ele><time>2026-03-28T07:48:56.895Z</time></trkpt><trkpt lat="43.8926578" lon="11.1759335"><ele>154.8</ele><time>2026-03-28T07:48:57.894Z</time></trkpt><trkpt lat="43.8925707" lon="11.1759562"><ele>153.0</ele><time>2026-03-28T07:48:58.886Z</time></trkpt><trkpt lat="43.8924985" lon="11.1759838"><ele>151.0</ele><time>2026-03-28T07:48:59.884Z</time></trkpt><trkpt lat="43.8924205" lon="11.1761035"><ele>149.0</ele><time>2026-03-28T07:49:01.883Z</time></trkpt><trkpt lat="43.8924341" lon="11.1762014"><ele>147.0</ele><time>2026-03-28T07:49:02.875Z</time></trkpt><trkpt lat="43.8924725" lon="11.1763054"><ele>145.0</ele><time>2026-03-28T07:49:03.881Z</time></trkpt><trkpt lat="43.8925264" lon="11.1764174"><ele>143.0</ele><time>2026-03-28T07:49:04.887Z</time></trkpt><trkpt lat="43.8925942" lon="11.1765329"><ele>142.66666666666666</ele><time>2026-03-28T07:49:05.883Z</time></trkpt><trkpt lat="43.8926655" lon="11.1766412"><ele>142.33333333333331</ele><time>2026-03-28T07:49:06.89Z</time></trkpt><trkpt lat="43.8927393" lon="11.176726"><ele>142.0</ele><time>2026-03-28T07:49:07.901Z</time></trkpt><trkpt lat="43.8928102" lon="11.1767927"><ele>141.66666666666666</ele><time>2026-03-28T07:49:08.89Z</time></trkpt><trkpt lat="43.8928832" lon="11.1768445"><ele>141.33333333333334</ele><time>2026-03-28T07:49:09.891Z</time></trkpt><trkpt lat="43.8929531" lon="11.1768867"><ele>141.0</ele><time>2026-03-28T07:49:10.888Z</time></trkpt><trkpt lat="43.8930184" lon="11.1769373"><ele>141.0</ele><time>2026-03-28T07:49:11.884Z</time></trkpt><trkpt lat="43.893085" lon="11.1769807"><ele>141.0</ele><time>2026-03-28T07:49:12.887Z</time></trkpt><trkpt lat="43.893162" lon="11.1770018"><ele>141.0</ele><time>2026-03-28T07:49:13.889Z</time></trkpt><trkpt lat="43.8932582" lon="11.177018"><ele>141.0</ele><time>2026-03-28T07:49:14.891Z</time></trkpt><trkpt lat="43.8933508" lon="11.1770416"><ele>141.0</ele><time>2026-03-28T07:49:15.893Z</time></trkpt><trkpt lat="43.8934293" lon="11.1770697"><ele>141.0</ele><time>2026-03-28T07:49:16.882Z</time></trkpt><trkpt lat="43.8935411" lon="11.1771206"><ele>141.6</ele><time>2026-03-28T07:49:18.872Z</time></trkpt><trkpt lat="43.8936103" lon="11.1772262"><ele>142.2</ele><time>2026-03-28T07:49:20.872Z</time></trkpt><trkpt lat="43.8936357" lon="11.1773875"><ele>142.8</ele><time>2026-03-28T07:49:22.877Z</time></trkpt><trkpt lat="43.8936468" lon="11.1774944"><ele>143.4</ele><time>2026-03-28T07:49:23.88Z</time></trkpt><trkpt lat="43.8936536" lon="11.1776058"><ele>144.0</ele><time>2026-03-28T07:49:24.876Z</time></trkpt><trkpt lat="43.8936714" lon="11.1777208"><ele>142.00000000000003</ele><time>2026-03-28T07:49:25.878Z</time></trkpt><trkpt lat="43.8936908" lon="11.1778283"><ele>140.0</ele><time>2026-03-28T07:49:26.875Z</time></trkpt><trkpt lat="43.8937196" lon="11.177924"><ele>138.0</ele><time>2026-03-28T07:49:27.877Z</time></trkpt><trkpt lat="43.8937571" lon="11.1780062"><ele>136.0</ele><time>2026-03-28T07:49:28.873Z</time></trkpt><trkpt lat="43.8938013" lon="11.1780758"><ele>134.0</ele><time>2026-03-28T07:49:29.874Z</time></trkpt><trkpt lat="43.8938615" lon="11.1781372"><ele>132.00000000000003</ele><time>2026-03-28T07:49:30.886Z</time></trkpt><trkpt lat="43.8939271" lon="11.1781801"><ele>130.0</ele><time>2026-03-28T07:49:31.874Z</time></trkpt><trkpt lat="43.8939944" lon="11.1782135"><ele>127.57142857142858</ele><time>2026-03-28T07:49:32.876Z</time></trkpt><trkpt lat="43.8940686" lon="11.1782303"><ele>125.14285714285714</ele><time>2026-03-28T07:49:33.868Z</time></trkpt><trkpt lat="43.8941404" lon="11.1782488"><ele>122.71428571428572</ele><time>2026-03-28T07:49:34.88Z</time></trkpt><trkpt lat="43.894202" lon="11.1782816"><ele>120.28571428571429</ele><time>2026-03-28T07:49:35.886Z</time></trkpt><trkpt lat="43.8942666" lon="11.1783143"><ele>117.85714285714286</ele><time>2026-03-28T07:49:36.885Z</time></trkpt><trkpt lat="43.8943288" lon="11.1783614"><ele>115.42857142857143</ele><time>2026-03-28T07:49:37.882Z</time></trkpt><trkpt lat="43.8943794" lon="11.1784158"><ele>113.0</ele><time>2026-03-28T07:49:38.911Z</time></trkpt><trkpt lat="43.894398" lon="11.178545"><ele>113.0</ele><time>2026-03-28T07:49:40.899Z</time></trkpt><trkpt lat="43.8943666" lon="11.1786216"><ele>113.00000000000001</ele><time>2026-03-28T07:49:41.897Z</time></trkpt><trkpt lat="43.8943111" lon="11.1787262"><ele>113.00000000000001</ele><time>2026-03-28T07:49:42.889Z</time></trkpt><trkpt lat="43.8942567" lon="11.1788588"><ele>113.0</ele><time>2026-03-28T07:49:43.886Z</time></trkpt><trkpt lat="43.8942067" lon="11.1790055"><ele>113.0</ele><time>2026-03-28T07:49:44.885Z</time></trkpt><trkpt lat="43.8941654" lon="11.1791544"><ele>112.33333333333333</ele><time>2026-03-28T07:49:45.88Z</time></trkpt><trkpt lat="43.8941461" lon="11.1792768"><ele>111.66666666666666</ele><time>2026-03-28T07:49:46.894Z</time></trkpt><trkpt lat="43.8941518" lon="11.1793866"><ele>111.0</ele><time>2026-03-28T07:49:47.888Z</time></trkpt><trkpt lat="43.8941982" lon="11.1794772"><ele>110.33333333333334</ele><time>2026-03-28T07:49:48.882Z</time></trkpt><trkpt lat="43.8942663" lon="11.1795422"><ele>109.66666666666667</ele><time>2026-03-28T07:49:49.88Z</time></trkpt><trkpt lat="43.8943425" lon="11.1795953"><ele>109.0</ele><time>2026-03-28T07:49:50.898Z</time></trkpt><trkpt lat="43.8943953" lon="11.1796538"><ele>109.0</ele><time>2026-03-28T07:49:51.893Z</time></trkpt><trkpt lat="43.8943928" lon="11.1798072"><ele>109.0</ele><time>2026-03-28T07:49:53.885Z</time></trkpt><trkpt lat="43.8943459" lon="11.1799092"><ele>109.0</ele><time>2026-03-28T07:49:54.878Z</time></trkpt><trkpt lat="43.8942859" lon="11.1800278"><ele>109.0</ele><time>2026-03-28T07:49:55.878Z</time></trkpt><trkpt lat="43.8942313" lon="11.1801651"><ele>109.0</ele><time>2026-03-28T07:49:56.879Z</time></trkpt><trkpt lat="43.8941759" lon="11.1803212"><ele>108.4</ele><time>2026-03-28T07:49:57.879Z</time></trkpt><trkpt lat="43.8941191" lon="11.1804733"><ele>107.80000000000001</ele><time>2026-03-28T07:49:58.88Z</time></trkpt><trkpt lat="43.8940634" lon="11.1806087"><ele>107.19999999999999</ele><time>2026-03-28T07:49:59.881Z</time></trkpt><trkpt lat="43.8940073" lon="11.1807232"><ele>106.6</ele><time>2026-03-28T07:50:00.891Z</time></trkpt><trkpt lat="43.8939373" lon="11.1808279"><ele>106.0</ele><time>2026-03-28T07:50:01.888Z</time></trkpt><trkpt lat="43.8938725" lon="11.1809502"><ele>106.0</ele><time>2026-03-28T07:50:02.891Z</time></trkpt><trkpt lat="43.8938322" lon="11.1810782"><ele>106.0</ele><time>2026-03-28T07:50:03.882Z</time></trkpt><trkpt lat="43.8937928" lon="11.1812015"><ele>106.0</ele><time>2026-03-28T07:50:04.899Z</time></trkpt><trkpt lat="43.8937566" lon="11.1813179"><ele>106.0</ele><time>2026-03-28T07:50:05.884Z</time></trkpt><trkpt lat="43.8937162" lon="11.1814349"><ele>106.0</ele><time>2026-03-28T07:50:06.887Z</time></trkpt><trkpt lat="43.8936764" lon="11.1815444"><ele>105.83333333333334</ele><time>2026-03-28T07:50:07.884Z</time></trkpt><trkpt lat="43.8936461" lon="11.1816395"><ele>105.66666666666667</ele><time>2026-03-28T07:50:08.892Z</time></trkpt><trkpt lat="43.8936608" lon="11.1817985"><ele>105.5</ele><time>2026-03-28T07:50:10.879Z</time></trkpt><trkpt lat="43.8937158" lon="11.1818606"><ele>105.33333333333334</ele><time>2026-03-28T07:50:11.885Z</time></trkpt><trkpt lat="43.893799" lon="11.181906"><ele>105.16666666666667</ele><time>2026-03-28T07:50:12.883Z</time></trkpt><trkpt lat="43.8938891" lon="11.1819471"><ele>105.0</ele><time>2026-03-28T07:50:13.881Z</time></trkpt><trkpt lat="43.8939664" lon="11.1819809"><ele>105.0</ele><time>2026-03-28T07:50:14.882Z</time></trkpt><trkpt lat="43.8940389" lon="11.1820574"><ele>105.0</ele><time>2026-03-28T07:50:16.881Z</time></trkpt><trkpt lat="43.8940276" lon="11.1821755"><ele>105.0</ele><time>2026-03-28T07:50:18.892Z</time></trkpt><trkpt lat="43.8939803" lon="11.1822623"><ele>105.0</ele><time>2026-03-28T07:50:19.889Z</time></trkpt><trkpt lat="43.8939248" lon="11.1823708"><ele>105.0</ele><time>2026-03-28T07:50:20.89Z</time></trkpt><trkpt lat="43.8938597" lon="11.1824899"><ele>105.25</ele><time>2026-03-28T07:50:21.889Z</time></trkpt><trkpt lat="43.8937971" lon="11.182626"><ele>105.5</ele><time>2026-03-28T07:50:22.884Z</time></trkpt><trkpt lat="43.8937362" lon="11.1827678"><ele>105.75</ele><time>2026-03-28T07:50:23.889Z</time></trkpt><trkpt lat="43.8936836" lon="11.1829258"><ele>106.0</ele><time>2026-03-28T07:50:24.884Z</time></trkpt><trkpt lat="43.8936354" lon="11.1830944"><ele>106.0</ele><time>2026-03-28T07:50:25.884Z</time></trkpt><trkpt lat="43.8935884" lon="11.1832603"><ele>106.0</ele><time>2026-03-28T07:50:26.885Z</time></trkpt><trkpt lat="43.8935418" lon="11.1834161"><ele>106.0</ele><time>2026-03-28T07:50:27.879Z</time></trkpt><trkpt lat="43.8934948" lon="11.1835597"><ele>106.0</ele><time>2026-03-28T07:50:28.883Z</time></trkpt><trkpt lat="43.8934401" lon="11.1836838"><ele>105.6</ele><time>2026-03-28T07:50:29.882Z</time></trkpt><trkpt lat="43.8933933" lon="11.1837905"><ele>105.19999999999999</ele><time>2026-03-28T07:50:30.877Z</time></trkpt><trkpt lat="43.8933479" lon="11.1838843"><ele>104.80000000000001</ele><time>2026-03-28T07:50:31.882Z</time></trkpt><trkpt lat="43.8933017" lon="11.1839536"><ele>104.4</ele><time>2026-03-28T07:50:32.885Z</time></trkpt><trkpt lat="43.8931742" lon="11.1839415"><ele>104.0</ele><time>2026-03-28T07:50:34.88Z</time></trkpt><trkpt lat="43.8930935" lon="11.1838686"><ele>104.0</ele><time>2026-03-28T07:50:35.879Z</time></trkpt><trkpt lat="43.893" lon="11.1837725"><ele>104.0</ele><time>2026-03-28T07:50:36.874Z</time></trkpt><trkpt lat="43.8928962" lon="11.1836677"><ele>104.0</ele><time>2026-03-28T07:50:37.872Z</time></trkpt><trkpt lat="43.892785" lon="11.1835551"><ele>104.0</ele><time>2026-03-28T07:50:38.869Z</time></trkpt><trkpt lat="43.8926688" lon="11.183438"><ele>104.0</ele><time>2026-03-28T07:50:39.874Z</time></trkpt><trkpt lat="43.8925499" lon="11.183322"><ele>104.0</ele><time>2026-03-28T07:50:40.888Z</time></trkpt><trkpt lat="43.8924383" lon="11.1832233"><ele>104.0</ele><time>2026-03-28T07:50:41.873Z</time></trkpt><trkpt lat="43.8923371" lon="11.1831473"><ele>104.0</ele><time>2026-03-28T07:50:42.875Z</time></trkpt><trkpt lat="43.8922446" lon="11.1830939"><ele>104.0</ele><time>2026-03-28T07:50:43.877Z</time></trkpt><trkpt lat="43.8921699" lon="11.1830729"><ele>104.0</ele><time>2026-03-28T07:50:44.879Z</time></trkpt><trkpt lat="43.8921023" lon="11.1830906"><ele>104.0</ele><time>2026-03-28T07:50:45.877Z</time></trkpt><trkpt lat="43.892044" lon="11.1831337"><ele>104.0</ele><time>2026-03-28T07:50:46.878Z</time></trkpt><trkpt lat="43.8919895" lon="11.183201"><ele>104.0</ele><time>2026-03-28T07:50:47.881Z</time></trkpt><trkpt lat="43.8919521" lon="11.1832843"><ele>104.0</ele><time>2026-03-28T07:50:48.888Z</time></trkpt><trkpt lat="43.8919594" lon="11.1833819"><ele>104.0</ele><time>2026-03-28T07:50:49.881Z</time></trkpt><trkpt lat="43.8920046" lon="11.1834611"><ele>105.2</ele><time>2026-03-28T07:50:50.885Z</time></trkpt><trkpt lat="43.8920796" lon="11.1835012"><ele>106.4</ele><time>2026-03-28T07:50:51.881Z</time></trkpt><trkpt lat="43.8921738" lon="11.1835035"><ele>107.6</ele><time>2026-03-28T07:50:52.88Z</time></trkpt><trkpt lat="43.8922833" lon="11.1835028"><ele>108.8</ele><time>2026-03-28T07:50:53.879Z</time></trkpt><trkpt lat="43.8923908" lon="11.1835321"><ele>110.0</ele><time>2026-03-28T07:50:54.881Z</time></trkpt><trkpt lat="43.8925046" lon="11.1836011"><ele>110.25</ele><time>2026-03-28T07:50:55.878Z</time></trkpt><trkpt lat="43.8926138" lon="11.183712"><ele>110.5</ele><time>2026-03-28T07:50:56.877Z</time></trkpt><trkpt lat="43.8927216" lon="11.183847"><ele>110.75</ele><time>2026-03-28T07:50:57.881Z</time></trkpt><trkpt lat="43.8928218" lon="11.1839883"><ele>111.0</ele><time>2026-03-28T07:50:58.879Z</time></trkpt><trkpt lat="43.8929212" lon="11.1841311"><ele>111.0</ele><time>2026-03-28T07:50:59.878Z</time></trkpt><trkpt lat="43.893018" lon="11.1842803"><ele>111.0</ele><time>2026-03-28T07:51:00.881Z</time></trkpt><trkpt lat="43.8931131" lon="11.1844358"><ele>111.0</ele><time>2026-03-28T07:51:01.881Z</time></trkpt><trkpt lat="43.8931995" lon="11.1845805"><ele>111.0</ele><time>2026-03-28T07:51:02.884Z</time></trkpt><trkpt lat="43.8932885" lon="11.1847208"><ele>111.75</ele><time>2026-03-28T07:51:03.882Z</time></trkpt><trkpt lat="43.8933805" lon="11.1848658"><ele>112.5</ele><time>2026-03-28T07:51:04.878Z</time></trkpt><trkpt lat="43.8934715" lon="11.1850035"><ele>113.25</ele><time>2026-03-28T07:51:05.88Z</time></trkpt><trkpt lat="43.893557" lon="11.1851432"><ele>114.0</ele><time>2026-03-28T07:51:06.881Z</time></trkpt><trkpt lat="43.8936458" lon="11.1852816"><ele>114.0</ele><time>2026-03-28T07:51:07.878Z</time></trkpt><trkpt lat="43.8937351" lon="11.1854136"><ele>114.0</ele><time>2026-03-28T07:51:08.882Z</time></trkpt><trkpt lat="43.8938169" lon="11.1855571"><ele>114.0</ele><time>2026-03-28T07:51:09.881Z</time></trkpt><trkpt lat="43.8939025" lon="11.1856926"><ele>114.0</ele><time>2026-03-28T07:51:10.884Z</time></trkpt><trkpt lat="43.8939873" lon="11.1858252"><ele>114.75</ele><time>2026-03-28T07:51:11.892Z</time></trkpt><trkpt lat="43.8940739" lon="11.1859526"><ele>115.5</ele><time>2026-03-28T07:51:12.88Z</time></trkpt><trkpt lat="43.8941566" lon="11.1860821"><ele>116.25</ele><time>2026-03-28T07:51:13.881Z</time></trkpt><trkpt lat="43.8942401" lon="11.186211"><ele>117.0</ele><time>2026-03-28T07:51:14.879Z</time></trkpt><trkpt lat="43.8943253" lon="11.1863392"><ele>117.0</ele><time>2026-03-28T07:51:15.883Z</time></trkpt><trkpt lat="43.8944146" lon="11.1864642"><ele>117.0</ele><time>2026-03-28T07:51:16.881Z</time></trkpt><trkpt lat="43.8945088" lon="11.1865871"><ele>117.0</ele><time>2026-03-28T07:51:17.88Z</time></trkpt><trkpt lat="43.8946042" lon="11.1867085"><ele>117.0</ele><time>2026-03-28T07:51:18.881Z</time></trkpt><trkpt lat="43.8947044" lon="11.1868255"><ele>117.25</ele><time>2026-03-28T07:51:19.887Z</time></trkpt><trkpt lat="43.8948063" lon="11.1869425"><ele>117.5</ele><time>2026-03-28T07:51:20.878Z</time></trkpt><trkpt lat="43.894913" lon="11.187057"><ele>117.75</ele><time>2026-03-28T07:51:21.88Z</time></trkpt><trkpt lat="43.8950259" lon="11.1871697"><ele>118.0</ele><time>2026-03-28T07:51:22.881Z</time></trkpt><trkpt lat="43.8951379" lon="11.1872746"><ele>120.5</ele><time>2026-03-28T07:51:23.878Z</time></trkpt><trkpt lat="43.895254" lon="11.1873782"><ele>123.0</ele><time>2026-03-28T07:51:24.876Z</time></trkpt><trkpt lat="43.8953751" lon="11.1874629"><ele>125.5</ele><time>2026-03-28T07:51:25.88Z</time></trkpt><trkpt lat="43.8954838" lon="11.1875303"><ele>128.0</ele><time>2026-03-28T07:51:26.877Z</time></trkpt><trkpt lat="43.8955905" lon="11.1875922"><ele>127.99999999999999</ele><time>2026-03-28T07:51:27.875Z</time></trkpt><trkpt lat="43.8956855" lon="11.187642"><ele>128.0</ele><time>2026-03-28T07:51:28.879Z</time></trkpt><trkpt lat="43.8957833" lon="11.1876979"><ele>128.0</ele><time>2026-03-28T07:51:29.874Z</time></trkpt><trkpt lat="43.8958678" lon="11.1877445"><ele>128.0</ele><time>2026-03-28T07:51:30.874Z</time></trkpt><trkpt lat="43.8959408" lon="11.1877914"><ele>127.99999999999999</ele><time>2026-03-28T07:51:31.877Z</time></trkpt><trkpt lat="43.8959983" lon="11.1878371"><ele>128.0</ele><time>2026-03-28T07:51:32.873Z</time></trkpt><trkpt lat="43.8960567" lon="11.1879386"><ele>126.60000000000001</ele><time>2026-03-28T07:51:34.875Z</time></trkpt><trkpt lat="43.8960077" lon="11.188025"><ele>125.20000000000002</ele><time>2026-03-28T07:51:36.879Z</time></trkpt><trkpt lat="43.895954" lon="11.1881059"><ele>123.8</ele><time>2026-03-28T07:51:38.88Z</time></trkpt><trkpt lat="43.8959074" lon="11.1882036"><ele>122.4</ele><time>2026-03-28T07:51:40.88Z</time></trkpt><trkpt lat="43.8958461" lon="11.1883628"><ele>121.0</ele><time>2026-03-28T07:51:42.887Z</time></trkpt><trkpt lat="43.8958036" lon="11.1884597"><ele>124.19999999999999</ele><time>2026-03-28T07:51:43.872Z</time></trkpt><trkpt lat="43.8957539" lon="11.1885435"><ele>127.39999999999999</ele><time>2026-03-28T07:51:44.875Z</time></trkpt><trkpt lat="43.8956832" lon="11.1886493"><ele>130.6</ele><time>2026-03-28T07:51:46.878Z</time></trkpt><trkpt lat="43.8957458" lon="11.1887338"><ele>133.79999999999998</ele><time>2026-03-28T07:51:49.888Z</time></trkpt><trkpt lat="43.8958467" lon="11.188742"><ele>137.0</ele><time>2026-03-28T07:51:51.885Z</time></trkpt><trkpt lat="43.895945" lon="11.1887385"><ele>137.0</ele><time>2026-03-28T07:51:53.893Z</time></trkpt><trkpt lat="43.8960391" lon="11.1888097"><ele>137.0</ele><time>2026-03-28T07:51:55.886Z</time></trkpt><trkpt lat="43.896095" lon="11.1889249"><ele>137.0</ele><time>2026-03-28T07:51:57.882Z</time></trkpt><trkpt lat="43.8960606" lon="11.1890549"><ele>137.0</ele><time>2026-03-28T07:51:59.888Z</time></trkpt><trkpt lat="43.8959678" lon="11.1891623"><ele>137.0</ele><time>2026-03-28T07:52:01.864Z</time></trkpt><trkpt lat="43.8959079" lon="11.1892187"><ele>140.16666666666666</ele><time>2026-03-28T07:52:02.863Z</time></trkpt><trkpt lat="43.8958592" lon="11.1892766"><ele>143.33333333333331</ele><time>2026-03-28T07:52:03.862Z</time></trkpt><trkpt lat="43.8958058" lon="11.1893922"><ele>146.5</ele><time>2026-03-28T07:52:05.868Z</time></trkpt><trkpt lat="43.895839" lon="11.1895246"><ele>149.66666666666666</ele><time>2026-03-28T07:52:07.882Z</time></trkpt><trkpt lat="43.8958797" lon="11.1896228"><ele>152.83333333333334</ele><time>2026-03-28T07:52:09.876Z</time></trkpt><trkpt lat="43.895937" lon="11.1897186"><ele>156.0</ele><time>2026-03-28T07:52:11.89Z</time></trkpt><trkpt lat="43.896037" lon="11.1898114"><ele>160.0</ele><time>2026-03-28T07:52:14.886Z</time></trkpt><trkpt lat="43.8961011" lon="11.1898709"><ele>164.0</ele><time>2026-03-28T07:52:15.883Z</time></trkpt><trkpt lat="43.8961474" lon="11.1899305"><ele>168.0</ele><time>2026-03-28T07:52:16.869Z</time></trkpt><trkpt lat="43.8962054" lon="11.1900687"><ele>172.0</ele><time>2026-03-28T07:52:18.87Z</time></trkpt><trkpt lat="43.8962699" lon="11.1901904"><ele>176.0</ele><time>2026-03-28T07:52:20.875Z</time></trkpt><trkpt lat="43.8963603" lon="11.1902877"><ele>176.0</ele><time>2026-03-28T07:52:22.877Z</time></trkpt><trkpt lat="43.8964143" lon="11.190339"><ele>176.0</ele><time>2026-03-28T07:52:23.877Z</time></trkpt><trkpt lat="43.896472" lon="11.1903926"><ele>176.0</ele><time>2026-03-28T07:52:24.881Z</time></trkpt><trkpt lat="43.8965297" lon="11.1904405"><ele>176.0</ele><time>2026-03-28T07:52:25.884Z</time></trkpt><trkpt lat="43.8965863" lon="11.1904818"><ele>176.0</ele><time>2026-03-28T07:52:26.877Z</time></trkpt><trkpt lat="43.8966435" lon="11.1905196"><ele>176.0</ele><time>2026-03-28T07:52:27.877Z</time></trkpt><trkpt lat="43.8967512" lon="11.190578"><ele>176.0</ele><time>2026-03-28T07:52:29.876Z</time></trkpt><trkpt lat="43.8968613" lon="11.1906099"><ele>176.60000000000002</ele><time>2026-03-28T07:52:31.869Z</time></trkpt><trkpt lat="43.8969701" lon="11.1906306"><ele>177.2</ele><time>2026-03-28T07:52:33.871Z</time></trkpt><trkpt lat="43.8970839" lon="11.1906709"><ele>177.8</ele><time>2026-03-28T07:52:35.871Z</time></trkpt><trkpt lat="43.8971831" lon="11.1907476"><ele>178.39999999999998</ele><time>2026-03-28T07:52:37.874Z</time></trkpt><trkpt lat="43.8972536" lon="11.1908602"><ele>179.0</ele><time>2026-03-28T07:52:39.878Z</time></trkpt><trkpt lat="43.8972938" lon="11.1910088"><ele>180.6</ele><time>2026-03-28T07:52:41.88Z</time></trkpt><trkpt lat="43.897329" lon="11.1911314"><ele>182.2</ele><time>2026-03-28T07:52:43.88Z</time></trkpt><trkpt lat="43.8973508" lon="11.1912472"><ele>183.79999999999998</ele><time>2026-03-28T07:52:45.896Z</time></trkpt><trkpt lat="43.8973616" lon="11.1913581"><ele>185.39999999999998</ele><time>2026-03-28T07:52:47.892Z</time></trkpt><trkpt lat="43.8973042" lon="11.1914897"><ele>187.0</ele><time>2026-03-28T07:52:49.89Z</time></trkpt><trkpt lat="43.8971937" lon="11.1915684"><ele>187.66666666666669</ele><time>2026-03-28T07:52:51.884Z</time></trkpt><trkpt lat="43.897118" lon="11.1915701"><ele>188.33333333333334</ele><time>2026-03-28T07:52:52.879Z</time></trkpt><trkpt lat="43.8970375" lon="11.1915764"><ele>189.0</ele><time>2026-03-28T07:52:53.88Z</time></trkpt><trkpt lat="43.8969646" lon="11.1916015"><ele>189.66666666666666</ele><time>2026-03-28T07:52:54.878Z</time></trkpt><trkpt lat="43.896911" lon="11.1916486"><ele>190.33333333333331</ele><time>2026-03-28T07:52:55.876Z</time></trkpt><trkpt lat="43.8968313" lon="11.1917825"><ele>191.0</ele><time>2026-03-28T07:52:57.873Z</time></trkpt><trkpt lat="43.8968" lon="11.1918669"><ele>191.0</ele><time>2026-03-28T07:52:58.875Z</time></trkpt><trkpt lat="43.8967742" lon="11.1919648"><ele>191.0</ele><time>2026-03-28T07:52:59.875Z</time></trkpt><trkpt lat="43.8967471" lon="11.192073"><ele>191.0</ele><time>2026-03-28T07:53:00.876Z</time></trkpt><trkpt lat="43.8967185" lon="11.1921937"><ele>191.0</ele><time>2026-03-28T07:53:01.885Z</time></trkpt><trkpt lat="43.8966844" lon="11.1923299"><ele>191.0</ele><time>2026-03-28T07:53:02.892Z</time></trkpt><trkpt lat="43.8966438" lon="11.1924732"><ele>195.4</ele><time>2026-03-28T07:53:03.897Z</time></trkpt><trkpt lat="43.8966005" lon="11.1926174"><ele>199.8</ele><time>2026-03-28T07:53:04.893Z</time></trkpt><trkpt lat="43.8965526" lon="11.1927586"><ele>204.20000000000002</ele><time>2026-03-28T07:53:05.896Z</time></trkpt><trkpt lat="43.896511" lon="11.1928984"><ele>208.60000000000002</ele><time>2026-03-28T07:53:06.886Z</time></trkpt><trkpt lat="43.8964661" lon="11.1930435"><ele>213.0</ele><time>2026-03-28T07:53:07.892Z</time></trkpt><trkpt lat="43.8964183" lon="11.1931908"><ele>215.25</ele><time>2026-03-28T07:53:08.893Z</time></trkpt><trkpt lat="43.8963703" lon="11.193342"><ele>217.5</ele><time>2026-03-28T07:53:09.893Z</time></trkpt><trkpt lat="43.8963186" lon="11.1934944"><ele>219.75</ele><time>2026-03-28T07:53:10.892Z</time></trkpt><trkpt lat="43.8962621" lon="11.1936519"><ele>222.0</ele><time>2026-03-28T07:53:11.891Z</time></trkpt><trkpt lat="43.8962037" lon="11.1938216"><ele>222.0</ele><time>2026-03-28T07:53:12.89Z</time></trkpt><trkpt lat="43.8961473" lon="11.1940005"><ele>222.0</ele><time>2026-03-28T07:53:13.883Z</time></trkpt><trkpt lat="43.8960869" lon="11.1941937"><ele>222.0</ele><time>2026-03-28T07:53:14.887Z</time></trkpt><trkpt lat="43.8960151" lon="11.1944077"><ele>225.66666666666669</ele><time>2026-03-28T07:53:15.896Z</time></trkpt><trkpt lat="43.8959497" lon="11.1946145"><ele>229.33333333333334</ele><time>2026-03-28T07:53:16.884Z</time></trkpt><trkpt lat="43.8958887" lon="11.1948102"><ele>233.0</ele><time>2026-03-28T07:53:17.889Z</time></trkpt><trkpt lat="43.8958266" lon="11.1949992"><ele>236.75</ele><time>2026-03-28T07:53:18.886Z</time></trkpt><trkpt lat="43.8957679" lon="11.1951831"><ele>240.5</ele><time>2026-03-28T07:53:19.891Z</time></trkpt><trkpt lat="43.8957293" lon="11.1953459"><ele>244.25</ele><time>2026-03-28T07:53:20.882Z</time></trkpt><trkpt lat="43.8957122" lon="11.1954761"><ele>248.0</ele><time>2026-03-28T07:53:21.876Z</time></trkpt><trkpt lat="43.8957146" lon="11.1955973"><ele>250.25</ele><time>2026-03-28T07:53:22.875Z</time></trkpt><trkpt lat="43.8957221" lon="11.1957273"><ele>252.5</ele><time>2026-03-28T07:53:23.888Z</time></trkpt><trkpt lat="43.895723" lon="11.1958764"><ele>254.75</ele><time>2026-03-28T07:53:24.889Z</time></trkpt><trkpt lat="43.8957251" lon="11.1960484"><ele>257.0</ele><time>2026-03-28T07:53:25.878Z</time></trkpt><trkpt lat="43.8957298" lon="11.196222"><ele>257.0</ele><time>2026-03-28T07:53:26.892Z</time></trkpt><trkpt lat="43.8957349" lon="11.1963869"><ele>257.0</ele><time>2026-03-28T07:53:27.877Z</time></trkpt><trkpt lat="43.8957439" lon="11.1965403"><ele>257.0</ele><time>2026-03-28T07:53:28.879Z</time></trkpt><trkpt lat="43.8957587" lon="11.1966813"><ele>257.0</ele><time>2026-03-28T07:53:29.878Z</time></trkpt><trkpt lat="43.8957796" lon="11.1968152"><ele>257.0</ele><time>2026-03-28T07:53:30.881Z</time></trkpt><trkpt lat="43.8958175" lon="11.1969276"><ele>257.1666666666667</ele><time>2026-03-28T07:53:31.883Z</time></trkpt><trkpt lat="43.8958662" lon="11.1970192"><ele>257.33333333333337</ele><time>2026-03-28T07:53:32.884Z</time></trkpt><trkpt lat="43.8959173" lon="11.1970901"><ele>257.5</ele><time>2026-03-28T07:53:33.875Z</time></trkpt><trkpt lat="43.8959697" lon="11.1971446"><ele>257.6666666666667</ele><time>2026-03-28T07:53:34.876Z</time></trkpt><trkpt lat="43.8960693" lon="11.1972346"><ele>257.8333333333333</ele><time>2026-03-28T07:53:36.88Z</time></trkpt><trkpt lat="43.8961279" lon="11.1972902"><ele>258.0</ele><time>2026-03-28T07:53:37.871Z</time></trkpt><trkpt lat="43.8961906" lon="11.1973585"><ele>259.5</ele><time>2026-03-28T07:53:38.884Z</time></trkpt><trkpt lat="43.8962559" lon="11.1974379"><ele>261.0</ele><time>2026-03-28T07:53:39.873Z</time></trkpt><trkpt lat="43.8963241" lon="11.1975155"><ele>262.5</ele><time>2026-03-28T07:53:40.873Z</time></trkpt><trkpt lat="43.8963957" lon="11.1975816"><ele>264.0</ele><time>2026-03-28T07:53:41.889Z</time></trkpt><trkpt lat="43.8964704" lon="11.1976268"><ele>265.5</ele><time>2026-03-28T07:53:42.899Z</time></trkpt><trkpt lat="43.8965607" lon="11.1976526"><ele>267.0</ele><time>2026-03-28T07:53:43.885Z</time></trkpt><trkpt lat="43.8966722" lon="11.1976547"><ele>267.25</ele><time>2026-03-28T07:53:44.894Z</time></trkpt><trkpt lat="43.8968027" lon="11.1976429"><ele>267.5</ele><time>2026-03-28T07:53:45.874Z</time></trkpt><trkpt lat="43.8969361" lon="11.1976166"><ele>267.75</ele><time>2026-03-28T07:53:46.889Z</time></trkpt><trkpt lat="43.8970631" lon="11.1975839"><ele>268.0</ele><time>2026-03-28T07:53:47.878Z</time></trkpt><trkpt lat="43.8971813" lon="11.1975579"><ele>268.0</ele><time>2026-03-28T07:53:48.876Z</time></trkpt><trkpt lat="43.8972944" lon="11.1975499"><ele>268.0</ele><time>2026-03-28T07:53:49.871Z</time></trkpt><trkpt lat="43.8973995" lon="11.1975748"><ele>268.0</ele><time>2026-03-28T07:53:50.873Z</time></trkpt><trkpt lat="43.8975003" lon="11.1976343"><ele>268.0</ele><time>2026-03-28T07:53:51.877Z</time></trkpt><trkpt lat="43.8976114" lon="11.1977188"><ele>266.25</ele><time>2026-03-28T07:53:52.876Z</time></trkpt><trkpt lat="43.8977055" lon="11.1978426"><ele>264.5</ele><time>2026-03-28T07:53:53.88Z</time></trkpt><trkpt lat="43.897789" lon="11.1979844"><ele>262.75</ele><time>2026-03-28T07:53:54.877Z</time></trkpt><trkpt lat="43.8978723" lon="11.19814"><ele>261.0</ele><time>2026-03-28T07:53:55.882Z</time></trkpt><trkpt lat="43.8979541" lon="11.1983005"><ele>261.0</ele><time>2026-03-28T07:53:56.88Z</time></trkpt><trkpt lat="43.8980278" lon="11.1984491"><ele>261.0</ele><time>2026-03-28T07:53:57.876Z</time></trkpt><trkpt lat="43.8980987" lon="11.1985915"><ele>261.0</ele><time>2026-03-28T07:53:58.881Z</time></trkpt><trkpt lat="43.8981684" lon="11.1987305"><ele>261.0</ele><time>2026-03-28T07:53:59.885Z</time></trkpt><trkpt lat="43.8982381" lon="11.1988652"><ele>261.0</ele><time>2026-03-28T07:54:00.883Z</time></trkpt><trkpt lat="43.8983059" lon="11.1989996"><ele>261.0</ele><time>2026-03-28T07:54:01.875Z</time></trkpt><trkpt lat="43.8983754" lon="11.1991398"><ele>261.0</ele><time>2026-03-28T07:54:02.874Z</time></trkpt><trkpt lat="43.8984493" lon="11.1992774"><ele>261.0</ele><time>2026-03-28T07:54:03.875Z</time></trkpt><trkpt lat="43.898526" lon="11.1994066"><ele>261.75</ele><time>2026-03-28T07:54:04.872Z</time></trkpt><trkpt lat="43.898609" lon="11.1995267"><ele>262.5</ele><time>2026-03-28T07:54:05.879Z</time></trkpt><trkpt lat="43.8987107" lon="11.1996329"><ele>263.25</ele><time>2026-03-28T07:54:06.884Z</time></trkpt><trkpt lat="43.8988274" lon="11.1997296"><ele>264.0</ele><time>2026-03-28T07:54:07.878Z</time></trkpt><trkpt lat="43.8989583" lon="11.1998128"><ele>266.5</ele><time>2026-03-28T07:54:08.878Z</time></trkpt><trkpt lat="43.8990922" lon="11.1998914"><ele>269.0</ele><time>2026-03-28T07:54:09.88Z</time></trkpt><trkpt lat="43.8992119" lon="11.1999602"><ele>271.5</ele><time>2026-03-28T07:54:10.881Z</time></trkpt><trkpt lat="43.8993253" lon="11.2000118"><ele>274.0</ele><time>2026-03-28T07:54:11.875Z</time></trkpt><trkpt lat="43.8994419" lon="11.200047"><ele>274.75</ele><time>2026-03-28T07:54:12.883Z</time></trkpt><trkpt lat="43.8995766" lon="11.2000667"><ele>275.5</ele><time>2026-03-28T07:54:13.873Z</time></trkpt><trkpt lat="43.8997207" lon="11.2000702"><ele>276.25</ele><time>2026-03-28T07:54:14.874Z</time></trkpt><trkpt lat="43.8998659" lon="11.2000685"><ele>277.0</ele><time>2026-03-28T07:54:15.875Z</time></trkpt><trkpt lat="43.9000078" lon="11.200066"><ele>276.25</ele><time>2026-03-28T07:54:16.884Z</time></trkpt><trkpt lat="43.9001485" lon="11.2000636"><ele>275.5</ele><time>2026-03-28T07:54:17.9Z</time></trkpt><trkpt lat="43.9002744" lon="11.2000629"><ele>274.75</ele><time>2026-03-28T07:54:18.882Z</time></trkpt><trkpt lat="43.9003928" lon="11.2000629"><ele>274.0</ele><time>2026-03-28T07:54:19.88Z</time></trkpt><trkpt lat="43.9005028" lon="11.2000602"><ele>274.0</ele><time>2026-03-28T07:54:20.88Z</time></trkpt><trkpt lat="43.9006076" lon="11.2000565"><ele>274.0</ele><time>2026-03-28T07:54:21.888Z</time></trkpt><trkpt lat="43.9007085" lon="11.2000564"><ele>274.0</ele><time>2026-03-28T07:54:22.886Z</time></trkpt><trkpt lat="43.9008113" lon="11.2000568"><ele>274.0</ele><time>2026-03-28T07:54:23.882Z</time></trkpt><trkpt lat="43.9009078" lon="11.2000648"><ele>274.0</ele><time>2026-03-28T07:54:24.876Z</time></trkpt><trkpt lat="43.9010055" lon="11.2000862"><ele>272.5</ele><time>2026-03-28T07:54:25.885Z</time></trkpt><trkpt lat="43.901105" lon="11.2001306"><ele>271.0</ele><time>2026-03-28T07:54:26.87Z</time></trkpt><trkpt lat="43.9012076" lon="11.200194"><ele>269.5</ele><time>2026-03-28T07:54:27.876Z</time></trkpt><trkpt lat="43.9013162" lon="11.2002791"><ele>268.0</ele><time>2026-03-28T07:54:28.878Z</time></trkpt><trkpt lat="43.9014272" lon="11.2003638"><ele>268.0</ele><time>2026-03-28T07:54:29.88Z</time></trkpt><trkpt lat="43.9015249" lon="11.2004327"><ele>268.0</ele><time>2026-03-28T07:54:30.885Z</time></trkpt><trkpt lat="43.9016095" lon="11.200487"><ele>268.0</ele><time>2026-03-28T07:54:31.879Z</time></trkpt><trkpt lat="43.9016792" lon="11.2005318"><ele>268.0</ele><time>2026-03-28T07:54:32.889Z</time></trkpt><trkpt lat="43.9017487" lon="11.2005962"><ele>268.0</ele><time>2026-03-28T07:54:34.878Z</time></trkpt><trkpt lat="43.9017139" lon="11.200676"><ele>268.0</ele><time>2026-03-28T07:54:37.888Z</time></trkpt><trkpt lat="43.9016769" lon="11.2007797"><ele>268.8</ele><time>2026-03-28T07:54:39.888Z</time></trkpt><trkpt lat="43.9016945" lon="11.200944"><ele>269.6</ele><time>2026-03-28T07:54:41.879Z</time></trkpt><trkpt lat="43.9017259" lon="11.2010463"><ele>270.4</ele><time>2026-03-28T07:54:42.881Z</time></trkpt><trkpt lat="43.901777" lon="11.2011688"><ele>271.2</ele><time>2026-03-28T07:54:43.888Z</time></trkpt><trkpt lat="43.9018486" lon="11.2013093"><ele>272.0</ele><time>2026-03-28T07:54:44.878Z</time></trkpt><trkpt lat="43.9019276" lon="11.2014478"><ele>274.0</ele><time>2026-03-28T07:54:45.877Z</time></trkpt><trkpt lat="43.902011" lon="11.2015678"><ele>276.0</ele><time>2026-03-28T07:54:46.875Z</time></trkpt><trkpt lat="43.9020979" lon="11.2016687"><ele>278.0</ele><time>2026-03-28T07:54:47.873Z</time></trkpt><trkpt lat="43.9021827" lon="11.2017673"><ele>280.0</ele><time>2026-03-28T07:54:48.882Z</time></trkpt><trkpt lat="43.9022672" lon="11.2018633"><ele>280.0</ele><time>2026-03-28T07:54:49.874Z</time></trkpt><trkpt lat="43.9023544" lon="11.2019658"><ele>280.0</ele><time>2026-03-28T07:54:50.876Z</time></trkpt><trkpt lat="43.9024448" lon="11.20207"><ele>280.0</ele><time>2026-03-28T07:54:51.874Z</time></trkpt><trkpt lat="43.9025383" lon="11.202172"><ele>280.0</ele><time>2026-03-28T07:54:52.873Z</time></trkpt><trkpt lat="43.9026256" lon="11.2022657"><ele>282.0</ele><time>2026-03-28T07:54:53.871Z</time></trkpt><trkpt lat="43.9026991" lon="11.2023485"><ele>284.0</ele><time>2026-03-28T07:54:54.875Z</time></trkpt><trkpt lat="43.9027553" lon="11.2024146"><ele>286.0</ele><time>2026-03-28T07:54:55.873Z</time></trkpt><trkpt lat="43.902805" lon="11.2024758"><ele>288.0</ele><time>2026-03-28T07:54:56.876Z</time></trkpt><trkpt lat="43.9028588" lon="11.2025415"><ele>290.0</ele><time>2026-03-28T07:54:57.873Z</time></trkpt><trkpt lat="43.902913" lon="11.2026171"><ele>292.0</ele><time>2026-03-28T07:54:58.88Z</time></trkpt><trkpt lat="43.9029589" lon="11.2027053"><ele>292.0</ele><time>2026-03-28T07:54:59.882Z</time></trkpt><trkpt lat="43.9029901" lon="11.2028142"><ele>292.0</ele><time>2026-03-28T07:55:00.878Z</time></trkpt><trkpt lat="43.9030056" lon="11.2029378"><ele>292.0</ele><time>2026-03-28T07:55:01.866Z</time></trkpt><trkpt lat="43.9030055" lon="11.2030711"><ele>292.0</ele><time>2026-03-28T07:55:02.879Z</time></trkpt><trkpt lat="43.9030032" lon="11.2032016"><ele>292.0</ele><time>2026-03-28T07:55:03.873Z</time></trkpt><trkpt lat="43.9030015" lon="11.2033276"><ele>291.16666666666663</ele><time>2026-03-28T07:55:04.87Z</time></trkpt><trkpt lat="43.902997" lon="11.2034511"><ele>290.3333333333333</ele><time>2026-03-28T07:55:05.87Z</time></trkpt><trkpt lat="43.902991" lon="11.2035724"><ele>289.5</ele><time>2026-03-28T07:55:06.87Z</time></trkpt><trkpt lat="43.9029902" lon="11.2036818"><ele>288.6666666666667</ele><time>2026-03-28T07:55:07.872Z</time></trkpt><trkpt lat="43.90299" lon="11.2037784"><ele>287.83333333333337</ele><time>2026-03-28T07:55:08.867Z</time></trkpt><trkpt lat="43.9029926" lon="11.203949"><ele>287.0</ele><time>2026-03-28T07:55:10.875Z</time></trkpt><trkpt lat="43.903003" lon="11.2040372"><ele>285.0</ele><time>2026-03-28T07:55:11.869Z</time></trkpt><trkpt lat="43.903023" lon="11.2041309"><ele>283.0</ele><time>2026-03-28T07:55:12.875Z</time></trkpt><trkpt lat="43.9030547" lon="11.2042186"><ele>281.0</ele><time>2026-03-28T07:55:13.879Z</time></trkpt><trkpt lat="43.9030914" lon="11.2043112"><ele>279.0</ele><time>2026-03-28T07:55:14.878Z</time></trkpt><trkpt lat="43.9031354" lon="11.204407"><ele>277.0</ele><time>2026-03-28T07:55:15.868Z</time></trkpt><trkpt lat="43.9031876" lon="11.2045144"><ele>275.0</ele><time>2026-03-28T07:55:16.87Z</time></trkpt><trkpt lat="43.9032449" lon="11.2046419"><ele>275.0</ele><time>2026-03-28T07:55:17.867Z</time></trkpt><trkpt lat="43.9033033" lon="11.2047662"><ele>275.0</ele><time>2026-03-28T07:55:18.863Z</time></trkpt><trkpt lat="43.9033519" lon="11.204886"><ele>275.0</ele><time>2026-03-28T07:55:19.881Z</time></trkpt><trkpt lat="43.9033826" lon="11.2050077"><ele>275.0</ele><time>2026-03-28T07:55:20.868Z</time></trkpt><trkpt lat="43.9033909" lon="11.2051268"><ele>275.0</ele><time>2026-03-28T07:55:21.875Z</time></trkpt><trkpt lat="43.9034029" lon="11.2052252"><ele>277.4</ele><time>2026-03-28T07:55:22.874Z</time></trkpt><trkpt lat="43.9034273" lon="11.20531"><ele>279.8</ele><time>2026-03-28T07:55:23.871Z</time></trkpt><trkpt lat="43.9035019" lon="11.2054519"><ele>282.2</ele><time>2026-03-28T07:55:25.876Z</time></trkpt><trkpt lat="43.903561" lon="11.2055942"><ele>284.6</ele><time>2026-03-28T07:55:27.87Z</time></trkpt><trkpt lat="43.9035996" lon="11.2057472"><ele>287.0</ele><time>2026-03-28T07:55:29.883Z</time></trkpt><trkpt lat="43.9036322" lon="11.2058373"><ele>287.0</ele><time>2026-03-28T07:55:30.884Z</time></trkpt><trkpt lat="43.9036723" lon="11.2059445"><ele>287.0</ele><time>2026-03-28T07:55:31.879Z</time></trkpt><trkpt lat="43.9037157" lon="11.206053"><ele>287.0</ele><time>2026-03-28T07:55:32.874Z</time></trkpt><trkpt lat="43.9037654" lon="11.2061603"><ele>287.0</ele><time>2026-03-28T07:55:33.881Z</time></trkpt><trkpt lat="43.9038199" lon="11.2062552"><ele>287.0</ele><time>2026-03-28T07:55:34.872Z</time></trkpt><trkpt lat="43.9038749" lon="11.2063383"><ele>287.0</ele><time>2026-03-28T07:55:35.876Z</time></trkpt><trkpt lat="43.9039307" lon="11.2064051"><ele>287.0</ele><time>2026-03-28T07:55:36.873Z</time></trkpt><trkpt lat="43.9039921" lon="11.2064507"><ele>287.0</ele><time>2026-03-28T07:55:37.888Z</time></trkpt><trkpt lat="43.9040537" lon="11.2064907"><ele>287.0</ele><time>2026-03-28T07:55:38.872Z</time></trkpt><trkpt lat="43.9041133" lon="11.2065299"><ele>287.0</ele><time>2026-03-28T07:55:39.881Z</time></trkpt><trkpt lat="43.9042171" lon="11.2066085"><ele>287.0</ele><time>2026-03-28T07:55:41.883Z</time></trkpt><trkpt lat="43.9043036" lon="11.2067093"><ele>287.0</ele><time>2026-03-28T07:55:43.876Z</time></trkpt><trkpt lat="43.9043389" lon="11.2067831"><ele>284.83333333333337</ele><time>2026-03-28T07:55:44.872Z</time></trkpt><trkpt lat="43.904375" lon="11.206869"><ele>282.6666666666667</ele><time>2026-03-28T07:55:45.87Z</time></trkpt><trkpt lat="43.904402" lon="11.2069686"><ele>280.5</ele><time>2026-03-28T07:55:46.87Z</time></trkpt><trkpt lat="43.9044281" lon="11.2070682"><ele>278.3333333333333</ele><time>2026-03-28T07:55:47.878Z</time></trkpt><trkpt lat="43.9044514" lon="11.2071677"><ele>276.16666666666663</ele><time>2026-03-28T07:55:48.872Z</time></trkpt><trkpt lat="43.904478" lon="11.2072704"><ele>274.0</ele><time>2026-03-28T07:55:49.87Z</time></trkpt><trkpt lat="43.904515" lon="11.20738"><ele>274.0</ele><time>2026-03-28T07:55:50.886Z</time></trkpt><trkpt lat="43.9045586" lon="11.2074888"><ele>274.0</ele><time>2026-03-28T07:55:51.877Z</time></trkpt><trkpt lat="43.9046174" lon="11.2076014"><ele>274.0</ele><time>2026-03-28T07:55:52.873Z</time></trkpt><trkpt lat="43.904693" lon="11.2077134"><ele>274.0</ele><time>2026-03-28T07:55:53.882Z</time></trkpt><trkpt lat="43.9047762" lon="11.2078142"><ele>274.0</ele><time>2026-03-28T07:55:54.875Z</time></trkpt><trkpt lat="43.9048628" lon="11.2079068"><ele>274.0</ele><time>2026-03-28T07:55:55.875Z</time></trkpt><trkpt lat="43.9049536" lon="11.2079909"><ele>274.0</ele><time>2026-03-28T07:55:56.862Z</time></trkpt><trkpt lat="43.9050341" lon="11.2080656"><ele>274.0</ele><time>2026-03-28T07:55:57.868Z</time></trkpt><trkpt lat="43.9050983" lon="11.2081327"><ele>274.0</ele><time>2026-03-28T07:55:58.867Z</time></trkpt><trkpt lat="43.9051524" lon="11.2081991"><ele>274.0</ele><time>2026-03-28T07:55:59.866Z</time></trkpt><trkpt lat="43.9052044" lon="11.2082641"><ele>274.0</ele><time>2026-03-28T07:56:00.879Z</time></trkpt><trkpt lat="43.9052513" lon="11.2083304"><ele>273.5714285714286</ele><time>2026-03-28T07:56:01.872Z</time></trkpt><trkpt lat="43.9053052" lon="11.2083948"><ele>273.14285714285717</ele><time>2026-03-28T07:56:02.865Z</time></trkpt><trkpt lat="43.9053608" lon="11.2084558"><ele>272.7142857142857</ele><time>2026-03-28T07:56:03.867Z</time></trkpt><trkpt lat="43.9054189" lon="11.2085083"><ele>272.28571428571433</ele><time>2026-03-28T07:56:04.878Z</time></trkpt><trkpt lat="43.9054769" lon="11.2085451"><ele>271.8571428571429</ele><time>2026-03-28T07:56:05.877Z</time></trkpt><trkpt lat="43.9055392" lon="11.2085638"><ele>271.42857142857144</ele><time>2026-03-28T07:56:06.873Z</time></trkpt><trkpt lat="43.9056057" lon="11.2085691"><ele>271.0</ele><time>2026-03-28T07:56:07.866Z</time></trkpt><trkpt lat="43.9056699" lon="11.2085777"><ele>271.0</ele><time>2026-03-28T07:56:08.86Z</time></trkpt><trkpt lat="43.9057393" lon="11.2085976"><ele>271.0</ele><time>2026-03-28T07:56:09.862Z</time></trkpt><trkpt lat="43.9058071" lon="11.2086506"><ele>271.0</ele><time>2026-03-28T07:56:10.852Z</time></trkpt><trkpt lat="43.9058698" lon="11.2087264"><ele>271.0</ele><time>2026-03-28T07:56:11.859Z</time></trkpt><trkpt lat="43.9059261" lon="11.2088217"><ele>271.0</ele><time>2026-03-28T07:56:12.867Z</time></trkpt><trkpt lat="43.9059688" lon="11.208919"><ele>271.0</ele><time>2026-03-28T07:56:13.874Z</time></trkpt><trkpt lat="43.9060093" lon="11.2090107"><ele>270.6</ele><time>2026-03-28T07:56:14.871Z</time></trkpt><trkpt lat="43.9060532" lon="11.2090962"><ele>270.20000000000005</ele><time>2026-03-28T07:56:15.862Z</time></trkpt><trkpt lat="43.9061024" lon="11.2091847"><ele>269.79999999999995</ele><time>2026-03-28T07:56:16.865Z</time></trkpt><trkpt lat="43.9061665" lon="11.2092721"><ele>269.4</ele><time>2026-03-28T07:56:17.868Z</time></trkpt><trkpt lat="43.9062477" lon="11.2093608"><ele>269.0</ele><time>2026-03-28T07:56:18.864Z</time></trkpt><trkpt lat="43.9063397" lon="11.2094481"><ele>269.0</ele><time>2026-03-28T07:56:19.875Z</time></trkpt><trkpt lat="43.9064259" lon="11.2095217"><ele>269.0</ele><time>2026-03-28T07:56:20.87Z</time></trkpt><trkpt lat="43.9065046" lon="11.2095876"><ele>269.0</ele><time>2026-03-28T07:56:21.88Z</time></trkpt><trkpt lat="43.9065863" lon="11.2096538"><ele>269.0</ele><time>2026-03-28T07:56:22.868Z</time></trkpt><trkpt lat="43.9066607" lon="11.2097201"><ele>269.0</ele><time>2026-03-28T07:56:23.881Z</time></trkpt><trkpt lat="43.9067292" lon="11.2097867"><ele>266.6666666666667</ele><time>2026-03-28T07:56:24.88Z</time></trkpt><trkpt lat="43.9067958" lon="11.2098566"><ele>264.33333333333337</ele><time>2026-03-28T07:56:25.878Z</time></trkpt><trkpt lat="43.9068554" lon="11.2099251"><ele>262.0</ele><time>2026-03-28T07:56:26.871Z</time></trkpt><trkpt lat="43.9069137" lon="11.209986"><ele>259.6666666666667</ele><time>2026-03-28T07:56:27.864Z</time></trkpt><trkpt lat="43.906974" lon="11.2100426"><ele>257.3333333333333</ele><time>2026-03-28T07:56:28.869Z</time></trkpt><trkpt lat="43.9070376" lon="11.2100964"><ele>255.0</ele><time>2026-03-28T07:56:29.876Z</time></trkpt><trkpt lat="43.9071037" lon="11.2101392"><ele>255.0</ele><time>2026-03-28T07:56:30.872Z</time></trkpt><trkpt lat="43.9071662" lon="11.2101772"><ele>255.0</ele><time>2026-03-28T07:56:31.869Z</time></trkpt><trkpt lat="43.9072248" lon="11.2102125"><ele>255.0</ele><time>2026-03-28T07:56:32.874Z</time></trkpt><trkpt lat="43.9073269" lon="11.2102741"><ele>255.0</ele><time>2026-03-28T07:56:34.867Z</time></trkpt><trkpt lat="43.9074231" lon="11.2103453"><ele>255.0</ele><time>2026-03-28T07:56:36.868Z</time></trkpt><trkpt lat="43.907527" lon="11.2104486"><ele>253.6</ele><time>2026-03-28T07:56:38.863Z</time></trkpt><trkpt lat="43.9075783" lon="11.2105093"><ele>252.2</ele><time>2026-03-28T07:56:39.864Z</time></trkpt><trkpt lat="43.9076725" lon="11.210614"><ele>250.8</ele><time>2026-03-28T07:56:41.862Z</time></trkpt><trkpt lat="43.9077717" lon="11.2107181"><ele>249.4</ele><time>2026-03-28T07:56:43.874Z</time></trkpt><trkpt lat="43.907823" lon="11.2107892"><ele>248.0</ele><time>2026-03-28T07:56:44.87Z</time></trkpt><trkpt lat="43.9078742" lon="11.2108807"><ele>248.0</ele><time>2026-03-28T07:56:45.873Z</time></trkpt><trkpt lat="43.9079313" lon="11.2109953"><ele>248.0</ele><time>2026-03-28T07:56:46.868Z</time></trkpt><trkpt lat="43.9080049" lon="11.211133"><ele>248.0</ele><time>2026-03-28T07:56:47.862Z</time></trkpt><trkpt lat="43.9080794" lon="11.2112736"><ele>248.0</ele><time>2026-03-28T07:56:48.87Z</time></trkpt><trkpt lat="43.9081466" lon="11.2114023"><ele>244.0</ele><time>2026-03-28T07:56:49.868Z</time></trkpt><trkpt lat="43.9082027" lon="11.211513"><ele>240.0</ele><time>2026-03-28T07:56:50.882Z</time></trkpt><trkpt lat="43.9082456" lon="11.2116107"><ele>236.0</ele><time>2026-03-28T07:56:51.871Z</time></trkpt><trkpt lat="43.9082833" lon="11.2117159"><ele>232.0</ele><time>2026-03-28T07:56:52.88Z</time></trkpt><trkpt lat="43.9083124" lon="11.2118338"><ele>228.0</ele><time>2026-03-28T07:56:53.875Z</time></trkpt><trkpt lat="43.9083393" lon="11.2119826"><ele>228.0</ele><time>2026-03-28T07:56:54.871Z</time></trkpt><trkpt lat="43.908359" lon="11.212166"><ele>228.0</ele><time>2026-03-28T07:56:55.868Z</time></trkpt><trkpt lat="43.9083757" lon="11.2123524"><ele>228.0</ele><time>2026-03-28T07:56:56.864Z</time></trkpt><trkpt lat="43.9083936" lon="11.2125227"><ele>228.0</ele><time>2026-03-28T07:56:57.867Z</time></trkpt><trkpt lat="43.9084031" lon="11.2126761"><ele>226.60000000000002</ele><time>2026-03-28T07:56:58.868Z</time></trkpt><trkpt lat="43.9084022" lon="11.2128098"><ele>225.20000000000002</ele><time>2026-03-28T07:56:59.873Z</time></trkpt><trkpt lat="43.9083845" lon="11.2129319"><ele>223.8</ele><time>2026-03-28T07:57:00.871Z</time></trkpt><trkpt lat="43.9083596" lon="11.2130581"><ele>222.4</ele><time>2026-03-28T07:57:01.865Z</time></trkpt><trkpt lat="43.9083371" lon="11.2131935"><ele>221.0</ele><time>2026-03-28T07:57:02.873Z</time></trkpt><trkpt lat="43.908322" lon="11.2133227"><ele>220.8</ele><time>2026-03-28T07:57:03.871Z</time></trkpt><trkpt lat="43.9083234" lon="11.2134452"><ele>220.60000000000002</ele><time>2026-03-28T07:57:04.871Z</time></trkpt><trkpt lat="43.9083439" lon="11.2135606"><ele>220.4</ele><time>2026-03-28T07:57:05.869Z</time></trkpt><trkpt lat="43.9083752" lon="11.2136856"><ele>220.2</ele><time>2026-03-28T07:57:06.874Z</time></trkpt><trkpt lat="43.908414" lon="11.213825"><ele>220.0</ele><time>2026-03-28T07:57:07.874Z</time></trkpt><trkpt lat="43.9084586" lon="11.2139768"><ele>223.75</ele><time>2026-03-28T07:57:08.874Z</time></trkpt><trkpt lat="43.9085067" lon="11.2141366"><ele>227.5</ele><time>2026-03-28T07:57:09.874Z</time></trkpt><trkpt lat="43.908551" lon="11.214298"><ele>231.25</ele><time>2026-03-28T07:57:10.874Z</time></trkpt><trkpt lat="43.908594" lon="11.2144476"><ele>235.0</ele><time>2026-03-28T07:57:11.878Z</time></trkpt><trkpt lat="43.9086406" lon="11.2145799"><ele>235.0</ele><time>2026-03-28T07:57:12.875Z</time></trkpt><trkpt lat="43.9086922" lon="11.2146929"><ele>235.0</ele><time>2026-03-28T07:57:13.872Z</time></trkpt><trkpt lat="43.9087512" lon="11.2147719"><ele>235.0</ele><time>2026-03-28T07:57:14.872Z</time></trkpt><trkpt lat="43.9088212" lon="11.214809"><ele>235.0</ele><time>2026-03-28T07:57:15.873Z</time></trkpt><trkpt lat="43.9089128" lon="11.2148117"><ele>235.0</ele><time>2026-03-28T07:57:16.871Z</time></trkpt><trkpt lat="43.9090271" lon="11.2148032"><ele>235.0</ele><time>2026-03-28T07:57:17.871Z</time></trkpt><trkpt lat="43.9091577" lon="11.2148053"><ele>235.0</ele><time>2026-03-28T07:57:18.876Z</time></trkpt><trkpt lat="43.9092971" lon="11.214832"><ele>235.0</ele><time>2026-03-28T07:57:19.876Z</time></trkpt><trkpt lat="43.9094344" lon="11.2148927"><ele>235.0</ele><time>2026-03-28T07:57:20.877Z</time></trkpt><trkpt lat="43.9095586" lon="11.2149858"><ele>236.5</ele><time>2026-03-28T07:57:21.88Z</time></trkpt><trkpt lat="43.9096746" lon="11.215094"><ele>238.0</ele><time>2026-03-28T07:57:22.874Z</time></trkpt><trkpt lat="43.9097908" lon="11.2152019"><ele>239.5</ele><time>2026-03-28T07:57:23.882Z</time></trkpt><trkpt lat="43.9098984" lon="11.2152994"><ele>241.0</ele><time>2026-03-28T07:57:24.876Z</time></trkpt><trkpt lat="43.9100052" lon="11.2153989"><ele>240.75</ele><time>2026-03-28T07:57:25.87Z</time></trkpt><trkpt lat="43.9101161" lon="11.2155182"><ele>240.5</ele><time>2026-03-28T07:57:26.867Z</time></trkpt><trkpt lat="43.9102288" lon="11.215656"><ele>240.25</ele><time>2026-03-28T07:57:27.868Z</time></trkpt><trkpt lat="43.910324" lon="11.215781"><ele>240.0</ele><time>2026-03-28T07:57:28.865Z</time></trkpt><trkpt lat="43.910405" lon="11.2158829"><ele>240.0</ele><time>2026-03-28T07:57:29.867Z</time></trkpt><trkpt lat="43.9104679" lon="11.2159628"><ele>240.0</ele><time>2026-03-28T07:57:30.868Z</time></trkpt><trkpt lat="43.9105249" lon="11.2160254"><ele>240.0</ele><time>2026-03-28T07:57:31.86Z</time></trkpt><trkpt lat="43.910551" lon="11.2161395"><ele>240.0</ele><time>2026-03-28T07:57:33.857Z</time></trkpt><trkpt lat="43.9104729" lon="11.2162125"><ele>240.0</ele><time>2026-03-28T07:57:35.873Z</time></trkpt><trkpt lat="43.9103587" lon="11.2161726"><ele>240.0</ele><time>2026-03-28T07:57:37.873Z</time></trkpt><trkpt lat="43.9102705" lon="11.2160961"><ele>240.0</ele><time>2026-03-28T07:57:38.868Z</time></trkpt><trkpt lat="43.9101651" lon="11.2160069"><ele>240.0</ele><time>2026-03-28T07:57:39.866Z</time></trkpt><trkpt lat="43.9100496" lon="11.2159245"><ele>240.0</ele><time>2026-03-28T07:57:40.861Z</time></trkpt><trkpt lat="43.909927" lon="11.2158471"><ele>240.25</ele><time>2026-03-28T07:57:41.86Z</time></trkpt><trkpt lat="43.909801" lon="11.2157749"><ele>240.5</ele><time>2026-03-28T07:57:42.864Z</time></trkpt><trkpt lat="43.9096744" lon="11.215714"><ele>240.75</ele><time>2026-03-28T07:57:43.864Z</time></trkpt><trkpt lat="43.9095492" lon="11.215669"><ele>241.0</ele><time>2026-03-28T07:57:44.866Z</time></trkpt><trkpt lat="43.9094315" lon="11.2156376"><ele>241.0</ele><time>2026-03-28T07:57:45.866Z</time></trkpt><trkpt lat="43.9093176" lon="11.2156042"><ele>241.0</ele><time>2026-03-28T07:57:46.873Z</time></trkpt><trkpt lat="43.9092037" lon="11.2155584"><ele>241.0</ele><time>2026-03-28T07:57:47.871Z</time></trkpt><trkpt lat="43.9090879" lon="11.215501"><ele>241.0</ele><time>2026-03-28T07:57:48.869Z</time></trkpt><trkpt lat="43.9089736" lon="11.2154408"><ele>234.75</ele><time>2026-03-28T07:57:49.875Z</time></trkpt><trkpt lat="43.9088573" lon="11.2153842"><ele>228.5</ele><time>2026-03-28T07:57:50.875Z</time></trkpt><trkpt lat="43.9087381" lon="11.2153273"><ele>222.25</ele><time>2026-03-28T07:57:51.872Z</time></trkpt><trkpt lat="43.908615" lon="11.2152756"><ele>216.0</ele><time>2026-03-28T07:57:52.867Z</time></trkpt><trkpt lat="43.9084953" lon="11.2152254"><ele>212.8</ele><time>2026-03-28T07:57:53.866Z</time></trkpt><trkpt lat="43.9083842" lon="11.2151714"><ele>209.60000000000002</ele><time>2026-03-28T07:57:54.888Z</time></trkpt><trkpt lat="43.9082853" lon="11.2151278"><ele>206.4</ele><time>2026-03-28T07:57:55.87Z</time></trkpt><trkpt lat="43.9081971" lon="11.2150853"><ele>203.2</ele><time>2026-03-28T07:57:56.863Z</time></trkpt><trkpt lat="43.9081246" lon="11.2150413"><ele>200.0</ele><time>2026-03-28T07:57:57.867Z</time></trkpt><trkpt lat="43.9080364" lon="11.2150173"><ele>200.0</ele><time>2026-03-28T07:57:59.869Z</time></trkpt><trkpt lat="43.9080301" lon="11.2151332"><ele>200.0</ele><time>2026-03-28T07:58:01.886Z</time></trkpt><trkpt lat="43.9080734" lon="11.2152332"><ele>200.0</ele><time>2026-03-28T07:58:02.869Z</time></trkpt><trkpt lat="43.9081406" lon="11.2153362"><ele>200.0</ele><time>2026-03-28T07:58:03.868Z</time></trkpt><trkpt lat="43.9082151" lon="11.2154217"><ele>200.0</ele><time>2026-03-28T07:58:04.869Z</time></trkpt><trkpt lat="43.9083015" lon="11.2154912"><ele>200.0</ele><time>2026-03-28T07:58:05.869Z</time></trkpt><trkpt lat="43.9083981" lon="11.215564"><ele>200.0</ele><time>2026-03-28T07:58:06.866Z</time></trkpt><trkpt lat="43.908496" lon="11.2156338"><ele>200.0</ele><time>2026-03-28T07:58:07.867Z</time></trkpt><trkpt lat="43.9085917" lon="11.2156992"><ele>200.0</ele><time>2026-03-28T07:58:08.871Z</time></trkpt><trkpt lat="43.9086775" lon="11.2157626"><ele>200.0</ele><time>2026-03-28T07:58:09.868Z</time></trkpt><trkpt lat="43.9087433" lon="11.2158313"><ele>198.8</ele><time>2026-03-28T07:58:10.872Z</time></trkpt><trkpt lat="43.9087719" lon="11.2159776"><ele>197.6</ele><time>2026-03-28T07:58:12.871Z</time></trkpt><trkpt lat="43.9087461" lon="11.2160744"><ele>196.39999999999998</ele><time>2026-03-28T07:58:13.869Z</time></trkpt><trkpt lat="43.9087157" lon="11.2161943"><ele>195.2</ele><time>2026-03-28T07:58:14.869Z</time></trkpt><trkpt lat="43.9086836" lon="11.2163178"><ele>194.0</ele><time>2026-03-28T07:58:15.876Z</time></trkpt><trkpt lat="43.9086623" lon="11.216429"><ele>190.79999999999998</ele><time>2026-03-28T07:58:16.87Z</time></trkpt><trkpt lat="43.9086974" lon="11.2165736"><ele>187.6</ele><time>2026-03-28T07:58:18.875Z</time></trkpt><trkpt lat="43.9087599" lon="11.216625"><ele>184.4</ele><time>2026-03-28T07:58:19.875Z</time></trkpt><trkpt lat="43.9088493" lon="11.2166783"><ele>181.2</ele><time>2026-03-28T07:58:20.877Z</time></trkpt><trkpt lat="43.9089554" lon="11.2167431"><ele>178.0</ele><time>2026-03-28T07:58:21.875Z</time></trkpt><trkpt lat="43.90906" lon="11.2168091"><ele>178.0</ele><time>2026-03-28T07:58:22.874Z</time></trkpt><trkpt lat="43.9091604" lon="11.2168786"><ele>178.0</ele><time>2026-03-28T07:58:23.873Z</time></trkpt><trkpt lat="43.9092548" lon="11.216953"><ele>178.0</ele><time>2026-03-28T07:58:24.884Z</time></trkpt><trkpt lat="43.9093377" lon="11.2170387"><ele>178.0</ele><time>2026-03-28T07:58:25.872Z</time></trkpt><trkpt lat="43.9094123" lon="11.2171285"><ele>178.0</ele><time>2026-03-28T07:58:26.875Z</time></trkpt><trkpt lat="43.9094769" lon="11.2172136"><ele>178.83333333333334</ele><time>2026-03-28T07:58:27.873Z</time></trkpt><trkpt lat="43.9095314" lon="11.217299"><ele>179.66666666666669</ele><time>2026-03-28T07:58:28.876Z</time></trkpt><trkpt lat="43.909572" lon="11.2173876"><ele>180.5</ele><time>2026-03-28T07:58:29.875Z</time></trkpt><trkpt lat="43.9095978" lon="11.2174743"><ele>181.33333333333334</ele><time>2026-03-28T07:58:30.873Z</time></trkpt><trkpt lat="43.909597" lon="11.2175876"><ele>182.16666666666666</ele><time>2026-03-28T07:58:32.876Z</time></trkpt><trkpt lat="43.9095326" lon="11.2176732"><ele>183.0</ele><time>2026-03-28T07:58:34.884Z</time></trkpt><trkpt lat="43.9094806" lon="11.2177319"><ele>183.0</ele><time>2026-03-28T07:58:35.87Z</time></trkpt><trkpt lat="43.9094195" lon="11.2178006"><ele>183.0</ele><time>2026-03-28T07:58:36.869Z</time></trkpt><trkpt lat="43.9093401" lon="11.2178821"><ele>183.0</ele><time>2026-03-28T07:58:37.878Z</time></trkpt><trkpt lat="43.9092391" lon="11.2179759"><ele>183.0</ele><time>2026-03-28T07:58:38.875Z</time></trkpt><trkpt lat="43.9091293" lon="11.2180776"><ele>183.0</ele><time>2026-03-28T07:58:39.885Z</time></trkpt><trkpt lat="43.9090188" lon="11.2181834"><ele>181.5</ele><time>2026-03-28T07:58:40.883Z</time></trkpt><trkpt lat="43.908909" lon="11.2182881"><ele>180.0</ele><time>2026-03-28T07:58:41.884Z</time></trkpt><trkpt lat="43.9088012" lon="11.218387"><ele>178.5</ele><time>2026-03-28T07:58:42.886Z</time></trkpt><trkpt lat="43.9086922" lon="11.2184806"><ele>177.0</ele><time>2026-03-28T07:58:43.892Z</time></trkpt><trkpt lat="43.9085813" lon="11.2185733"><ele>177.0</ele><time>2026-03-28T07:58:44.89Z</time></trkpt><trkpt lat="43.9084718" lon="11.218673"><ele>177.0</ele><time>2026-03-28T07:58:45.894Z</time></trkpt><trkpt lat="43.9083607" lon="11.2187762"><ele>177.0</ele><time>2026-03-28T07:58:46.884Z</time></trkpt><trkpt lat="43.9082531" lon="11.2188841"><ele>177.0</ele><time>2026-03-28T07:58:47.885Z</time></trkpt><trkpt lat="43.9081466" lon="11.2189917"><ele>177.0</ele><time>2026-03-28T07:58:48.886Z</time></trkpt><trkpt lat="43.9080437" lon="11.2190959"><ele>177.0</ele><time>2026-03-28T07:58:49.89Z</time></trkpt><trkpt lat="43.9079481" lon="11.2191993"><ele>177.0</ele><time>2026-03-28T07:58:50.884Z</time></trkpt><trkpt lat="43.9078629" lon="11.2193065"><ele>177.0</ele><time>2026-03-28T07:58:51.887Z</time></trkpt><trkpt lat="43.9077926" lon="11.2194173"><ele>177.0</ele><time>2026-03-28T07:58:52.88Z</time></trkpt><trkpt lat="43.907735" lon="11.219529"><ele>177.0</ele><time>2026-03-28T07:58:53.888Z</time></trkpt><trkpt lat="43.9076847" lon="11.2196285"><ele>177.0</ele><time>2026-03-28T07:58:54.885Z</time></trkpt><trkpt lat="43.9076358" lon="11.2197054"><ele>177.0</ele><time>2026-03-28T07:58:55.891Z</time></trkpt><trkpt lat="43.9075256" lon="11.2197659"><ele>177.0</ele><time>2026-03-28T07:58:57.882Z</time></trkpt><trkpt lat="43.907439" lon="11.2197451"><ele>178.6</ele><time>2026-03-28T07:58:58.871Z</time></trkpt><trkpt lat="43.9073409" lon="11.2197117"><ele>180.2</ele><time>2026-03-28T07:58:59.881Z</time></trkpt><trkpt lat="43.9072333" lon="11.2196841"><ele>181.8</ele><time>2026-03-28T07:59:00.889Z</time></trkpt><trkpt lat="43.9071223" lon="11.2196578"><ele>183.4</ele><time>2026-03-28T07:59:01.875Z</time></trkpt><trkpt lat="43.9070138" lon="11.2196373"><ele>185.0</ele><time>2026-03-28T07:59:02.885Z</time></trkpt><trkpt lat="43.9069008" lon="11.2196218"><ele>185.0</ele><time>2026-03-28T07:59:03.881Z</time></trkpt><trkpt lat="43.90679" lon="11.2196186"><ele>185.0</ele><time>2026-03-28T07:59:04.874Z</time></trkpt><trkpt lat="43.9066779" lon="11.2196348"><ele>185.0</ele><time>2026-03-28T07:59:05.876Z</time></trkpt><trkpt lat="43.9065699" lon="11.2196709"><ele>185.0</ele><time>2026-03-28T07:59:06.875Z</time></trkpt><trkpt lat="43.9064616" lon="11.2197284"><ele>189.25</ele><time>2026-03-28T07:59:07.881Z</time></trkpt><trkpt lat="43.9063531" lon="11.219793"><ele>193.5</ele><time>2026-03-28T07:59:08.879Z</time></trkpt><trkpt lat="43.9062446" lon="11.2198611"><ele>197.75</ele><time>2026-03-28T07:59:09.878Z</time></trkpt><trkpt lat="43.9061315" lon="11.2199276"><ele>202.0</ele><time>2026-03-28T07:59:10.878Z</time></trkpt><trkpt lat="43.9060229" lon="11.2199938"><ele>203.5</ele><time>2026-03-28T07:59:11.878Z</time></trkpt><trkpt lat="43.9059166" lon="11.2200508"><ele>205.0</ele><time>2026-03-28T07:59:12.878Z</time></trkpt><trkpt lat="43.9058034" lon="11.2200973"><ele>206.5</ele><time>2026-03-28T07:59:13.877Z</time></trkpt><trkpt lat="43.9056889" lon="11.2201255"><ele>208.0</ele><time>2026-03-28T07:59:14.88Z</time></trkpt><trkpt lat="43.9055713" lon="11.2201371"><ele>210.2</ele><time>2026-03-28T07:59:15.881Z</time></trkpt><trkpt lat="43.9054547" lon="11.220136"><ele>212.4</ele><time>2026-03-28T07:59:16.876Z</time></trkpt><trkpt lat="43.9053366" lon="11.2201259"><ele>214.59999999999997</ele><time>2026-03-28T07:59:17.889Z</time></trkpt><trkpt lat="43.90523" lon="11.2201104"><ele>216.79999999999998</ele><time>2026-03-28T07:59:18.883Z</time></trkpt><trkpt lat="43.9051519" lon="11.2200936"><ele>219.0</ele><time>2026-03-28T07:59:19.888Z</time></trkpt><trkpt lat="43.905225" lon="11.2202229"><ele>219.0</ele><time>2026-03-28T07:59:24.903Z</time></trkpt><trkpt lat="43.9053042" lon="11.2203124"><ele>219.0</ele><time>2026-03-28T07:59:25.889Z</time></trkpt><trkpt lat="43.905409" lon="11.2204303"><ele>219.0</ele><time>2026-03-28T07:59:26.898Z</time></trkpt><trkpt lat="43.9055292" lon="11.2205687"><ele>219.0</ele><time>2026-03-28T07:59:27.887Z</time></trkpt><trkpt lat="43.9056487" lon="11.2207149"><ele>219.33333333333331</ele><time>2026-03-28T07:59:28.887Z</time></trkpt><trkpt lat="43.9057907" lon="11.2208724"><ele>219.66666666666666</ele><time>2026-03-28T07:59:29.898Z</time></trkpt><trkpt lat="43.9059285" lon="11.2210091"><ele>220.0</ele><time>2026-03-28T07:59:30.895Z</time></trkpt><trkpt lat="43.9060665" lon="11.2211085"><ele>219.99999999999997</ele><time>2026-03-28T07:59:31.885Z</time></trkpt><trkpt lat="43.9061721" lon="11.2211974"><ele>220.0</ele><time>2026-03-28T07:59:32.893Z</time></trkpt><trkpt lat="43.9062597" lon="11.2212767"><ele>220.0</ele><time>2026-03-28T07:59:33.891Z</time></trkpt><trkpt lat="43.9063182" lon="11.2213515"><ele>220.0</ele><time>2026-03-28T07:59:34.904Z</time></trkpt><trkpt lat="43.9063366" lon="11.2214382"><ele>219.99999999999997</ele><time>2026-03-28T07:59:35.886Z</time></trkpt><trkpt lat="43.9063241" lon="11.2215378"><ele>220.0</ele><time>2026-03-28T07:59:36.888Z</time></trkpt><trkpt lat="43.9063025" lon="11.2216312"><ele>220.6</ele><time>2026-03-28T07:59:37.884Z</time></trkpt><trkpt lat="43.9062481" lon="11.2217369"><ele>221.2</ele><time>2026-03-28T07:59:39.904Z</time></trkpt><trkpt lat="43.9061232" lon="11.2216971"><ele>221.8</ele><time>2026-03-28T07:59:41.911Z</time></trkpt><trkpt lat="43.9060282" lon="11.2216584"><ele>222.4</ele><time>2026-03-28T07:59:42.907Z</time></trkpt><trkpt lat="43.9059227" lon="11.2216174"><ele>223.0</ele><time>2026-03-28T07:59:43.907Z</time></trkpt><trkpt lat="43.9058213" lon="11.2215875"><ele>227.2</ele><time>2026-03-28T07:59:44.885Z</time></trkpt><trkpt lat="43.9057258" lon="11.2215965"><ele>231.4</ele><time>2026-03-28T07:59:45.882Z</time></trkpt><trkpt lat="43.9056328" lon="11.2216359"><ele>235.59999999999997</ele><time>2026-03-28T07:59:46.895Z</time></trkpt><trkpt lat="43.9055457" lon="11.2216805"><ele>239.79999999999998</ele><time>2026-03-28T07:59:47.895Z</time></trkpt><trkpt lat="43.9054531" lon="11.2217168"><ele>244.0</ele><time>2026-03-28T07:59:48.89Z</time></trkpt><trkpt lat="43.9053573" lon="11.2217437"><ele>244.0</ele><time>2026-03-28T07:59:49.893Z</time></trkpt><trkpt lat="43.9052634" lon="11.2217731"><ele>243.99999999999997</ele><time>2026-03-28T07:59:50.888Z</time></trkpt><trkpt lat="43.9051656" lon="11.2218112"><ele>243.99999999999997</ele><time>2026-03-28T07:59:51.891Z</time></trkpt><trkpt lat="43.9050702" lon="11.2218504"><ele>244.0</ele><time>2026-03-28T07:59:52.898Z</time></trkpt><trkpt lat="43.9049752" lon="11.2218833"><ele>244.0</ele><time>2026-03-28T07:59:53.91Z</time></trkpt><trkpt lat="43.9048734" lon="11.2219139"><ele>246.5</ele><time>2026-03-28T07:59:54.899Z</time></trkpt><trkpt lat="43.9047607" lon="11.2219485"><ele>249.0</ele><time>2026-03-28T07:59:55.901Z</time></trkpt><trkpt lat="43.9046416" lon="11.2219908"><ele>251.5</ele><time>2026-03-28T07:59:56.902Z</time></trkpt><trkpt lat="43.9045245" lon="11.2220457"><ele>254.0</ele><time>2026-03-28T07:59:57.896Z</time></trkpt><trkpt lat="43.9044084" lon="11.2221084"><ele>254.0</ele><time>2026-03-28T07:59:58.902Z</time></trkpt><trkpt lat="43.9043066" lon="11.2221771"><ele>253.99999999999997</ele><time>2026-03-28T07:59:59.892Z</time></trkpt><trkpt lat="43.9042204" lon="11.2222661"><ele>253.99999999999997</ele><time>2026-03-28T08:00:00.9Z</time></trkpt><trkpt lat="43.9041555" lon="11.2223565"><ele>254.0</ele><time>2026-03-28T08:00:01.881Z</time></trkpt><trkpt lat="43.9041065" lon="11.2224337"><ele>254.0</ele><time>2026-03-28T08:00:02.885Z</time></trkpt><trkpt lat="43.9040179" lon="11.2224738"><ele>254.25</ele><time>2026-03-28T08:00:04.885Z</time></trkpt><trkpt lat="43.9038902" lon="11.2223858"><ele>254.5</ele><time>2026-03-28T08:00:06.893Z</time></trkpt><trkpt lat="43.903807" lon="11.2223211"><ele>254.75</ele><time>2026-03-28T08:00:07.888Z</time></trkpt><trkpt lat="43.9037096" lon="11.22226"><ele>255.0</ele><time>2026-03-28T08:00:08.892Z</time></trkpt><trkpt lat="43.903602" lon="11.2222037"><ele>255.0</ele><time>2026-03-28T08:00:09.892Z</time></trkpt><trkpt lat="43.9034877" lon="11.2221563"><ele>255.0</ele><time>2026-03-28T08:00:10.898Z</time></trkpt><trkpt lat="43.9033749" lon="11.2221186"><ele>255.0</ele><time>2026-03-28T08:00:11.892Z</time></trkpt><trkpt lat="43.9032658" lon="11.2220864"><ele>255.0</ele><time>2026-03-28T08:00:12.893Z</time></trkpt><trkpt lat="43.9031586" lon="11.2220579"><ele>256.4</ele><time>2026-03-28T08:00:13.892Z</time></trkpt><trkpt lat="43.9030499" lon="11.2220293"><ele>257.8</ele><time>2026-03-28T08:00:14.896Z</time></trkpt><trkpt lat="43.9029476" lon="11.2219974"><ele>259.2</ele><time>2026-03-28T08:00:15.891Z</time></trkpt><trkpt lat="43.9028533" lon="11.2219718"><ele>260.6</ele><time>2026-03-28T08:00:16.882Z</time></trkpt><trkpt lat="43.9027641" lon="11.2219584"><ele>262.0</ele><time>2026-03-28T08:00:17.884Z</time></trkpt><trkpt lat="43.9026692" lon="11.221965"><ele>265.0</ele><time>2026-03-28T08:00:18.889Z</time></trkpt><trkpt lat="43.902571" lon="11.2219868"><ele>268.0</ele><time>2026-03-28T08:00:19.893Z</time></trkpt><trkpt lat="43.9024681" lon="11.2220101"><ele>271.0</ele><time>2026-03-28T08:00:20.897Z</time></trkpt><trkpt lat="43.902365" lon="11.2220313"><ele>274.0</ele><time>2026-03-28T08:00:21.89Z</time></trkpt><trkpt lat="43.9022619" lon="11.2220482"><ele>277.0</ele><time>2026-03-28T08:00:22.894Z</time></trkpt><trkpt lat="43.9021651" lon="11.2220552"><ele>277.0</ele><time>2026-03-28T08:00:23.896Z</time></trkpt><trkpt lat="43.9020709" lon="11.2220429"><ele>277.0</ele><time>2026-03-28T08:00:24.891Z</time></trkpt><trkpt lat="43.9019706" lon="11.2220013"><ele>277.0</ele><time>2026-03-28T08:00:25.886Z</time></trkpt><trkpt lat="43.9018757" lon="11.2219398"><ele>277.0</ele><time>2026-03-28T08:00:26.885Z</time></trkpt><trkpt lat="43.9017797" lon="11.2218757"><ele>277.0</ele><time>2026-03-28T08:00:27.882Z</time></trkpt><trkpt lat="43.9016729" lon="11.2218214"><ele>277.8</ele><time>2026-03-28T08:00:28.898Z</time></trkpt><trkpt lat="43.9015565" lon="11.2217826"><ele>278.6</ele><time>2026-03-28T08:00:29.897Z</time></trkpt><trkpt lat="43.9014432" lon="11.2217573"><ele>279.40000000000003</ele><time>2026-03-28T08:00:30.891Z</time></trkpt><trkpt lat="43.9013444" lon="11.2217446"><ele>280.2</ele><time>2026-03-28T08:00:31.887Z</time></trkpt><trkpt lat="43.9012614" lon="11.2217529"><ele>281.0</ele><time>2026-03-28T08:00:32.884Z</time></trkpt><trkpt lat="43.9011823" lon="11.2217897"><ele>281.0</ele><time>2026-03-28T08:00:33.873Z</time></trkpt><trkpt lat="43.9011053" lon="11.2218679"><ele>281.0</ele><time>2026-03-28T08:00:34.887Z</time></trkpt><trkpt lat="43.9010299" lon="11.2219703"><ele>281.0</ele><time>2026-03-28T08:00:35.886Z</time></trkpt><trkpt lat="43.9009671" lon="11.2220777"><ele>281.0</ele><time>2026-03-28T08:00:36.881Z</time></trkpt><trkpt lat="43.9009128" lon="11.2221843"><ele>281.0</ele><time>2026-03-28T08:00:37.878Z</time></trkpt><trkpt lat="43.9008669" lon="11.2222864"><ele>280.0</ele><time>2026-03-28T08:00:38.887Z</time></trkpt><trkpt lat="43.9008219" lon="11.2223731"><ele>279.0</ele><time>2026-03-28T08:00:39.89Z</time></trkpt><trkpt lat="43.90077" lon="11.2224227"><ele>278.0</ele><time>2026-03-28T08:00:40.881Z</time></trkpt><trkpt lat="43.9007046" lon="11.2224251"><ele>277.0</ele><time>2026-03-28T08:00:41.888Z</time></trkpt><trkpt lat="43.9006296" lon="11.2223863"><ele>276.0</ele><time>2026-03-28T08:00:42.877Z</time></trkpt><trkpt lat="43.900532" lon="11.2223779"><ele>275.0</ele><time>2026-03-28T08:00:44.888Z</time></trkpt><trkpt lat="43.9004659" lon="11.2225671"><ele>275.0</ele><time>2026-03-28T08:00:46.883Z</time></trkpt><trkpt lat="43.9004326" lon="11.2227087"><ele>275.0</ele><time>2026-03-28T08:00:47.889Z</time></trkpt><trkpt lat="43.9003899" lon="11.2228482"><ele>275.0</ele><time>2026-03-28T08:00:48.887Z</time></trkpt><trkpt lat="43.9003342" lon="11.2229749"><ele>275.0</ele><time>2026-03-28T08:00:49.899Z</time></trkpt><trkpt lat="43.9002678" lon="11.2230781"><ele>275.0</ele><time>2026-03-28T08:00:50.883Z</time></trkpt><trkpt lat="43.9001995" lon="11.2231602"><ele>273.5</ele><time>2026-03-28T08:00:51.884Z</time></trkpt><trkpt lat="43.9001282" lon="11.2232192"><ele>272.0</ele><time>2026-03-28T08:00:52.885Z</time></trkpt><trkpt lat="43.9000545" lon="11.2232576"><ele>270.5</ele><time>2026-03-28T08:00:53.889Z</time></trkpt><trkpt lat="43.8999695" lon="11.2232826"><ele>269.0</ele><time>2026-03-28T08:00:54.886Z</time></trkpt><trkpt lat="43.8998789" lon="11.2233045"><ele>267.5</ele><time>2026-03-28T08:00:55.881Z</time></trkpt><trkpt lat="43.8997922" lon="11.2233343"><ele>266.0</ele><time>2026-03-28T08:00:56.884Z</time></trkpt><trkpt lat="43.8997205" lon="11.223378"><ele>270.5</ele><time>2026-03-28T08:00:57.882Z</time></trkpt><trkpt lat="43.8996576" lon="11.2234399"><ele>275.0</ele><time>2026-03-28T08:00:58.886Z</time></trkpt><trkpt lat="43.8996025" lon="11.223523"><ele>279.5</ele><time>2026-03-28T08:00:59.906Z</time></trkpt><trkpt lat="43.8995591" lon="11.2236263"><ele>284.0</ele><time>2026-03-28T08:01:00.884Z</time></trkpt><trkpt lat="43.899521" lon="11.2237487"><ele>288.5</ele><time>2026-03-28T08:01:01.878Z</time></trkpt><trkpt lat="43.8995018" lon="11.2238734"><ele>293.0</ele><time>2026-03-28T08:01:02.881Z</time></trkpt><trkpt lat="43.8995063" lon="11.2239932"><ele>293.0</ele><time>2026-03-28T08:01:03.877Z</time></trkpt><trkpt lat="43.8995316" lon="11.2241141"><ele>293.0</ele><time>2026-03-28T08:01:04.881Z</time></trkpt><trkpt lat="43.8995672" lon="11.2242411"><ele>293.0</ele><time>2026-03-28T08:01:05.89Z</time></trkpt><trkpt lat="43.8995936" lon="11.2243806"><ele>293.0</ele><time>2026-03-28T08:01:06.888Z</time></trkpt><trkpt lat="43.8996054" lon="11.2245322"><ele>293.0</ele><time>2026-03-28T08:01:07.884Z</time></trkpt><trkpt lat="43.8996029" lon="11.2246798"><ele>295.0</ele><time>2026-03-28T08:01:08.881Z</time></trkpt><trkpt lat="43.899582" lon="11.2248333"><ele>297.0</ele><time>2026-03-28T08:01:09.89Z</time></trkpt><trkpt lat="43.8995441" lon="11.2249964"><ele>299.0</ele><time>2026-03-28T08:01:10.893Z</time></trkpt><trkpt lat="43.8995097" lon="11.2251436"><ele>301.0</ele><time>2026-03-28T08:01:11.893Z</time></trkpt><trkpt lat="43.8994907" lon="11.2252632"><ele>303.0</ele><time>2026-03-28T08:01:12.887Z</time></trkpt><trkpt lat="43.8994812" lon="11.2253563"><ele>303.0</ele><time>2026-03-28T08:01:13.878Z</time></trkpt><trkpt lat="43.8995366" lon="11.2254548"><ele>303.0</ele><time>2026-03-28T08:01:15.88Z</time></trkpt><trkpt lat="43.8996" lon="11.2254972"><ele>303.0</ele><time>2026-03-28T08:01:16.88Z</time></trkpt><trkpt lat="43.8996676" lon="11.2256146"><ele>303.0</ele><time>2026-03-28T08:01:18.881Z</time></trkpt><trkpt lat="43.8996275" lon="11.2257498"><ele>303.0</ele><time>2026-03-28T08:01:20.891Z</time></trkpt><trkpt lat="43.8995684" lon="11.2258158"><ele>303.5</ele><time>2026-03-28T08:01:21.88Z</time></trkpt><trkpt lat="43.8994993" lon="11.2258794"><ele>304.0</ele><time>2026-03-28T08:01:22.882Z</time></trkpt><trkpt lat="43.8994312" lon="11.2259342"><ele>304.5</ele><time>2026-03-28T08:01:23.878Z</time></trkpt><trkpt lat="43.8993616" lon="11.2259724"><ele>305.0</ele><time>2026-03-28T08:01:24.877Z</time></trkpt><trkpt lat="43.8992871" lon="11.2260043"><ele>305.5</ele><time>2026-03-28T08:01:25.876Z</time></trkpt><trkpt lat="43.8992082" lon="11.2260351"><ele>306.0</ele><time>2026-03-28T08:01:26.883Z</time></trkpt><trkpt lat="43.8991316" lon="11.226065"><ele>309.3333333333333</ele><time>2026-03-28T08:01:27.882Z</time></trkpt><trkpt lat="43.8990574" lon="11.2260961"><ele>312.6666666666667</ele><time>2026-03-28T08:01:28.886Z</time></trkpt><trkpt lat="43.8989869" lon="11.2261335"><ele>316.0</ele><time>2026-03-28T08:01:29.891Z</time></trkpt><trkpt lat="43.8989209" lon="11.2261862"><ele>319.33333333333337</ele><time>2026-03-28T08:01:30.895Z</time></trkpt><trkpt lat="43.8988609" lon="11.2262619"><ele>322.6666666666667</ele><time>2026-03-28T08:01:31.887Z</time></trkpt><trkpt lat="43.8988017" lon="11.2263707"><ele>326.0</ele><time>2026-03-28T08:01:32.879Z</time></trkpt><trkpt lat="43.8987592" lon="11.2264844"><ele>326.0</ele><time>2026-03-28T08:01:33.883Z</time></trkpt><trkpt lat="43.8987225" lon="11.2265696"><ele>326.0</ele><time>2026-03-28T08:01:34.872Z</time></trkpt><trkpt lat="43.8986782" lon="11.226638"><ele>326.0</ele><time>2026-03-28T08:01:35.874Z</time></trkpt><trkpt lat="43.8986216" lon="11.2266898"><ele>326.0</ele><time>2026-03-28T08:01:36.886Z</time></trkpt><trkpt lat="43.8985563" lon="11.2267296"><ele>326.0</ele><time>2026-03-28T08:01:37.885Z</time></trkpt><trkpt lat="43.8984817" lon="11.2267632"><ele>326.0</ele><time>2026-03-28T08:01:38.886Z</time></trkpt><trkpt lat="43.8983948" lon="11.2267967"><ele>326.0</ele><time>2026-03-28T08:01:39.88Z</time></trkpt><trkpt lat="43.898298" lon="11.2268349"><ele>330.1666666666667</ele><time>2026-03-28T08:01:40.882Z</time></trkpt><trkpt lat="43.8982043" lon="11.2268707"><ele>334.33333333333337</ele><time>2026-03-28T08:01:41.882Z</time></trkpt><trkpt lat="43.8981243" lon="11.2269084"><ele>338.5</ele><time>2026-03-28T08:01:42.871Z</time></trkpt><trkpt lat="43.8980536" lon="11.2269501"><ele>342.6666666666667</ele><time>2026-03-28T08:01:43.872Z</time></trkpt><trkpt lat="43.8979833" lon="11.226999"><ele>346.8333333333333</ele><time>2026-03-28T08:01:44.876Z</time></trkpt><trkpt lat="43.8979137" lon="11.2270627"><ele>351.0</ele><time>2026-03-28T08:01:45.878Z</time></trkpt><trkpt lat="43.8978481" lon="11.2271387"><ele>351.0</ele><time>2026-03-28T08:01:46.875Z</time></trkpt><trkpt lat="43.8977861" lon="11.2272317"><ele>351.0</ele><time>2026-03-28T08:01:47.879Z</time></trkpt><trkpt lat="43.8977246" lon="11.2273312"><ele>351.0</ele><time>2026-03-28T08:01:48.88Z</time></trkpt><trkpt lat="43.8976503" lon="11.2274248"><ele>351.0</ele><time>2026-03-28T08:01:49.868Z</time></trkpt><trkpt lat="43.8975726" lon="11.2275116"><ele>351.0</ele><time>2026-03-28T08:01:50.867Z</time></trkpt><trkpt lat="43.8974953" lon="11.2275875"><ele>354.1666666666667</ele><time>2026-03-28T08:01:51.868Z</time></trkpt><trkpt lat="43.8974194" lon="11.2276498"><ele>357.3333333333333</ele><time>2026-03-28T08:01:52.864Z</time></trkpt><trkpt lat="43.8973461" lon="11.2277015"><ele>360.5</ele><time>2026-03-28T08:01:53.873Z</time></trkpt><trkpt lat="43.8972722" lon="11.2277487"><ele>363.66666666666663</ele><time>2026-03-28T08:01:54.876Z</time></trkpt><trkpt lat="43.897203" lon="11.2277958"><ele>366.8333333333333</ele><time>2026-03-28T08:01:55.871Z</time></trkpt><trkpt lat="43.8971384" lon="11.2278418"><ele>370.0</ele><time>2026-03-28T08:01:56.872Z</time></trkpt><trkpt lat="43.8970766" lon="11.2278866"><ele>370.0</ele><time>2026-03-28T08:01:57.873Z</time></trkpt><trkpt lat="43.8970208" lon="11.2279281"><ele>370.0</ele><time>2026-03-28T08:01:58.867Z</time></trkpt><trkpt lat="43.896967" lon="11.2280342"><ele>370.0</ele><time>2026-03-28T08:02:00.878Z</time></trkpt><trkpt lat="43.8969843" lon="11.2281866"><ele>370.0</ele><time>2026-03-28T08:02:02.875Z</time></trkpt><trkpt lat="43.897008" lon="11.2282755"><ele>370.0</ele><time>2026-03-28T08:02:03.877Z</time></trkpt><trkpt lat="43.8970416" lon="11.2283747"><ele>370.0</ele><time>2026-03-28T08:02:04.886Z</time></trkpt><trkpt lat="43.8970794" lon="11.228485"><ele>369.6</ele><time>2026-03-28T08:02:05.888Z</time></trkpt><trkpt lat="43.897123" lon="11.2286024"><ele>369.2</ele><time>2026-03-28T08:02:06.882Z</time></trkpt><trkpt lat="43.8971553" lon="11.2287263"><ele>368.79999999999995</ele><time>2026-03-28T08:02:07.882Z</time></trkpt><trkpt lat="43.8971767" lon="11.2288515"><ele>368.4</ele><time>2026-03-28T08:02:08.886Z</time></trkpt><trkpt lat="43.8971804" lon="11.2289724"><ele>368.0</ele><time>2026-03-28T08:02:09.88Z</time></trkpt><trkpt lat="43.897168" lon="11.2290914"><ele>368.0</ele><time>2026-03-28T08:02:10.885Z</time></trkpt><trkpt lat="43.8971479" lon="11.229208"><ele>368.0</ele><time>2026-03-28T08:02:11.887Z</time></trkpt><trkpt lat="43.8971227" lon="11.2293102"><ele>368.0</ele><time>2026-03-28T08:02:12.888Z</time></trkpt><trkpt lat="43.8970936" lon="11.2293881"><ele>368.0</ele><time>2026-03-28T08:02:13.893Z</time></trkpt><trkpt lat="43.8969852" lon="11.2294863"><ele>368.0</ele><time>2026-03-28T08:02:15.891Z</time></trkpt><trkpt lat="43.8969045" lon="11.2295201"><ele>368.0</ele><time>2026-03-28T08:02:16.884Z</time></trkpt><trkpt lat="43.8968232" lon="11.2295479"><ele>368.0</ele><time>2026-03-28T08:02:17.883Z</time></trkpt><trkpt lat="43.8967606" lon="11.2295856"><ele>368.0</ele><time>2026-03-28T08:02:18.885Z</time></trkpt><trkpt lat="43.8966796" lon="11.2296899"><ele>368.0</ele><time>2026-03-28T08:02:20.886Z</time></trkpt><trkpt lat="43.8966531" lon="11.2297882"><ele>368.0</ele><time>2026-03-28T08:02:21.878Z</time></trkpt><trkpt lat="43.8966378" lon="11.2299091"><ele>368.0</ele><time>2026-03-28T08:02:22.875Z</time></trkpt><trkpt lat="43.8966265" lon="11.2300323"><ele>368.0</ele><time>2026-03-28T08:02:23.884Z</time></trkpt><trkpt lat="43.8966107" lon="11.2301577"><ele>372.2</ele><time>2026-03-28T08:02:24.884Z</time></trkpt><trkpt lat="43.8965841" lon="11.2302851"><ele>376.4</ele><time>2026-03-28T08:02:25.888Z</time></trkpt><trkpt lat="43.8965494" lon="11.2304137"><ele>380.59999999999997</ele><time>2026-03-28T08:02:26.894Z</time></trkpt><trkpt lat="43.8964997" lon="11.2305445"><ele>384.79999999999995</ele><time>2026-03-28T08:02:27.89Z</time></trkpt><trkpt lat="43.8964444" lon="11.2306815"><ele>389.0</ele><time>2026-03-28T08:02:28.891Z</time></trkpt><trkpt lat="43.8963825" lon="11.230828"><ele>389.0</ele><time>2026-03-28T08:02:29.892Z</time></trkpt><trkpt lat="43.8963022" lon="11.230987"><ele>389.0</ele><time>2026-03-28T08:02:30.88Z</time></trkpt><trkpt lat="43.896219" lon="11.2311304"><ele>389.0</ele><time>2026-03-28T08:02:31.887Z</time></trkpt><trkpt lat="43.8961498" lon="11.2312541"><ele>389.0</ele><time>2026-03-28T08:02:32.893Z</time></trkpt><trkpt lat="43.8960989" lon="11.2313437"><ele>390.4</ele><time>2026-03-28T08:02:33.877Z</time></trkpt><trkpt lat="43.89608" lon="11.2314768"><ele>391.79999999999995</ele><time>2026-03-28T08:02:35.888Z</time></trkpt><trkpt lat="43.8961822" lon="11.2315865"><ele>393.20000000000005</ele><time>2026-03-28T08:02:37.876Z</time></trkpt><trkpt lat="43.8962624" lon="11.2316509"><ele>394.6</ele><time>2026-03-28T08:02:38.89Z</time></trkpt><trkpt lat="43.8963504" lon="11.2317331"><ele>396.0</ele><time>2026-03-28T08:02:39.881Z</time></trkpt><trkpt lat="43.8964405" lon="11.2318203"><ele>396.0</ele><time>2026-03-28T08:02:40.877Z</time></trkpt><trkpt lat="43.8965204" lon="11.2319088"><ele>396.0</ele><time>2026-03-28T08:02:41.893Z</time></trkpt><trkpt lat="43.8966034" lon="11.2320068"><ele>396.0</ele><time>2026-03-28T08:02:42.885Z</time></trkpt><trkpt lat="43.8966852" lon="11.2321115"><ele>396.0</ele><time>2026-03-28T08:02:43.881Z</time></trkpt><trkpt lat="43.8967492" lon="11.2322112"><ele>396.0</ele><time>2026-03-28T08:02:44.879Z</time></trkpt><trkpt lat="43.8967944" lon="11.2323098"><ele>399.0</ele><time>2026-03-28T08:02:45.892Z</time></trkpt><trkpt lat="43.8968217" lon="11.2324146"><ele>402.0</ele><time>2026-03-28T08:02:46.879Z</time></trkpt><trkpt lat="43.8968312" lon="11.2325224"><ele>405.0</ele><time>2026-03-28T08:02:47.889Z</time></trkpt><trkpt lat="43.8968246" lon="11.2326302"><ele>408.0</ele><time>2026-03-28T08:02:48.895Z</time></trkpt><trkpt lat="43.896803" lon="11.2327448"><ele>411.0</ele><time>2026-03-28T08:02:49.897Z</time></trkpt><trkpt lat="43.896769" lon="11.2328713"><ele>414.0</ele><time>2026-03-28T08:02:50.894Z</time></trkpt><trkpt lat="43.8967298" lon="11.2330114"><ele>415.75</ele><time>2026-03-28T08:02:51.891Z</time></trkpt><trkpt lat="43.8966877" lon="11.2331592"><ele>417.5</ele><time>2026-03-28T08:02:52.897Z</time></trkpt><trkpt lat="43.8966446" lon="11.2333216"><ele>419.25</ele><time>2026-03-28T08:02:53.885Z</time></trkpt><trkpt lat="43.8965964" lon="11.233505"><ele>421.0</ele><time>2026-03-28T08:02:54.882Z</time></trkpt><trkpt lat="43.8965429" lon="11.2337001"><ele>421.0</ele><time>2026-03-28T08:02:55.889Z</time></trkpt><trkpt lat="43.8964896" lon="11.2338834"><ele>421.0</ele><time>2026-03-28T08:02:56.897Z</time></trkpt><trkpt lat="43.8964551" lon="11.234027"><ele>421.0</ele><time>2026-03-28T08:02:57.888Z</time></trkpt><trkpt lat="43.8964249" lon="11.2341218"><ele>421.0</ele><time>2026-03-28T08:02:58.889Z</time></trkpt><trkpt lat="43.8964373" lon="11.2342486"><ele>421.0</ele><time>2026-03-28T08:03:00.892Z</time></trkpt><trkpt lat="43.896544" lon="11.2342935"><ele>421.42857142857144</ele><time>2026-03-28T08:03:02.897Z</time></trkpt><trkpt lat="43.896618" lon="11.2343142"><ele>421.8571428571429</ele><time>2026-03-28T08:03:03.891Z</time></trkpt><trkpt lat="43.8966896" lon="11.2343472"><ele>422.28571428571433</ele><time>2026-03-28T08:03:04.879Z</time></trkpt><trkpt lat="43.8967506" lon="11.2343992"><ele>422.7142857142857</ele><time>2026-03-28T08:03:05.886Z</time></trkpt><trkpt lat="43.8968012" lon="11.2344688"><ele>423.1428571428571</ele><time>2026-03-28T08:03:06.884Z</time></trkpt><trkpt lat="43.896846" lon="11.2345464"><ele>423.5714285714286</ele><time>2026-03-28T08:03:07.886Z</time></trkpt><trkpt lat="43.8968767" lon="11.2346286"><ele>424.0</ele><time>2026-03-28T08:03:08.883Z</time></trkpt><trkpt lat="43.8968963" lon="11.2347175"><ele>421.83333333333337</ele><time>2026-03-28T08:03:09.892Z</time></trkpt><trkpt lat="43.8969111" lon="11.2348195"><ele>419.6666666666667</ele><time>2026-03-28T08:03:10.892Z</time></trkpt><trkpt lat="43.8969177" lon="11.234937"><ele>417.5</ele><time>2026-03-28T08:03:11.891Z</time></trkpt><trkpt lat="43.8969184" lon="11.2350628"><ele>415.33333333333337</ele><time>2026-03-28T08:03:12.892Z</time></trkpt><trkpt lat="43.8969148" lon="11.2351932"><ele>413.1666666666667</ele><time>2026-03-28T08:03:13.889Z</time></trkpt><trkpt lat="43.8969067" lon="11.2353217"><ele>411.0</ele><time>2026-03-28T08:03:14.887Z</time></trkpt><trkpt lat="43.8968928" lon="11.2354493"><ele>411.0</ele><time>2026-03-28T08:03:15.896Z</time></trkpt><trkpt lat="43.8968764" lon="11.2355815"><ele>411.0</ele><time>2026-03-28T08:03:16.89Z</time></trkpt><trkpt lat="43.896869" lon="11.2357134"><ele>411.0</ele><time>2026-03-28T08:03:17.894Z</time></trkpt><trkpt lat="43.8968768" lon="11.2358333"><ele>411.0</ele><time>2026-03-28T08:03:18.895Z</time></trkpt><trkpt lat="43.8968902" lon="11.2359384"><ele>411.0</ele><time>2026-03-28T08:03:19.895Z</time></trkpt><trkpt lat="43.8968974" lon="11.2360298"><ele>411.0</ele><time>2026-03-28T08:03:20.89Z</time></trkpt><trkpt lat="43.8968841" lon="11.2362061"><ele>411.8333333333333</ele><time>2026-03-28T08:03:22.89Z</time></trkpt><trkpt lat="43.8968615" lon="11.2363041"><ele>412.66666666666663</ele><time>2026-03-28T08:03:23.896Z</time></trkpt><trkpt lat="43.8968305" lon="11.236398"><ele>413.5</ele><time>2026-03-28T08:03:24.891Z</time></trkpt><trkpt lat="43.8968194" lon="11.2365548"><ele>414.3333333333333</ele><time>2026-03-28T08:03:26.884Z</time></trkpt><trkpt lat="43.8968439" lon="11.2366383"><ele>415.16666666666663</ele><time>2026-03-28T08:03:27.877Z</time></trkpt><trkpt lat="43.8968699" lon="11.2367368"><ele>416.0</ele><time>2026-03-28T08:03:28.884Z</time></trkpt><trkpt lat="43.8968896" lon="11.2368525"><ele>417.4</ele><time>2026-03-28T08:03:29.896Z</time></trkpt><trkpt lat="43.8969022" lon="11.2369805"><ele>418.8</ele><time>2026-03-28T08:03:30.894Z</time></trkpt><trkpt lat="43.8969094" lon="11.2371205"><ele>420.2</ele><time>2026-03-28T08:03:31.898Z</time></trkpt><trkpt lat="43.8969132" lon="11.2372781"><ele>421.59999999999997</ele><time>2026-03-28T08:03:32.892Z</time></trkpt><trkpt lat="43.8969076" lon="11.2374583"><ele>423.0</ele><time>2026-03-28T08:03:33.9Z</time></trkpt><trkpt lat="43.8968984" lon="11.2376476"><ele>426.79999999999995</ele><time>2026-03-28T08:03:34.889Z</time></trkpt><trkpt lat="43.8968942" lon="11.2378441"><ele>430.6</ele><time>2026-03-28T08:03:35.884Z</time></trkpt><trkpt lat="43.8968958" lon="11.2380264"><ele>434.40000000000003</ele><time>2026-03-28T08:03:36.882Z</time></trkpt><trkpt lat="43.8969021" lon="11.2381717"><ele>438.20000000000005</ele><time>2026-03-28T08:03:37.886Z</time></trkpt><trkpt lat="43.8969055" lon="11.2382673"><ele>442.0</ele><time>2026-03-28T08:03:38.895Z</time></trkpt><trkpt lat="43.896964" lon="11.2383273"><ele>442.0</ele><time>2026-03-28T08:03:40.895Z</time></trkpt><trkpt lat="43.8970855" lon="11.238252"><ele>442.00000000000006</ele><time>2026-03-28T08:03:42.888Z</time></trkpt><trkpt lat="43.8971644" lon="11.2381884"><ele>442.00000000000006</ele><time>2026-03-28T08:03:43.887Z</time></trkpt><trkpt lat="43.8972437" lon="11.2381399"><ele>442.0</ele><time>2026-03-28T08:03:44.88Z</time></trkpt><trkpt lat="43.8973267" lon="11.2381082"><ele>442.0</ele><time>2026-03-28T08:03:45.887Z</time></trkpt><trkpt lat="43.8974132" lon="11.2381022"><ele>442.0</ele><time>2026-03-28T08:03:46.895Z</time></trkpt><trkpt lat="43.8975075" lon="11.2381183"><ele>442.00000000000006</ele><time>2026-03-28T08:03:47.89Z</time></trkpt><trkpt lat="43.8976084" lon="11.2381427"><ele>442.00000000000006</ele><time>2026-03-28T08:03:48.895Z</time></trkpt><trkpt lat="43.8977052" lon="11.2381726"><ele>442.0</ele><time>2026-03-28T08:03:49.879Z</time></trkpt><trkpt lat="43.8977913" lon="11.2382115"><ele>442.0</ele><time>2026-03-28T08:03:50.885Z</time></trkpt><trkpt lat="43.8978636" lon="11.2382682"><ele>442.50000000000006</ele><time>2026-03-28T08:03:51.884Z</time></trkpt><trkpt lat="43.8979202" lon="11.2383523"><ele>443.0</ele><time>2026-03-28T08:03:52.879Z</time></trkpt><trkpt lat="43.8979654" lon="11.2384525"><ele>443.5</ele><time>2026-03-28T08:03:53.881Z</time></trkpt><trkpt lat="43.8980059" lon="11.238559"><ele>444.0</ele><time>2026-03-28T08:03:54.888Z</time></trkpt><trkpt lat="43.8980441" lon="11.2386722"><ele>444.50000000000006</ele><time>2026-03-28T08:03:55.882Z</time></trkpt><trkpt lat="43.8980797" lon="11.2387987"><ele>445.0</ele><time>2026-03-28T08:03:56.893Z</time></trkpt><trkpt lat="43.8981036" lon="11.2389269"><ele>447.0</ele><time>2026-03-28T08:03:57.89Z</time></trkpt><trkpt lat="43.8981162" lon="11.2390597"><ele>449.0</ele><time>2026-03-28T08:03:58.897Z</time></trkpt><trkpt lat="43.898111" lon="11.2392078"><ele>451.0</ele><time>2026-03-28T08:03:59.896Z</time></trkpt><trkpt lat="43.8980946" lon="11.2393743"><ele>453.0</ele><time>2026-03-28T08:04:00.894Z</time></trkpt><trkpt lat="43.8980749" lon="11.2395432"><ele>455.0</ele><time>2026-03-28T08:04:01.897Z</time></trkpt><trkpt lat="43.898058" lon="11.2396954"><ele>454.6</ele><time>2026-03-28T08:04:02.896Z</time></trkpt><trkpt lat="43.8980392" lon="11.239835"><ele>454.2</ele><time>2026-03-28T08:04:03.883Z</time></trkpt><trkpt lat="43.8980041" lon="11.2399733"><ele>453.79999999999995</ele><time>2026-03-28T08:04:04.893Z</time></trkpt><trkpt lat="43.8979603" lon="11.2401179"><ele>453.4</ele><time>2026-03-28T08:04:05.877Z</time></trkpt><trkpt lat="43.8979063" lon="11.240265"><ele>453.0</ele><time>2026-03-28T08:04:06.871Z</time></trkpt><trkpt lat="43.8978487" lon="11.2404033"><ele>453.0</ele><time>2026-03-28T08:04:07.887Z</time></trkpt><trkpt lat="43.8977968" lon="11.2405326"><ele>452.99999999999994</ele><time>2026-03-28T08:04:08.874Z</time></trkpt><trkpt lat="43.8977526" lon="11.2406617"><ele>452.99999999999994</ele><time>2026-03-28T08:04:09.883Z</time></trkpt><trkpt lat="43.8977205" lon="11.2407985"><ele>453.0</ele><time>2026-03-28T08:04:10.884Z</time></trkpt><trkpt lat="43.8976949" lon="11.2409458"><ele>453.0</ele><time>2026-03-28T08:04:11.888Z</time></trkpt><trkpt lat="43.8976781" lon="11.2411078"><ele>453.5</ele><time>2026-03-28T08:04:12.882Z</time></trkpt><trkpt lat="43.8976683" lon="11.2412833"><ele>454.0</ele><time>2026-03-28T08:04:13.885Z</time></trkpt><trkpt lat="43.8976624" lon="11.2414616"><ele>454.5</ele><time>2026-03-28T08:04:14.886Z</time></trkpt><trkpt lat="43.8976629" lon="11.2416387"><ele>455.0</ele><time>2026-03-28T08:04:15.871Z</time></trkpt><trkpt lat="43.897667" lon="11.2418092"><ele>456.4</ele><time>2026-03-28T08:04:16.88Z</time></trkpt><trkpt lat="43.897677" lon="11.2419702"><ele>457.8</ele><time>2026-03-28T08:04:17.883Z</time></trkpt><trkpt lat="43.8976812" lon="11.2421201"><ele>459.20000000000005</ele><time>2026-03-28T08:04:18.887Z</time></trkpt><trkpt lat="43.8976812" lon="11.2422649"><ele>460.6</ele><time>2026-03-28T08:04:19.881Z</time></trkpt><trkpt lat="43.8976854" lon="11.2423995"><ele>462.0</ele><time>2026-03-28T08:04:20.884Z</time></trkpt><trkpt lat="43.8977002" lon="11.2425154"><ele>463.8</ele><time>2026-03-28T08:04:21.887Z</time></trkpt><trkpt lat="43.8977271" lon="11.2425998"><ele>465.6</ele><time>2026-03-28T08:04:22.883Z</time></trkpt><trkpt lat="43.8978504" lon="11.2426856"><ele>467.40000000000003</ele><time>2026-03-28T08:04:24.88Z</time></trkpt><trkpt lat="43.8979429" lon="11.2427293"><ele>469.20000000000005</ele><time>2026-03-28T08:04:25.88Z</time></trkpt><trkpt lat="43.8980302" lon="11.2427975"><ele>471.0</ele><time>2026-03-28T08:04:26.892Z</time></trkpt><trkpt lat="43.898104" lon="11.2428745"><ele>471.0</ele><time>2026-03-28T08:04:27.878Z</time></trkpt><trkpt lat="43.8981725" lon="11.2429528"><ele>471.0</ele><time>2026-03-28T08:04:28.883Z</time></trkpt><trkpt lat="43.8982396" lon="11.2430296"><ele>471.0</ele><time>2026-03-28T08:04:29.88Z</time></trkpt><trkpt lat="43.898304" lon="11.2431077"><ele>471.0</ele><time>2026-03-28T08:04:30.886Z</time></trkpt><trkpt lat="43.8983673" lon="11.2431885"><ele>471.0</ele><time>2026-03-28T08:04:31.883Z</time></trkpt><trkpt lat="43.8984314" lon="11.2432778"><ele>471.0</ele><time>2026-03-28T08:04:32.888Z</time></trkpt><trkpt lat="43.8984946" lon="11.2433713"><ele>470.5</ele><time>2026-03-28T08:04:33.887Z</time></trkpt><trkpt lat="43.8985515" lon="11.2434661"><ele>470.0</ele><time>2026-03-28T08:04:34.884Z</time></trkpt><trkpt lat="43.8985956" lon="11.2435666"><ele>469.5</ele><time>2026-03-28T08:04:35.899Z</time></trkpt><trkpt lat="43.8986239" lon="11.2436753"><ele>469.0</ele><time>2026-03-28T08:04:36.887Z</time></trkpt><trkpt lat="43.8986331" lon="11.2437974"><ele>468.5</ele><time>2026-03-28T08:04:37.885Z</time></trkpt><trkpt lat="43.8986262" lon="11.2439315"><ele>468.0</ele><time>2026-03-28T08:04:38.89Z</time></trkpt><trkpt lat="43.8986219" lon="11.2440745"><ele>469.79999999999995</ele><time>2026-03-28T08:04:39.886Z</time></trkpt><trkpt lat="43.8986184" lon="11.2442166"><ele>471.59999999999997</ele><time>2026-03-28T08:04:40.887Z</time></trkpt><trkpt lat="43.8986125" lon="11.2443488"><ele>473.40000000000003</ele><time>2026-03-28T08:04:41.881Z</time></trkpt><trkpt lat="43.8986153" lon="11.2444715"><ele>475.20000000000005</ele><time>2026-03-28T08:04:42.875Z</time></trkpt><trkpt lat="43.8986308" lon="11.2445879"><ele>477.0</ele><time>2026-03-28T08:04:43.895Z</time></trkpt><trkpt lat="43.8986643" lon="11.2446911"><ele>477.0</ele><time>2026-03-28T08:04:44.88Z</time></trkpt><trkpt lat="43.8987222" lon="11.2447848"><ele>477.00000000000006</ele><time>2026-03-28T08:04:45.885Z</time></trkpt><trkpt lat="43.898787" lon="11.2448833"><ele>477.00000000000006</ele><time>2026-03-28T08:04:46.889Z</time></trkpt><trkpt lat="43.898856" lon="11.2449983"><ele>477.0</ele><time>2026-03-28T08:04:47.879Z</time></trkpt><trkpt lat="43.898926" lon="11.2451201"><ele>477.0</ele><time>2026-03-28T08:04:48.884Z</time></trkpt><trkpt lat="43.8989956" lon="11.2452391"><ele>478.8333333333333</ele><time>2026-03-28T08:04:49.881Z</time></trkpt><trkpt lat="43.8990616" lon="11.2453436"><ele>480.66666666666663</ele><time>2026-03-28T08:04:50.886Z</time></trkpt><trkpt lat="43.8991226" lon="11.2454355"><ele>482.5</ele><time>2026-03-28T08:04:51.891Z</time></trkpt><trkpt lat="43.8991777" lon="11.2455282"><ele>484.3333333333333</ele><time>2026-03-28T08:04:52.887Z</time></trkpt><trkpt lat="43.8992239" lon="11.2456157"><ele>486.16666666666663</ele><time>2026-03-28T08:04:53.89Z</time></trkpt><trkpt lat="43.8992669" lon="11.2457051"><ele>488.0</ele><time>2026-03-28T08:04:54.899Z</time></trkpt><trkpt lat="43.8993101" lon="11.2457997"><ele>489.49999999999994</ele><time>2026-03-28T08:04:55.891Z</time></trkpt><trkpt lat="43.8993577" lon="11.2458874"><ele>491.0</ele><time>2026-03-28T08:04:56.891Z</time></trkpt><trkpt lat="43.8994121" lon="11.2459633"><ele>492.5</ele><time>2026-03-28T08:04:57.882Z</time></trkpt><trkpt lat="43.8994729" lon="11.2460231"><ele>494.0</ele><time>2026-03-28T08:04:58.877Z</time></trkpt><trkpt lat="43.89954" lon="11.2460766"><ele>495.49999999999994</ele><time>2026-03-28T08:04:59.882Z</time></trkpt><trkpt lat="43.8996052" lon="11.246126"><ele>497.0</ele><time>2026-03-28T08:05:00.876Z</time></trkpt><trkpt lat="43.8996757" lon="11.2461678"><ele>496.99999999999994</ele><time>2026-03-28T08:05:01.889Z</time></trkpt><trkpt lat="43.8997509" lon="11.2462046"><ele>497.0</ele><time>2026-03-28T08:05:02.894Z</time></trkpt><trkpt lat="43.8998278" lon="11.2462431"><ele>497.0</ele><time>2026-03-28T08:05:03.889Z</time></trkpt><trkpt lat="43.8999007" lon="11.2462802"><ele>497.0</ele><time>2026-03-28T08:05:04.893Z</time></trkpt><trkpt lat="43.8999117" lon="11.2463719"><ele>496.99999999999994</ele><time>2026-03-28T08:05:19.888Z</time></trkpt><trkpt lat="43.8998303" lon="11.2464692"><ele>497.0</ele><time>2026-03-28T08:05:21.889Z</time></trkpt><trkpt lat="43.8997379" lon="11.2465816"><ele>498.3333333333333</ele><time>2026-03-28T08:05:23.877Z</time></trkpt><trkpt lat="43.899664" lon="11.2467005"><ele>499.66666666666663</ele><time>2026-03-28T08:05:25.878Z</time></trkpt><trkpt lat="43.899628" lon="11.2467734"><ele>501.0</ele><time>2026-03-28T08:05:26.877Z</time></trkpt><trkpt lat="43.8995842" lon="11.2468473"><ele>502.33333333333337</ele><time>2026-03-28T08:05:27.876Z</time></trkpt><trkpt lat="43.8995356" lon="11.2469132"><ele>503.6666666666667</ele><time>2026-03-28T08:05:28.879Z</time></trkpt><trkpt lat="43.899474" lon="11.2469765"><ele>505.0</ele><time>2026-03-28T08:05:29.876Z</time></trkpt><trkpt lat="43.8994076" lon="11.2470393"><ele>505.00000000000006</ele><time>2026-03-28T08:05:30.892Z</time></trkpt><trkpt lat="43.899344" lon="11.247109"><ele>505.0</ele><time>2026-03-28T08:05:31.877Z</time></trkpt><trkpt lat="43.8992967" lon="11.2471691"><ele>505.0</ele><time>2026-03-28T08:05:32.879Z</time></trkpt><trkpt lat="43.8992574" lon="11.2472796"><ele>505.0</ele><time>2026-03-28T08:05:34.881Z</time></trkpt><trkpt lat="43.8992597" lon="11.2473977"><ele>505.00000000000006</ele><time>2026-03-28T08:05:36.899Z</time></trkpt><trkpt lat="43.8992068" lon="11.2475234"><ele>505.0</ele><time>2026-03-28T08:05:38.881Z</time></trkpt><trkpt lat="43.8991344" lon="11.2476284"><ele>506.83333333333337</ele><time>2026-03-28T08:05:40.88Z</time></trkpt><trkpt lat="43.8990412" lon="11.2476449"><ele>508.6666666666667</ele><time>2026-03-28T08:05:42.894Z</time></trkpt><trkpt lat="43.8989788" lon="11.2476326"><ele>510.5</ele><time>2026-03-28T08:05:43.881Z</time></trkpt><trkpt lat="43.8989077" lon="11.2476189"><ele>512.3333333333334</ele><time>2026-03-28T08:05:44.895Z</time></trkpt><trkpt lat="43.898835" lon="11.2476072"><ele>514.1666666666666</ele><time>2026-03-28T08:05:45.879Z</time></trkpt><trkpt lat="43.898723" lon="11.2476522"><ele>516.0</ele><time>2026-03-28T08:05:47.891Z</time></trkpt><trkpt lat="43.8986322" lon="11.2477782"><ele>516.0</ele><time>2026-03-28T08:05:49.895Z</time></trkpt><trkpt lat="43.8985739" lon="11.247839"><ele>516.0</ele><time>2026-03-28T08:05:50.886Z</time></trkpt><trkpt lat="43.8985158" lon="11.2478967"><ele>516.0</ele><time>2026-03-28T08:05:51.889Z</time></trkpt><trkpt lat="43.8984525" lon="11.2479568"><ele>516.0</ele><time>2026-03-28T08:05:52.89Z</time></trkpt><trkpt lat="43.8983795" lon="11.2480226"><ele>516.0</ele><time>2026-03-28T08:05:53.889Z</time></trkpt><trkpt lat="43.8982868" lon="11.2480837"><ele>516.0</ele><time>2026-03-28T08:05:54.886Z</time></trkpt><trkpt lat="43.8981965" lon="11.2481255"><ele>519.5</ele><time>2026-03-28T08:05:55.89Z</time></trkpt><trkpt lat="43.8981204" lon="11.2481586"><ele>523.0</ele><time>2026-03-28T08:05:56.881Z</time></trkpt><trkpt lat="43.8980457" lon="11.248203"><ele>526.5</ele><time>2026-03-28T08:05:57.888Z</time></trkpt><trkpt lat="43.8979718" lon="11.2482575"><ele>530.0</ele><time>2026-03-28T08:05:58.885Z</time></trkpt><trkpt lat="43.897901" lon="11.2483127"><ele>533.5</ele><time>2026-03-28T08:05:59.886Z</time></trkpt><trkpt lat="43.8978368" lon="11.2483811"><ele>537.0</ele><time>2026-03-28T08:06:00.885Z</time></trkpt><trkpt lat="43.8977724" lon="11.248458"><ele>537.0</ele><time>2026-03-28T08:06:01.886Z</time></trkpt><trkpt lat="43.8977001" lon="11.2485263"><ele>537.0</ele><time>2026-03-28T08:06:02.884Z</time></trkpt><trkpt lat="43.897633" lon="11.2485705"><ele>537.0</ele><time>2026-03-28T08:06:03.874Z</time></trkpt><trkpt lat="43.8975667" lon="11.2485899"><ele>537.0</ele><time>2026-03-28T08:06:04.885Z</time></trkpt><trkpt lat="43.897508" lon="11.2486594"><ele>537.0</ele><time>2026-03-28T08:06:06.884Z</time></trkpt><trkpt lat="43.8975741" lon="11.2487334"><ele>537.0</ele><time>2026-03-28T08:06:09.895Z</time></trkpt><trkpt lat="43.897648" lon="11.248787"><ele>537.0</ele><time>2026-03-28T08:06:11.894Z</time></trkpt><trkpt lat="43.8977675" lon="11.2488349"><ele>537.0</ele><time>2026-03-28T08:06:13.899Z</time></trkpt><trkpt lat="43.8978419" lon="11.248845"><ele>537.0</ele><time>2026-03-28T08:06:14.883Z</time></trkpt><trkpt lat="43.8979128" lon="11.2488675"><ele>537.0</ele><time>2026-03-28T08:06:15.883Z</time></trkpt><trkpt lat="43.8980114" lon="11.2489474"><ele>537.0</ele><time>2026-03-28T08:06:17.886Z</time></trkpt><trkpt lat="43.8981087" lon="11.2490451"><ele>537.8000000000001</ele><time>2026-03-28T08:06:19.889Z</time></trkpt><trkpt lat="43.8981768" lon="11.2491317"><ele>538.6</ele><time>2026-03-28T08:06:21.898Z</time></trkpt><trkpt lat="43.8982366" lon="11.2492262"><ele>539.4000000000001</ele><time>2026-03-28T08:06:23.896Z</time></trkpt><trkpt lat="43.898302" lon="11.2493265"><ele>540.2</ele><time>2026-03-28T08:06:25.89Z</time></trkpt><trkpt lat="43.8983703" lon="11.2494268"><ele>541.0</ele><time>2026-03-28T08:06:27.881Z</time></trkpt><trkpt lat="43.8984427" lon="11.2495072"><ele>540.6</ele><time>2026-03-28T08:06:29.891Z</time></trkpt><trkpt lat="43.8985228" lon="11.2495643"><ele>540.2</ele><time>2026-03-28T08:06:31.904Z</time></trkpt><trkpt lat="43.898621" lon="11.2496535"><ele>539.8</ele><time>2026-03-28T08:06:33.886Z</time></trkpt><trkpt lat="43.8986798" lon="11.2497014"><ele>539.4</ele><time>2026-03-28T08:06:34.887Z</time></trkpt><trkpt lat="43.8987774" lon="11.2497759"><ele>539.0</ele><time>2026-03-28T08:06:36.89Z</time></trkpt><trkpt lat="43.8988475" lon="11.2498097"><ele>539.0</ele><time>2026-03-28T08:06:38.906Z</time></trkpt><trkpt lat="43.8988941" lon="11.2498968"><ele>539.0</ele><time>2026-03-28T08:06:41.907Z</time></trkpt><trkpt lat="43.8989057" lon="11.2500037"><ele>539.0</ele><time>2026-03-28T08:06:43.911Z</time></trkpt><trkpt lat="43.8989748" lon="11.2501001"><ele>539.0</ele><time>2026-03-28T08:06:45.909Z</time></trkpt><trkpt lat="43.8990251" lon="11.250154"><ele>539.0</ele><time>2026-03-28T08:06:46.895Z</time></trkpt><trkpt lat="43.8990795" lon="11.2502004"><ele>539.0</ele><time>2026-03-28T08:06:47.884Z</time></trkpt><trkpt lat="43.8991393" lon="11.2502449"><ele>539.0</ele><time>2026-03-28T08:06:48.898Z</time></trkpt><trkpt lat="43.8992007" lon="11.250293"><ele>539.1666666666666</ele><time>2026-03-28T08:06:49.903Z</time></trkpt><trkpt lat="43.8992536" lon="11.2503463"><ele>539.3333333333333</ele><time>2026-03-28T08:06:50.906Z</time></trkpt><trkpt lat="43.899362" lon="11.2504132"><ele>539.5</ele><time>2026-03-28T08:06:52.884Z</time></trkpt><trkpt lat="43.8994794" lon="11.2504385"><ele>539.6666666666666</ele><time>2026-03-28T08:06:54.879Z</time></trkpt><trkpt lat="43.899545" lon="11.250449"><ele>539.8333333333334</ele><time>2026-03-28T08:06:55.887Z</time></trkpt><trkpt lat="43.8996085" lon="11.2504683"><ele>540.0</ele><time>2026-03-28T08:06:56.894Z</time></trkpt><trkpt lat="43.8996704" lon="11.2505007"><ele>540.0</ele><time>2026-03-28T08:06:57.886Z</time></trkpt><trkpt lat="43.8997802" lon="11.2505629"><ele>540.0</ele><time>2026-03-28T08:06:59.882Z</time></trkpt><trkpt lat="43.8998472" lon="11.2506251"><ele>540.0</ele><time>2026-03-28T08:07:01.914Z</time></trkpt><trkpt lat="43.8999042" lon="11.2506932"><ele>540.0</ele><time>2026-03-28T08:07:03.911Z</time></trkpt><trkpt lat="43.8999724" lon="11.2507544"><ele>540.0</ele><time>2026-03-28T08:07:05.906Z</time></trkpt><trkpt lat="43.900058" lon="11.2508198"><ele>542.4</ele><time>2026-03-28T08:07:07.901Z</time></trkpt><trkpt lat="43.9001692" lon="11.2508553"><ele>544.8</ele><time>2026-03-28T08:07:09.896Z</time></trkpt><trkpt lat="43.9002651" lon="11.2508949"><ele>547.2</ele><time>2026-03-28T08:07:11.895Z</time></trkpt><trkpt lat="43.9003512" lon="11.2509704"><ele>549.6</ele><time>2026-03-28T08:07:13.898Z</time></trkpt><trkpt lat="43.9004429" lon="11.2510648"><ele>552.0</ele><time>2026-03-28T08:07:15.891Z</time></trkpt><trkpt lat="43.9005579" lon="11.2511533"><ele>552.0</ele><time>2026-03-28T08:07:17.898Z</time></trkpt><trkpt lat="43.9006225" lon="11.2511902"><ele>552.0</ele><time>2026-03-28T08:07:18.896Z</time></trkpt><trkpt lat="43.9006833" lon="11.2512261"><ele>552.0</ele><time>2026-03-28T08:07:19.898Z</time></trkpt><trkpt lat="43.9007439" lon="11.2512623"><ele>552.0</ele><time>2026-03-28T08:07:20.895Z</time></trkpt><trkpt lat="43.9008059" lon="11.2512947"><ele>552.0</ele><time>2026-03-28T08:07:21.891Z</time></trkpt><trkpt lat="43.9008684" lon="11.2513351"><ele>552.0</ele><time>2026-03-28T08:07:22.893Z</time></trkpt><trkpt lat="43.9009157" lon="11.2514055"><ele>552.0</ele><time>2026-03-28T08:07:23.884Z</time></trkpt><trkpt lat="43.9009591" lon="11.251484"><ele>555.0</ele><time>2026-03-28T08:07:24.882Z</time></trkpt><trkpt lat="43.9010021" lon="11.2515652"><ele>558.0</ele><time>2026-03-28T08:07:25.881Z</time></trkpt><trkpt lat="43.9010409" lon="11.2516365"><ele>561.0</ele><time>2026-03-28T08:07:26.879Z</time></trkpt><trkpt lat="43.901106" lon="11.2517999"><ele>564.0</ele><time>2026-03-28T08:07:28.878Z</time></trkpt><trkpt lat="43.9011399" lon="11.2518899"><ele>567.0</ele><time>2026-03-28T08:07:29.875Z</time></trkpt><trkpt lat="43.9011925" lon="11.2520352"><ele>567.0</ele><time>2026-03-28T08:07:31.879Z</time></trkpt><trkpt lat="43.9012279" lon="11.2521446"><ele>567.0</ele><time>2026-03-28T08:07:33.867Z</time></trkpt><trkpt lat="43.9012177" lon="11.252265"><ele>567.0</ele><time>2026-03-28T08:07:35.887Z</time></trkpt><trkpt lat="43.9011935" lon="11.252407"><ele>567.0</ele><time>2026-03-28T08:07:37.876Z</time></trkpt><trkpt lat="43.9011869" lon="11.2525219"><ele>567.0</ele><time>2026-03-28T08:07:39.875Z</time></trkpt><trkpt lat="43.9012417" lon="11.2526115"><ele>567.0</ele><time>2026-03-28T08:07:41.879Z</time></trkpt><trkpt lat="43.9013206" lon="11.2526822"><ele>563.8000000000001</ele><time>2026-03-28T08:07:43.896Z</time></trkpt><trkpt lat="43.9014214" lon="11.2527712"><ele>560.6</ele><time>2026-03-28T08:07:45.894Z</time></trkpt><trkpt lat="43.9015144" lon="11.2528366"><ele>557.4000000000001</ele><time>2026-03-28T08:07:47.901Z</time></trkpt><trkpt lat="43.9015893" lon="11.2529113"><ele>554.2</ele><time>2026-03-28T08:07:49.902Z</time></trkpt><trkpt lat="43.9016547" lon="11.2530156"><ele>551.0</ele><time>2026-03-28T08:07:51.889Z</time></trkpt><trkpt lat="43.9017174" lon="11.2531302"><ele>553.0</ele><time>2026-03-28T08:07:53.89Z</time></trkpt><trkpt lat="43.9017593" lon="11.2532199"><ele>555.0</ele><time>2026-03-28T08:07:55.906Z</time></trkpt><trkpt lat="43.9017911" lon="11.2533063"><ele>557.0</ele><time>2026-03-28T08:07:57.891Z</time></trkpt><trkpt lat="43.9017996" lon="11.2534064"><ele>559.0</ele><time>2026-03-28T08:07:59.89Z</time></trkpt><trkpt lat="43.9017837" lon="11.2535061"><ele>561.0</ele><time>2026-03-28T08:08:01.907Z</time></trkpt><trkpt lat="43.901772" lon="11.2536398"><ele>563.0</ele><time>2026-03-28T08:08:03.894Z</time></trkpt><trkpt lat="43.90176" lon="11.2537634"><ele>558.4</ele><time>2026-03-28T08:08:05.893Z</time></trkpt><trkpt lat="43.9017266" lon="11.2538882"><ele>553.8</ele><time>2026-03-28T08:08:07.901Z</time></trkpt><trkpt lat="43.9016579" lon="11.2539968"><ele>549.2</ele><time>2026-03-28T08:08:09.89Z</time></trkpt><trkpt lat="43.9015676" lon="11.2540865"><ele>544.6</ele><time>2026-03-28T08:08:11.898Z</time></trkpt><trkpt lat="43.9014549" lon="11.2541546"><ele>540.0</ele><time>2026-03-28T08:08:13.874Z</time></trkpt><trkpt lat="43.9013512" lon="11.2542444"><ele>540.0</ele><time>2026-03-28T08:08:15.873Z</time></trkpt><trkpt lat="43.9013094" lon="11.2543145"><ele>540.0</ele><time>2026-03-28T08:08:16.882Z</time></trkpt><trkpt lat="43.901265" lon="11.2543901"><ele>540.0</ele><time>2026-03-28T08:08:17.875Z</time></trkpt><trkpt lat="43.9012231" lon="11.2544641"><ele>540.0</ele><time>2026-03-28T08:08:18.876Z</time></trkpt><trkpt lat="43.9011796" lon="11.2545446"><ele>540.0</ele><time>2026-03-28T08:08:19.881Z</time></trkpt><trkpt lat="43.901151" lon="11.254624"><ele>540.0</ele><time>2026-03-28T08:08:20.873Z</time></trkpt><trkpt lat="43.9011273" lon="11.2547119"><ele>540.0</ele><time>2026-03-28T08:08:21.878Z</time></trkpt><trkpt lat="43.9011029" lon="11.2548089"><ele>538.6</ele><time>2026-03-28T08:08:22.879Z</time></trkpt><trkpt lat="43.9010526" lon="11.2549375"><ele>537.2</ele><time>2026-03-28T08:08:24.878Z</time></trkpt><trkpt lat="43.9009766" lon="11.2550145"><ele>535.8</ele><time>2026-03-28T08:08:26.888Z</time></trkpt><trkpt lat="43.9009199" lon="11.2550921"><ele>534.4</ele><time>2026-03-28T08:08:28.893Z</time></trkpt><trkpt lat="43.9008689" lon="11.2551984"><ele>533.0</ele><time>2026-03-28T08:08:30.905Z</time></trkpt><trkpt lat="43.9007925" lon="11.2553127"><ele>533.0</ele><time>2026-03-28T08:08:32.883Z</time></trkpt><trkpt lat="43.9007138" lon="11.2554248"><ele>533.0</ele><time>2026-03-28T08:08:34.88Z</time></trkpt><trkpt lat="43.9006579" lon="11.2555686"><ele>533.0</ele><time>2026-03-28T08:08:36.883Z</time></trkpt><trkpt lat="43.9006168" lon="11.2556951"><ele>533.0</ele><time>2026-03-28T08:08:38.874Z</time></trkpt><trkpt lat="43.9005988" lon="11.2558311"><ele>533.0</ele><time>2026-03-28T08:08:40.881Z</time></trkpt><trkpt lat="43.9005994" lon="11.2559711"><ele>535.6</ele><time>2026-03-28T08:08:42.898Z</time></trkpt><trkpt lat="43.9005745" lon="11.2561595"><ele>538.1999999999999</ele><time>2026-03-28T08:08:44.882Z</time></trkpt><trkpt lat="43.9005412" lon="11.2562835"><ele>540.8</ele><time>2026-03-28T08:08:45.878Z</time></trkpt><trkpt lat="43.9005062" lon="11.2563951"><ele>543.4</ele><time>2026-03-28T08:08:46.879Z</time></trkpt><trkpt lat="43.9004686" lon="11.2564761"><ele>546.0</ele><time>2026-03-28T08:08:47.878Z</time></trkpt><trkpt lat="43.9004206" lon="11.2566239"><ele>546.0</ele><time>2026-03-28T08:08:49.883Z</time></trkpt><trkpt lat="43.9004094" lon="11.2567104"><ele>546.0</ele><time>2026-03-28T08:08:50.889Z</time></trkpt><trkpt lat="43.9004035" lon="11.2568017"><ele>546.0</ele><time>2026-03-28T08:08:51.879Z</time></trkpt><trkpt lat="43.9004034" lon="11.2568914"><ele>546.0</ele><time>2026-03-28T08:08:52.88Z</time></trkpt><trkpt lat="43.9005002" lon="11.2569357"><ele>546.0</ele><time>2026-03-28T08:09:39.892Z</time></trkpt><trkpt lat="43.9006225" lon="11.2570181"><ele>546.0</ele><time>2026-03-28T08:09:41.879Z</time></trkpt><trkpt lat="43.9006942" lon="11.2570718"><ele>546.0</ele><time>2026-03-28T08:09:42.88Z</time></trkpt><trkpt lat="43.9007538" lon="11.2571012"><ele>546.0</ele><time>2026-03-28T08:09:43.882Z</time></trkpt><trkpt lat="43.9008428" lon="11.2570854"><ele>546.0</ele><time>2026-03-28T08:09:45.882Z</time></trkpt><trkpt lat="43.900905" lon="11.2569481"><ele>546.0</ele><time>2026-03-28T08:09:47.879Z</time></trkpt><trkpt lat="43.9009203" lon="11.2568426"><ele>546.0</ele><time>2026-03-28T08:09:48.879Z</time></trkpt><trkpt lat="43.9009258" lon="11.256727"><ele>546.0</ele><time>2026-03-28T08:09:49.89Z</time></trkpt><trkpt lat="43.9009261" lon="11.2566092"><ele>545.8333333333334</ele><time>2026-03-28T08:09:50.88Z</time></trkpt><trkpt lat="43.900929" lon="11.2564939"><ele>545.6666666666666</ele><time>2026-03-28T08:09:51.882Z</time></trkpt><trkpt lat="43.9009387" lon="11.2563883"><ele>545.5</ele><time>2026-03-28T08:09:52.883Z</time></trkpt><trkpt lat="43.9009841" lon="11.2562917"><ele>545.3333333333333</ele><time>2026-03-28T08:09:54.881Z</time></trkpt><trkpt lat="43.9010712" lon="11.2562874"><ele>545.1666666666666</ele><time>2026-03-28T08:09:56.889Z</time></trkpt><trkpt lat="43.9011366" lon="11.2562533"><ele>545.0</ele><time>2026-03-28T08:09:57.877Z</time></trkpt><trkpt lat="43.9011999" lon="11.2561893"><ele>546.6666666666666</ele><time>2026-03-28T08:09:58.879Z</time></trkpt><trkpt lat="43.9012657" lon="11.2561094"><ele>548.3333333333333</ele><time>2026-03-28T08:09:59.885Z</time></trkpt><trkpt lat="43.9013343" lon="11.2560349"><ele>550.0</ele><time>2026-03-28T08:10:00.889Z</time></trkpt><trkpt lat="43.9013995" lon="11.2559755"><ele>551.6666666666666</ele><time>2026-03-28T08:10:01.886Z</time></trkpt><trkpt lat="43.9014621" lon="11.2559245"><ele>553.3333333333334</ele><time>2026-03-28T08:10:02.89Z</time></trkpt><trkpt lat="43.9015195" lon="11.2558798"><ele>555.0</ele><time>2026-03-28T08:10:03.875Z</time></trkpt><trkpt lat="43.9016364" lon="11.2558007"><ele>555.0</ele><time>2026-03-28T08:10:05.883Z</time></trkpt><trkpt lat="43.9017108" lon="11.2557647"><ele>555.0</ele><time>2026-03-28T08:10:06.881Z</time></trkpt><trkpt lat="43.9017821" lon="11.2557196"><ele>555.0</ele><time>2026-03-28T08:10:07.879Z</time></trkpt><trkpt lat="43.9018468" lon="11.2556543"><ele>555.0</ele><time>2026-03-28T08:10:08.876Z</time></trkpt><trkpt lat="43.9019043" lon="11.2555675"><ele>555.0</ele><time>2026-03-28T08:10:09.888Z</time></trkpt><trkpt lat="43.9019592" lon="11.2554893"><ele>555.0</ele><time>2026-03-28T08:10:10.88Z</time></trkpt><trkpt lat="43.9020196" lon="11.2554279"><ele>558.0</ele><time>2026-03-28T08:10:11.879Z</time></trkpt><trkpt lat="43.9020888" lon="11.2553816"><ele>561.0</ele><time>2026-03-28T08:10:12.885Z</time></trkpt><trkpt lat="43.9021531" lon="11.2553354"><ele>564.0</ele><time>2026-03-28T08:10:13.889Z</time></trkpt><trkpt lat="43.9022089" lon="11.2552859"><ele>567.0</ele><time>2026-03-28T08:10:14.89Z</time></trkpt><trkpt lat="43.9023109" lon="11.2551989"><ele>570.0</ele><time>2026-03-28T08:10:16.874Z</time></trkpt><trkpt lat="43.9024213" lon="11.2551312"><ele>570.0</ele><time>2026-03-28T08:10:18.893Z</time></trkpt><trkpt lat="43.902513" lon="11.2550297"><ele>570.0</ele><time>2026-03-28T08:10:20.895Z</time></trkpt><trkpt lat="43.9025579" lon="11.2549675"><ele>570.0</ele><time>2026-03-28T08:10:21.887Z</time></trkpt><trkpt lat="43.9026013" lon="11.2548909"><ele>570.0</ele><time>2026-03-28T08:10:22.889Z</time></trkpt><trkpt lat="43.9026507" lon="11.2547998"><ele>570.0</ele><time>2026-03-28T08:10:23.888Z</time></trkpt><trkpt lat="43.9026981" lon="11.2546971"><ele>570.0</ele><time>2026-03-28T08:10:24.89Z</time></trkpt><trkpt lat="43.9027369" lon="11.2546067"><ele>574.1666666666666</ele><time>2026-03-28T08:10:25.881Z</time></trkpt><trkpt lat="43.9027768" lon="11.2545371"><ele>578.3333333333334</ele><time>2026-03-28T08:10:26.885Z</time></trkpt><trkpt lat="43.902867" lon="11.2544222"><ele>582.5</ele><time>2026-03-28T08:10:28.872Z</time></trkpt><trkpt lat="43.9029156" lon="11.2543612"><ele>586.6666666666667</ele><time>2026-03-28T08:10:29.877Z</time></trkpt><trkpt lat="43.9029642" lon="11.2542949"><ele>590.8333333333334</ele><time>2026-03-28T08:10:30.874Z</time></trkpt><trkpt lat="43.9030158" lon="11.2542266"><ele>595.0</ele><time>2026-03-28T08:10:31.878Z</time></trkpt><trkpt lat="43.9030741" lon="11.2541542"><ele>595.0</ele><time>2026-03-28T08:10:32.871Z</time></trkpt><trkpt lat="43.9031306" lon="11.2540703"><ele>595.0</ele><time>2026-03-28T08:10:33.879Z</time></trkpt><trkpt lat="43.9031683" lon="11.2539798"><ele>595.0</ele><time>2026-03-28T08:10:34.881Z</time></trkpt><trkpt lat="43.9031854" lon="11.2538756"><ele>595.0</ele><time>2026-03-28T08:10:35.88Z</time></trkpt><trkpt lat="43.9031976" lon="11.2537644"><ele>595.0</ele><time>2026-03-28T08:10:36.883Z</time></trkpt><trkpt lat="43.9032124" lon="11.2536592"><ele>595.0</ele><time>2026-03-28T08:10:37.88Z</time></trkpt><trkpt lat="43.9032261" lon="11.2535658"><ele>594.8333333333334</ele><time>2026-03-28T08:10:38.877Z</time></trkpt><trkpt lat="43.9032593" lon="11.2534511"><ele>594.6666666666667</ele><time>2026-03-28T08:10:40.877Z</time></trkpt><trkpt lat="43.9033291" lon="11.2533978"><ele>594.5</ele><time>2026-03-28T08:10:42.887Z</time></trkpt><trkpt lat="43.9033974" lon="11.2533237"><ele>594.3333333333334</ele><time>2026-03-28T08:10:44.884Z</time></trkpt><trkpt lat="43.9034695" lon="11.2533204"><ele>594.1666666666666</ele><time>2026-03-28T08:10:46.896Z</time></trkpt><trkpt lat="43.9035711" lon="11.2533886"><ele>594.0</ele><time>2026-03-28T08:10:48.871Z</time></trkpt><trkpt lat="43.9036746" lon="11.2534231"><ele>595.4</ele><time>2026-03-28T08:10:50.872Z</time></trkpt><trkpt lat="43.9037384" lon="11.2534219"><ele>596.8</ele><time>2026-03-28T08:10:52.883Z</time></trkpt><trkpt lat="43.9037948" lon="11.2534691"><ele>598.2</ele><time>2026-03-28T08:10:55.893Z</time></trkpt><trkpt lat="43.9038055" lon="11.2536285"><ele>599.6</ele><time>2026-03-28T08:10:57.887Z</time></trkpt><trkpt lat="43.9038628" lon="11.2537556"><ele>601.0</ele><time>2026-03-28T08:10:59.88Z</time></trkpt><trkpt lat="43.9039692" lon="11.2538157"><ele>601.0</ele><time>2026-03-28T08:11:01.881Z</time></trkpt><trkpt lat="43.9040855" lon="11.2538618"><ele>601.0</ele><time>2026-03-28T08:11:03.875Z</time></trkpt><trkpt lat="43.9042068" lon="11.2539177"><ele>601.0</ele><time>2026-03-28T08:11:05.88Z</time></trkpt><trkpt lat="43.9042728" lon="11.253939"><ele>601.0</ele><time>2026-03-28T08:11:06.875Z</time></trkpt><trkpt lat="43.9043417" lon="11.2539588"><ele>601.0</ele><time>2026-03-28T08:11:07.881Z</time></trkpt><trkpt lat="43.9044095" lon="11.2539699"><ele>600.5</ele><time>2026-03-28T08:11:08.875Z</time></trkpt><trkpt lat="43.9044792" lon="11.253977"><ele>600.0</ele><time>2026-03-28T08:11:09.878Z</time></trkpt><trkpt lat="43.9045479" lon="11.2539869"><ele>599.5</ele><time>2026-03-28T08:11:10.883Z</time></trkpt><trkpt lat="43.9046167" lon="11.2540105"><ele>599.0</ele><time>2026-03-28T08:11:11.89Z</time></trkpt><trkpt lat="43.9046832" lon="11.254033"><ele>598.5</ele><time>2026-03-28T08:11:12.886Z</time></trkpt><trkpt lat="43.9047863" lon="11.2540517"><ele>598.0</ele><time>2026-03-28T08:11:14.882Z</time></trkpt><trkpt lat="43.9048695" lon="11.2541145"><ele>598.0</ele><time>2026-03-28T08:11:16.891Z</time></trkpt><trkpt lat="43.9049203" lon="11.254181"><ele>598.0</ele><time>2026-03-28T08:11:17.892Z</time></trkpt><trkpt lat="43.9049714" lon="11.2542518"><ele>598.0</ele><time>2026-03-28T08:11:18.894Z</time></trkpt><trkpt lat="43.905018" lon="11.2543205"><ele>598.0</ele><time>2026-03-28T08:11:19.888Z</time></trkpt><trkpt lat="43.9050901" lon="11.254426"><ele>598.0</ele><time>2026-03-28T08:11:21.892Z</time></trkpt><trkpt lat="43.9051601" lon="11.2544474"><ele>598.0</ele><time>2026-03-28T08:11:23.901Z</time></trkpt><trkpt lat="43.9052713" lon="11.2544322"><ele>597.0</ele><time>2026-03-28T08:11:25.897Z</time></trkpt><trkpt lat="43.9053875" lon="11.2544101"><ele>596.0</ele><time>2026-03-28T08:11:27.888Z</time></trkpt><trkpt lat="43.9055136" lon="11.2543651"><ele>595.0</ele><time>2026-03-28T08:11:29.889Z</time></trkpt><trkpt lat="43.9055784" lon="11.2543495"><ele>594.0</ele><time>2026-03-28T08:11:30.878Z</time></trkpt><trkpt lat="43.9056876" lon="11.2543411"><ele>593.0</ele><time>2026-03-28T08:11:32.89Z</time></trkpt><trkpt lat="43.9057668" lon="11.2543448"><ele>593.0</ele><time>2026-03-28T08:11:34.898Z</time></trkpt><trkpt lat="43.9058559" lon="11.2543894"><ele>593.0</ele><time>2026-03-28T08:11:36.903Z</time></trkpt><trkpt lat="43.9059247" lon="11.2544113"><ele>593.0</ele><time>2026-03-28T08:11:37.891Z</time></trkpt><trkpt lat="43.9060035" lon="11.2544229"><ele>593.0</ele><time>2026-03-28T08:11:38.895Z</time></trkpt><trkpt lat="43.9060777" lon="11.2544385"><ele>593.0</ele><time>2026-03-28T08:11:39.885Z</time></trkpt><trkpt lat="43.9061433" lon="11.2544643"><ele>593.0</ele><time>2026-03-28T08:11:40.877Z</time></trkpt><trkpt lat="43.9062034" lon="11.2544984"><ele>593.3333333333333</ele><time>2026-03-28T08:11:41.891Z</time></trkpt><trkpt lat="43.9062666" lon="11.254537"><ele>593.6666666666666</ele><time>2026-03-28T08:11:42.886Z</time></trkpt><trkpt lat="43.9063277" lon="11.2545872"><ele>594.0</ele><time>2026-03-28T08:11:43.877Z</time></trkpt><trkpt lat="43.9063905" lon="11.2546536"><ele>594.3333333333334</ele><time>2026-03-28T08:11:44.887Z</time></trkpt><trkpt lat="43.9064554" lon="11.2547203"><ele>594.6666666666667</ele><time>2026-03-28T08:11:45.886Z</time></trkpt><trkpt lat="43.9065187" lon="11.2547833"><ele>595.0</ele><time>2026-03-28T08:11:46.893Z</time></trkpt><trkpt lat="43.906579" lon="11.2548436"><ele>595.5</ele><time>2026-03-28T08:11:47.884Z</time></trkpt><trkpt lat="43.9066461" lon="11.2548975"><ele>596.0</ele><time>2026-03-28T08:11:48.906Z</time></trkpt><trkpt lat="43.9067197" lon="11.2549449"><ele>596.5</ele><time>2026-03-28T08:11:49.894Z</time></trkpt><trkpt lat="43.9067874" lon="11.254995"><ele>597.0</ele><time>2026-03-28T08:11:50.892Z</time></trkpt><trkpt lat="43.9068448" lon="11.2550562"><ele>597.5</ele><time>2026-03-28T08:11:51.889Z</time></trkpt><trkpt lat="43.9068943" lon="11.2551311"><ele>598.0</ele><time>2026-03-28T08:11:52.895Z</time></trkpt><trkpt lat="43.9069358" lon="11.2552209"><ele>598.0</ele><time>2026-03-28T08:11:53.899Z</time></trkpt><trkpt lat="43.9069795" lon="11.2553149"><ele>598.0</ele><time>2026-03-28T08:11:54.892Z</time></trkpt><trkpt lat="43.9070283" lon="11.2554167"><ele>598.0</ele><time>2026-03-28T08:11:55.906Z</time></trkpt><trkpt lat="43.9070679" lon="11.255519"><ele>598.0</ele><time>2026-03-28T08:11:56.892Z</time></trkpt><trkpt lat="43.9070978" lon="11.2556117"><ele>598.0</ele><time>2026-03-28T08:11:57.891Z</time></trkpt><trkpt lat="43.9071171" lon="11.2557038"><ele>598.0</ele><time>2026-03-28T08:11:58.895Z</time></trkpt><trkpt lat="43.9071379" lon="11.2557903"><ele>598.0</ele><time>2026-03-28T08:11:59.898Z</time></trkpt><trkpt lat="43.9072042" lon="11.255941"><ele>598.0</ele><time>2026-03-28T08:12:01.885Z</time></trkpt><trkpt lat="43.9072566" lon="11.2560183"><ele>598.0</ele><time>2026-03-28T08:12:02.895Z</time></trkpt><trkpt lat="43.9073159" lon="11.256105"><ele>598.0</ele><time>2026-03-28T08:12:03.882Z</time></trkpt><trkpt lat="43.9073733" lon="11.2561949"><ele>598.0</ele><time>2026-03-28T08:12:04.89Z</time></trkpt><trkpt lat="43.9074324" lon="11.2562843"><ele>598.0</ele><time>2026-03-28T08:12:05.885Z</time></trkpt><trkpt lat="43.9074947" lon="11.2563728"><ele>598.0</ele><time>2026-03-28T08:12:06.887Z</time></trkpt><trkpt lat="43.9075531" lon="11.2564569"><ele>598.0</ele><time>2026-03-28T08:12:07.885Z</time></trkpt><trkpt lat="43.9076058" lon="11.2565365"><ele>598.0</ele><time>2026-03-28T08:12:08.888Z</time></trkpt><trkpt lat="43.9076499" lon="11.2566099"><ele>598.0</ele><time>2026-03-28T08:12:09.889Z</time></trkpt><trkpt lat="43.9077329" lon="11.2566999"><ele>598.0</ele><time>2026-03-28T08:12:11.888Z</time></trkpt><trkpt lat="43.9077883" lon="11.256752"><ele>597.0</ele><time>2026-03-28T08:13:36.906Z</time></trkpt><trkpt lat="43.9078441" lon="11.2568891"><ele>596.0</ele><time>2026-03-28T08:13:38.896Z</time></trkpt><trkpt lat="43.9078716" lon="11.256968"><ele>595.0</ele><time>2026-03-28T08:13:39.884Z</time></trkpt><trkpt lat="43.907913" lon="11.2571166"><ele>594.0</ele><time>2026-03-28T08:13:41.882Z</time></trkpt><trkpt lat="43.9079584" lon="11.2572701"><ele>593.0</ele><time>2026-03-28T08:13:43.888Z</time></trkpt><trkpt lat="43.9079995" lon="11.2574315"><ele>593.0</ele><time>2026-03-28T08:13:45.887Z</time></trkpt><trkpt lat="43.9080258" lon="11.2575944"><ele>593.0</ele><time>2026-03-28T08:13:47.881Z</time></trkpt><trkpt lat="43.9080323" lon="11.2576828"><ele>593.0</ele><time>2026-03-28T08:13:48.884Z</time></trkpt><trkpt lat="43.9080383" lon="11.2577751"><ele>593.0</ele><time>2026-03-28T08:13:49.883Z</time></trkpt><trkpt lat="43.9080766" lon="11.2579269"><ele>593.0</ele><time>2026-03-28T08:13:51.893Z</time></trkpt><trkpt lat="43.9081108" lon="11.2580018"><ele>593.0</ele><time>2026-03-28T08:13:52.887Z</time></trkpt><trkpt lat="43.9081585" lon="11.258094"><ele>593.1999999999999</ele><time>2026-03-28T08:13:53.886Z</time></trkpt><trkpt lat="43.9082189" lon="11.2582031"><ele>593.4</ele><time>2026-03-28T08:13:54.879Z</time></trkpt><trkpt lat="43.9082819" lon="11.2583254"><ele>593.5999999999999</ele><time>2026-03-28T08:13:55.887Z</time></trkpt><trkpt lat="43.9083334" lon="11.25846"><ele>593.8</ele><time>2026-03-28T08:13:56.88Z</time></trkpt><trkpt lat="43.9083772" lon="11.2586032"><ele>594.0</ele><time>2026-03-28T08:13:57.882Z</time></trkpt><trkpt lat="43.9084219" lon="11.2587473"><ele>593.8</ele><time>2026-03-28T08:13:58.89Z</time></trkpt><trkpt lat="43.908467" lon="11.2588699"><ele>593.5999999999999</ele><time>2026-03-28T08:13:59.885Z</time></trkpt><trkpt lat="43.908521" lon="11.258969"><ele>593.4</ele><time>2026-03-28T08:14:00.887Z</time></trkpt><trkpt lat="43.9085844" lon="11.2590452"><ele>593.1999999999999</ele><time>2026-03-28T08:14:01.888Z</time></trkpt><trkpt lat="43.9086555" lon="11.2591219"><ele>593.0</ele><time>2026-03-28T08:14:02.889Z</time></trkpt><trkpt lat="43.9087187" lon="11.2592102"><ele>593.0</ele><time>2026-03-28T08:14:03.894Z</time></trkpt><trkpt lat="43.9087709" lon="11.2592975"><ele>593.0</ele><time>2026-03-28T08:14:04.884Z</time></trkpt><trkpt lat="43.9088085" lon="11.2593818"><ele>593.0</ele><time>2026-03-28T08:14:05.88Z</time></trkpt><trkpt lat="43.9088382" lon="11.259464"><ele>593.0</ele><time>2026-03-28T08:14:06.881Z</time></trkpt><trkpt lat="43.9089053" lon="11.2596041"><ele>593.0</ele><time>2026-03-28T08:14:08.898Z</time></trkpt><trkpt lat="43.9089531" lon="11.2596667"><ele>593.0</ele><time>2026-03-28T08:14:09.896Z</time></trkpt><trkpt lat="43.9090059" lon="11.2597244"><ele>592.8333333333333</ele><time>2026-03-28T08:14:10.908Z</time></trkpt><trkpt lat="43.9091045" lon="11.2598175"><ele>592.6666666666666</ele><time>2026-03-28T08:14:12.906Z</time></trkpt><trkpt lat="43.90917" lon="11.2599349"><ele>592.5</ele><time>2026-03-28T08:14:14.891Z</time></trkpt><trkpt lat="43.9091869" lon="11.2600232"><ele>592.3333333333334</ele><time>2026-03-28T08:14:15.893Z</time></trkpt><trkpt lat="43.9092022" lon="11.2601193"><ele>592.1666666666667</ele><time>2026-03-28T08:14:16.902Z</time></trkpt><trkpt lat="43.9092265" lon="11.2602172"><ele>592.0</ele><time>2026-03-28T08:14:17.91Z</time></trkpt><trkpt lat="43.9092688" lon="11.2603157"><ele>589.8333333333334</ele><time>2026-03-28T08:14:18.895Z</time></trkpt><trkpt lat="43.9093228" lon="11.2604156"><ele>587.6666666666667</ele><time>2026-03-28T08:14:19.904Z</time></trkpt><trkpt lat="43.9093729" lon="11.2605165"><ele>585.5</ele><time>2026-03-28T08:14:20.893Z</time></trkpt><trkpt lat="43.9094121" lon="11.2606103"><ele>583.3333333333334</ele><time>2026-03-28T08:14:21.893Z</time></trkpt><trkpt lat="43.9094377" lon="11.2606905"><ele>581.1666666666666</ele><time>2026-03-28T08:14:22.91Z</time></trkpt><trkpt lat="43.9094554" lon="11.2607877"><ele>579.0</ele><time>2026-03-28T08:14:24.887Z</time></trkpt><trkpt lat="43.9094406" lon="11.2609337"><ele>579.0</ele><time>2026-03-28T08:15:13.898Z</time></trkpt><trkpt lat="43.909458" lon="11.2610997"><ele>579.0</ele><time>2026-03-28T08:15:15.89Z</time></trkpt><trkpt lat="43.9094788" lon="11.2612484"><ele>579.0</ele><time>2026-03-28T08:15:17.888Z</time></trkpt><trkpt lat="43.9094821" lon="11.2613953"><ele>579.0</ele><time>2026-03-28T08:15:19.888Z</time></trkpt><trkpt lat="43.9094965" lon="11.2615457"><ele>579.0</ele><time>2026-03-28T08:15:21.882Z</time></trkpt><trkpt lat="43.9095206" lon="11.2617077"><ele>580.3333333333334</ele><time>2026-03-28T08:15:23.886Z</time></trkpt><trkpt lat="43.9095479" lon="11.2618448"><ele>581.6666666666666</ele><time>2026-03-28T08:15:25.884Z</time></trkpt><trkpt lat="43.9095448" lon="11.2619508"><ele>583.0</ele><time>2026-03-28T08:15:27.89Z</time></trkpt><trkpt lat="43.9095142" lon="11.2620682"><ele>584.3333333333333</ele><time>2026-03-28T08:15:29.891Z</time></trkpt><trkpt lat="43.9094862" lon="11.2621703"><ele>585.6666666666666</ele><time>2026-03-28T08:15:31.888Z</time></trkpt><trkpt lat="43.9094492" lon="11.2622636"><ele>587.0</ele><time>2026-03-28T08:15:33.897Z</time></trkpt><trkpt lat="43.909413" lon="11.2623385"><ele>589.2</ele><time>2026-03-28T08:15:35.894Z</time></trkpt><trkpt lat="43.9093667" lon="11.2624267"><ele>591.4000000000001</ele><time>2026-03-28T08:15:37.899Z</time></trkpt><trkpt lat="43.9093117" lon="11.2625327"><ele>593.5999999999999</ele><time>2026-03-28T08:15:39.897Z</time></trkpt><trkpt lat="43.9092529" lon="11.2626498"><ele>595.8</ele><time>2026-03-28T08:15:41.89Z</time></trkpt><trkpt lat="43.9092037" lon="11.2627746"><ele>598.0</ele><time>2026-03-28T08:15:43.88Z</time></trkpt><trkpt lat="43.9091858" lon="11.2628904"><ele>593.0</ele><time>2026-03-28T08:15:45.902Z</time></trkpt><trkpt lat="43.9091966" lon="11.2629921"><ele>588.0</ele><time>2026-03-28T08:15:47.895Z</time></trkpt><trkpt lat="43.9091989" lon="11.2630818"><ele>583.0</ele><time>2026-03-28T08:15:49.891Z</time></trkpt><trkpt lat="43.9091995" lon="11.2631925"><ele>578.0</ele><time>2026-03-28T08:15:52.879Z</time></trkpt><trkpt lat="43.9092011" lon="11.2633112"><ele>573.0</ele><time>2026-03-28T08:15:55.898Z</time></trkpt><trkpt lat="43.909192" lon="11.2634513"><ele>568.0</ele><time>2026-03-28T08:15:58.89Z</time></trkpt><trkpt lat="43.9091755" lon="11.2636123"><ele>567.6666666666667</ele><time>2026-03-28T08:16:00.867Z</time></trkpt><trkpt lat="43.9091748" lon="11.2637428"><ele>567.3333333333334</ele><time>2026-03-28T08:16:02.888Z</time></trkpt><trkpt lat="43.9091981" lon="11.2638691"><ele>567.0</ele><time>2026-03-28T08:16:04.884Z</time></trkpt><trkpt lat="43.9092461" lon="11.2639674"><ele>566.6666666666666</ele><time>2026-03-28T08:16:06.881Z</time></trkpt><trkpt lat="43.9092831" lon="11.2640531"><ele>566.3333333333333</ele><time>2026-03-28T08:16:08.883Z</time></trkpt><trkpt lat="43.9093361" lon="11.2641323"><ele>566.0</ele><time>2026-03-28T08:16:11.895Z</time></trkpt><trkpt lat="43.9093951" lon="11.2641671"><ele>566.0</ele><time>2026-03-28T08:16:15.882Z</time></trkpt><trkpt lat="43.9094697" lon="11.2642288"><ele>566.0</ele><time>2026-03-28T08:16:19.886Z</time></trkpt><trkpt lat="43.9095324" lon="11.2643011"><ele>566.0</ele><time>2026-03-28T08:16:22.886Z</time></trkpt><trkpt lat="43.9095842" lon="11.2643525"><ele>566.0</ele><time>2026-03-28T08:16:24.885Z</time></trkpt><trkpt lat="43.9096431" lon="11.2644294"><ele>566.0</ele><time>2026-03-28T08:16:27.872Z</time></trkpt><trkpt lat="43.9096937" lon="11.2645207"><ele>566.0</ele><time>2026-03-28T08:16:30.873Z</time></trkpt><trkpt lat="43.9097376" lon="11.264617"><ele>566.0</ele><time>2026-03-28T08:16:33.877Z</time></trkpt><trkpt lat="43.9098064" lon="11.2646745"><ele>566.0</ele><time>2026-03-28T08:16:36.881Z</time></trkpt><trkpt lat="43.9098675" lon="11.2647243"><ele>566.0</ele><time>2026-03-28T08:16:39.891Z</time></trkpt><trkpt lat="43.9099347" lon="11.2647707"><ele>566.0</ele><time>2026-03-28T08:16:42.891Z</time></trkpt><trkpt lat="43.9099939" lon="11.2648298"><ele>566.0</ele><time>2026-03-28T08:16:45.881Z</time></trkpt><trkpt lat="43.9100324" lon="11.2649294"><ele>566.0</ele><time>2026-03-28T08:17:27.885Z</time></trkpt><trkpt lat="43.9100734" lon="11.2650078"><ele>563.1428571428571</ele><time>2026-03-28T08:17:30.876Z</time></trkpt><trkpt lat="43.910092" lon="11.2651134"><ele>560.2857142857143</ele><time>2026-03-28T08:17:34.886Z</time></trkpt><trkpt lat="43.9101161" lon="11.2651963"><ele>557.4285714285714</ele><time>2026-03-28T08:17:36.885Z</time></trkpt><trkpt lat="43.91016" lon="11.2652803"><ele>554.5714285714286</ele><time>2026-03-28T08:17:38.883Z</time></trkpt><trkpt lat="43.9102179" lon="11.2653238"><ele>551.7142857142858</ele><time>2026-03-28T08:17:40.881Z</time></trkpt><trkpt lat="43.9102628" lon="11.2653862"><ele>548.8571428571429</ele><time>2026-03-28T08:17:42.886Z</time></trkpt><trkpt lat="43.9103102" lon="11.2654764"><ele>546.0</ele><time>2026-03-28T08:17:45.887Z</time></trkpt><trkpt lat="43.910363" lon="11.2655713"><ele>540.0</ele><time>2026-03-28T08:17:48.889Z</time></trkpt><trkpt lat="43.9104317" lon="11.2656451"><ele>534.0</ele><time>2026-03-28T08:17:51.892Z</time></trkpt><trkpt lat="43.9104971" lon="11.2656881"><ele>528.0</ele><time>2026-03-28T08:17:54.878Z</time></trkpt><trkpt lat="43.9105506" lon="11.2657538"><ele>522.0</ele><time>2026-03-28T08:17:57.879Z</time></trkpt><trkpt lat="43.9106273" lon="11.2658154"><ele>516.0</ele><time>2026-03-28T08:18:00.875Z</time></trkpt><trkpt lat="43.9107062" lon="11.2658492"><ele>510.0</ele><time>2026-03-28T08:18:03.877Z</time></trkpt><trkpt lat="43.9107942" lon="11.2658649"><ele>510.0</ele><time>2026-03-28T08:18:06.874Z</time></trkpt><trkpt lat="43.9108718" lon="11.2658785"><ele>510.0</ele><time>2026-03-28T08:18:09.875Z</time></trkpt><trkpt lat="43.9109442" lon="11.2658863"><ele>510.0</ele><time>2026-03-28T08:18:12.875Z</time></trkpt><trkpt lat="43.9110125" lon="11.2659011"><ele>510.0</ele><time>2026-03-28T08:18:14.879Z</time></trkpt><trkpt lat="43.9110828" lon="11.2659229"><ele>510.0</ele><time>2026-03-28T08:18:16.88Z</time></trkpt><trkpt lat="43.9111585" lon="11.2659267"><ele>510.0</ele><time>2026-03-28T08:18:19.883Z</time></trkpt><trkpt lat="43.9112469" lon="11.2659389"><ele>511.5</ele><time>2026-03-28T08:18:22.877Z</time></trkpt><trkpt lat="43.9113199" lon="11.2659423"><ele>513.0</ele><time>2026-03-28T08:18:24.883Z</time></trkpt><trkpt lat="43.9113939" lon="11.2659486"><ele>514.5</ele><time>2026-03-28T08:18:26.886Z</time></trkpt><trkpt lat="43.9114658" lon="11.2659601"><ele>516.0</ele><time>2026-03-28T08:18:28.886Z</time></trkpt><trkpt lat="43.911552" lon="11.2659717"><ele>517.5</ele><time>2026-03-28T08:18:30.878Z</time></trkpt><trkpt lat="43.9116413" lon="11.2659879"><ele>519.0</ele><time>2026-03-28T08:18:32.884Z</time></trkpt><trkpt lat="43.9117207" lon="11.2660156"><ele>522.0</ele><time>2026-03-28T08:18:34.89Z</time></trkpt><trkpt lat="43.911804" lon="11.2660749"><ele>525.0</ele><time>2026-03-28T08:18:36.892Z</time></trkpt><trkpt lat="43.9118857" lon="11.266116"><ele>528.0</ele><time>2026-03-28T08:18:38.887Z</time></trkpt><trkpt lat="43.9119567" lon="11.2661531"><ele>531.0</ele><time>2026-03-28T08:18:40.901Z</time></trkpt><trkpt lat="43.9120278" lon="11.2662157"><ele>534.0</ele><time>2026-03-28T08:18:43.907Z</time></trkpt><trkpt lat="43.9121069" lon="11.266257"><ele>537.0</ele><time>2026-03-28T08:18:46.892Z</time></trkpt><trkpt lat="43.9121831" lon="11.2663008"><ele>537.0</ele><time>2026-03-28T08:18:48.881Z</time></trkpt><trkpt lat="43.9122686" lon="11.2663302"><ele>537.0</ele><time>2026-03-28T08:18:50.875Z</time></trkpt><trkpt lat="43.9123331" lon="11.266349"><ele>537.0</ele><time>2026-03-28T08:18:52.885Z</time></trkpt><trkpt lat="43.9124056" lon="11.2663796"><ele>537.0</ele><time>2026-03-28T08:18:54.889Z</time></trkpt><trkpt lat="43.9124742" lon="11.2664165"><ele>537.0</ele><time>2026-03-28T08:18:56.887Z</time></trkpt><trkpt lat="43.9125436" lon="11.2664585"><ele>537.0</ele><time>2026-03-28T08:18:58.879Z</time></trkpt><trkpt lat="43.9126253" lon="11.2665035"><ele>532.0</ele><time>2026-03-28T08:19:00.891Z</time></trkpt><trkpt lat="43.9127082" lon="11.2665633"><ele>527.0</ele><time>2026-03-28T08:19:02.891Z</time></trkpt><trkpt lat="43.9127861" lon="11.2666134"><ele>522.0</ele><time>2026-03-28T08:19:04.881Z</time></trkpt><trkpt lat="43.9128518" lon="11.2666602"><ele>517.0</ele><time>2026-03-28T08:19:06.889Z</time></trkpt><trkpt lat="43.9129131" lon="11.266709"><ele>512.0</ele><time>2026-03-28T08:19:08.889Z</time></trkpt><trkpt lat="43.912976" lon="11.2667681"><ele>507.0</ele><time>2026-03-28T08:19:10.882Z</time></trkpt><trkpt lat="43.9130394" lon="11.2668295"><ele>507.0</ele><time>2026-03-28T08:19:12.888Z</time></trkpt><trkpt lat="43.9130918" lon="11.2668793"><ele>507.0</ele><time>2026-03-28T08:19:14.892Z</time></trkpt><trkpt lat="43.9131665" lon="11.2669528"><ele>507.0</ele><time>2026-03-28T08:19:17.882Z</time></trkpt><trkpt lat="43.9132201" lon="11.26702"><ele>507.0</ele><time>2026-03-28T08:19:19.885Z</time></trkpt><trkpt lat="43.9132666" lon="11.267105"><ele>507.0</ele><time>2026-03-28T08:19:21.883Z</time></trkpt><trkpt lat="43.9132968" lon="11.2672085"><ele>507.0</ele><time>2026-03-28T08:19:23.889Z</time></trkpt><trkpt lat="43.9133319" lon="11.2673024"><ele>500.3333333333333</ele><time>2026-03-28T08:19:25.884Z</time></trkpt><trkpt lat="43.9133785" lon="11.2674045"><ele>493.66666666666663</ele><time>2026-03-28T08:19:28.882Z</time></trkpt><trkpt lat="43.9133722" lon="11.2674922"><ele>487.0</ele><time>2026-03-28T08:19:32.872Z</time></trkpt><trkpt lat="43.9133193" lon="11.267585"><ele>480.3333333333333</ele><time>2026-03-28T08:19:36.896Z</time></trkpt><trkpt lat="43.9132796" lon="11.2676852"><ele>473.66666666666663</ele><time>2026-03-28T08:19:38.882Z</time></trkpt><trkpt lat="43.9132323" lon="11.2678095"><ele>467.0</ele><time>2026-03-28T08:19:40.879Z</time></trkpt><trkpt lat="43.9131899" lon="11.2679249"><ele>466.99999999999994</ele><time>2026-03-28T08:19:42.884Z</time></trkpt><trkpt lat="43.9132263" lon="11.2680288"><ele>467.0</ele><time>2026-03-28T08:19:44.883Z</time></trkpt><trkpt lat="43.9132888" lon="11.2681644"><ele>467.0</ele><time>2026-03-28T08:19:46.869Z</time></trkpt><trkpt lat="43.9133219" lon="11.2682516"><ele>467.0</ele><time>2026-03-28T08:19:47.873Z</time></trkpt><trkpt lat="43.9133569" lon="11.2683483"><ele>466.99999999999994</ele><time>2026-03-28T08:19:48.876Z</time></trkpt><trkpt lat="43.9133937" lon="11.26845"><ele>467.0</ele><time>2026-03-28T08:19:49.877Z</time></trkpt><trkpt lat="43.913429" lon="11.2685533"><ele>463.6</ele><time>2026-03-28T08:19:50.881Z</time></trkpt><trkpt lat="43.9134545" lon="11.2686574"><ele>460.20000000000005</ele><time>2026-03-28T08:19:51.884Z</time></trkpt><trkpt lat="43.9134732" lon="11.2687576"><ele>456.8</ele><time>2026-03-28T08:19:52.881Z</time></trkpt><trkpt lat="43.9135022" lon="11.2688937"><ele>453.4</ele><time>2026-03-28T08:19:54.88Z</time></trkpt><trkpt lat="43.9135518" lon="11.2689717"><ele>450.0</ele><time>2026-03-28T08:19:56.891Z</time></trkpt><trkpt lat="43.9136699" lon="11.2689914"><ele>448.0</ele><time>2026-03-28T08:19:58.873Z</time></trkpt><trkpt lat="43.9137499" lon="11.26899"><ele>446.0</ele><time>2026-03-28T08:19:59.874Z</time></trkpt><trkpt lat="43.9138419" lon="11.2689888"><ele>444.0</ele><time>2026-03-28T08:20:00.878Z</time></trkpt><trkpt lat="43.9139397" lon="11.2689904"><ele>442.0</ele><time>2026-03-28T08:20:01.889Z</time></trkpt><trkpt lat="43.9140442" lon="11.2689952"><ele>440.0</ele><time>2026-03-28T08:20:02.893Z</time></trkpt><trkpt lat="43.914153" lon="11.2689983"><ele>439.6</ele><time>2026-03-28T08:20:03.878Z</time></trkpt><trkpt lat="43.9142585" lon="11.2690002"><ele>439.2</ele><time>2026-03-28T08:20:04.88Z</time></trkpt><trkpt lat="43.9143628" lon="11.2690042"><ele>438.79999999999995</ele><time>2026-03-28T08:20:05.878Z</time></trkpt><trkpt lat="43.914466" lon="11.2690087"><ele>438.4</ele><time>2026-03-28T08:20:06.879Z</time></trkpt><trkpt lat="43.914573" lon="11.2690117"><ele>438.0</ele><time>2026-03-28T08:20:07.873Z</time></trkpt><trkpt lat="43.9146785" lon="11.2690081"><ele>438.0</ele><time>2026-03-28T08:20:08.876Z</time></trkpt><trkpt lat="43.9147824" lon="11.2689959"><ele>437.99999999999994</ele><time>2026-03-28T08:20:09.883Z</time></trkpt><trkpt lat="43.9148845" lon="11.2689724"><ele>437.99999999999994</ele><time>2026-03-28T08:20:10.88Z</time></trkpt><trkpt lat="43.9149887" lon="11.2689395"><ele>438.0</ele><time>2026-03-28T08:20:11.883Z</time></trkpt><trkpt lat="43.9150948" lon="11.2689051"><ele>438.0</ele><time>2026-03-28T08:20:12.882Z</time></trkpt><trkpt lat="43.9151999" lon="11.2688863"><ele>437.75</ele><time>2026-03-28T08:20:13.879Z</time></trkpt><trkpt lat="43.9153056" lon="11.2688847"><ele>437.5</ele><time>2026-03-28T08:20:14.874Z</time></trkpt><trkpt lat="43.9154183" lon="11.2689076"><ele>437.25</ele><time>2026-03-28T08:20:15.875Z</time></trkpt><trkpt lat="43.915535" lon="11.2689569"><ele>437.0</ele><time>2026-03-28T08:20:16.868Z</time></trkpt><trkpt lat="43.9156547" lon="11.2690144"><ele>437.0</ele><time>2026-03-28T08:20:17.881Z</time></trkpt><trkpt lat="43.9157788" lon="11.2690665"><ele>437.0</ele><time>2026-03-28T08:20:18.881Z</time></trkpt><trkpt lat="43.9159042" lon="11.2691152"><ele>437.0</ele><time>2026-03-28T08:20:19.877Z</time></trkpt><trkpt lat="43.9160315" lon="11.2691614"><ele>437.0</ele><time>2026-03-28T08:20:20.876Z</time></trkpt><trkpt lat="43.9161625" lon="11.2692054"><ele>440.0</ele><time>2026-03-28T08:20:21.872Z</time></trkpt><trkpt lat="43.9162973" lon="11.2692473"><ele>443.0</ele><time>2026-03-28T08:20:22.872Z</time></trkpt><trkpt lat="43.9164305" lon="11.269293"><ele>446.0</ele><time>2026-03-28T08:20:23.88Z</time></trkpt><trkpt lat="43.9165599" lon="11.2693373"><ele>449.0</ele><time>2026-03-28T08:20:24.878Z</time></trkpt><trkpt lat="43.9166874" lon="11.2693771"><ele>450.6</ele><time>2026-03-28T08:20:25.876Z</time></trkpt><trkpt lat="43.9168079" lon="11.2694068"><ele>452.2</ele><time>2026-03-28T08:20:26.88Z</time></trkpt><trkpt lat="43.9169151" lon="11.2694096"><ele>453.80000000000007</ele><time>2026-03-28T08:20:27.87Z</time></trkpt><trkpt lat="43.9170142" lon="11.2693908"><ele>455.40000000000003</ele><time>2026-03-28T08:20:28.868Z</time></trkpt><trkpt lat="43.9171131" lon="11.2693539"><ele>457.0</ele><time>2026-03-28T08:20:29.882Z</time></trkpt><trkpt lat="43.9172108" lon="11.2693045"><ele>457.0</ele><time>2026-03-28T08:20:30.879Z</time></trkpt><trkpt lat="43.9173108" lon="11.2692415"><ele>457.0</ele><time>2026-03-28T08:20:31.89Z</time></trkpt><trkpt lat="43.9174282" lon="11.2691819"><ele>457.0</ele><time>2026-03-28T08:20:32.885Z</time></trkpt><trkpt lat="43.9175536" lon="11.2691399"><ele>457.0</ele><time>2026-03-28T08:20:33.886Z</time></trkpt><trkpt lat="43.9176837" lon="11.2691225"><ele>460.0</ele><time>2026-03-28T08:20:34.884Z</time></trkpt><trkpt lat="43.9178165" lon="11.2691192"><ele>463.0</ele><time>2026-03-28T08:20:35.892Z</time></trkpt><trkpt lat="43.9179502" lon="11.2691158"><ele>466.0</ele><time>2026-03-28T08:20:36.882Z</time></trkpt><trkpt lat="43.9180785" lon="11.2691136"><ele>469.0</ele><time>2026-03-28T08:20:37.876Z</time></trkpt><trkpt lat="43.9182029" lon="11.2691143"><ele>469.0</ele><time>2026-03-28T08:20:38.879Z</time></trkpt><trkpt lat="43.9183212" lon="11.2691309"><ele>469.0</ele><time>2026-03-28T08:20:39.874Z</time></trkpt><trkpt lat="43.9184381" lon="11.2691642"><ele>469.0</ele><time>2026-03-28T08:20:40.876Z</time></trkpt><trkpt lat="43.9185464" lon="11.2692176"><ele>469.0</ele><time>2026-03-28T08:20:41.88Z</time></trkpt><trkpt lat="43.9186537" lon="11.2692657"><ele>472.2</ele><time>2026-03-28T08:20:42.876Z</time></trkpt><trkpt lat="43.9187595" lon="11.2692969"><ele>475.4</ele><time>2026-03-28T08:20:43.879Z</time></trkpt><trkpt lat="43.9188562" lon="11.2693128"><ele>478.6</ele><time>2026-03-28T08:20:44.875Z</time></trkpt><trkpt lat="43.9189461" lon="11.2693252"><ele>481.8</ele><time>2026-03-28T08:20:45.881Z</time></trkpt><trkpt lat="43.9190138" lon="11.2693536"><ele>485.0</ele><time>2026-03-28T08:20:46.88Z</time></trkpt><trkpt lat="43.9190488" lon="11.2694918"><ele>485.0</ele><time>2026-03-28T08:20:48.872Z</time></trkpt><trkpt lat="43.9190336" lon="11.2696098"><ele>485.0</ele><time>2026-03-28T08:20:49.87Z</time></trkpt><trkpt lat="43.9190279" lon="11.2697526"><ele>485.0</ele><time>2026-03-28T08:20:50.879Z</time></trkpt><trkpt lat="43.9190475" lon="11.2698895"><ele>485.0</ele><time>2026-03-28T08:20:51.878Z</time></trkpt><trkpt lat="43.9190819" lon="11.2700238"><ele>485.0</ele><time>2026-03-28T08:20:52.873Z</time></trkpt><trkpt lat="43.9191448" lon="11.2701576"><ele>484.75</ele><time>2026-03-28T08:20:53.873Z</time></trkpt><trkpt lat="43.919215" lon="11.2702954"><ele>484.5</ele><time>2026-03-28T08:20:54.873Z</time></trkpt><trkpt lat="43.9192808" lon="11.2704378"><ele>484.25</ele><time>2026-03-28T08:20:55.881Z</time></trkpt><trkpt lat="43.9193436" lon="11.2705843"><ele>484.0</ele><time>2026-03-28T08:20:56.883Z</time></trkpt><trkpt lat="43.9194054" lon="11.2707303"><ele>484.0</ele><time>2026-03-28T08:20:57.88Z</time></trkpt><trkpt lat="43.9194641" lon="11.2708716"><ele>484.0</ele><time>2026-03-28T08:20:58.874Z</time></trkpt><trkpt lat="43.9195231" lon="11.2710016"><ele>484.0</ele><time>2026-03-28T08:20:59.874Z</time></trkpt><trkpt lat="43.9195778" lon="11.2711089"><ele>484.0</ele><time>2026-03-28T08:21:00.873Z</time></trkpt><trkpt lat="43.919633" lon="11.2711948"><ele>484.0</ele><time>2026-03-28T08:21:01.875Z</time></trkpt><trkpt lat="43.9196874" lon="11.2712624"><ele>484.0</ele><time>2026-03-28T08:21:02.894Z</time></trkpt><trkpt lat="43.9197517" lon="11.2712828"><ele>484.0</ele><time>2026-03-28T08:21:03.885Z</time></trkpt><trkpt lat="43.9198298" lon="11.2712595"><ele>484.0</ele><time>2026-03-28T08:21:04.888Z</time></trkpt><trkpt lat="43.9199165" lon="11.2712148"><ele>484.0</ele><time>2026-03-28T08:21:05.882Z</time></trkpt><trkpt lat="43.9200185" lon="11.2711466"><ele>484.0</ele><time>2026-03-28T08:21:06.893Z</time></trkpt><trkpt lat="43.9201365" lon="11.2710675"><ele>487.79999999999995</ele><time>2026-03-28T08:21:07.886Z</time></trkpt><trkpt lat="43.9202527" lon="11.2710109"><ele>491.59999999999997</ele><time>2026-03-28T08:21:08.877Z</time></trkpt><trkpt lat="43.9203443" lon="11.271006"><ele>495.4</ele><time>2026-03-28T08:21:09.876Z</time></trkpt><trkpt lat="43.9204155" lon="11.2710535"><ele>499.2</ele><time>2026-03-28T08:21:10.872Z</time></trkpt><trkpt lat="43.9204867" lon="11.2711023"><ele>503.0</ele><time>2026-03-28T08:21:11.874Z</time></trkpt><trkpt lat="43.920565" lon="11.2711407"><ele>503.0</ele><time>2026-03-28T08:21:12.873Z</time></trkpt><trkpt lat="43.920658" lon="11.2711677"><ele>502.99999999999994</ele><time>2026-03-28T08:21:13.879Z</time></trkpt><trkpt lat="43.920756" lon="11.2711862"><ele>502.99999999999994</ele><time>2026-03-28T08:21:14.876Z</time></trkpt><trkpt lat="43.920861" lon="11.2711974"><ele>503.0</ele><time>2026-03-28T08:21:15.873Z</time></trkpt><trkpt lat="43.9209729" lon="11.271203"><ele>503.0</ele><time>2026-03-28T08:21:16.871Z</time></trkpt><trkpt lat="43.9210889" lon="11.2712098"><ele>505.0</ele><time>2026-03-28T08:21:17.869Z</time></trkpt><trkpt lat="43.9212049" lon="11.2712245"><ele>506.99999999999994</ele><time>2026-03-28T08:21:18.87Z</time></trkpt><trkpt lat="43.9213158" lon="11.2712513"><ele>508.99999999999994</ele><time>2026-03-28T08:21:19.877Z</time></trkpt><trkpt lat="43.9214192" lon="11.271293"><ele>511.0</ele><time>2026-03-28T08:21:20.871Z</time></trkpt><trkpt lat="43.9215211" lon="11.2713296"><ele>513.0</ele><time>2026-03-28T08:21:21.865Z</time></trkpt><trkpt lat="43.9216186" lon="11.2713597"><ele>513.0</ele><time>2026-03-28T08:21:22.874Z</time></trkpt><trkpt lat="43.9217086" lon="11.2713841"><ele>513.0</ele><time>2026-03-28T08:21:23.88Z</time></trkpt><trkpt lat="43.9217888" lon="11.2713966"><ele>513.0</ele><time>2026-03-28T08:21:24.875Z</time></trkpt><trkpt lat="43.9218818" lon="11.2713836"><ele>513.0</ele><time>2026-03-28T08:21:26.882Z</time></trkpt><trkpt lat="43.921819" lon="11.2713358"><ele>513.0</ele><time>2026-03-28T08:22:03.881Z</time></trkpt><trkpt lat="43.9217428" lon="11.2713415"><ele>513.0</ele><time>2026-03-28T08:22:06.889Z</time></trkpt><trkpt lat="43.921746" lon="11.2714818"><ele>513.8</ele><time>2026-03-28T08:22:09.878Z</time></trkpt><trkpt lat="43.9217404" lon="11.2716632"><ele>514.5999999999999</ele><time>2026-03-28T08:22:11.879Z</time></trkpt><trkpt lat="43.9217504" lon="11.2717715"><ele>515.4000000000001</ele><time>2026-03-28T08:22:12.882Z</time></trkpt><trkpt lat="43.921767" lon="11.2718795"><ele>516.2</ele><time>2026-03-28T08:22:13.882Z</time></trkpt><trkpt lat="43.9217899" lon="11.2719973"><ele>517.0</ele><time>2026-03-28T08:22:14.882Z</time></trkpt><trkpt lat="43.9218217" lon="11.2721226"><ele>517.0</ele><time>2026-03-28T08:22:15.882Z</time></trkpt><trkpt lat="43.9218556" lon="11.2722433"><ele>517.0</ele><time>2026-03-28T08:22:16.883Z</time></trkpt><trkpt lat="43.921884" lon="11.2723507"><ele>517.0</ele><time>2026-03-28T08:22:17.88Z</time></trkpt><trkpt lat="43.9219096" lon="11.2724481"><ele>517.0</ele><time>2026-03-28T08:22:18.88Z</time></trkpt><trkpt lat="43.921942" lon="11.2725879"><ele>517.0</ele><time>2026-03-28T08:22:20.885Z</time></trkpt><trkpt lat="43.9219847" lon="11.2727028"><ele>517.0</ele><time>2026-03-28T08:22:22.871Z</time></trkpt><trkpt lat="43.9220414" lon="11.2728648"><ele>517.1666666666667</ele><time>2026-03-28T08:22:24.864Z</time></trkpt><trkpt lat="43.9220688" lon="11.2729662"><ele>517.3333333333334</ele><time>2026-03-28T08:22:25.88Z</time></trkpt><trkpt lat="43.9221005" lon="11.273053"><ele>517.5</ele><time>2026-03-28T08:22:26.878Z</time></trkpt><trkpt lat="43.922137" lon="11.2731388"><ele>517.6666666666666</ele><time>2026-03-28T08:22:27.876Z</time></trkpt><trkpt lat="43.922168" lon="11.2732211"><ele>517.8333333333333</ele><time>2026-03-28T08:22:28.881Z</time></trkpt><trkpt lat="43.9222022" lon="11.2733784"><ele>518.0</ele><time>2026-03-28T08:22:30.88Z</time></trkpt><trkpt lat="43.9222259" lon="11.2734606"><ele>518.0</ele><time>2026-03-28T08:22:31.884Z</time></trkpt><trkpt lat="43.9222552" lon="11.2735445"><ele>518.0</ele><time>2026-03-28T08:22:32.887Z</time></trkpt><trkpt lat="43.9222891" lon="11.2736225"><ele>518.0</ele><time>2026-03-28T08:22:33.887Z</time></trkpt><trkpt lat="43.9223291" lon="11.2736925"><ele>518.0</ele><time>2026-03-28T08:22:34.886Z</time></trkpt><trkpt lat="43.9224234" lon="11.2737822"><ele>518.0</ele><time>2026-03-28T08:22:36.88Z</time></trkpt><trkpt lat="43.9225353" lon="11.2738061"><ele>518.0</ele><time>2026-03-28T08:22:38.874Z</time></trkpt><trkpt lat="43.9226608" lon="11.2738593"><ele>517.3333333333333</ele><time>2026-03-28T08:22:40.88Z</time></trkpt><trkpt lat="43.9227221" lon="11.2739045"><ele>516.6666666666666</ele><time>2026-03-28T08:22:41.879Z</time></trkpt><trkpt lat="43.9227794" lon="11.2739625"><ele>516.0</ele><time>2026-03-28T08:22:42.868Z</time></trkpt><trkpt lat="43.9228353" lon="11.2740294"><ele>515.3333333333334</ele><time>2026-03-28T08:22:43.863Z</time></trkpt><trkpt lat="43.9228833" lon="11.2740964"><ele>514.6666666666667</ele><time>2026-03-28T08:22:44.865Z</time></trkpt><trkpt lat="43.922927" lon="11.2741594"><ele>514.0</ele><time>2026-03-28T08:22:45.877Z</time></trkpt><trkpt lat="43.9230215" lon="11.2742499"><ele>512.6666666666667</ele><time>2026-03-28T08:22:47.862Z</time></trkpt><trkpt lat="43.9231155" lon="11.2743272"><ele>511.33333333333337</ele><time>2026-03-28T08:22:49.875Z</time></trkpt><trkpt lat="43.9231914" lon="11.2744173"><ele>510.0</ele><time>2026-03-28T08:22:51.865Z</time></trkpt><trkpt lat="43.9232582" lon="11.2745011"><ele>508.66666666666663</ele><time>2026-03-28T08:22:53.889Z</time></trkpt><trkpt lat="43.9233177" lon="11.2745789"><ele>507.3333333333333</ele><time>2026-03-28T08:22:55.883Z</time></trkpt><trkpt lat="43.9233613" lon="11.2746429"><ele>506.0</ele><time>2026-03-28T08:22:57.876Z</time></trkpt><trkpt lat="43.9234353" lon="11.2746954"><ele>503.6</ele><time>2026-03-28T08:23:00.883Z</time></trkpt><trkpt lat="43.9235288" lon="11.2747196"><ele>501.20000000000005</ele><time>2026-03-28T08:23:02.881Z</time></trkpt><trkpt lat="43.9236544" lon="11.2747426"><ele>498.79999999999995</ele><time>2026-03-28T08:23:04.876Z</time></trkpt><trkpt lat="43.9237638" lon="11.2747714"><ele>496.4</ele><time>2026-03-28T08:23:06.878Z</time></trkpt><trkpt lat="43.9238264" lon="11.2748054"><ele>494.0</ele><time>2026-03-28T08:23:22.89Z</time></trkpt><trkpt lat="43.923927" lon="11.2748526"><ele>490.6</ele><time>2026-03-28T08:23:25.882Z</time></trkpt><trkpt lat="43.9240133" lon="11.2748961"><ele>487.2</ele><time>2026-03-28T08:23:27.884Z</time></trkpt><trkpt lat="43.9241037" lon="11.2749432"><ele>483.80000000000007</ele><time>2026-03-28T08:23:29.889Z</time></trkpt><trkpt lat="43.9242018" lon="11.2750007"><ele>480.40000000000003</ele><time>2026-03-28T08:23:31.887Z</time></trkpt><trkpt lat="43.9242914" lon="11.2750761"><ele>477.0</ele><time>2026-03-28T08:23:33.876Z</time></trkpt><trkpt lat="43.9243833" lon="11.2751633"><ele>475.0</ele><time>2026-03-28T08:23:35.883Z</time></trkpt><trkpt lat="43.9244931" lon="11.2752551"><ele>473.0</ele><time>2026-03-28T08:23:37.883Z</time></trkpt><trkpt lat="43.9245532" lon="11.2753081"><ele>471.0</ele><time>2026-03-28T08:23:38.882Z</time></trkpt><trkpt lat="43.924613" lon="11.2753621"><ele>469.0</ele><time>2026-03-28T08:23:39.89Z</time></trkpt><trkpt lat="43.9246671" lon="11.2754191"><ele>467.0</ele><time>2026-03-28T08:23:40.889Z</time></trkpt><trkpt lat="43.9247179" lon="11.2754745"><ele>465.0</ele><time>2026-03-28T08:23:41.891Z</time></trkpt><trkpt lat="43.9248019" lon="11.2755755"><ele>462.1666666666667</ele><time>2026-03-28T08:23:43.879Z</time></trkpt><trkpt lat="43.9248857" lon="11.2756364"><ele>459.33333333333337</ele><time>2026-03-28T08:23:45.887Z</time></trkpt><trkpt lat="43.9249797" lon="11.2756816"><ele>456.5</ele><time>2026-03-28T08:23:47.89Z</time></trkpt><trkpt lat="43.925059" lon="11.275753"><ele>453.6666666666667</ele><time>2026-03-28T08:23:49.874Z</time></trkpt><trkpt lat="43.9250833" lon="11.2758392"><ele>450.83333333333337</ele><time>2026-03-28T08:23:51.879Z</time></trkpt><trkpt lat="43.9250682" lon="11.2759279"><ele>448.0</ele><time>2026-03-28T08:23:53.888Z</time></trkpt><trkpt lat="43.9250829" lon="11.2760197"><ele>443.33333333333337</ele><time>2026-03-28T08:23:57.893Z</time></trkpt><trkpt lat="43.9251728" lon="11.2760299"><ele>438.6666666666667</ele><time>2026-03-28T08:23:59.888Z</time></trkpt><trkpt lat="43.9253033" lon="11.2760459"><ele>434.0</ele><time>2026-03-28T08:24:01.893Z</time></trkpt><trkpt lat="43.9253725" lon="11.2760622"><ele>429.33333333333337</ele><time>2026-03-28T08:24:02.893Z</time></trkpt><trkpt lat="43.9254323" lon="11.2760921"><ele>424.6666666666667</ele><time>2026-03-28T08:24:03.889Z</time></trkpt><trkpt lat="43.9254885" lon="11.2761328"><ele>420.0</ele><time>2026-03-28T08:24:04.88Z</time></trkpt><trkpt lat="43.9255915" lon="11.2762324"><ele>420.0</ele><time>2026-03-28T08:24:06.876Z</time></trkpt><trkpt lat="43.9256618" lon="11.2763306"><ele>420.0</ele><time>2026-03-28T08:24:08.874Z</time></trkpt><trkpt lat="43.9256728" lon="11.2764313"><ele>420.0</ele><time>2026-03-28T08:24:10.9Z</time></trkpt><trkpt lat="43.9256118" lon="11.2765482"><ele>420.0</ele><time>2026-03-28T08:24:12.899Z</time></trkpt><trkpt lat="43.9255242" lon="11.2766445"><ele>420.0</ele><time>2026-03-28T08:24:14.882Z</time></trkpt><trkpt lat="43.9254075" lon="11.2767213"><ele>419.0</ele><time>2026-03-28T08:24:16.895Z</time></trkpt><trkpt lat="43.925335" lon="11.2767564"><ele>418.0</ele><time>2026-03-28T08:24:17.89Z</time></trkpt><trkpt lat="43.9252652" lon="11.2767836"><ele>417.0</ele><time>2026-03-28T08:24:18.89Z</time></trkpt><trkpt lat="43.9252045" lon="11.276808"><ele>416.0</ele><time>2026-03-28T08:24:19.894Z</time></trkpt><trkpt lat="43.9250983" lon="11.276858"><ele>415.0</ele><time>2026-03-28T08:24:21.878Z</time></trkpt><trkpt lat="43.925032" lon="11.2769244"><ele>414.0</ele><time>2026-03-28T08:24:23.903Z</time></trkpt><trkpt lat="43.9250952" lon="11.2769714"><ele>414.0</ele><time>2026-03-28T08:24:27.89Z</time></trkpt><trkpt lat="43.9251702" lon="11.2769921"><ele>414.0</ele><time>2026-03-28T08:24:29.896Z</time></trkpt><trkpt lat="43.9252333" lon="11.2770119"><ele>414.0</ele><time>2026-03-28T08:24:31.896Z</time></trkpt><trkpt lat="43.9251656" lon="11.277077"><ele>414.0</ele><time>2026-03-28T08:24:59.891Z</time></trkpt><trkpt lat="43.9250759" lon="11.277068"><ele>414.0</ele><time>2026-03-28T08:25:01.888Z</time></trkpt><trkpt lat="43.9249795" lon="11.2770414"><ele>414.0</ele><time>2026-03-28T08:25:03.888Z</time></trkpt><trkpt lat="43.9248948" lon="11.2770568"><ele>415.0</ele><time>2026-03-28T08:25:05.881Z</time></trkpt><trkpt lat="43.9248367" lon="11.277196"><ele>416.0</ele><time>2026-03-28T08:25:07.864Z</time></trkpt><trkpt lat="43.924816" lon="11.2772852"><ele>417.0</ele><time>2026-03-28T08:25:08.864Z</time></trkpt><trkpt lat="43.9248001" lon="11.277382"><ele>418.0</ele><time>2026-03-28T08:25:09.87Z</time></trkpt><trkpt lat="43.9247954" lon="11.2774767"><ele>419.0</ele><time>2026-03-28T08:25:10.867Z</time></trkpt><trkpt lat="43.9247899" lon="11.2775768"><ele>420.0</ele><time>2026-03-28T08:25:11.867Z</time></trkpt><trkpt lat="43.9247886" lon="11.2776726"><ele>420.0</ele><time>2026-03-28T08:25:12.879Z</time></trkpt><trkpt lat="43.9247984" lon="11.277767"><ele>420.0</ele><time>2026-03-28T08:25:13.873Z</time></trkpt><trkpt lat="43.9247931" lon="11.2779354"><ele>420.0</ele><time>2026-03-28T08:25:15.877Z</time></trkpt><trkpt lat="43.9247746" lon="11.2780205"><ele>420.0</ele><time>2026-03-28T08:25:16.878Z</time></trkpt><trkpt lat="43.9247611" lon="11.278115"><ele>420.0</ele><time>2026-03-28T08:25:17.88Z</time></trkpt><trkpt lat="43.9247427" lon="11.2782048"><ele>420.0</ele><time>2026-03-28T08:25:18.871Z</time></trkpt><trkpt lat="43.9246974" lon="11.2783281"><ele>420.0</ele><time>2026-03-28T08:25:20.881Z</time></trkpt><trkpt lat="43.9246509" lon="11.2783963"><ele>420.0</ele><time>2026-03-28T08:25:40.893Z</time></trkpt><trkpt lat="43.9246731" lon="11.278232"><ele>420.0</ele><time>2026-03-28T08:25:49.882Z</time></trkpt><trkpt lat="43.9247141" lon="11.2781265"><ele>420.0</ele><time>2026-03-28T08:25:50.875Z</time></trkpt><trkpt lat="43.9247546" lon="11.2780308"><ele>420.0</ele><time>2026-03-28T08:25:51.868Z</time></trkpt><trkpt lat="43.924803" lon="11.2779246"><ele>420.0</ele><time>2026-03-28T08:25:52.869Z</time></trkpt><trkpt lat="43.9248285" lon="11.2778225"><ele>420.0</ele><time>2026-03-28T08:25:53.878Z</time></trkpt><trkpt lat="43.9248319" lon="11.2777202"><ele>420.0</ele><time>2026-03-28T08:25:54.884Z</time></trkpt><trkpt lat="43.9248254" lon="11.2776198"><ele>420.0</ele><time>2026-03-28T08:25:55.878Z</time></trkpt><trkpt lat="43.9248181" lon="11.2775228"><ele>420.0</ele><time>2026-03-28T08:25:56.873Z</time></trkpt><trkpt lat="43.9248124" lon="11.2774214"><ele>420.0</ele><time>2026-03-28T08:25:57.876Z</time></trkpt><trkpt lat="43.9247925" lon="11.2773247"><ele>420.0</ele><time>2026-03-28T08:25:58.878Z</time></trkpt><trkpt lat="43.9247893" lon="11.2771735"><ele>418.8</ele><time>2026-03-28T08:26:00.877Z</time></trkpt><trkpt lat="43.9248143" lon="11.2770288"><ele>417.6</ele><time>2026-03-28T08:26:02.877Z</time></trkpt><trkpt lat="43.9248977" lon="11.2769223"><ele>416.4</ele><time>2026-03-28T08:26:04.878Z</time></trkpt><trkpt lat="43.9250115" lon="11.2769602"><ele>415.2</ele><time>2026-03-28T08:26:06.879Z</time></trkpt><trkpt lat="43.9250778" lon="11.2769973"><ele>414.0</ele><time>2026-03-28T08:26:07.873Z</time></trkpt><trkpt lat="43.925153" lon="11.2770178"><ele>414.0</ele><time>2026-03-28T08:26:08.885Z</time></trkpt><trkpt lat="43.9252274" lon="11.2770288"><ele>414.0</ele><time>2026-03-28T08:26:09.867Z</time></trkpt><trkpt lat="43.9253078" lon="11.2770264"><ele>414.0</ele><time>2026-03-28T08:26:10.862Z</time></trkpt><trkpt lat="43.9253966" lon="11.2770141"><ele>414.0</ele><time>2026-03-28T08:26:11.867Z</time></trkpt><trkpt lat="43.9254846" lon="11.2769942"><ele>414.0</ele><time>2026-03-28T08:26:12.862Z</time></trkpt><trkpt lat="43.9255592" lon="11.2769751"><ele>414.0</ele><time>2026-03-28T08:26:13.877Z</time></trkpt><trkpt lat="43.925623" lon="11.2769481"><ele>414.0</ele><time>2026-03-28T08:26:14.87Z</time></trkpt><trkpt lat="43.9256847" lon="11.2769133"><ele>414.0</ele><time>2026-03-28T08:26:15.872Z</time></trkpt><trkpt lat="43.9257472" lon="11.2768637"><ele>414.0</ele><time>2026-03-28T08:26:16.871Z</time></trkpt><trkpt lat="43.925812" lon="11.2768071"><ele>414.0</ele><time>2026-03-28T08:26:17.873Z</time></trkpt><trkpt lat="43.925881" lon="11.2767493"><ele>414.0</ele><time>2026-03-28T08:26:18.873Z</time></trkpt><trkpt lat="43.9259566" lon="11.2766938"><ele>414.0</ele><time>2026-03-28T08:26:19.875Z</time></trkpt><trkpt lat="43.9260212" lon="11.2766582"><ele>410.8333333333333</ele><time>2026-03-28T08:26:20.876Z</time></trkpt><trkpt lat="43.9260787" lon="11.27662"><ele>407.66666666666663</ele><time>2026-03-28T08:26:21.882Z</time></trkpt><trkpt lat="43.9261784" lon="11.2765421"><ele>404.5</ele><time>2026-03-28T08:26:23.893Z</time></trkpt><trkpt lat="43.9262403" lon="11.2764876"><ele>401.3333333333333</ele><time>2026-03-28T08:26:25.902Z</time></trkpt><trkpt lat="43.926231" lon="11.2763678"><ele>398.16666666666663</ele><time>2026-03-28T08:26:56.892Z</time></trkpt><trkpt lat="43.9261962" lon="11.2762691"><ele>395.0</ele><time>2026-03-28T08:26:57.89Z</time></trkpt><trkpt lat="43.9261487" lon="11.2761517"><ele>394.0</ele><time>2026-03-28T08:26:58.876Z</time></trkpt><trkpt lat="43.9261023" lon="11.2760351"><ele>393.0</ele><time>2026-03-28T08:26:59.871Z</time></trkpt><trkpt lat="43.9260742" lon="11.2759178"><ele>392.0</ele><time>2026-03-28T08:27:00.865Z</time></trkpt><trkpt lat="43.9260448" lon="11.2757981"><ele>391.0</ele><time>2026-03-28T08:27:01.872Z</time></trkpt><trkpt lat="43.9260374" lon="11.2756751"><ele>390.0</ele><time>2026-03-28T08:27:02.87Z</time></trkpt><trkpt lat="43.9260362" lon="11.2755469"><ele>390.0</ele><time>2026-03-28T08:27:03.871Z</time></trkpt><trkpt lat="43.9260403" lon="11.2754155"><ele>390.0</ele><time>2026-03-28T08:27:04.865Z</time></trkpt><trkpt lat="43.926045" lon="11.2752905"><ele>390.0</ele><time>2026-03-28T08:27:05.869Z</time></trkpt><trkpt lat="43.9260651" lon="11.2751693"><ele>390.0</ele><time>2026-03-28T08:27:06.873Z</time></trkpt><trkpt lat="43.9260906" lon="11.275054"><ele>390.0</ele><time>2026-03-28T08:27:07.863Z</time></trkpt><trkpt lat="43.9261306" lon="11.274939"><ele>390.0</ele><time>2026-03-28T08:27:08.866Z</time></trkpt><trkpt lat="43.92618" lon="11.2748309"><ele>390.0</ele><time>2026-03-28T08:27:09.873Z</time></trkpt><trkpt lat="43.9262319" lon="11.2747245"><ele>390.0</ele><time>2026-03-28T08:27:10.868Z</time></trkpt><trkpt lat="43.9262855" lon="11.274618"><ele>390.0</ele><time>2026-03-28T08:27:11.87Z</time></trkpt><trkpt lat="43.926345" lon="11.2745221"><ele>390.0</ele><time>2026-03-28T08:27:12.882Z</time></trkpt><trkpt lat="43.9264099" lon="11.2744434"><ele>391.4</ele><time>2026-03-28T08:27:13.882Z</time></trkpt><trkpt lat="43.9264766" lon="11.2743836"><ele>392.8</ele><time>2026-03-28T08:27:14.883Z</time></trkpt><trkpt lat="43.9265375" lon="11.2743352"><ele>394.20000000000005</ele><time>2026-03-28T08:27:15.879Z</time></trkpt><trkpt lat="43.9266038" lon="11.2742953"><ele>395.6</ele><time>2026-03-28T08:27:16.868Z</time></trkpt><trkpt lat="43.926686" lon="11.2742142"><ele>397.0</ele><time>2026-03-28T08:27:18.878Z</time></trkpt><trkpt lat="43.9267315" lon="11.2740433"><ele>391.6</ele><time>2026-03-28T08:27:20.871Z</time></trkpt><trkpt lat="43.9267594" lon="11.2739143"><ele>386.20000000000005</ele><time>2026-03-28T08:27:21.875Z</time></trkpt><trkpt lat="43.9267693" lon="11.2737751"><ele>380.8</ele><time>2026-03-28T08:27:22.876Z</time></trkpt><trkpt lat="43.9267814" lon="11.2736302"><ele>375.4</ele><time>2026-03-28T08:27:23.871Z</time></trkpt><trkpt lat="43.9267961" lon="11.2734989"><ele>370.0</ele><time>2026-03-28T08:27:24.87Z</time></trkpt><trkpt lat="43.9268095" lon="11.2733663"><ele>370.0</ele><time>2026-03-28T08:27:25.871Z</time></trkpt><trkpt lat="43.9268251" lon="11.2732364"><ele>370.0</ele><time>2026-03-28T08:27:26.869Z</time></trkpt><trkpt lat="43.9268378" lon="11.2731042"><ele>370.0</ele><time>2026-03-28T08:27:27.877Z</time></trkpt><trkpt lat="43.9268441" lon="11.2729712"><ele>370.0</ele><time>2026-03-28T08:27:28.875Z</time></trkpt><trkpt lat="43.9268447" lon="11.2728411"><ele>370.0</ele><time>2026-03-28T08:27:29.873Z</time></trkpt><trkpt lat="43.9268466" lon="11.2727119"><ele>369.66666666666663</ele><time>2026-03-28T08:27:30.876Z</time></trkpt><trkpt lat="43.9268454" lon="11.2725914"><ele>369.3333333333333</ele><time>2026-03-28T08:27:31.872Z</time></trkpt><trkpt lat="43.9268598" lon="11.272474"><ele>369.0</ele><time>2026-03-28T08:27:32.876Z</time></trkpt><trkpt lat="43.9268783" lon="11.2723609"><ele>368.6666666666667</ele><time>2026-03-28T08:27:33.874Z</time></trkpt><trkpt lat="43.9269025" lon="11.2722597"><ele>368.33333333333337</ele><time>2026-03-28T08:27:34.875Z</time></trkpt><trkpt lat="43.9269332" lon="11.2721641"><ele>368.0</ele><time>2026-03-28T08:27:35.876Z</time></trkpt><trkpt lat="43.9269687" lon="11.2720673"><ele>368.83333333333337</ele><time>2026-03-28T08:27:36.876Z</time></trkpt><trkpt lat="43.9270053" lon="11.2719739"><ele>369.6666666666667</ele><time>2026-03-28T08:27:37.871Z</time></trkpt><trkpt lat="43.9270461" lon="11.2718805"><ele>370.5</ele><time>2026-03-28T08:27:38.881Z</time></trkpt><trkpt lat="43.9270939" lon="11.2717838"><ele>371.3333333333333</ele><time>2026-03-28T08:27:39.892Z</time></trkpt><trkpt lat="43.9271474" lon="11.2716783"><ele>372.16666666666663</ele><time>2026-03-28T08:27:40.892Z</time></trkpt><trkpt lat="43.9271976" lon="11.2715608"><ele>373.0</ele><time>2026-03-28T08:27:41.895Z</time></trkpt><trkpt lat="43.9272538" lon="11.2714483"><ele>374.8333333333333</ele><time>2026-03-28T08:27:42.884Z</time></trkpt><trkpt lat="43.927297" lon="11.2713341"><ele>376.66666666666663</ele><time>2026-03-28T08:27:43.891Z</time></trkpt><trkpt lat="43.9273413" lon="11.2712305"><ele>378.5</ele><time>2026-03-28T08:27:44.888Z</time></trkpt><trkpt lat="43.92738" lon="11.2711534"><ele>380.3333333333333</ele><time>2026-03-28T08:27:45.879Z</time></trkpt><trkpt lat="43.9274921" lon="11.2711309"><ele>382.1666666666667</ele><time>2026-03-28T08:27:47.874Z</time></trkpt><trkpt lat="43.9275718" lon="11.2711593"><ele>384.0</ele><time>2026-03-28T08:27:48.885Z</time></trkpt><trkpt lat="43.9276588" lon="11.2711888"><ele>384.8333333333333</ele><time>2026-03-28T08:27:49.876Z</time></trkpt><trkpt lat="43.9277568" lon="11.2712148"><ele>385.66666666666663</ele><time>2026-03-28T08:27:50.877Z</time></trkpt><trkpt lat="43.9278564" lon="11.271229"><ele>386.5</ele><time>2026-03-28T08:27:51.874Z</time></trkpt><trkpt lat="43.9279433" lon="11.2712377"><ele>387.3333333333333</ele><time>2026-03-28T08:27:52.875Z</time></trkpt><trkpt lat="43.9280167" lon="11.2712405"><ele>388.16666666666663</ele><time>2026-03-28T08:27:53.878Z</time></trkpt><trkpt lat="43.9280859" lon="11.271218"><ele>389.0</ele><time>2026-03-28T08:27:54.873Z</time></trkpt><trkpt lat="43.928159" lon="11.2711812"><ele>388.99999999999994</ele><time>2026-03-28T08:27:55.878Z</time></trkpt><trkpt lat="43.9282366" lon="11.2711494"><ele>389.0</ele><time>2026-03-28T08:27:56.875Z</time></trkpt><trkpt lat="43.9283099" lon="11.2711395"><ele>389.0</ele><time>2026-03-28T08:27:57.882Z</time></trkpt><trkpt lat="43.9283871" lon="11.2711573"><ele>389.0</ele><time>2026-03-28T08:27:58.895Z</time></trkpt><trkpt lat="43.9284709" lon="11.2711936"><ele>388.99999999999994</ele><time>2026-03-28T08:27:59.896Z</time></trkpt><trkpt lat="43.928563" lon="11.2712369"><ele>389.0</ele><time>2026-03-28T08:28:00.897Z</time></trkpt><trkpt lat="43.9286565" lon="11.2712862"><ele>389.4</ele><time>2026-03-28T08:28:01.885Z</time></trkpt><trkpt lat="43.928753" lon="11.2713385"><ele>389.79999999999995</ele><time>2026-03-28T08:28:02.884Z</time></trkpt><trkpt lat="43.928846" lon="11.2713873"><ele>390.20000000000005</ele><time>2026-03-28T08:28:03.876Z</time></trkpt><trkpt lat="43.9289313" lon="11.2714166"><ele>390.6</ele><time>2026-03-28T08:28:04.882Z</time></trkpt><trkpt lat="43.9290161" lon="11.2714407"><ele>391.0</ele><time>2026-03-28T08:28:05.872Z</time></trkpt><trkpt lat="43.9291" lon="11.2714803"><ele>391.00000000000006</ele><time>2026-03-28T08:28:06.874Z</time></trkpt><trkpt lat="43.9291744" lon="11.2715448"><ele>391.0</ele><time>2026-03-28T08:28:07.876Z</time></trkpt><trkpt lat="43.9292386" lon="11.2716034"><ele>391.0</ele><time>2026-03-28T08:28:08.872Z</time></trkpt><trkpt lat="43.9292949" lon="11.2716478"><ele>391.0</ele><time>2026-03-28T08:28:09.869Z</time></trkpt><trkpt lat="43.9294022" lon="11.2717003"><ele>391.00000000000006</ele><time>2026-03-28T08:28:11.878Z</time></trkpt><trkpt lat="43.9294644" lon="11.2717313"><ele>391.0</ele><time>2026-03-28T08:28:12.88Z</time></trkpt><trkpt lat="43.9295673" lon="11.2717939"><ele>391.0</ele><time>2026-03-28T08:28:14.87Z</time></trkpt><trkpt lat="43.9296577" lon="11.2718978"><ele>391.0</ele><time>2026-03-28T08:28:16.866Z</time></trkpt><trkpt lat="43.9297316" lon="11.2720424"><ele>391.0</ele><time>2026-03-28T08:28:18.871Z</time></trkpt><trkpt lat="43.9297648" lon="11.2721389"><ele>391.0</ele><time>2026-03-28T08:28:19.871Z</time></trkpt><trkpt lat="43.929791" lon="11.272247"><ele>391.0</ele><time>2026-03-28T08:28:20.881Z</time></trkpt><trkpt lat="43.9298048" lon="11.2723622"><ele>391.0</ele><time>2026-03-28T08:28:21.881Z</time></trkpt><trkpt lat="43.929808" lon="11.2724856"><ele>391.0</ele><time>2026-03-28T08:28:22.88Z</time></trkpt><trkpt lat="43.9298094" lon="11.2726169"><ele>391.0</ele><time>2026-03-28T08:28:23.884Z</time></trkpt><trkpt lat="43.9298128" lon="11.2727616"><ele>391.0</ele><time>2026-03-28T08:28:24.881Z</time></trkpt><trkpt lat="43.9298188" lon="11.2729181"><ele>391.0</ele><time>2026-03-28T08:28:25.874Z</time></trkpt><trkpt lat="43.9298227" lon="11.2730804"><ele>389.20000000000005</ele><time>2026-03-28T08:28:26.871Z</time></trkpt><trkpt lat="43.9298194" lon="11.2732325"><ele>387.40000000000003</ele><time>2026-03-28T08:28:27.87Z</time></trkpt><trkpt lat="43.9298102" lon="11.2733792"><ele>385.6</ele><time>2026-03-28T08:28:28.869Z</time></trkpt><trkpt lat="43.9297986" lon="11.2735106"><ele>383.8</ele><time>2026-03-28T08:28:29.871Z</time></trkpt><trkpt lat="43.92978" lon="11.273628"><ele>382.0</ele><time>2026-03-28T08:28:30.879Z</time></trkpt><trkpt lat="43.9297595" lon="11.2737551"><ele>382.0</ele><time>2026-03-28T08:28:31.891Z</time></trkpt><trkpt lat="43.9297467" lon="11.2738845"><ele>382.0</ele><time>2026-03-28T08:28:32.879Z</time></trkpt><trkpt lat="43.9297399" lon="11.2740106"><ele>382.0</ele><time>2026-03-28T08:28:33.874Z</time></trkpt><trkpt lat="43.9297347" lon="11.2741348"><ele>382.0</ele><time>2026-03-28T08:28:34.874Z</time></trkpt><trkpt lat="43.9297375" lon="11.2742587"><ele>382.0</ele><time>2026-03-28T08:28:35.871Z</time></trkpt><trkpt lat="43.9297475" lon="11.2743822"><ele>380.40000000000003</ele><time>2026-03-28T08:28:36.871Z</time></trkpt><trkpt lat="43.9297756" lon="11.2745099"><ele>378.8</ele><time>2026-03-28T08:28:37.87Z</time></trkpt><trkpt lat="43.9298063" lon="11.2746431"><ele>377.2</ele><time>2026-03-28T08:28:38.871Z</time></trkpt><trkpt lat="43.9298368" lon="11.2747759"><ele>375.6</ele><time>2026-03-28T08:28:39.87Z</time></trkpt><trkpt lat="43.9298618" lon="11.2749095"><ele>374.0</ele><time>2026-03-28T08:28:40.877Z</time></trkpt><trkpt lat="43.9298828" lon="11.2750439"><ele>372.0</ele><time>2026-03-28T08:28:41.869Z</time></trkpt><trkpt lat="43.9298917" lon="11.2751756"><ele>370.0</ele><time>2026-03-28T08:28:42.879Z</time></trkpt><trkpt lat="43.9298917" lon="11.2753046"><ele>368.0</ele><time>2026-03-28T08:28:43.875Z</time></trkpt><trkpt lat="43.9298853" lon="11.2754356"><ele>366.0</ele><time>2026-03-28T08:28:44.877Z</time></trkpt><trkpt lat="43.9298716" lon="11.2755656"><ele>364.0</ele><time>2026-03-28T08:28:45.878Z</time></trkpt><trkpt lat="43.9298535" lon="11.2756945"><ele>363.0</ele><time>2026-03-28T08:28:46.889Z</time></trkpt><trkpt lat="43.9298325" lon="11.2758176"><ele>362.0</ele><time>2026-03-28T08:28:47.878Z</time></trkpt><trkpt lat="43.9298091" lon="11.275936"><ele>361.0</ele><time>2026-03-28T08:28:48.892Z</time></trkpt><trkpt lat="43.9297819" lon="11.2760505"><ele>360.0</ele><time>2026-03-28T08:28:49.884Z</time></trkpt><trkpt lat="43.929764" lon="11.2761658"><ele>359.0</ele><time>2026-03-28T08:28:50.876Z</time></trkpt><trkpt lat="43.9297516" lon="11.2762874"><ele>358.0</ele><time>2026-03-28T08:28:51.886Z</time></trkpt><trkpt lat="43.929737" lon="11.276398"><ele>356.2</ele><time>2026-03-28T08:28:52.889Z</time></trkpt><trkpt lat="43.9297254" lon="11.2765132"><ele>354.4</ele><time>2026-03-28T08:28:53.9Z</time></trkpt><trkpt lat="43.929714" lon="11.276638"><ele>352.59999999999997</ele><time>2026-03-28T08:28:54.9Z</time></trkpt><trkpt lat="43.929702" lon="11.2767749"><ele>350.79999999999995</ele><time>2026-03-28T08:28:55.897Z</time></trkpt><trkpt lat="43.929692" lon="11.2769104"><ele>349.0</ele><time>2026-03-28T08:28:56.888Z</time></trkpt><trkpt lat="43.9296724" lon="11.2770498"><ele>349.0</ele><time>2026-03-28T08:28:57.884Z</time></trkpt><trkpt lat="43.9296503" lon="11.2771955"><ele>349.0</ele><time>2026-03-28T08:28:58.881Z</time></trkpt><trkpt lat="43.9296195" lon="11.2773325"><ele>349.0</ele><time>2026-03-28T08:28:59.879Z</time></trkpt><trkpt lat="43.9295913" lon="11.2774605"><ele>349.0</ele><time>2026-03-28T08:29:00.879Z</time></trkpt><trkpt lat="43.9295687" lon="11.2775791"><ele>349.0</ele><time>2026-03-28T08:29:01.88Z</time></trkpt><trkpt lat="43.9295429" lon="11.2776918"><ele>347.4285714285714</ele><time>2026-03-28T08:29:02.884Z</time></trkpt><trkpt lat="43.929521" lon="11.2777934"><ele>345.85714285714283</ele><time>2026-03-28T08:29:03.876Z</time></trkpt><trkpt lat="43.9294951" lon="11.2778904"><ele>344.2857142857143</ele><time>2026-03-28T08:29:04.874Z</time></trkpt><trkpt lat="43.9294645" lon="11.2779721"><ele>342.71428571428567</ele><time>2026-03-28T08:29:05.869Z</time></trkpt><trkpt lat="43.9294212" lon="11.2780371"><ele>341.1428571428571</ele><time>2026-03-28T08:29:06.871Z</time></trkpt><trkpt lat="43.9293615" lon="11.2780951"><ele>339.57142857142856</ele><time>2026-03-28T08:29:07.868Z</time></trkpt><trkpt lat="43.9292947" lon="11.278161"><ele>338.0</ele><time>2026-03-28T08:29:08.868Z</time></trkpt><trkpt lat="43.9292316" lon="11.2782334"><ele>334.5</ele><time>2026-03-28T08:29:09.87Z</time></trkpt><trkpt lat="43.929188" lon="11.2783078"><ele>331.0</ele><time>2026-03-28T08:29:10.863Z</time></trkpt><trkpt lat="43.9291885" lon="11.2784538"><ele>327.5</ele><time>2026-03-28T08:29:12.864Z</time></trkpt><trkpt lat="43.9292159" lon="11.2785424"><ele>324.0</ele><time>2026-03-28T08:29:13.87Z</time></trkpt><trkpt lat="43.9292664" lon="11.2786562"><ele>320.5</ele><time>2026-03-28T08:29:14.868Z</time></trkpt><trkpt lat="43.9293252" lon="11.2787781"><ele>317.0</ele><time>2026-03-28T08:29:15.874Z</time></trkpt><trkpt lat="43.9293963" lon="11.2788962"><ele>312.2</ele><time>2026-03-28T08:29:16.874Z</time></trkpt><trkpt lat="43.9294656" lon="11.2790066"><ele>307.4</ele><time>2026-03-28T08:29:17.873Z</time></trkpt><trkpt lat="43.9295328" lon="11.2791134"><ele>302.6</ele><time>2026-03-28T08:29:18.872Z</time></trkpt><trkpt lat="43.9295925" lon="11.2792179"><ele>297.8</ele><time>2026-03-28T08:29:19.883Z</time></trkpt><trkpt lat="43.9296371" lon="11.2793252"><ele>293.0</ele><time>2026-03-28T08:29:20.87Z</time></trkpt><trkpt lat="43.9296663" lon="11.2794362"><ele>293.0</ele><time>2026-03-28T08:29:21.87Z</time></trkpt><trkpt lat="43.9296838" lon="11.2795501"><ele>293.0</ele><time>2026-03-28T08:29:22.867Z</time></trkpt><trkpt lat="43.9296943" lon="11.2796538"><ele>293.0</ele><time>2026-03-28T08:29:23.866Z</time></trkpt><trkpt lat="43.9296956" lon="11.2797986"><ele>293.0</ele><time>2026-03-28T08:29:25.861Z</time></trkpt><trkpt lat="43.9296622" lon="11.2798885"><ele>293.0</ele><time>2026-03-28T08:29:27.873Z</time></trkpt><trkpt lat="43.9295967" lon="11.2799605"><ele>293.0</ele><time>2026-03-28T08:29:29.872Z</time></trkpt><trkpt lat="43.9295297" lon="11.2800572"><ele>290.8</ele><time>2026-03-28T08:29:31.877Z</time></trkpt><trkpt lat="43.929516" lon="11.2801784"><ele>288.6</ele><time>2026-03-28T08:29:33.869Z</time></trkpt><trkpt lat="43.9295518" lon="11.2803028"><ele>286.4</ele><time>2026-03-28T08:29:35.878Z</time></trkpt><trkpt lat="43.9296086" lon="11.2804564"><ele>284.2</ele><time>2026-03-28T08:29:37.863Z</time></trkpt><trkpt lat="43.9296053" lon="11.2806066"><ele>282.0</ele><time>2026-03-28T08:29:39.863Z</time></trkpt><trkpt lat="43.9295521" lon="11.2807421"><ele>282.0</ele><time>2026-03-28T08:29:41.869Z</time></trkpt><trkpt lat="43.9295338" lon="11.280858"><ele>282.0</ele><time>2026-03-28T08:29:43.871Z</time></trkpt><trkpt lat="43.9298729" lon="11.2804822"><ele>282.0</ele><time>2026-03-28T08:30:26.234Z</time></trkpt><trkpt lat="43.9300538" lon="11.280393"><ele>282.0</ele><time>2026-03-28T08:30:28.649Z</time></trkpt><trkpt lat="43.9301475" lon="11.2803094"><ele>282.0</ele><time>2026-03-28T08:30:29.66Z</time></trkpt><trkpt lat="43.9302227" lon="11.280244"><ele>282.0</ele><time>2026-03-28T08:30:30.653Z</time></trkpt><trkpt lat="43.9303012" lon="11.2801909"><ele>282.0</ele><time>2026-03-28T08:30:31.661Z</time></trkpt><trkpt lat="43.930373" lon="11.2801423"><ele>282.0</ele><time>2026-03-28T08:30:32.661Z</time></trkpt><trkpt lat="43.9304479" lon="11.2800938"><ele>282.0</ele><time>2026-03-28T08:30:33.669Z</time></trkpt><trkpt lat="43.9305247" lon="11.2800361"><ele>282.0</ele><time>2026-03-28T08:30:34.672Z</time></trkpt><trkpt lat="43.9305994" lon="11.2799782"><ele>282.0</ele><time>2026-03-28T08:30:35.677Z</time></trkpt><trkpt lat="43.9306724" lon="11.2799063"><ele>282.0</ele><time>2026-03-28T08:30:36.676Z</time></trkpt><trkpt lat="43.9307344" lon="11.2798087"><ele>282.4</ele><time>2026-03-28T08:30:37.671Z</time></trkpt><trkpt lat="43.9307958" lon="11.2797038"><ele>282.79999999999995</ele><time>2026-03-28T08:30:38.675Z</time></trkpt><trkpt lat="43.9308572" lon="11.2795989"><ele>283.2</ele><time>2026-03-28T08:30:39.666Z</time></trkpt><trkpt lat="43.9309273" lon="11.2795038"><ele>283.59999999999997</ele><time>2026-03-28T08:30:40.678Z</time></trkpt><trkpt lat="43.9310032" lon="11.2794189"><ele>284.0</ele><time>2026-03-28T08:30:41.673Z</time></trkpt><trkpt lat="43.9310929" lon="11.2793401"><ele>284.0</ele><time>2026-03-28T08:30:42.672Z</time></trkpt><trkpt lat="43.9311867" lon="11.279258"><ele>284.0</ele><time>2026-03-28T08:30:43.678Z</time></trkpt><trkpt lat="43.9312813" lon="11.2791833"><ele>284.0</ele><time>2026-03-28T08:30:44.676Z</time></trkpt><trkpt lat="43.9313797" lon="11.2791165"><ele>284.0</ele><time>2026-03-28T08:30:45.671Z</time></trkpt><trkpt lat="43.9314736" lon="11.2790598"><ele>284.0</ele><time>2026-03-28T08:30:46.67Z</time></trkpt><trkpt lat="43.9315573" lon="11.2789925"><ele>284.75</ele><time>2026-03-28T08:30:47.668Z</time></trkpt><trkpt lat="43.9316325" lon="11.2789175"><ele>285.5</ele><time>2026-03-28T08:30:48.664Z</time></trkpt><trkpt lat="43.9317066" lon="11.2788263"><ele>286.25</ele><time>2026-03-28T08:30:49.673Z</time></trkpt><trkpt lat="43.9318357" lon="11.2786341"><ele>287.0</ele><time>2026-03-28T08:30:51.468Z</time></trkpt><trkpt lat="43.9319055" lon="11.2785361"><ele>287.0</ele><time>2026-03-28T08:30:52.375Z</time></trkpt><trkpt lat="43.9319785" lon="11.2784406"><ele>287.0</ele><time>2026-03-28T08:30:53.277Z</time></trkpt><trkpt lat="43.9320561" lon="11.2783407"><ele>287.0</ele><time>2026-03-28T08:30:54.177Z</time></trkpt><trkpt lat="43.9322014" lon="11.2781306"><ele>287.0</ele><time>2026-03-28T08:30:55.964Z</time></trkpt><trkpt lat="43.9322723" lon="11.2780217"><ele>287.0</ele><time>2026-03-28T08:30:56.875Z</time></trkpt><trkpt lat="43.9323429" lon="11.2778956"><ele>287.0</ele><time>2026-03-28T08:30:57.897Z</time></trkpt><trkpt lat="43.9323995" lon="11.2777821"><ele>287.0</ele><time>2026-03-28T08:30:58.873Z</time></trkpt><trkpt lat="43.9324357" lon="11.277679"><ele>287.0</ele><time>2026-03-28T08:30:59.877Z</time></trkpt><trkpt lat="43.9324622" lon="11.2775883"><ele>287.0</ele><time>2026-03-28T08:31:00.872Z</time></trkpt><trkpt lat="43.9325224" lon="11.2774841"><ele>288.0</ele><time>2026-03-28T08:31:02.875Z</time></trkpt><trkpt lat="43.9326005" lon="11.2774097"><ele>289.0</ele><time>2026-03-28T08:31:04.876Z</time></trkpt><trkpt lat="43.9326843" lon="11.2772832"><ele>290.0</ele><time>2026-03-28T08:31:06.874Z</time></trkpt><trkpt lat="43.932745" lon="11.2771911"><ele>291.0</ele><time>2026-03-28T08:31:07.88Z</time></trkpt><trkpt lat="43.93281" lon="11.277095"><ele>292.0</ele><time>2026-03-28T08:31:08.882Z</time></trkpt><trkpt lat="43.9328811" lon="11.276989"><ele>292.0</ele><time>2026-03-28T08:31:09.88Z</time></trkpt><trkpt lat="43.9329451" lon="11.2768859"><ele>292.0</ele><time>2026-03-28T08:31:10.879Z</time></trkpt><trkpt lat="43.9330041" lon="11.2767706"><ele>292.0</ele><time>2026-03-28T08:31:11.877Z</time></trkpt><trkpt lat="43.9330599" lon="11.2766469"><ele>292.0</ele><time>2026-03-28T08:31:12.877Z</time></trkpt><trkpt lat="43.9331145" lon="11.276508"><ele>292.0</ele><time>2026-03-28T08:31:13.88Z</time></trkpt><trkpt lat="43.93317" lon="11.2763578"><ele>292.25</ele><time>2026-03-28T08:31:14.883Z</time></trkpt><trkpt lat="43.9332187" lon="11.2761976"><ele>292.5</ele><time>2026-03-28T08:31:15.876Z</time></trkpt><trkpt lat="43.933263" lon="11.2760332"><ele>292.75</ele><time>2026-03-28T08:31:16.874Z</time></trkpt><trkpt lat="43.9333078" lon="11.2758557"><ele>293.0</ele><time>2026-03-28T08:31:17.878Z</time></trkpt><trkpt lat="43.9333523" lon="11.2756795"><ele>299.25</ele><time>2026-03-28T08:31:18.879Z</time></trkpt><trkpt lat="43.93339" lon="11.2755079"><ele>305.5</ele><time>2026-03-28T08:31:19.878Z</time></trkpt><trkpt lat="43.9334288" lon="11.2753406"><ele>311.75</ele><time>2026-03-28T08:31:20.875Z</time></trkpt><trkpt lat="43.9334599" lon="11.2751837"><ele>318.0</ele><time>2026-03-28T08:31:21.88Z</time></trkpt><trkpt lat="43.9334908" lon="11.2750377"><ele>318.0</ele><time>2026-03-28T08:31:22.875Z</time></trkpt><trkpt lat="43.9335237" lon="11.2748939"><ele>318.0</ele><time>2026-03-28T08:31:23.874Z</time></trkpt><trkpt lat="43.9335541" lon="11.2747484"><ele>318.0</ele><time>2026-03-28T08:31:24.879Z</time></trkpt><trkpt lat="43.9335806" lon="11.2746042"><ele>318.0</ele><time>2026-03-28T08:31:25.875Z</time></trkpt><trkpt lat="43.9336067" lon="11.2744581"><ele>318.0</ele><time>2026-03-28T08:31:26.881Z</time></trkpt><trkpt lat="43.9336398" lon="11.2743053"><ele>317.0</ele><time>2026-03-28T08:31:27.896Z</time></trkpt><trkpt lat="43.9336764" lon="11.2741468"><ele>316.0</ele><time>2026-03-28T08:31:28.893Z</time></trkpt><trkpt lat="43.9337215" lon="11.2739844"><ele>315.0</ele><time>2026-03-28T08:31:29.876Z</time></trkpt><trkpt lat="43.9337641" lon="11.2738145"><ele>314.0</ele><time>2026-03-28T08:31:30.875Z</time></trkpt><trkpt lat="43.933805" lon="11.2736421"><ele>313.75</ele><time>2026-03-28T08:31:31.886Z</time></trkpt><trkpt lat="43.9338438" lon="11.2734709"><ele>313.5</ele><time>2026-03-28T08:31:32.879Z</time></trkpt><trkpt lat="43.933881" lon="11.2733021"><ele>313.25</ele><time>2026-03-28T08:31:33.885Z</time></trkpt><trkpt lat="43.9339173" lon="11.2731349"><ele>313.0</ele><time>2026-03-28T08:31:34.885Z</time></trkpt><trkpt lat="43.9339549" lon="11.2729638"><ele>312.75</ele><time>2026-03-28T08:31:35.883Z</time></trkpt><trkpt lat="43.9339926" lon="11.2727877"><ele>312.5</ele><time>2026-03-28T08:31:36.888Z</time></trkpt><trkpt lat="43.934031" lon="11.2726048"><ele>312.25</ele><time>2026-03-28T08:31:37.886Z</time></trkpt><trkpt lat="43.9340688" lon="11.2724196"><ele>312.0</ele><time>2026-03-28T08:31:38.886Z</time></trkpt><trkpt lat="43.9341084" lon="11.2722483"><ele>312.0</ele><time>2026-03-28T08:31:39.883Z</time></trkpt><trkpt lat="43.9341502" lon="11.2720825"><ele>312.0</ele><time>2026-03-28T08:31:40.882Z</time></trkpt><trkpt lat="43.9341911" lon="11.2719185"><ele>312.0</ele><time>2026-03-28T08:31:41.886Z</time></trkpt><trkpt lat="43.9342318" lon="11.2717535"><ele>312.0</ele><time>2026-03-28T08:31:42.882Z</time></trkpt><trkpt lat="43.9342736" lon="11.2715844"><ele>314.75</ele><time>2026-03-28T08:31:43.886Z</time></trkpt><trkpt lat="43.9343158" lon="11.2714162"><ele>317.5</ele><time>2026-03-28T08:31:44.888Z</time></trkpt><trkpt lat="43.9343475" lon="11.2712513"><ele>320.25</ele><time>2026-03-28T08:31:45.889Z</time></trkpt><trkpt lat="43.9343824" lon="11.2710858"><ele>323.0</ele><time>2026-03-28T08:31:46.891Z</time></trkpt><trkpt lat="43.9344158" lon="11.2709242"><ele>323.0</ele><time>2026-03-28T08:31:47.898Z</time></trkpt><trkpt lat="43.9344498" lon="11.2707661"><ele>323.0</ele><time>2026-03-28T08:31:48.892Z</time></trkpt><trkpt lat="43.9344784" lon="11.270615"><ele>323.0</ele><time>2026-03-28T08:31:49.89Z</time></trkpt><trkpt lat="43.9345025" lon="11.2704714"><ele>323.0</ele><time>2026-03-28T08:31:50.892Z</time></trkpt><trkpt lat="43.9345233" lon="11.2703307"><ele>323.0</ele><time>2026-03-28T08:31:51.887Z</time></trkpt><trkpt lat="43.9345504" lon="11.2701884"><ele>321.0</ele><time>2026-03-28T08:31:52.889Z</time></trkpt><trkpt lat="43.9345828" lon="11.2700491"><ele>319.0</ele><time>2026-03-28T08:31:53.886Z</time></trkpt><trkpt lat="43.9346252" lon="11.269908"><ele>317.0</ele><time>2026-03-28T08:31:54.886Z</time></trkpt><trkpt lat="43.9346758" lon="11.269779"><ele>315.0</ele><time>2026-03-28T08:31:55.887Z</time></trkpt><trkpt lat="43.9347364" lon="11.2696552"><ele>313.0</ele><time>2026-03-28T08:31:56.885Z</time></trkpt><trkpt lat="43.9347936" lon="11.2695425"><ele>312.16666666666663</ele><time>2026-03-28T08:31:57.896Z</time></trkpt><trkpt lat="43.9348422" lon="11.2694235"><ele>311.3333333333333</ele><time>2026-03-28T08:31:58.875Z</time></trkpt><trkpt lat="43.934877" lon="11.2693072"><ele>310.5</ele><time>2026-03-28T08:31:59.902Z</time></trkpt><trkpt lat="43.9348989" lon="11.2691928"><ele>309.6666666666667</ele><time>2026-03-28T08:32:00.879Z</time></trkpt><trkpt lat="43.9349111" lon="11.269076"><ele>308.83333333333337</ele><time>2026-03-28T08:32:01.879Z</time></trkpt><trkpt lat="43.9349007" lon="11.2689626"><ele>308.0</ele><time>2026-03-28T08:32:02.879Z</time></trkpt><trkpt lat="43.9348547" lon="11.2688431"><ele>311.25</ele><time>2026-03-28T08:32:03.875Z</time></trkpt><trkpt lat="43.9347902" lon="11.2687261"><ele>314.5</ele><time>2026-03-28T08:32:04.878Z</time></trkpt><trkpt lat="43.9347194" lon="11.268607"><ele>317.75</ele><time>2026-03-28T08:32:05.874Z</time></trkpt><trkpt lat="43.9346494" lon="11.2684745"><ele>321.0</ele><time>2026-03-28T08:32:06.874Z</time></trkpt><trkpt lat="43.9345774" lon="11.2683249"><ele>321.0</ele><time>2026-03-28T08:32:07.877Z</time></trkpt><trkpt lat="43.934506" lon="11.2681597"><ele>321.0</ele><time>2026-03-28T08:32:08.877Z</time></trkpt><trkpt lat="43.9344376" lon="11.2679866"><ele>321.0</ele><time>2026-03-28T08:32:09.876Z</time></trkpt><trkpt lat="43.934376" lon="11.2678123"><ele>321.0</ele><time>2026-03-28T08:32:10.879Z</time></trkpt><trkpt lat="43.9343093" lon="11.2676454"><ele>321.5</ele><time>2026-03-28T08:32:11.871Z</time></trkpt><trkpt lat="43.9342439" lon="11.2674912"><ele>322.0</ele><time>2026-03-28T08:32:12.868Z</time></trkpt><trkpt lat="43.9341817" lon="11.2673423"><ele>322.5</ele><time>2026-03-28T08:32:13.875Z</time></trkpt><trkpt lat="43.9341219" lon="11.2672038"><ele>323.0</ele><time>2026-03-28T08:32:14.876Z</time></trkpt><trkpt lat="43.9340736" lon="11.2670574"><ele>323.0</ele><time>2026-03-28T08:32:15.874Z</time></trkpt><trkpt lat="43.9340359" lon="11.2669073"><ele>323.0</ele><time>2026-03-28T08:32:16.88Z</time></trkpt><trkpt lat="43.9340073" lon="11.266753"><ele>323.0</ele><time>2026-03-28T08:32:17.885Z</time></trkpt><trkpt lat="43.9340088" lon="11.2665914"><ele>323.0</ele><time>2026-03-28T08:32:18.884Z</time></trkpt><trkpt lat="43.9340277" lon="11.2664282"><ele>322.75</ele><time>2026-03-28T08:32:19.88Z</time></trkpt><trkpt lat="43.9340544" lon="11.2662673"><ele>322.5</ele><time>2026-03-28T08:32:20.884Z</time></trkpt><trkpt lat="43.934095" lon="11.2661109"><ele>322.25</ele><time>2026-03-28T08:32:21.88Z</time></trkpt><trkpt lat="43.934147" lon="11.2659519"><ele>322.0</ele><time>2026-03-28T08:32:22.877Z</time></trkpt><trkpt lat="43.9342137" lon="11.2657971"><ele>328.75</ele><time>2026-03-28T08:32:23.886Z</time></trkpt><trkpt lat="43.9342886" lon="11.2656329"><ele>335.5</ele><time>2026-03-28T08:32:24.879Z</time></trkpt><trkpt lat="43.9343709" lon="11.2654574"><ele>342.25</ele><time>2026-03-28T08:32:25.879Z</time></trkpt><trkpt lat="43.9344484" lon="11.26529"><ele>349.0</ele><time>2026-03-28T08:32:26.871Z</time></trkpt><trkpt lat="43.9345142" lon="11.2651298"><ele>349.0</ele><time>2026-03-28T08:32:27.888Z</time></trkpt><trkpt lat="43.9345702" lon="11.2649782"><ele>349.0</ele><time>2026-03-28T08:32:28.872Z</time></trkpt><trkpt lat="43.9346197" lon="11.2648367"><ele>349.0</ele><time>2026-03-28T08:32:29.874Z</time></trkpt><trkpt lat="43.9346698" lon="11.2646932"><ele>349.0</ele><time>2026-03-28T08:32:30.893Z</time></trkpt><trkpt lat="43.9347232" lon="11.2645534"><ele>348.25</ele><time>2026-03-28T08:32:31.877Z</time></trkpt><trkpt lat="43.9347697" lon="11.2644073"><ele>347.5</ele><time>2026-03-28T08:32:32.873Z</time></trkpt><trkpt lat="43.934805" lon="11.2642493"><ele>346.75</ele><time>2026-03-28T08:32:33.87Z</time></trkpt><trkpt lat="43.9348361" lon="11.2640901"><ele>346.0</ele><time>2026-03-28T08:32:34.875Z</time></trkpt><trkpt lat="43.9348589" lon="11.2639245"><ele>346.0</ele><time>2026-03-28T08:32:35.873Z</time></trkpt><trkpt lat="43.9348784" lon="11.2637544"><ele>346.0</ele><time>2026-03-28T08:32:36.879Z</time></trkpt><trkpt lat="43.9348999" lon="11.2635897"><ele>346.0</ele><time>2026-03-28T08:32:37.88Z</time></trkpt><trkpt lat="43.9349231" lon="11.2634273"><ele>346.0</ele><time>2026-03-28T08:32:38.876Z</time></trkpt><trkpt lat="43.9349484" lon="11.2632666"><ele>346.8</ele><time>2026-03-28T08:32:39.876Z</time></trkpt><trkpt lat="43.9349698" lon="11.2631102"><ele>347.6</ele><time>2026-03-28T08:32:40.872Z</time></trkpt><trkpt lat="43.9349868" lon="11.2629575"><ele>348.4</ele><time>2026-03-28T08:32:41.868Z</time></trkpt><trkpt lat="43.9349964" lon="11.2628081"><ele>349.2</ele><time>2026-03-28T08:32:42.877Z</time></trkpt><trkpt lat="43.9350059" lon="11.2626686"><ele>350.0</ele><time>2026-03-28T08:32:43.875Z</time></trkpt><trkpt lat="43.9350185" lon="11.2625298"><ele>350.0</ele><time>2026-03-28T08:32:44.872Z</time></trkpt><trkpt lat="43.9350326" lon="11.2624036"><ele>350.0</ele><time>2026-03-28T08:32:45.881Z</time></trkpt><trkpt lat="43.9350458" lon="11.2622943"><ele>350.0</ele><time>2026-03-28T08:32:46.88Z</time></trkpt><trkpt lat="43.9350559" lon="11.2621983"><ele>350.0</ele><time>2026-03-28T08:32:47.888Z</time></trkpt><trkpt lat="43.9350773" lon="11.2620724"><ele>350.0</ele><time>2026-03-28T08:32:49.875Z</time></trkpt><trkpt lat="43.9350933" lon="11.2618915"><ele>354.6666666666667</ele><time>2026-03-28T08:33:14.683Z</time></trkpt><trkpt lat="43.9351048" lon="11.261788"><ele>359.33333333333337</ele><time>2026-03-28T08:33:15.68Z</time></trkpt><trkpt lat="43.9351172" lon="11.2616774"><ele>364.0</ele><time>2026-03-28T08:33:16.685Z</time></trkpt><trkpt lat="43.9351258" lon="11.2615651"><ele>368.6666666666667</ele><time>2026-03-28T08:33:17.677Z</time></trkpt><trkpt lat="43.9351352" lon="11.2614502"><ele>373.3333333333333</ele><time>2026-03-28T08:33:18.681Z</time></trkpt><trkpt lat="43.9351517" lon="11.2613448"><ele>378.0</ele><time>2026-03-28T08:33:19.584Z</time></trkpt><trkpt lat="43.9351693" lon="11.2612355"><ele>378.6666666666667</ele><time>2026-03-28T08:33:20.486Z</time></trkpt><trkpt lat="43.9352033" lon="11.2610038"><ele>379.33333333333337</ele><time>2026-03-28T08:33:22.282Z</time></trkpt><trkpt lat="43.9352188" lon="11.2608732"><ele>380.0</ele><time>2026-03-28T08:33:23.185Z</time></trkpt><trkpt lat="43.9352303" lon="11.2605839"><ele>382.0</ele><time>2026-03-28T08:33:24.98Z</time></trkpt><trkpt lat="43.9352432" lon="11.2602647"><ele>384.0</ele><time>2026-03-28T08:33:26.904Z</time></trkpt><trkpt lat="43.9352486" lon="11.2600962"><ele>386.0</ele><time>2026-03-28T08:33:27.882Z</time></trkpt><trkpt lat="43.9352568" lon="11.2599296"><ele>386.8</ele><time>2026-03-28T08:33:28.877Z</time></trkpt><trkpt lat="43.9352672" lon="11.2597719"><ele>387.6</ele><time>2026-03-28T08:33:29.871Z</time></trkpt><trkpt lat="43.9352774" lon="11.2596142"><ele>388.4</ele><time>2026-03-28T08:33:30.873Z</time></trkpt><trkpt lat="43.9352858" lon="11.2594642"><ele>389.2</ele><time>2026-03-28T08:33:31.877Z</time></trkpt><trkpt lat="43.9352897" lon="11.2593194"><ele>390.0</ele><time>2026-03-28T08:33:32.878Z</time></trkpt><trkpt lat="43.9352878" lon="11.2591763"><ele>390.0</ele><time>2026-03-28T08:33:33.873Z</time></trkpt><trkpt lat="43.9352837" lon="11.2590438"><ele>390.0</ele><time>2026-03-28T08:33:34.872Z</time></trkpt><trkpt lat="43.935279" lon="11.2589225"><ele>390.0</ele><time>2026-03-28T08:33:35.867Z</time></trkpt><trkpt lat="43.9352752" lon="11.2587852"><ele>390.0</ele><time>2026-03-28T08:33:36.876Z</time></trkpt><trkpt lat="43.9352734" lon="11.2586249"><ele>390.0</ele><time>2026-03-28T08:33:37.87Z</time></trkpt><trkpt lat="43.9352748" lon="11.2584537"><ele>391.6</ele><time>2026-03-28T08:33:38.873Z</time></trkpt><trkpt lat="43.9352761" lon="11.2582937"><ele>393.2</ele><time>2026-03-28T08:33:39.871Z</time></trkpt><trkpt lat="43.935278" lon="11.2581512"><ele>394.79999999999995</ele><time>2026-03-28T08:33:40.875Z</time></trkpt><trkpt lat="43.9352668" lon="11.2580151"><ele>396.4</ele><time>2026-03-28T08:33:41.878Z</time></trkpt><trkpt lat="43.9352434" lon="11.257885"><ele>398.0</ele><time>2026-03-28T08:33:42.878Z</time></trkpt><trkpt lat="43.9352054" lon="11.257748"><ele>400.59999999999997</ele><time>2026-03-28T08:33:43.874Z</time></trkpt><trkpt lat="43.9351609" lon="11.2576173"><ele>403.2</ele><time>2026-03-28T08:33:44.88Z</time></trkpt><trkpt lat="43.9351186" lon="11.257478"><ele>405.8</ele><time>2026-03-28T08:33:45.885Z</time></trkpt><trkpt lat="43.9350758" lon="11.2573393"><ele>408.4</ele><time>2026-03-28T08:33:46.892Z</time></trkpt><trkpt lat="43.9350299" lon="11.2572039"><ele>411.0</ele><time>2026-03-28T08:33:47.887Z</time></trkpt><trkpt lat="43.9349839" lon="11.2570641"><ele>402.25</ele><time>2026-03-28T08:33:48.888Z</time></trkpt><trkpt lat="43.9349247" lon="11.2569241"><ele>393.5</ele><time>2026-03-28T08:33:49.882Z</time></trkpt><trkpt lat="43.9348719" lon="11.2567776"><ele>384.75</ele><time>2026-03-28T08:33:50.876Z</time></trkpt><trkpt lat="43.9348201" lon="11.2566196"><ele>376.0</ele><time>2026-03-28T08:33:51.872Z</time></trkpt><trkpt lat="43.9347654" lon="11.2564649"><ele>381.25</ele><time>2026-03-28T08:33:52.887Z</time></trkpt><trkpt lat="43.934709" lon="11.256309"><ele>386.5</ele><time>2026-03-28T08:33:53.885Z</time></trkpt><trkpt lat="43.9346503" lon="11.2561567"><ele>391.75</ele><time>2026-03-28T08:33:54.878Z</time></trkpt><trkpt lat="43.9345836" lon="11.2560088"><ele>397.0</ele><time>2026-03-28T08:33:55.878Z</time></trkpt><trkpt lat="43.9345109" lon="11.2558698"><ele>397.0</ele><time>2026-03-28T08:33:56.897Z</time></trkpt><trkpt lat="43.9344318" lon="11.2557389"><ele>397.0</ele><time>2026-03-28T08:33:57.897Z</time></trkpt><trkpt lat="43.9343452" lon="11.2556084"><ele>397.0</ele><time>2026-03-28T08:33:58.878Z</time></trkpt><trkpt lat="43.9342519" lon="11.2554863"><ele>397.0</ele><time>2026-03-28T08:33:59.874Z</time></trkpt><trkpt lat="43.9341571" lon="11.2553638"><ele>393.75</ele><time>2026-03-28T08:34:00.871Z</time></trkpt><trkpt lat="43.9340649" lon="11.2552486"><ele>390.5</ele><time>2026-03-28T08:34:01.877Z</time></trkpt><trkpt lat="43.9339675" lon="11.2551322"><ele>387.25</ele><time>2026-03-28T08:34:02.874Z</time></trkpt><trkpt lat="43.9338669" lon="11.2550129"><ele>384.0</ele><time>2026-03-28T08:34:03.871Z</time></trkpt><trkpt lat="43.9337646" lon="11.2548947"><ele>390.25</ele><time>2026-03-28T08:34:04.871Z</time></trkpt><trkpt lat="43.9336682" lon="11.2547775"><ele>396.5</ele><time>2026-03-28T08:34:05.873Z</time></trkpt><trkpt lat="43.9335788" lon="11.2546652"><ele>402.75</ele><time>2026-03-28T08:34:06.868Z</time></trkpt><trkpt lat="43.9334933" lon="11.2545637"><ele>409.0</ele><time>2026-03-28T08:34:07.871Z</time></trkpt><trkpt lat="43.9334195" lon="11.2544577"><ele>402.4</ele><time>2026-03-28T08:34:08.868Z</time></trkpt><trkpt lat="43.933351" lon="11.2543389"><ele>395.79999999999995</ele><time>2026-03-28T08:34:09.868Z</time></trkpt><trkpt lat="43.9332902" lon="11.2542115"><ele>389.20000000000005</ele><time>2026-03-28T08:34:10.867Z</time></trkpt><trkpt lat="43.9332371" lon="11.2540755"><ele>382.6</ele><time>2026-03-28T08:34:11.866Z</time></trkpt><trkpt lat="43.9331894" lon="11.2539277"><ele>376.0</ele><time>2026-03-28T08:34:12.866Z</time></trkpt><trkpt lat="43.9331486" lon="11.2537812"><ele>376.0</ele><time>2026-03-28T08:34:13.864Z</time></trkpt><trkpt lat="43.9331109" lon="11.2536417"><ele>376.0</ele><time>2026-03-28T08:34:14.865Z</time></trkpt><trkpt lat="43.9330723" lon="11.2535116"><ele>376.0</ele><time>2026-03-28T08:34:15.863Z</time></trkpt><trkpt lat="43.933025" lon="11.2534118"><ele>376.0</ele><time>2026-03-28T08:34:16.866Z</time></trkpt><trkpt lat="43.9329678" lon="11.2533137"><ele>376.0</ele><time>2026-03-28T08:34:17.861Z</time></trkpt><trkpt lat="43.9328968" lon="11.2532243"><ele>376.0</ele><time>2026-03-28T08:34:18.87Z</time></trkpt><trkpt lat="43.9328145" lon="11.2531394"><ele>376.0</ele><time>2026-03-28T08:34:19.872Z</time></trkpt><trkpt lat="43.9327379" lon="11.2530556"><ele>376.0</ele><time>2026-03-28T08:34:20.863Z</time></trkpt><trkpt lat="43.9326716" lon="11.2529656"><ele>376.0</ele><time>2026-03-28T08:34:21.88Z</time></trkpt><trkpt lat="43.9326144" lon="11.2528536"><ele>376.0</ele><time>2026-03-28T08:34:22.868Z</time></trkpt><trkpt lat="43.9325629" lon="11.252727"><ele>378.0</ele><time>2026-03-28T08:34:23.874Z</time></trkpt><trkpt lat="43.9325183" lon="11.2525943"><ele>380.0</ele><time>2026-03-28T08:34:24.868Z</time></trkpt><trkpt lat="43.9324837" lon="11.2524747"><ele>382.0</ele><time>2026-03-28T08:34:25.861Z</time></trkpt><trkpt lat="43.9324233" lon="11.2523679"><ele>384.0</ele><time>2026-03-28T08:34:26.876Z</time></trkpt><trkpt lat="43.9323494" lon="11.2522728"><ele>386.0</ele><time>2026-03-28T08:34:27.861Z</time></trkpt><trkpt lat="43.9322711" lon="11.2521657"><ele>386.0</ele><time>2026-03-28T08:34:28.876Z</time></trkpt><trkpt lat="43.9321827" lon="11.2520503"><ele>386.0</ele><time>2026-03-28T08:34:29.86Z</time></trkpt><trkpt lat="43.9320889" lon="11.2519211"><ele>386.0</ele><time>2026-03-28T08:34:30.862Z</time></trkpt><trkpt lat="43.9319744" lon="11.2517931"><ele>386.0</ele><time>2026-03-28T08:34:31.861Z</time></trkpt><trkpt lat="43.9318676" lon="11.2516638"><ele>386.0</ele><time>2026-03-28T08:34:32.859Z</time></trkpt><trkpt lat="43.9317605" lon="11.2515363"><ele>386.0</ele><time>2026-03-28T08:34:33.865Z</time></trkpt><trkpt lat="43.931663" lon="11.2514114"><ele>386.0</ele><time>2026-03-28T08:34:34.862Z</time></trkpt><trkpt lat="43.9315728" lon="11.2512912"><ele>386.0</ele><time>2026-03-28T08:34:35.862Z</time></trkpt><trkpt lat="43.9314895" lon="11.2511698"><ele>386.8333333333333</ele><time>2026-03-28T08:34:36.866Z</time></trkpt><trkpt lat="43.9314109" lon="11.2510652"><ele>387.66666666666663</ele><time>2026-03-28T08:34:37.862Z</time></trkpt><trkpt lat="43.9313431" lon="11.250977"><ele>388.5</ele><time>2026-03-28T08:34:38.859Z</time></trkpt><trkpt lat="43.9312892" lon="11.2509142"><ele>389.33333333333337</ele><time>2026-03-28T08:34:39.864Z</time></trkpt><trkpt lat="43.9312195" lon="11.2508318"><ele>390.1666666666667</ele><time>2026-03-28T08:34:41.864Z</time></trkpt><trkpt lat="43.9312011" lon="11.2507156"><ele>391.0</ele><time>2026-03-28T08:34:44.875Z</time></trkpt><trkpt lat="43.9311933" lon="11.2505673"><ele>394.6666666666667</ele><time>2026-03-28T08:34:46.874Z</time></trkpt><trkpt lat="43.9311697" lon="11.2504696"><ele>398.33333333333337</ele><time>2026-03-28T08:34:47.87Z</time></trkpt><trkpt lat="43.9311369" lon="11.250367"><ele>402.0</ele><time>2026-03-28T08:34:48.869Z</time></trkpt><trkpt lat="43.9311042" lon="11.2502526"><ele>405.66666666666663</ele><time>2026-03-28T08:34:49.862Z</time></trkpt><trkpt lat="43.9310768" lon="11.2501213"><ele>409.3333333333333</ele><time>2026-03-28T08:34:50.866Z</time></trkpt><trkpt lat="43.9310609" lon="11.2499853"><ele>413.0</ele><time>2026-03-28T08:34:51.864Z</time></trkpt><trkpt lat="43.9310558" lon="11.2498447"><ele>413.75</ele><time>2026-03-28T08:34:52.882Z</time></trkpt><trkpt lat="43.9310597" lon="11.2496914"><ele>414.5</ele><time>2026-03-28T08:34:53.872Z</time></trkpt><trkpt lat="43.9310747" lon="11.249538"><ele>415.25</ele><time>2026-03-28T08:34:54.867Z</time></trkpt><trkpt lat="43.9311045" lon="11.2493809"><ele>416.0</ele><time>2026-03-28T08:34:55.869Z</time></trkpt><trkpt lat="43.9311441" lon="11.2492132"><ele>416.0</ele><time>2026-03-28T08:34:56.874Z</time></trkpt><trkpt lat="43.9311968" lon="11.2490456"><ele>416.0</ele><time>2026-03-28T08:34:57.861Z</time></trkpt><trkpt lat="43.9312414" lon="11.2488729"><ele>416.0</ele><time>2026-03-28T08:34:58.86Z</time></trkpt><trkpt lat="43.9312774" lon="11.2487044"><ele>416.0</ele><time>2026-03-28T08:34:59.884Z</time></trkpt><trkpt lat="43.9312925" lon="11.2485439"><ele>415.6</ele><time>2026-03-28T08:35:00.873Z</time></trkpt><trkpt lat="43.9312972" lon="11.248394"><ele>415.20000000000005</ele><time>2026-03-28T08:35:01.865Z</time></trkpt><trkpt lat="43.9313011" lon="11.2482497"><ele>414.79999999999995</ele><time>2026-03-28T08:35:02.872Z</time></trkpt><trkpt lat="43.9313075" lon="11.2481137"><ele>414.4</ele><time>2026-03-28T08:35:03.866Z</time></trkpt><trkpt lat="43.9313192" lon="11.2479691"><ele>414.0</ele><time>2026-03-28T08:35:04.876Z</time></trkpt><trkpt lat="43.9313454" lon="11.2478194"><ele>414.0</ele><time>2026-03-28T08:35:05.877Z</time></trkpt><trkpt lat="43.9313805" lon="11.2476497"><ele>414.0</ele><time>2026-03-28T08:35:06.868Z</time></trkpt><trkpt lat="43.9314203" lon="11.2474785"><ele>414.0</ele><time>2026-03-28T08:35:07.878Z</time></trkpt><trkpt lat="43.9314488" lon="11.247319"><ele>414.0</ele><time>2026-03-28T08:35:08.87Z</time></trkpt><trkpt lat="43.9314829" lon="11.247179"><ele>414.5</ele><time>2026-03-28T08:35:09.873Z</time></trkpt><trkpt lat="43.9315209" lon="11.2470636"><ele>415.0</ele><time>2026-03-28T08:35:10.87Z</time></trkpt><trkpt lat="43.9315651" lon="11.2469461"><ele>415.5</ele><time>2026-03-28T08:35:11.868Z</time></trkpt><trkpt lat="43.9316117" lon="11.2468277"><ele>416.0</ele><time>2026-03-28T08:35:12.878Z</time></trkpt><trkpt lat="43.9316762" lon="11.2467485"><ele>416.5</ele><time>2026-03-28T08:35:13.881Z</time></trkpt><trkpt lat="43.9317447" lon="11.2467112"><ele>417.0</ele><time>2026-03-28T08:35:14.87Z</time></trkpt><trkpt lat="43.9318149" lon="11.2467208"><ele>417.0</ele><time>2026-03-28T08:35:15.876Z</time></trkpt><trkpt lat="43.9318936" lon="11.2467702"><ele>417.0</ele><time>2026-03-28T08:35:16.868Z</time></trkpt><trkpt lat="43.9319791" lon="11.2468372"><ele>417.0</ele><time>2026-03-28T08:35:17.87Z</time></trkpt><trkpt lat="43.9320677" lon="11.2469234"><ele>417.0</ele><time>2026-03-28T08:35:18.872Z</time></trkpt><trkpt lat="43.9321569" lon="11.2470043"><ele>417.0</ele><time>2026-03-28T08:35:19.891Z</time></trkpt><trkpt lat="43.93226" lon="11.2470686"><ele>417.0</ele><time>2026-03-28T08:35:20.889Z</time></trkpt><trkpt lat="43.9323733" lon="11.2471214"><ele>417.0</ele><time>2026-03-28T08:35:21.867Z</time></trkpt><trkpt lat="43.9324893" lon="11.2471516"><ele>417.0</ele><time>2026-03-28T08:35:22.875Z</time></trkpt><trkpt lat="43.9326066" lon="11.2471604"><ele>417.0</ele><time>2026-03-28T08:35:23.872Z</time></trkpt><trkpt lat="43.9327173" lon="11.2471589"><ele>420.0</ele><time>2026-03-28T08:35:24.879Z</time></trkpt><trkpt lat="43.9328248" lon="11.2471536"><ele>423.0</ele><time>2026-03-28T08:35:25.877Z</time></trkpt><trkpt lat="43.9329318" lon="11.2471561"><ele>426.00000000000006</ele><time>2026-03-28T08:35:26.886Z</time></trkpt><trkpt lat="43.9330345" lon="11.2471628"><ele>429.0</ele><time>2026-03-28T08:35:27.874Z</time></trkpt><trkpt lat="43.9331325" lon="11.2471827"><ele>432.0</ele><time>2026-03-28T08:35:28.886Z</time></trkpt><trkpt lat="43.9332275" lon="11.2472319"><ele>436.5</ele><time>2026-03-28T08:35:29.887Z</time></trkpt><trkpt lat="43.9333329" lon="11.2473067"><ele>441.0</ele><time>2026-03-28T08:35:30.896Z</time></trkpt><trkpt lat="43.9334329" lon="11.2473957"><ele>445.5</ele><time>2026-03-28T08:35:31.883Z</time></trkpt><trkpt lat="43.933527" lon="11.2474643"><ele>450.0</ele><time>2026-03-28T08:35:32.874Z</time></trkpt><trkpt lat="43.9336331" lon="11.2475102"><ele>452.6</ele><time>2026-03-28T08:35:33.869Z</time></trkpt><trkpt lat="43.9337426" lon="11.247546"><ele>455.2</ele><time>2026-03-28T08:35:34.868Z</time></trkpt><trkpt lat="43.9338538" lon="11.247576"><ele>457.79999999999995</ele><time>2026-03-28T08:35:35.868Z</time></trkpt><trkpt lat="43.9339651" lon="11.247601"><ele>460.4</ele><time>2026-03-28T08:35:36.869Z</time></trkpt><trkpt lat="43.9340719" lon="11.2476127"><ele>463.0</ele><time>2026-03-28T08:35:37.865Z</time></trkpt><trkpt lat="43.9341763" lon="11.2476029"><ele>466.25</ele><time>2026-03-28T08:35:38.869Z</time></trkpt><trkpt lat="43.9342826" lon="11.247569"><ele>469.5</ele><time>2026-03-28T08:35:39.868Z</time></trkpt><trkpt lat="43.9343885" lon="11.2475055"><ele>472.75</ele><time>2026-03-28T08:35:40.873Z</time></trkpt><trkpt lat="43.9344986" lon="11.2474214"><ele>476.0</ele><time>2026-03-28T08:35:41.869Z</time></trkpt><trkpt lat="43.9346135" lon="11.2473237"><ele>477.25</ele><time>2026-03-28T08:35:42.874Z</time></trkpt><trkpt lat="43.9347312" lon="11.2472305"><ele>478.5</ele><time>2026-03-28T08:35:43.885Z</time></trkpt><trkpt lat="43.9348537" lon="11.2471521"><ele>479.75</ele><time>2026-03-28T08:35:44.882Z</time></trkpt><trkpt lat="43.9349803" lon="11.2470958"><ele>481.0</ele><time>2026-03-28T08:35:45.893Z</time></trkpt><trkpt lat="43.9351141" lon="11.247077"><ele>481.0</ele><time>2026-03-28T08:35:46.906Z</time></trkpt><trkpt lat="43.935273" lon="11.2470782"><ele>481.0</ele><time>2026-03-28T08:35:47.879Z</time></trkpt><trkpt lat="43.9354549" lon="11.2470891"><ele>481.0</ele><time>2026-03-28T08:35:48.881Z</time></trkpt><trkpt lat="43.9356227" lon="11.2470815"><ele>481.0</ele><time>2026-03-28T08:35:49.883Z</time></trkpt><trkpt lat="43.9357739" lon="11.247067"><ele>481.0</ele><time>2026-03-28T08:35:50.9Z</time></trkpt><trkpt lat="43.9359011" lon="11.2470485"><ele>481.0</ele><time>2026-03-28T08:35:51.919Z</time></trkpt><trkpt lat="43.9359987" lon="11.2470575"><ele>481.0</ele><time>2026-03-28T08:35:52.914Z</time></trkpt><trkpt lat="43.9360988" lon="11.2471322"><ele>484.20000000000005</ele><time>2026-03-28T08:35:53.895Z</time></trkpt><trkpt lat="43.9361962" lon="11.2471649"><ele>487.40000000000003</ele><time>2026-03-28T08:35:54.906Z</time></trkpt><trkpt lat="43.9362884" lon="11.2471522"><ele>490.6</ele><time>2026-03-28T08:35:55.898Z</time></trkpt><trkpt lat="43.9364006" lon="11.2471228"><ele>493.8</ele><time>2026-03-28T08:35:56.897Z</time></trkpt><trkpt lat="43.9365238" lon="11.2470992"><ele>497.0</ele><time>2026-03-28T08:35:57.913Z</time></trkpt><trkpt lat="43.9366629" lon="11.2470761"><ele>497.66666666666663</ele><time>2026-03-28T08:35:58.898Z</time></trkpt><trkpt lat="43.9368136" lon="11.2470541"><ele>498.33333333333337</ele><time>2026-03-28T08:35:59.884Z</time></trkpt><trkpt lat="43.9369762" lon="11.2470303"><ele>499.0</ele><time>2026-03-28T08:36:00.891Z</time></trkpt><trkpt lat="43.9371438" lon="11.2470067"><ele>499.0</ele><time>2026-03-28T08:36:01.908Z</time></trkpt><trkpt lat="43.9373205" lon="11.2469626"><ele>499.0</ele><time>2026-03-28T08:36:02.896Z</time></trkpt><trkpt lat="43.9375124" lon="11.2468737"><ele>499.0</ele><time>2026-03-28T08:36:03.878Z</time></trkpt><trkpt lat="43.9376722" lon="11.2467954"><ele>499.0</ele><time>2026-03-28T08:36:04.881Z</time></trkpt><trkpt lat="43.9377895" lon="11.2467383"><ele>499.0</ele><time>2026-03-28T08:36:05.891Z</time></trkpt><trkpt lat="43.9378723" lon="11.2466807"><ele>499.0</ele><time>2026-03-28T08:36:06.883Z</time></trkpt><trkpt lat="43.9379334" lon="11.2466271"><ele>499.0</ele><time>2026-03-28T08:36:07.885Z</time></trkpt><trkpt lat="43.9380125" lon="11.2465354"><ele>499.0</ele><time>2026-03-28T08:36:09.888Z</time></trkpt><trkpt lat="43.9380567" lon="11.2464388"><ele>499.5</ele><time>2026-03-28T08:47:44.889Z</time></trkpt><trkpt lat="43.9381522" lon="11.2463589"><ele>500.0</ele><time>2026-03-28T08:47:46.888Z</time></trkpt><trkpt lat="43.9382747" lon="11.2463237"><ele>500.5</ele><time>2026-03-28T08:47:48.872Z</time></trkpt><trkpt lat="43.9383851" lon="11.2462786"><ele>501.0</ele><time>2026-03-28T08:47:50.889Z</time></trkpt><trkpt lat="43.9384855" lon="11.2462302"><ele>501.0</ele><time>2026-03-28T08:47:52.913Z</time></trkpt><trkpt lat="43.9385869" lon="11.2462314"><ele>501.0</ele><time>2026-03-28T08:47:54.893Z</time></trkpt><trkpt lat="43.9386918" lon="11.2462865"><ele>501.0</ele><time>2026-03-28T08:47:56.891Z</time></trkpt><trkpt lat="43.9387988" lon="11.246356"><ele>501.0</ele><time>2026-03-28T08:47:58.895Z</time></trkpt><trkpt lat="43.9388585" lon="11.246401"><ele>501.0</ele><time>2026-03-28T08:47:59.9Z</time></trkpt><trkpt lat="43.9389205" lon="11.2464499"><ele>502.14285714285717</ele><time>2026-03-28T08:48:00.902Z</time></trkpt><trkpt lat="43.9389852" lon="11.2464985"><ele>503.2857142857142</ele><time>2026-03-28T08:48:01.901Z</time></trkpt><trkpt lat="43.9390492" lon="11.2465387"><ele>504.4285714285714</ele><time>2026-03-28T08:48:02.893Z</time></trkpt><trkpt lat="43.9391107" lon="11.246565"><ele>505.57142857142856</ele><time>2026-03-28T08:48:03.887Z</time></trkpt><trkpt lat="43.9391804" lon="11.2465819"><ele>506.71428571428567</ele><time>2026-03-28T08:48:04.883Z</time></trkpt><trkpt lat="43.9392489" lon="11.2466032"><ele>507.8571428571428</ele><time>2026-03-28T08:48:05.889Z</time></trkpt><trkpt lat="43.9393234" lon="11.2466414"><ele>508.99999999999994</ele><time>2026-03-28T08:48:06.886Z</time></trkpt><trkpt lat="43.9394" lon="11.2466905"><ele>510.99999999999994</ele><time>2026-03-28T08:48:07.888Z</time></trkpt><trkpt lat="43.9394663" lon="11.2467322"><ele>513.0</ele><time>2026-03-28T08:48:08.899Z</time></trkpt><trkpt lat="43.9395264" lon="11.2467717"><ele>515.0</ele><time>2026-03-28T08:48:09.895Z</time></trkpt><trkpt lat="43.939593" lon="11.2468043"><ele>517.0</ele><time>2026-03-28T08:48:10.903Z</time></trkpt><trkpt lat="43.9396528" lon="11.246833"><ele>519.0</ele><time>2026-03-28T08:48:11.888Z</time></trkpt><trkpt lat="43.9397514" lon="11.2469319"><ele>521.0</ele><time>2026-03-28T08:48:13.888Z</time></trkpt><trkpt lat="43.9398055" lon="11.2470042"><ele>521.0</ele><time>2026-03-28T08:48:14.889Z</time></trkpt><trkpt lat="43.9398657" lon="11.2470867"><ele>521.0</ele><time>2026-03-28T08:48:15.885Z</time></trkpt><trkpt lat="43.9399183" lon="11.2471623"><ele>521.0</ele><time>2026-03-28T08:48:16.879Z</time></trkpt><trkpt lat="43.9399588" lon="11.2472393"><ele>521.0</ele><time>2026-03-28T08:48:17.883Z</time></trkpt><trkpt lat="43.9399934" lon="11.2473219"><ele>521.0</ele><time>2026-03-28T08:48:18.896Z</time></trkpt><trkpt lat="43.9400688" lon="11.2474293"><ele>521.0</ele><time>2026-03-28T08:48:20.898Z</time></trkpt><trkpt lat="43.940171" lon="11.2474612"><ele>523.8</ele><time>2026-03-28T08:48:22.898Z</time></trkpt><trkpt lat="43.9402513" lon="11.2475625"><ele>526.6</ele><time>2026-03-28T08:48:24.892Z</time></trkpt><trkpt lat="43.9403472" lon="11.247648"><ele>529.4</ele><time>2026-03-28T08:48:26.913Z</time></trkpt><trkpt lat="43.9404377" lon="11.2476152"><ele>532.2</ele><time>2026-03-28T08:48:28.88Z</time></trkpt><trkpt lat="43.9405284" lon="11.2475966"><ele>535.0</ele><time>2026-03-28T08:48:30.898Z</time></trkpt><trkpt lat="43.9406479" lon="11.2476333"><ele>535.0</ele><time>2026-03-28T08:48:32.898Z</time></trkpt><trkpt lat="43.94072" lon="11.2476703"><ele>535.0</ele><time>2026-03-28T08:48:33.889Z</time></trkpt><trkpt lat="43.9407879" lon="11.2477064"><ele>535.0</ele><time>2026-03-28T08:48:34.893Z</time></trkpt><trkpt lat="43.940861" lon="11.2477411"><ele>535.0</ele><time>2026-03-28T08:48:35.886Z</time></trkpt><trkpt lat="43.9409362" lon="11.2477789"><ele>535.0</ele><time>2026-03-28T08:48:36.898Z</time></trkpt><trkpt lat="43.9410023" lon="11.2478125"><ele>535.0</ele><time>2026-03-28T08:48:37.898Z</time></trkpt><trkpt lat="43.9410614" lon="11.2478437"><ele>535.0</ele><time>2026-03-28T08:48:38.899Z</time></trkpt><trkpt lat="43.941158" lon="11.2478724"><ele>536.2</ele><time>2026-03-28T08:48:40.891Z</time></trkpt><trkpt lat="43.9412579" lon="11.2479493"><ele>537.4</ele><time>2026-03-28T08:48:42.887Z</time></trkpt><trkpt lat="43.9413094" lon="11.24802"><ele>538.6</ele><time>2026-03-28T08:48:43.892Z</time></trkpt><trkpt lat="43.9413923" lon="11.2481094"><ele>539.8</ele><time>2026-03-28T08:48:45.891Z</time></trkpt><trkpt lat="43.9414959" lon="11.2481258"><ele>541.0</ele><time>2026-03-28T08:48:47.885Z</time></trkpt><trkpt lat="43.9415607" lon="11.2481469"><ele>540.6666666666667</ele><time>2026-03-28T08:48:48.889Z</time></trkpt><trkpt lat="43.9416317" lon="11.248168"><ele>540.3333333333334</ele><time>2026-03-28T08:48:49.895Z</time></trkpt><trkpt lat="43.9417001" lon="11.2481743"><ele>540.0</ele><time>2026-03-28T08:48:50.893Z</time></trkpt><trkpt lat="43.9417933" lon="11.2481209"><ele>539.6666666666666</ele><time>2026-03-28T08:48:52.888Z</time></trkpt><trkpt lat="43.9418881" lon="11.2480987"><ele>539.3333333333333</ele><time>2026-03-28T08:48:54.905Z</time></trkpt><trkpt lat="43.9419792" lon="11.2481872"><ele>539.0</ele><time>2026-03-28T08:48:56.896Z</time></trkpt><trkpt lat="43.9420449" lon="11.2482285"><ele>540.7142857142857</ele><time>2026-03-28T08:48:57.884Z</time></trkpt><trkpt lat="43.9421176" lon="11.2482505"><ele>542.4285714285714</ele><time>2026-03-28T08:48:58.893Z</time></trkpt><trkpt lat="43.9421921" lon="11.2482625"><ele>544.1428571428571</ele><time>2026-03-28T08:48:59.889Z</time></trkpt><trkpt lat="43.9422597" lon="11.2482773"><ele>545.8571428571429</ele><time>2026-03-28T08:49:00.887Z</time></trkpt><trkpt lat="43.9423284" lon="11.2482949"><ele>547.5714285714286</ele><time>2026-03-28T08:49:01.886Z</time></trkpt><trkpt lat="43.9423942" lon="11.2483186"><ele>549.2857142857142</ele><time>2026-03-28T08:49:02.881Z</time></trkpt><trkpt lat="43.942456" lon="11.2483472"><ele>551.0</ele><time>2026-03-28T08:49:03.883Z</time></trkpt><trkpt lat="43.9425136" lon="11.248383"><ele>552.5</ele><time>2026-03-28T08:49:04.891Z</time></trkpt><trkpt lat="43.9425719" lon="11.2484196"><ele>554.0</ele><time>2026-03-28T08:49:05.888Z</time></trkpt><trkpt lat="43.9426395" lon="11.2484431"><ele>555.5</ele><time>2026-03-28T08:49:06.881Z</time></trkpt><trkpt lat="43.9427469" lon="11.2484796"><ele>557.0</ele><time>2026-03-28T08:49:08.889Z</time></trkpt><trkpt lat="43.9428277" lon="11.2485668"><ele>558.5</ele><time>2026-03-28T08:49:10.887Z</time></trkpt><trkpt lat="43.94287" lon="11.2486333"><ele>560.0</ele><time>2026-03-28T08:49:11.887Z</time></trkpt><trkpt lat="43.9429057" lon="11.2487098"><ele>560.0</ele><time>2026-03-28T08:49:12.887Z</time></trkpt><trkpt lat="43.9429399" lon="11.248786"><ele>560.0</ele><time>2026-03-28T08:49:13.889Z</time></trkpt><trkpt lat="43.9430278" lon="11.248895"><ele>560.0</ele><time>2026-03-28T08:49:15.886Z</time></trkpt><trkpt lat="43.9431417" lon="11.2489077"><ele>560.0</ele><time>2026-03-28T08:49:17.889Z</time></trkpt><trkpt lat="43.9432107" lon="11.2488996"><ele>560.0</ele><time>2026-03-28T08:49:18.891Z</time></trkpt><trkpt lat="43.9433126" lon="11.2489471"><ele>561.6666666666666</ele><time>2026-03-28T08:49:20.892Z</time></trkpt><trkpt lat="43.9433805" lon="11.2490603"><ele>563.3333333333333</ele><time>2026-03-28T08:49:22.883Z</time></trkpt><trkpt lat="43.9434141" lon="11.2491347"><ele>565.0</ele><time>2026-03-28T08:49:23.883Z</time></trkpt><trkpt lat="43.9434468" lon="11.2492162"><ele>566.6666666666666</ele><time>2026-03-28T08:49:24.883Z</time></trkpt><trkpt lat="43.9435173" lon="11.2493223"><ele>568.3333333333334</ele><time>2026-03-28T08:49:26.893Z</time></trkpt><trkpt lat="43.9436017" lon="11.2493242"><ele>570.0</ele><time>2026-03-28T08:49:28.887Z</time></trkpt><trkpt lat="43.9437215" lon="11.2493612"><ele>571.4</ele><time>2026-03-28T08:49:30.882Z</time></trkpt><trkpt lat="43.9437764" lon="11.2494085"><ele>572.8</ele><time>2026-03-28T08:49:31.883Z</time></trkpt><trkpt lat="43.9438299" lon="11.2494595"><ele>574.2</ele><time>2026-03-28T08:49:32.885Z</time></trkpt><trkpt lat="43.9439431" lon="11.2495013"><ele>575.6</ele><time>2026-03-28T08:49:34.889Z</time></trkpt><trkpt lat="43.9440555" lon="11.2495241"><ele>577.0</ele><time>2026-03-28T08:49:36.885Z</time></trkpt><trkpt lat="43.9441622" lon="11.2495227"><ele>578.2</ele><time>2026-03-28T08:49:38.878Z</time></trkpt><trkpt lat="43.9442712" lon="11.2494993"><ele>579.4000000000001</ele><time>2026-03-28T08:49:40.881Z</time></trkpt><trkpt lat="43.944382" lon="11.2494967"><ele>580.5999999999999</ele><time>2026-03-28T08:49:42.881Z</time></trkpt><trkpt lat="43.9444325" lon="11.2495698"><ele>581.8</ele><time>2026-03-28T08:49:44.898Z</time></trkpt><trkpt lat="43.9444349" lon="11.2497091"><ele>583.0</ele><time>2026-03-28T08:49:46.895Z</time></trkpt><trkpt lat="43.9444625" lon="11.2498282"><ele>585.0</ele><time>2026-03-28T08:49:48.89Z</time></trkpt><trkpt lat="43.9445443" lon="11.2499281"><ele>587.0</ele><time>2026-03-28T08:49:50.888Z</time></trkpt><trkpt lat="43.9446342" lon="11.2499405"><ele>589.0</ele><time>2026-03-28T08:49:52.907Z</time></trkpt><trkpt lat="43.9447709" lon="11.2499072"><ele>591.0</ele><time>2026-03-28T08:49:54.883Z</time></trkpt><trkpt lat="43.9448516" lon="11.2498831"><ele>593.0</ele><time>2026-03-28T08:49:55.882Z</time></trkpt><trkpt lat="43.9449147" lon="11.2498547"><ele>592.9999999999999</ele><time>2026-03-28T08:49:56.909Z</time></trkpt><trkpt lat="43.9449742" lon="11.2498222"><ele>593.0</ele><time>2026-03-28T08:49:57.889Z</time></trkpt><trkpt lat="43.9450376" lon="11.2497895"><ele>593.0</ele><time>2026-03-28T08:49:58.884Z</time></trkpt><trkpt lat="43.9451008" lon="11.2497656"><ele>593.0</ele><time>2026-03-28T08:49:59.885Z</time></trkpt><trkpt lat="43.9452004" lon="11.2497564"><ele>593.0</ele><time>2026-03-28T08:50:01.886Z</time></trkpt><trkpt lat="43.9452586" lon="11.2498364"><ele>592.9999999999999</ele><time>2026-03-28T08:50:03.886Z</time></trkpt><trkpt lat="43.9452609" lon="11.2499311"><ele>593.0</ele><time>2026-03-28T08:50:04.903Z</time></trkpt><trkpt lat="43.9452627" lon="11.2500233"><ele>593.8333333333333</ele><time>2026-03-28T08:50:05.886Z</time></trkpt><trkpt lat="43.9453177" lon="11.2501646"><ele>594.6666666666666</ele><time>2026-03-28T08:50:07.892Z</time></trkpt><trkpt lat="43.9453721" lon="11.2502217"><ele>595.5</ele><time>2026-03-28T08:50:08.895Z</time></trkpt><trkpt lat="43.9454371" lon="11.2502774"><ele>596.3333333333334</ele><time>2026-03-28T08:50:09.891Z</time></trkpt><trkpt lat="43.9454993" lon="11.2503268"><ele>597.1666666666667</ele><time>2026-03-28T08:50:10.88Z</time></trkpt><trkpt lat="43.9455599" lon="11.2503752"><ele>598.0</ele><time>2026-03-28T08:50:11.88Z</time></trkpt><trkpt lat="43.9456231" lon="11.2504276"><ele>598.0</ele><time>2026-03-28T08:50:12.89Z</time></trkpt><trkpt lat="43.9456826" lon="11.2504905"><ele>598.0</ele><time>2026-03-28T08:50:13.891Z</time></trkpt><trkpt lat="43.9457761" lon="11.2505591"><ele>598.0</ele><time>2026-03-28T08:50:15.882Z</time></trkpt><trkpt lat="43.9458454" lon="11.2505929"><ele>598.0</ele><time>2026-03-28T08:50:17.895Z</time></trkpt><trkpt lat="43.9458973" lon="11.2507265"><ele>598.0</ele><time>2026-03-28T08:50:19.881Z</time></trkpt><trkpt lat="43.9459272" lon="11.2508164"><ele>598.0</ele><time>2026-03-28T08:50:20.891Z</time></trkpt><trkpt lat="43.9459603" lon="11.2508946"><ele>601.0</ele><time>2026-03-28T08:50:21.888Z</time></trkpt><trkpt lat="43.9460327" lon="11.2509537"><ele>604.0</ele><time>2026-03-28T08:50:23.883Z</time></trkpt><trkpt lat="43.946151" lon="11.2509514"><ele>607.0</ele><time>2026-03-28T08:50:25.884Z</time></trkpt><trkpt lat="43.9462599" lon="11.251"><ele>610.0</ele><time>2026-03-28T08:50:27.891Z</time></trkpt><trkpt lat="43.9462984" lon="11.2511161"><ele>613.0</ele><time>2026-03-28T08:50:29.879Z</time></trkpt><trkpt lat="43.9462805" lon="11.251209"><ele>613.0</ele><time>2026-03-28T08:50:30.881Z</time></trkpt><trkpt lat="43.9462512" lon="11.2513094"><ele>613.0</ele><time>2026-03-28T08:50:31.884Z</time></trkpt><trkpt lat="43.9462314" lon="11.2514072"><ele>613.0</ele><time>2026-03-28T08:50:32.885Z</time></trkpt><trkpt lat="43.9462206" lon="11.2515097"><ele>613.0</ele><time>2026-03-28T08:50:33.878Z</time></trkpt><trkpt lat="43.946225" lon="11.2516088"><ele>613.0</ele><time>2026-03-28T08:50:34.881Z</time></trkpt><trkpt lat="43.9462455" lon="11.2516996"><ele>613.0</ele><time>2026-03-28T08:50:35.876Z</time></trkpt><trkpt lat="43.9462829" lon="11.2517939"><ele>613.0</ele><time>2026-03-28T08:50:36.877Z</time></trkpt><trkpt lat="43.9463231" lon="11.2518873"><ele>613.1666666666667</ele><time>2026-03-28T08:50:37.878Z</time></trkpt><trkpt lat="43.9463658" lon="11.2519824"><ele>613.3333333333334</ele><time>2026-03-28T08:50:38.881Z</time></trkpt><trkpt lat="43.9464008" lon="11.2520786"><ele>613.5</ele><time>2026-03-28T08:50:39.878Z</time></trkpt><trkpt lat="43.9464294" lon="11.2521636"><ele>613.6666666666666</ele><time>2026-03-28T08:50:40.878Z</time></trkpt><trkpt lat="43.946478" lon="11.2522374"><ele>613.8333333333333</ele><time>2026-03-28T08:50:41.88Z</time></trkpt><trkpt lat="43.9465464" lon="11.2523103"><ele>614.0</ele><time>2026-03-28T08:50:42.877Z</time></trkpt><trkpt lat="43.9466112" lon="11.2523903"><ele>614.0</ele><time>2026-03-28T08:50:43.875Z</time></trkpt><trkpt lat="43.9466751" lon="11.2524667"><ele>614.0</ele><time>2026-03-28T08:50:44.886Z</time></trkpt><trkpt lat="43.9467431" lon="11.2525289"><ele>614.0</ele><time>2026-03-28T08:50:45.877Z</time></trkpt><trkpt lat="43.9468164" lon="11.2525772"><ele>614.0</ele><time>2026-03-28T08:50:46.876Z</time></trkpt><trkpt lat="43.9468987" lon="11.2526188"><ele>614.0</ele><time>2026-03-28T08:50:47.878Z</time></trkpt><trkpt lat="43.9469797" lon="11.252674"><ele>614.0</ele><time>2026-03-28T08:50:48.88Z</time></trkpt><trkpt lat="43.9470599" lon="11.2527466"><ele>614.0</ele><time>2026-03-28T08:50:49.88Z</time></trkpt><trkpt lat="43.9471384" lon="11.2528196"><ele>614.0</ele><time>2026-03-28T08:50:50.88Z</time></trkpt><trkpt lat="43.947218" lon="11.2528898"><ele>614.0</ele><time>2026-03-28T08:50:51.881Z</time></trkpt><trkpt lat="43.9472947" lon="11.2529548"><ele>614.0</ele><time>2026-03-28T08:50:52.874Z</time></trkpt><trkpt lat="43.9473726" lon="11.2530128"><ele>614.0</ele><time>2026-03-28T08:50:53.866Z</time></trkpt><trkpt lat="43.9474359" lon="11.2530579"><ele>614.0</ele><time>2026-03-28T08:50:54.87Z</time></trkpt><trkpt lat="43.9475119" lon="11.2531226"><ele>612.6</ele><time>2026-03-28T08:50:56.88Z</time></trkpt><trkpt lat="43.9474925" lon="11.2532133"><ele>611.2</ele><time>2026-03-28T08:50:58.905Z</time></trkpt><trkpt lat="43.9474497" lon="11.2533768"><ele>609.8000000000001</ele><time>2026-03-28T08:51:00.875Z</time></trkpt><trkpt lat="43.9474694" lon="11.2535627"><ele>608.4</ele><time>2026-03-28T08:51:02.873Z</time></trkpt><trkpt lat="43.947481" lon="11.2536607"><ele>607.0</ele><time>2026-03-28T08:51:03.872Z</time></trkpt><trkpt lat="43.947491" lon="11.2538188"><ele>605.2</ele><time>2026-03-28T08:51:05.873Z</time></trkpt><trkpt lat="43.9475168" lon="11.253961"><ele>603.4000000000001</ele><time>2026-03-28T08:51:07.881Z</time></trkpt><trkpt lat="43.9475307" lon="11.2541022"><ele>601.5999999999999</ele><time>2026-03-28T08:51:09.873Z</time></trkpt><trkpt lat="43.9475269" lon="11.2542523"><ele>599.8</ele><time>2026-03-28T08:51:11.88Z</time></trkpt><trkpt lat="43.9475238" lon="11.2544276"><ele>598.0</ele><time>2026-03-28T08:51:13.871Z</time></trkpt><trkpt lat="43.9475258" lon="11.254515"><ele>598.0</ele><time>2026-03-28T08:51:14.88Z</time></trkpt><trkpt lat="43.947535" lon="11.254605"><ele>598.0</ele><time>2026-03-28T08:51:15.873Z</time></trkpt><trkpt lat="43.9475487" lon="11.2546949"><ele>598.0</ele><time>2026-03-28T08:51:16.88Z</time></trkpt><trkpt lat="43.9475595" lon="11.2547814"><ele>598.0</ele><time>2026-03-28T08:51:17.882Z</time></trkpt><trkpt lat="43.9475497" lon="11.2549349"><ele>598.0</ele><time>2026-03-28T08:51:19.87Z</time></trkpt><trkpt lat="43.9475078" lon="11.2550964"><ele>598.0</ele><time>2026-03-28T08:51:21.871Z</time></trkpt><trkpt lat="43.9474971" lon="11.2551846"><ele>595.6</ele><time>2026-03-28T08:51:22.89Z</time></trkpt><trkpt lat="43.9474966" lon="11.2552778"><ele>593.1999999999999</ele><time>2026-03-28T08:51:23.884Z</time></trkpt><trkpt lat="43.947496" lon="11.255413"><ele>590.8</ele><time>2026-03-28T08:51:25.883Z</time></trkpt><trkpt lat="43.9474989" lon="11.2555587"><ele>588.4</ele><time>2026-03-28T08:51:27.887Z</time></trkpt><trkpt lat="43.9474816" lon="11.2556945"><ele>586.0</ele><time>2026-03-28T08:51:29.89Z</time></trkpt><trkpt lat="43.94746" lon="11.2558098"><ele>584.1666666666667</ele><time>2026-03-28T08:51:31.9Z</time></trkpt><trkpt lat="43.9474511" lon="11.255915"><ele>582.3333333333334</ele><time>2026-03-28T08:51:33.898Z</time></trkpt><trkpt lat="43.9475351" lon="11.2559852"><ele>580.5</ele><time>2026-03-28T08:51:36.893Z</time></trkpt><trkpt lat="43.947569" lon="11.2561104"><ele>578.6666666666666</ele><time>2026-03-28T08:51:39.898Z</time></trkpt><trkpt lat="43.9475523" lon="11.2562569"><ele>576.8333333333333</ele><time>2026-03-28T08:51:41.889Z</time></trkpt><trkpt lat="43.9475498" lon="11.2563488"><ele>575.0</ele><time>2026-03-28T08:51:42.872Z</time></trkpt><trkpt lat="43.9475454" lon="11.256453"><ele>573.6666666666666</ele><time>2026-03-28T08:51:43.874Z</time></trkpt><trkpt lat="43.9475415" lon="11.256555"><ele>572.3333333333333</ele><time>2026-03-28T08:51:44.876Z</time></trkpt><trkpt lat="43.9475367" lon="11.2566446"><ele>571.0</ele><time>2026-03-28T08:51:45.88Z</time></trkpt><trkpt lat="43.9475223" lon="11.2567743"><ele>569.6666666666666</ele><time>2026-03-28T08:51:47.881Z</time></trkpt><trkpt lat="43.9475578" lon="11.2568633"><ele>568.3333333333334</ele><time>2026-03-28T08:51:50.901Z</time></trkpt><trkpt lat="43.9476175" lon="11.2568065"><ele>567.0</ele><time>2026-03-28T08:51:52.896Z</time></trkpt><trkpt lat="43.9476749" lon="11.2567442"><ele>566.0</ele><time>2026-03-28T08:51:54.905Z</time></trkpt><trkpt lat="43.9477481" lon="11.2566741"><ele>565.0</ele><time>2026-03-28T08:51:56.905Z</time></trkpt><trkpt lat="43.9478341" lon="11.2566022"><ele>564.0</ele><time>2026-03-28T08:51:58.888Z</time></trkpt><trkpt lat="43.9478971" lon="11.2565599"><ele>563.0</ele><time>2026-03-28T08:52:00.912Z</time></trkpt><trkpt lat="43.9479555" lon="11.2565267"><ele>562.0</ele><time>2026-03-28T08:52:03.899Z</time></trkpt><trkpt lat="43.9480287" lon="11.2564631"><ele>561.0</ele><time>2026-03-28T08:52:06.908Z</time></trkpt><trkpt lat="43.9480913" lon="11.2564177"><ele>561.0</ele><time>2026-03-28T08:52:10.906Z</time></trkpt><trkpt lat="43.9481677" lon="11.2563809"><ele>561.0</ele><time>2026-03-28T08:52:17.894Z</time></trkpt><trkpt lat="43.9482423" lon="11.2563774"><ele>561.0</ele><time>2026-03-28T08:52:20.906Z</time></trkpt><trkpt lat="43.9483118" lon="11.256374"><ele>561.0</ele><time>2026-03-28T08:52:22.9Z</time></trkpt><trkpt lat="43.9483885" lon="11.2563794"><ele>561.0</ele><time>2026-03-28T08:52:24.893Z</time></trkpt><trkpt lat="43.9484655" lon="11.2563679"><ele>561.0</ele><time>2026-03-28T08:52:26.906Z</time></trkpt><trkpt lat="43.9485311" lon="11.2562976"><ele>557.8333333333334</ele><time>2026-03-28T08:52:28.888Z</time></trkpt><trkpt lat="43.9485935" lon="11.2562272"><ele>554.6666666666666</ele><time>2026-03-28T08:52:30.912Z</time></trkpt><trkpt lat="43.9486618" lon="11.2561929"><ele>551.5</ele><time>2026-03-28T08:52:32.883Z</time></trkpt><trkpt lat="43.9487505" lon="11.2561949"><ele>548.3333333333333</ele><time>2026-03-28T08:52:35.887Z</time></trkpt><trkpt lat="43.9488229" lon="11.2562227"><ele>545.1666666666666</ele><time>2026-03-28T08:52:37.892Z</time></trkpt><trkpt lat="43.9489061" lon="11.2562347"><ele>542.0</ele><time>2026-03-28T08:52:40.888Z</time></trkpt><trkpt lat="43.9489999" lon="11.2561989"><ele>542.0</ele><time>2026-03-28T08:52:43.89Z</time></trkpt><trkpt lat="43.9490924" lon="11.2561838"><ele>542.0</ele><time>2026-03-28T08:52:45.888Z</time></trkpt><trkpt lat="43.9491774" lon="11.2561998"><ele>542.0</ele><time>2026-03-28T08:52:47.893Z</time></trkpt><trkpt lat="43.9492433" lon="11.2562068"><ele>542.0</ele><time>2026-03-28T08:52:49.888Z</time></trkpt><trkpt lat="43.9493212" lon="11.2561721"><ele>542.0</ele><time>2026-03-28T08:52:51.889Z</time></trkpt><trkpt lat="43.949384" lon="11.2560991"><ele>542.0</ele><time>2026-03-28T08:52:53.892Z</time></trkpt><trkpt lat="43.9494317" lon="11.2560302"><ele>540.3333333333333</ele><time>2026-03-28T08:52:55.898Z</time></trkpt><trkpt lat="43.9494915" lon="11.2559896"><ele>538.6666666666666</ele><time>2026-03-28T08:52:57.907Z</time></trkpt><trkpt lat="43.9495546" lon="11.2559733"><ele>537.0</ele><time>2026-03-28T08:52:59.896Z</time></trkpt><trkpt lat="43.9496327" lon="11.2559662"><ele>535.3333333333334</ele><time>2026-03-28T08:53:01.928Z</time></trkpt><trkpt lat="43.9497118" lon="11.2559593"><ele>533.6666666666667</ele><time>2026-03-28T08:53:03.912Z</time></trkpt><trkpt lat="43.949802" lon="11.2559595"><ele>532.0</ele><time>2026-03-28T08:53:05.894Z</time></trkpt><trkpt lat="43.9498803" lon="11.2559544"><ele>532.0</ele><time>2026-03-28T08:53:07.911Z</time></trkpt><trkpt lat="43.9499505" lon="11.2559416"><ele>532.0</ele><time>2026-03-28T08:53:09.906Z</time></trkpt><trkpt lat="43.9500251" lon="11.2559093"><ele>532.0</ele><time>2026-03-28T08:53:12.907Z</time></trkpt><trkpt lat="43.9500879" lon="11.2558787"><ele>532.0</ele><time>2026-03-28T08:53:15.88Z</time></trkpt><trkpt lat="43.9501595" lon="11.2558608"><ele>532.0</ele><time>2026-03-28T08:53:21.909Z</time></trkpt><trkpt lat="43.9502348" lon="11.2558605"><ele>532.0</ele><time>2026-03-28T08:53:26.922Z</time></trkpt><trkpt lat="43.9502945" lon="11.2558255"><ele>532.0</ele><time>2026-03-28T08:53:30.897Z</time></trkpt><trkpt lat="43.9503631" lon="11.2557535"><ele>532.1428571428571</ele><time>2026-03-28T08:53:34.901Z</time></trkpt><trkpt lat="43.9504263" lon="11.2556957"><ele>532.2857142857142</ele><time>2026-03-28T08:53:37.895Z</time></trkpt><trkpt lat="43.9504704" lon="11.2556217"><ele>532.4285714285714</ele><time>2026-03-28T08:53:39.887Z</time></trkpt><trkpt lat="43.9505213" lon="11.2555444"><ele>532.5714285714286</ele><time>2026-03-28T08:53:41.89Z</time></trkpt><trkpt lat="43.9505617" lon="11.2554555"><ele>532.7142857142857</ele><time>2026-03-28T08:53:43.892Z</time></trkpt><trkpt lat="43.9506028" lon="11.2553732"><ele>532.8571428571429</ele><time>2026-03-28T08:53:45.892Z</time></trkpt><trkpt lat="43.9506281" lon="11.2552783"><ele>533.0</ele><time>2026-03-28T08:53:47.887Z</time></trkpt><trkpt lat="43.9506565" lon="11.2551905"><ele>533.0</ele><time>2026-03-28T08:53:49.894Z</time></trkpt><trkpt lat="43.9507241" lon="11.255114"><ele>533.0</ele><time>2026-03-28T08:53:51.874Z</time></trkpt><trkpt lat="43.9508303" lon="11.2550197"><ele>533.0</ele><time>2026-03-28T08:53:53.861Z</time></trkpt><trkpt lat="43.9509255" lon="11.2549387"><ele>533.0</ele><time>2026-03-28T08:53:55.864Z</time></trkpt><trkpt lat="43.9509751" lon="11.2548837"><ele>533.0</ele><time>2026-03-28T08:53:56.875Z</time></trkpt><trkpt lat="43.9510719" lon="11.2547974"><ele>535.0</ele><time>2026-03-28T08:53:58.861Z</time></trkpt><trkpt lat="43.9511742" lon="11.254765"><ele>537.0</ele><time>2026-03-28T08:54:00.861Z</time></trkpt><trkpt lat="43.9512426" lon="11.2547797"><ele>539.0</ele><time>2026-03-28T08:54:01.859Z</time></trkpt><trkpt lat="43.9513189" lon="11.2548093"><ele>541.0</ele><time>2026-03-28T08:54:02.864Z</time></trkpt><trkpt lat="43.9513874" lon="11.2548341"><ele>543.0</ele><time>2026-03-28T08:54:03.869Z</time></trkpt><trkpt lat="43.9514992" lon="11.2549028"><ele>545.0</ele><time>2026-03-28T08:54:05.862Z</time></trkpt><trkpt lat="43.95155" lon="11.2549655"><ele>545.1428571428571</ele><time>2026-03-28T08:54:06.868Z</time></trkpt><trkpt lat="43.9515836" lon="11.255041"><ele>545.2857142857143</ele><time>2026-03-28T08:54:07.882Z</time></trkpt><trkpt lat="43.9516165" lon="11.2551465"><ele>545.4285714285714</ele><time>2026-03-28T08:54:08.875Z</time></trkpt><trkpt lat="43.9516458" lon="11.2552425"><ele>545.5714285714286</ele><time>2026-03-28T08:54:09.878Z</time></trkpt><trkpt lat="43.9516697" lon="11.2553316"><ele>545.7142857142858</ele><time>2026-03-28T08:54:10.882Z</time></trkpt><trkpt lat="43.9516997" lon="11.2554101"><ele>545.8571428571429</ele><time>2026-03-28T08:54:11.878Z</time></trkpt><trkpt lat="43.9517368" lon="11.2554923"><ele>546.0</ele><time>2026-03-28T08:54:12.879Z</time></trkpt><trkpt lat="43.9517773" lon="11.2555872"><ele>548.0</ele><time>2026-03-28T08:54:13.869Z</time></trkpt><trkpt lat="43.9518101" lon="11.2556875"><ele>550.0</ele><time>2026-03-28T08:54:14.873Z</time></trkpt><trkpt lat="43.951838" lon="11.2557717"><ele>552.0</ele><time>2026-03-28T08:54:15.881Z</time></trkpt><trkpt lat="43.9519053" lon="11.2558681"><ele>554.0</ele><time>2026-03-28T08:54:17.871Z</time></trkpt><trkpt lat="43.9519909" lon="11.2558289"><ele>556.0</ele><time>2026-03-28T08:54:19.878Z</time></trkpt><trkpt lat="43.952049" lon="11.2557804"><ele>558.0</ele><time>2026-03-28T08:54:20.869Z</time></trkpt><trkpt lat="43.9521076" lon="11.2557369"><ele>558.0</ele><time>2026-03-28T08:54:21.864Z</time></trkpt><trkpt lat="43.9522141" lon="11.2557051"><ele>558.0</ele><time>2026-03-28T08:54:23.869Z</time></trkpt><trkpt lat="43.9523114" lon="11.2557559"><ele>558.0</ele><time>2026-03-28T08:54:25.863Z</time></trkpt><trkpt lat="43.9523606" lon="11.2558495"><ele>558.0</ele><time>2026-03-28T08:55:22.896Z</time></trkpt><trkpt lat="43.9524134" lon="11.2559654"><ele>558.0</ele><time>2026-03-28T08:55:24.889Z</time></trkpt><trkpt lat="43.9525041" lon="11.2560695"><ele>558.0</ele><time>2026-03-28T08:55:26.876Z</time></trkpt><trkpt lat="43.9525553" lon="11.2561242"><ele>558.0</ele><time>2026-03-28T08:55:27.881Z</time></trkpt><trkpt lat="43.9526433" lon="11.2562201"><ele>558.0</ele><time>2026-03-28T08:55:29.876Z</time></trkpt><trkpt lat="43.9526856" lon="11.2563338"><ele>558.0</ele><time>2026-03-28T08:55:31.894Z</time></trkpt><trkpt lat="43.9527307" lon="11.2564576"><ele>558.0</ele><time>2026-03-28T08:55:33.889Z</time></trkpt><trkpt lat="43.9527979" lon="11.2565744"><ele>558.0</ele><time>2026-03-28T08:55:35.885Z</time></trkpt><trkpt lat="43.9528538" lon="11.2566946"><ele>558.0</ele><time>2026-03-28T08:55:37.886Z</time></trkpt><trkpt lat="43.9528685" lon="11.2567908"><ele>558.0</ele><time>2026-03-28T08:55:39.898Z</time></trkpt><trkpt lat="43.9528885" lon="11.2568862"><ele>558.0</ele><time>2026-03-28T08:55:41.895Z</time></trkpt><trkpt lat="43.9529392" lon="11.2569754"><ele>558.0</ele><time>2026-03-28T08:55:43.901Z</time></trkpt><trkpt lat="43.9529992" lon="11.2570703"><ele>558.0</ele><time>2026-03-28T08:55:45.901Z</time></trkpt><trkpt lat="43.953065" lon="11.2571618"><ele>558.0</ele><time>2026-03-28T08:55:47.901Z</time></trkpt><trkpt lat="43.9531253" lon="11.2572751"><ele>558.0</ele><time>2026-03-28T08:55:49.9Z</time></trkpt><trkpt lat="43.953165" lon="11.2573731"><ele>558.0</ele><time>2026-03-28T08:55:51.902Z</time></trkpt><trkpt lat="43.9531571" lon="11.25746"><ele>558.0</ele><time>2026-03-28T08:56:00.891Z</time></trkpt><trkpt lat="43.9531307" lon="11.2575781"><ele>558.0</ele><time>2026-03-28T08:56:02.887Z</time></trkpt><trkpt lat="43.9531244" lon="11.2577417"><ele>559.6</ele><time>2026-03-28T08:56:04.877Z</time></trkpt><trkpt lat="43.953133" lon="11.2578856"><ele>561.1999999999999</ele><time>2026-03-28T08:56:06.877Z</time></trkpt><trkpt lat="43.9531415" lon="11.2580236"><ele>562.8</ele><time>2026-03-28T08:56:08.869Z</time></trkpt><trkpt lat="43.9531613" lon="11.2581591"><ele>564.4</ele><time>2026-03-28T08:56:10.881Z</time></trkpt><trkpt lat="43.9532003" lon="11.2582796"><ele>566.0</ele><time>2026-03-28T08:56:12.886Z</time></trkpt><trkpt lat="43.9532413" lon="11.2583816"><ele>566.0</ele><time>2026-03-28T08:56:14.902Z</time></trkpt><trkpt lat="43.9533095" lon="11.2584981"><ele>566.0</ele><time>2026-03-28T08:56:16.925Z</time></trkpt><trkpt lat="43.9533692" lon="11.2586137"><ele>566.0</ele><time>2026-03-28T08:56:18.915Z</time></trkpt><trkpt lat="43.9534078" lon="11.2587404"><ele>566.0</ele><time>2026-03-28T08:56:20.917Z</time></trkpt><trkpt lat="43.9534376" lon="11.2589103"><ele>566.0</ele><time>2026-03-28T08:56:22.903Z</time></trkpt><trkpt lat="43.9534575" lon="11.2589994"><ele>567.2</ele><time>2026-03-28T08:56:23.886Z</time></trkpt><trkpt lat="43.9534848" lon="11.2591513"><ele>568.4000000000001</ele><time>2026-03-28T08:56:25.884Z</time></trkpt><trkpt lat="43.9534826" lon="11.2592788"><ele>569.6</ele><time>2026-03-28T08:56:27.877Z</time></trkpt><trkpt lat="43.953484" lon="11.259412"><ele>570.8000000000001</ele><time>2026-03-28T08:56:29.886Z</time></trkpt><trkpt lat="43.9534908" lon="11.2595344"><ele>572.0</ele><time>2026-03-28T08:56:31.897Z</time></trkpt><trkpt lat="43.9534883" lon="11.2596426"><ele>572.0</ele><time>2026-03-28T08:56:33.879Z</time></trkpt><trkpt lat="43.9534847" lon="11.25975"><ele>572.0</ele><time>2026-03-28T08:56:35.896Z</time></trkpt><trkpt lat="43.9534935" lon="11.2598816"><ele>572.0</ele><time>2026-03-28T08:56:37.891Z</time></trkpt><trkpt lat="43.9535084" lon="11.2600436"><ele>572.0</ele><time>2026-03-28T08:56:39.885Z</time></trkpt><trkpt lat="43.9535212" lon="11.2601663"><ele>572.0</ele><time>2026-03-28T08:56:41.883Z</time></trkpt><trkpt lat="43.9535248" lon="11.2602874"><ele>571.8000000000001</ele><time>2026-03-28T08:56:43.881Z</time></trkpt><trkpt lat="43.9535276" lon="11.2604182"><ele>571.6</ele><time>2026-03-28T08:56:45.874Z</time></trkpt><trkpt lat="43.9535388" lon="11.2605707"><ele>571.4000000000001</ele><time>2026-03-28T08:56:47.877Z</time></trkpt><trkpt lat="43.9535526" lon="11.2607352"><ele>571.2</ele><time>2026-03-28T08:56:49.876Z</time></trkpt><trkpt lat="43.9535582" lon="11.2608679"><ele>571.0</ele><time>2026-03-28T08:56:51.879Z</time></trkpt><trkpt lat="43.9535871" lon="11.261015"><ele>571.0</ele><time>2026-03-28T08:56:53.873Z</time></trkpt><trkpt lat="43.9535906" lon="11.2611722"><ele>571.0</ele><time>2026-03-28T08:56:55.865Z</time></trkpt><trkpt lat="43.953549" lon="11.2613317"><ele>571.0</ele><time>2026-03-28T08:56:57.875Z</time></trkpt><trkpt lat="43.9535122" lon="11.261412"><ele>571.0</ele><time>2026-03-28T08:56:58.883Z</time></trkpt><trkpt lat="43.9534759" lon="11.2614848"><ele>571.0</ele><time>2026-03-28T08:56:59.886Z</time></trkpt><trkpt lat="43.9534219" lon="11.261623"><ele>570.8</ele><time>2026-03-28T08:57:01.886Z</time></trkpt><trkpt lat="43.9533909" lon="11.2617407"><ele>570.6</ele><time>2026-03-28T08:57:03.905Z</time></trkpt><trkpt lat="43.9534085" lon="11.2618763"><ele>570.4</ele><time>2026-03-28T08:57:05.874Z</time></trkpt><trkpt lat="43.9534314" lon="11.2620261"><ele>570.2</ele><time>2026-03-28T08:57:07.884Z</time></trkpt><trkpt lat="43.9534434" lon="11.2621852"><ele>570.0</ele><time>2026-03-28T08:57:09.878Z</time></trkpt><trkpt lat="43.9534545" lon="11.2622728"><ele>570.3333333333334</ele><time>2026-03-28T08:57:10.881Z</time></trkpt><trkpt lat="43.9534877" lon="11.2624244"><ele>570.6666666666666</ele><time>2026-03-28T08:57:12.87Z</time></trkpt><trkpt lat="43.9534949" lon="11.2625156"><ele>571.0</ele><time>2026-03-28T08:57:13.878Z</time></trkpt><trkpt lat="43.953486" lon="11.262605"><ele>571.3333333333333</ele><time>2026-03-28T08:57:14.883Z</time></trkpt><trkpt lat="43.9534375" lon="11.2627671"><ele>571.6666666666666</ele><time>2026-03-28T08:57:16.879Z</time></trkpt><trkpt lat="43.9534085" lon="11.2628525"><ele>572.0</ele><time>2026-03-28T08:57:17.882Z</time></trkpt><trkpt lat="43.9533724" lon="11.2629403"><ele>569.1428571428571</ele><time>2026-03-28T08:57:18.884Z</time></trkpt><trkpt lat="43.9533437" lon="11.2630253"><ele>566.2857142857142</ele><time>2026-03-28T08:57:19.892Z</time></trkpt><trkpt lat="43.9533251" lon="11.263112"><ele>563.4285714285714</ele><time>2026-03-28T08:57:20.885Z</time></trkpt><trkpt lat="43.9533101" lon="11.2632027"><ele>560.5714285714286</ele><time>2026-03-28T08:57:21.89Z</time></trkpt><trkpt lat="43.9532992" lon="11.2632931"><ele>557.7142857142858</ele><time>2026-03-28T08:57:22.894Z</time></trkpt><trkpt lat="43.9532847" lon="11.2633816"><ele>554.8571428571429</ele><time>2026-03-28T08:57:23.888Z</time></trkpt><trkpt lat="43.9532645" lon="11.2635413"><ele>552.0</ele><time>2026-03-28T08:57:25.88Z</time></trkpt><trkpt lat="43.9532659" lon="11.2636645"><ele>552.0</ele><time>2026-03-28T08:57:27.876Z</time></trkpt><trkpt lat="43.9532688" lon="11.263806"><ele>552.0</ele><time>2026-03-28T08:57:29.893Z</time></trkpt><trkpt lat="43.9532613" lon="11.2639586"><ele>552.0</ele><time>2026-03-28T08:57:31.885Z</time></trkpt><trkpt lat="43.9532383" lon="11.2641073"><ele>552.0</ele><time>2026-03-28T08:57:33.88Z</time></trkpt><trkpt lat="43.9532006" lon="11.264225"><ele>552.0</ele><time>2026-03-28T08:57:35.886Z</time></trkpt><trkpt lat="43.9531628" lon="11.2643535"><ele>552.1428571428571</ele><time>2026-03-28T08:57:37.886Z</time></trkpt><trkpt lat="43.9531396" lon="11.264437"><ele>552.2857142857143</ele><time>2026-03-28T08:57:38.882Z</time></trkpt><trkpt lat="43.9531125" lon="11.264522"><ele>552.4285714285714</ele><time>2026-03-28T08:57:39.889Z</time></trkpt><trkpt lat="43.9530776" lon="11.2646097"><ele>552.5714285714286</ele><time>2026-03-28T08:57:40.873Z</time></trkpt><trkpt lat="43.9530331" lon="11.2646874"><ele>552.7142857142858</ele><time>2026-03-28T08:57:41.877Z</time></trkpt><trkpt lat="43.9529854" lon="11.2647482"><ele>552.8571428571429</ele><time>2026-03-28T08:57:42.876Z</time></trkpt><trkpt lat="43.9529374" lon="11.2648169"><ele>553.0</ele><time>2026-03-28T08:57:43.87Z</time></trkpt><trkpt lat="43.9528673" lon="11.2649563"><ele>553.6666666666667</ele><time>2026-03-28T08:57:45.88Z</time></trkpt><trkpt lat="43.9528397" lon="11.2650406"><ele>554.3333333333334</ele><time>2026-03-28T08:57:46.875Z</time></trkpt><trkpt lat="43.9528108" lon="11.2651328"><ele>555.0</ele><time>2026-03-28T08:57:47.871Z</time></trkpt><trkpt lat="43.9527832" lon="11.2652299"><ele>555.6666666666666</ele><time>2026-03-28T08:57:48.872Z</time></trkpt><trkpt lat="43.9527643" lon="11.265319"><ele>556.3333333333333</ele><time>2026-03-28T08:57:49.876Z</time></trkpt><trkpt lat="43.9527308" lon="11.2654476"><ele>557.0</ele><time>2026-03-28T08:57:51.882Z</time></trkpt><trkpt lat="43.952689" lon="11.2655603"><ele>556.6</ele><time>2026-03-28T08:57:53.883Z</time></trkpt><trkpt lat="43.9526532" lon="11.2657156"><ele>556.2</ele><time>2026-03-28T08:57:55.889Z</time></trkpt><trkpt lat="43.9526637" lon="11.2658913"><ele>555.8</ele><time>2026-03-28T08:57:57.871Z</time></trkpt><trkpt lat="43.952668" lon="11.2659861"><ele>555.4</ele><time>2026-03-28T08:57:58.886Z</time></trkpt><trkpt lat="43.9526636" lon="11.266137"><ele>555.0</ele><time>2026-03-28T08:58:00.878Z</time></trkpt><trkpt lat="43.9526566" lon="11.2662436"><ele>555.0</ele><time>2026-03-28T08:58:02.887Z</time></trkpt><trkpt lat="43.9526164" lon="11.2663482"><ele>555.0</ele><time>2026-03-28T08:58:08.907Z</time></trkpt><trkpt lat="43.9525696" lon="11.2664655"><ele>555.0</ele><time>2026-03-28T08:58:10.932Z</time></trkpt><trkpt lat="43.9524827" lon="11.2665533"><ele>555.0</ele><time>2026-03-28T08:58:12.888Z</time></trkpt><trkpt lat="43.9524434" lon="11.266693"><ele>555.0</ele><time>2026-03-28T08:58:14.888Z</time></trkpt><trkpt lat="43.9524309" lon="11.2668402"><ele>552.4</ele><time>2026-03-28T08:58:16.907Z</time></trkpt><trkpt lat="43.9524051" lon="11.2669829"><ele>549.8</ele><time>2026-03-28T08:58:18.902Z</time></trkpt><trkpt lat="43.9523751" lon="11.2671081"><ele>547.2</ele><time>2026-03-28T08:58:20.898Z</time></trkpt><trkpt lat="43.9523517" lon="11.2672572"><ele>544.6</ele><time>2026-03-28T08:58:22.891Z</time></trkpt><trkpt lat="43.9523277" lon="11.2674144"><ele>542.0</ele><time>2026-03-28T08:58:24.883Z</time></trkpt><trkpt lat="43.9523168" lon="11.2675006"><ele>540.25</ele><time>2026-03-28T08:58:25.888Z</time></trkpt><trkpt lat="43.9522716" lon="11.2676647"><ele>538.5</ele><time>2026-03-28T08:58:27.88Z</time></trkpt><trkpt lat="43.9522555" lon="11.2678158"><ele>536.75</ele><time>2026-03-28T08:58:29.89Z</time></trkpt><trkpt lat="43.95228" lon="11.2679993"><ele>535.0</ele><time>2026-03-28T08:58:31.891Z</time></trkpt><trkpt lat="43.9522885" lon="11.2681148"><ele>533.4</ele><time>2026-03-28T08:58:32.901Z</time></trkpt><trkpt lat="43.9522875" lon="11.2682412"><ele>531.8</ele><time>2026-03-28T08:58:33.893Z</time></trkpt><trkpt lat="43.95227" lon="11.2683755"><ele>530.2</ele><time>2026-03-28T08:58:34.902Z</time></trkpt><trkpt lat="43.9522407" lon="11.2685071"><ele>528.6</ele><time>2026-03-28T08:58:35.89Z</time></trkpt><trkpt lat="43.9522092" lon="11.268624"><ele>527.0</ele><time>2026-03-28T08:58:36.899Z</time></trkpt><trkpt lat="43.9521739" lon="11.2687183"><ele>527.0</ele><time>2026-03-28T08:58:37.892Z</time></trkpt><trkpt lat="43.9521312" lon="11.2688068"><ele>527.0</ele><time>2026-03-28T08:58:38.895Z</time></trkpt><trkpt lat="43.9520839" lon="11.2688926"><ele>527.0</ele><time>2026-03-28T08:58:39.881Z</time></trkpt><trkpt lat="43.9520391" lon="11.2689716"><ele>527.0</ele><time>2026-03-28T08:58:40.881Z</time></trkpt><trkpt lat="43.9519905" lon="11.269055"><ele>527.0</ele><time>2026-03-28T08:58:41.896Z</time></trkpt><trkpt lat="43.9519334" lon="11.2691477"><ele>527.0</ele><time>2026-03-28T08:58:42.889Z</time></trkpt><trkpt lat="43.9518822" lon="11.2692356"><ele>526.8333333333333</ele><time>2026-03-28T08:58:43.887Z</time></trkpt><trkpt lat="43.9518354" lon="11.2693141"><ele>526.6666666666666</ele><time>2026-03-28T08:58:44.893Z</time></trkpt><trkpt lat="43.9517762" lon="11.2693996"><ele>526.5</ele><time>2026-03-28T08:58:45.874Z</time></trkpt><trkpt lat="43.9517139" lon="11.269492"><ele>526.3333333333334</ele><time>2026-03-28T08:58:46.891Z</time></trkpt><trkpt lat="43.9516587" lon="11.2695973"><ele>526.1666666666667</ele><time>2026-03-28T08:58:47.892Z</time></trkpt><trkpt lat="43.9516148" lon="11.2697075"><ele>526.0</ele><time>2026-03-28T08:58:48.876Z</time></trkpt><trkpt lat="43.9515867" lon="11.2698077"><ele>526.0</ele><time>2026-03-28T08:58:49.874Z</time></trkpt><trkpt lat="43.9515825" lon="11.269904"><ele>526.0</ele><time>2026-03-28T08:58:50.878Z</time></trkpt><trkpt lat="43.9515868" lon="11.2700003"><ele>526.0</ele><time>2026-03-28T08:58:51.863Z</time></trkpt><trkpt lat="43.9516148" lon="11.2700964"><ele>526.0</ele><time>2026-03-28T08:58:52.89Z</time></trkpt><trkpt lat="43.9516365" lon="11.2701851"><ele>526.0</ele><time>2026-03-28T08:58:53.868Z</time></trkpt><trkpt lat="43.9516424" lon="11.2702733"><ele>526.0</ele><time>2026-03-28T08:58:54.869Z</time></trkpt><trkpt lat="43.9516338" lon="11.2703617"><ele>526.0</ele><time>2026-03-28T08:58:55.878Z</time></trkpt><trkpt lat="43.9516216" lon="11.2704488"><ele>526.0</ele><time>2026-03-28T08:58:56.886Z</time></trkpt><trkpt lat="43.9515912" lon="11.2705275"><ele>526.0</ele><time>2026-03-28T08:58:57.89Z</time></trkpt><trkpt lat="43.9515553" lon="11.2706022"><ele>526.0</ele><time>2026-03-28T08:58:58.892Z</time></trkpt><trkpt lat="43.9515179" lon="11.2706837"><ele>526.0</ele><time>2026-03-28T08:58:59.897Z</time></trkpt><trkpt lat="43.9514756" lon="11.2707784"><ele>526.0</ele><time>2026-03-28T08:59:00.903Z</time></trkpt><trkpt lat="43.9514324" lon="11.2708787"><ele>526.0</ele><time>2026-03-28T08:59:01.895Z</time></trkpt><trkpt lat="43.9513883" lon="11.2709809"><ele>526.0</ele><time>2026-03-28T08:59:02.886Z</time></trkpt><trkpt lat="43.95135" lon="11.2710704"><ele>524.5</ele><time>2026-03-28T08:59:03.882Z</time></trkpt><trkpt lat="43.9513062" lon="11.2711637"><ele>523.0</ele><time>2026-03-28T08:59:04.884Z</time></trkpt><trkpt lat="43.9512604" lon="11.2712554"><ele>521.5</ele><time>2026-03-28T08:59:05.876Z</time></trkpt><trkpt lat="43.9512304" lon="11.2713461"><ele>520.0</ele><time>2026-03-28T08:59:06.88Z</time></trkpt><trkpt lat="43.9512102" lon="11.2714408"><ele>518.5</ele><time>2026-03-28T08:59:07.877Z</time></trkpt><trkpt lat="43.9511958" lon="11.2715289"><ele>517.0</ele><time>2026-03-28T08:59:08.885Z</time></trkpt><trkpt lat="43.9511457" lon="11.2716541"><ele>515.1666666666667</ele><time>2026-03-28T08:59:10.878Z</time></trkpt><trkpt lat="43.9510627" lon="11.2717372"><ele>513.3333333333334</ele><time>2026-03-28T08:59:12.899Z</time></trkpt><trkpt lat="43.9510022" lon="11.2717821"><ele>511.5</ele><time>2026-03-28T08:59:13.9Z</time></trkpt><trkpt lat="43.9509333" lon="11.2718235"><ele>509.66666666666663</ele><time>2026-03-28T08:59:14.886Z</time></trkpt><trkpt lat="43.9508576" lon="11.2718745"><ele>507.8333333333333</ele><time>2026-03-28T08:59:15.881Z</time></trkpt><trkpt lat="43.9507807" lon="11.2719177"><ele>506.0</ele><time>2026-03-28T08:59:16.878Z</time></trkpt><trkpt lat="43.9507129" lon="11.2719515"><ele>505.8333333333333</ele><time>2026-03-28T08:59:17.877Z</time></trkpt><trkpt lat="43.9506539" lon="11.2720394"><ele>505.66666666666663</ele><time>2026-03-28T08:59:19.913Z</time></trkpt><trkpt lat="43.9506818" lon="11.27214"><ele>505.5</ele><time>2026-03-28T08:59:22.905Z</time></trkpt><trkpt lat="43.950732" lon="11.2722028"><ele>505.33333333333337</ele><time>2026-03-28T09:00:14.927Z</time></trkpt><trkpt lat="43.9506525" lon="11.2721409"><ele>505.1666666666667</ele><time>2026-03-28T09:00:19.905Z</time></trkpt><trkpt lat="43.9505933" lon="11.2720563"><ele>505.0</ele><time>2026-03-28T09:00:21.904Z</time></trkpt><trkpt lat="43.9505139" lon="11.2719976"><ele>505.0</ele><time>2026-03-28T09:00:23.91Z</time></trkpt><trkpt lat="43.9504243" lon="11.271934"><ele>505.0</ele><time>2026-03-28T09:00:25.892Z</time></trkpt><trkpt lat="43.9503276" lon="11.2718638"><ele>505.0</ele><time>2026-03-28T09:00:27.893Z</time></trkpt><trkpt lat="43.9502381" lon="11.2717917"><ele>505.0</ele><time>2026-03-28T09:00:29.885Z</time></trkpt><trkpt lat="43.9501775" lon="11.2717388"><ele>505.0</ele><time>2026-03-28T09:00:31.903Z</time></trkpt><trkpt lat="43.9500999" lon="11.2716806"><ele>505.0</ele><time>2026-03-28T09:00:34.894Z</time></trkpt><trkpt lat="43.9501691" lon="11.2716759"><ele>505.0</ele><time>2026-03-28T09:01:35.893Z</time></trkpt><trkpt lat="43.9502516" lon="11.2717615"><ele>505.0</ele><time>2026-03-28T09:01:37.913Z</time></trkpt><trkpt lat="43.9503442" lon="11.2718603"><ele>505.0</ele><time>2026-03-28T09:01:39.892Z</time></trkpt><trkpt lat="43.9504328" lon="11.2719332"><ele>505.0</ele><time>2026-03-28T09:01:41.888Z</time></trkpt><trkpt lat="43.9505231" lon="11.2720094"><ele>505.0</ele><time>2026-03-28T09:01:43.896Z</time></trkpt><trkpt lat="43.9506108" lon="11.272089"><ele>505.0</ele><time>2026-03-28T09:01:45.906Z</time></trkpt><trkpt lat="43.9506922" lon="11.2721455"><ele>505.0</ele><time>2026-03-28T09:01:47.916Z</time></trkpt><trkpt lat="43.9507643" lon="11.2721977"><ele>505.0</ele><time>2026-03-28T09:01:50.911Z</time></trkpt><trkpt lat="43.9507822" lon="11.2723356"><ele>505.0</ele><time>2026-03-28T09:01:53.919Z</time></trkpt><trkpt lat="43.9507622" lon="11.2724776"><ele>503.2</ele><time>2026-03-28T09:01:55.926Z</time></trkpt><trkpt lat="43.9507561" lon="11.2725849"><ele>501.4</ele><time>2026-03-28T09:01:57.912Z</time></trkpt><trkpt lat="43.9507344" lon="11.2726797"><ele>499.6</ele><time>2026-03-28T09:02:00.895Z</time></trkpt><trkpt lat="43.9506676" lon="11.272766"><ele>497.8</ele><time>2026-03-28T09:02:02.916Z</time></trkpt><trkpt lat="43.9505661" lon="11.2728261"><ele>496.0</ele><time>2026-03-28T09:02:04.923Z</time></trkpt><trkpt lat="43.9504685" lon="11.2729088"><ele>496.00000000000006</ele><time>2026-03-28T09:02:06.915Z</time></trkpt><trkpt lat="43.9504083" lon="11.2729512"><ele>496.0</ele><time>2026-03-28T09:02:07.915Z</time></trkpt><trkpt lat="43.9503419" lon="11.2729827"><ele>496.0</ele><time>2026-03-28T09:02:08.906Z</time></trkpt><trkpt lat="43.9502772" lon="11.2730049"><ele>496.0</ele><time>2026-03-28T09:02:09.892Z</time></trkpt><trkpt lat="43.9501714" lon="11.2730325"><ele>496.00000000000006</ele><time>2026-03-28T09:02:11.9Z</time></trkpt><trkpt lat="43.9500665" lon="11.2730572"><ele>496.0</ele><time>2026-03-28T09:02:13.892Z</time></trkpt><trkpt lat="43.9499557" lon="11.2730382"><ele>497.28571428571433</ele><time>2026-03-28T09:02:15.897Z</time></trkpt><trkpt lat="43.9498953" lon="11.2730088"><ele>498.5714285714286</ele><time>2026-03-28T09:02:16.906Z</time></trkpt><trkpt lat="43.9498263" lon="11.2729789"><ele>499.8571428571429</ele><time>2026-03-28T09:02:17.901Z</time></trkpt><trkpt lat="43.9497588" lon="11.2729519"><ele>501.1428571428571</ele><time>2026-03-28T09:02:18.909Z</time></trkpt><trkpt lat="43.9496882" lon="11.2729281"><ele>502.4285714285714</ele><time>2026-03-28T09:02:19.893Z</time></trkpt><trkpt lat="43.9496192" lon="11.2729137"><ele>503.71428571428567</ele><time>2026-03-28T09:02:20.884Z</time></trkpt><trkpt lat="43.9495511" lon="11.2729041"><ele>505.0</ele><time>2026-03-28T09:02:21.878Z</time></trkpt><trkpt lat="43.949456" lon="11.2728711"><ele>505.0</ele><time>2026-03-28T09:02:23.887Z</time></trkpt><trkpt lat="43.9493313" lon="11.2728618"><ele>505.0</ele><time>2026-03-28T09:02:25.892Z</time></trkpt><trkpt lat="43.9492506" lon="11.2728611"><ele>505.0</ele><time>2026-03-28T09:02:26.888Z</time></trkpt><trkpt lat="43.9491691" lon="11.2728438"><ele>505.0</ele><time>2026-03-28T09:02:27.877Z</time></trkpt><trkpt lat="43.9491058" lon="11.2728332"><ele>505.0</ele><time>2026-03-28T09:02:28.881Z</time></trkpt><trkpt lat="43.9489822" lon="11.2728359"><ele>506.00000000000006</ele><time>2026-03-28T09:02:30.874Z</time></trkpt><trkpt lat="43.9489125" lon="11.2728419"><ele>507.0</ele><time>2026-03-28T09:02:31.878Z</time></trkpt><trkpt lat="43.948782" lon="11.2728498"><ele>508.0</ele><time>2026-03-28T09:02:33.863Z</time></trkpt><trkpt lat="43.9487107" lon="11.2728555"><ele>509.0</ele><time>2026-03-28T09:02:34.882Z</time></trkpt><trkpt lat="43.9486387" lon="11.2728497"><ele>510.00000000000006</ele><time>2026-03-28T09:02:35.869Z</time></trkpt><trkpt lat="43.9485686" lon="11.2728344"><ele>511.0</ele><time>2026-03-28T09:02:36.877Z</time></trkpt><trkpt lat="43.948496" lon="11.2728071"><ele>511.00000000000006</ele><time>2026-03-28T09:02:37.869Z</time></trkpt><trkpt lat="43.948423" lon="11.2727736"><ele>511.0</ele><time>2026-03-28T09:02:38.868Z</time></trkpt><trkpt lat="43.9483505" lon="11.27274"><ele>511.0</ele><time>2026-03-28T09:02:39.869Z</time></trkpt><trkpt lat="43.9482869" lon="11.2727056"><ele>511.0</ele><time>2026-03-28T09:02:40.869Z</time></trkpt><trkpt lat="43.9482265" lon="11.2726728"><ele>511.00000000000006</ele><time>2026-03-28T09:02:41.877Z</time></trkpt><trkpt lat="43.9481633" lon="11.2726419"><ele>511.0</ele><time>2026-03-28T09:02:42.876Z</time></trkpt><trkpt lat="43.9480472" lon="11.2726019"><ele>512.8333333333334</ele><time>2026-03-28T09:02:44.872Z</time></trkpt><trkpt lat="43.9479492" lon="11.272609"><ele>514.6666666666667</ele><time>2026-03-28T09:02:46.889Z</time></trkpt><trkpt lat="43.9478729" lon="11.2727292"><ele>516.5</ele><time>2026-03-28T09:03:07.884Z</time></trkpt><trkpt lat="43.9478347" lon="11.2728117"><ele>518.3333333333334</ele><time>2026-03-28T09:03:08.884Z</time></trkpt><trkpt lat="43.9477949" lon="11.2729002"><ele>520.1666666666666</ele><time>2026-03-28T09:03:09.878Z</time></trkpt><trkpt lat="43.9477611" lon="11.2729873"><ele>522.0</ele><time>2026-03-28T09:03:10.879Z</time></trkpt><trkpt lat="43.9477258" lon="11.2730787"><ele>520.6666666666666</ele><time>2026-03-28T09:03:11.881Z</time></trkpt><trkpt lat="43.9476918" lon="11.2731795"><ele>519.3333333333334</ele><time>2026-03-28T09:03:12.878Z</time></trkpt><trkpt lat="43.9476648" lon="11.2732777"><ele>518.0</ele><time>2026-03-28T09:03:13.883Z</time></trkpt><trkpt lat="43.9476334" lon="11.2733707"><ele>516.6666666666667</ele><time>2026-03-28T09:03:14.875Z</time></trkpt><trkpt lat="43.947604" lon="11.2734556"><ele>515.3333333333334</ele><time>2026-03-28T09:03:15.887Z</time></trkpt><trkpt lat="43.9475589" lon="11.2736157"><ele>514.0</ele><time>2026-03-28T09:03:17.885Z</time></trkpt><trkpt lat="43.947542" lon="11.2737135"><ele>514.0</ele><time>2026-03-28T09:03:18.885Z</time></trkpt><trkpt lat="43.9475262" lon="11.2738276"><ele>514.0</ele><time>2026-03-28T09:03:19.886Z</time></trkpt><trkpt lat="43.9475098" lon="11.2739435"><ele>514.0</ele><time>2026-03-28T09:03:20.9Z</time></trkpt><trkpt lat="43.9474846" lon="11.2740528"><ele>514.0</ele><time>2026-03-28T09:03:21.886Z</time></trkpt><trkpt lat="43.947455" lon="11.2741469"><ele>514.0</ele><time>2026-03-28T09:03:22.891Z</time></trkpt><trkpt lat="43.9474214" lon="11.2742975"><ele>514.0</ele><time>2026-03-28T09:03:24.884Z</time></trkpt><trkpt lat="43.9474081" lon="11.2744714"><ele>515.0</ele><time>2026-03-28T09:03:26.88Z</time></trkpt><trkpt lat="43.9474035" lon="11.2746057"><ele>516.0</ele><time>2026-03-28T09:03:28.881Z</time></trkpt><trkpt lat="43.9473196" lon="11.2745834"><ele>517.0</ele><time>2026-03-28T09:03:31.906Z</time></trkpt><trkpt lat="43.9472385" lon="11.274531"><ele>518.0</ele><time>2026-03-28T09:03:33.893Z</time></trkpt><trkpt lat="43.9471388" lon="11.2744667"><ele>519.0</ele><time>2026-03-28T09:03:35.902Z</time></trkpt><trkpt lat="43.9470175" lon="11.2744071"><ele>519.0</ele><time>2026-03-28T09:03:37.89Z</time></trkpt><trkpt lat="43.9469508" lon="11.2743733"><ele>519.0</ele><time>2026-03-28T09:03:38.877Z</time></trkpt><trkpt lat="43.9468786" lon="11.2743372"><ele>519.0</ele><time>2026-03-28T09:03:39.875Z</time></trkpt><trkpt lat="43.9467938" lon="11.2743084"><ele>519.0</ele><time>2026-03-28T09:03:40.876Z</time></trkpt><trkpt lat="43.9467034" lon="11.2742896"><ele>519.0</ele><time>2026-03-28T09:03:41.878Z</time></trkpt><trkpt lat="43.9466073" lon="11.2742751"><ele>519.0</ele><time>2026-03-28T09:03:42.881Z</time></trkpt><trkpt lat="43.9465138" lon="11.2742633"><ele>517.8333333333334</ele><time>2026-03-28T09:03:43.878Z</time></trkpt><trkpt lat="43.9464299" lon="11.2742466"><ele>516.6666666666666</ele><time>2026-03-28T09:03:44.885Z</time></trkpt><trkpt lat="43.9463549" lon="11.2742128"><ele>515.5</ele><time>2026-03-28T09:03:45.889Z</time></trkpt><trkpt lat="43.9462783" lon="11.2741766"><ele>514.3333333333333</ele><time>2026-03-28T09:03:46.889Z</time></trkpt><trkpt lat="43.9461996" lon="11.2741378"><ele>513.1666666666666</ele><time>2026-03-28T09:03:47.884Z</time></trkpt><trkpt lat="43.946127" lon="11.2740886"><ele>512.0</ele><time>2026-03-28T09:03:48.877Z</time></trkpt><trkpt lat="43.9460606" lon="11.2740545"><ele>512.0</ele><time>2026-03-28T09:03:49.893Z</time></trkpt><trkpt lat="43.9459376" lon="11.2740437"><ele>512.0</ele><time>2026-03-28T09:03:51.899Z</time></trkpt><trkpt lat="43.9458736" lon="11.2740739"><ele>512.0</ele><time>2026-03-28T09:03:52.887Z</time></trkpt><trkpt lat="43.945769" lon="11.2741597"><ele>512.0</ele><time>2026-03-28T09:03:54.885Z</time></trkpt><trkpt lat="43.9457069" lon="11.2741995"><ele>512.0</ele><time>2026-03-28T09:03:55.874Z</time></trkpt><trkpt lat="43.945639" lon="11.2742368"><ele>510.99999999999994</ele><time>2026-03-28T09:03:56.882Z</time></trkpt><trkpt lat="43.9455645" lon="11.2742674"><ele>510.0</ele><time>2026-03-28T09:03:57.876Z</time></trkpt><trkpt lat="43.9454916" lon="11.274303"><ele>509.0</ele><time>2026-03-28T09:03:58.88Z</time></trkpt><trkpt lat="43.9454254" lon="11.2743309"><ele>508.0</ele><time>2026-03-28T09:03:59.867Z</time></trkpt><trkpt lat="43.9453122" lon="11.274395"><ele>506.99999999999994</ele><time>2026-03-28T09:04:01.88Z</time></trkpt><trkpt lat="43.945256" lon="11.2744444"><ele>506.0</ele><time>2026-03-28T09:04:02.879Z</time></trkpt><trkpt lat="43.9451941" lon="11.2744924"><ele>506.0</ele><time>2026-03-28T09:04:03.872Z</time></trkpt><trkpt lat="43.9450864" lon="11.2745566"><ele>506.0</ele><time>2026-03-28T09:04:05.872Z</time></trkpt><trkpt lat="43.9450016" lon="11.2745386"><ele>506.0</ele><time>2026-03-28T09:04:07.87Z</time></trkpt><trkpt lat="43.9449394" lon="11.2744101"><ele>506.0</ele><time>2026-03-28T09:04:09.868Z</time></trkpt><trkpt lat="43.9449043" lon="11.2743301"><ele>506.0</ele><time>2026-03-28T09:04:10.868Z</time></trkpt><trkpt lat="43.9448634" lon="11.2742472"><ele>506.49999999999994</ele><time>2026-03-28T09:04:11.873Z</time></trkpt><trkpt lat="43.9448235" lon="11.2741549"><ele>507.0</ele><time>2026-03-28T09:04:12.873Z</time></trkpt><trkpt lat="43.9447806" lon="11.274051"><ele>507.5</ele><time>2026-03-28T09:04:13.875Z</time></trkpt><trkpt lat="43.9447416" lon="11.273935"><ele>508.0</ele><time>2026-03-28T09:04:14.877Z</time></trkpt><trkpt lat="43.9447025" lon="11.2738246"><ele>508.49999999999994</ele><time>2026-03-28T09:04:15.876Z</time></trkpt><trkpt lat="43.9446684" lon="11.273719"><ele>509.0</ele><time>2026-03-28T09:04:16.867Z</time></trkpt><trkpt lat="43.9446225" lon="11.2736041"><ele>507.16666666666663</ele><time>2026-03-28T09:04:17.88Z</time></trkpt><trkpt lat="43.9445744" lon="11.273488"><ele>505.3333333333333</ele><time>2026-03-28T09:04:18.871Z</time></trkpt><trkpt lat="43.9445241" lon="11.2733942"><ele>503.5</ele><time>2026-03-28T09:04:19.88Z</time></trkpt><trkpt lat="43.9444728" lon="11.2733089"><ele>501.66666666666663</ele><time>2026-03-28T09:04:20.878Z</time></trkpt><trkpt lat="43.9444236" lon="11.2732367"><ele>499.8333333333333</ele><time>2026-03-28T09:04:21.884Z</time></trkpt><trkpt lat="43.9443292" lon="11.2731739"><ele>498.0</ele><time>2026-03-28T09:04:23.887Z</time></trkpt><trkpt lat="43.9442685" lon="11.273199"><ele>499.8333333333333</ele><time>2026-03-28T09:04:25.896Z</time></trkpt><trkpt lat="43.9442022" lon="11.2732295"><ele>501.66666666666663</ele><time>2026-03-28T09:04:27.886Z</time></trkpt><trkpt lat="43.9440975" lon="11.2732324"><ele>503.5</ele><time>2026-03-28T09:04:29.887Z</time></trkpt><trkpt lat="43.9440285" lon="11.2732323"><ele>505.3333333333333</ele><time>2026-03-28T09:04:30.881Z</time></trkpt><trkpt lat="43.9439588" lon="11.2732305"><ele>507.16666666666663</ele><time>2026-03-28T09:04:31.879Z</time></trkpt><trkpt lat="43.943894" lon="11.2732376"><ele>509.0</ele><time>2026-03-28T09:04:32.874Z</time></trkpt><trkpt lat="43.9437888" lon="11.2732998"><ele>508.99999999999994</ele><time>2026-03-28T09:04:34.877Z</time></trkpt><trkpt lat="43.9437374" lon="11.2733511"><ele>509.0</ele><time>2026-03-28T09:04:35.885Z</time></trkpt><trkpt lat="43.9436824" lon="11.2734003"><ele>509.0</ele><time>2026-03-28T09:04:36.882Z</time></trkpt><trkpt lat="43.9436216" lon="11.2734393"><ele>509.0</ele><time>2026-03-28T09:04:37.883Z</time></trkpt><trkpt lat="43.9435149" lon="11.2734953"><ele>508.99999999999994</ele><time>2026-03-28T09:04:39.88Z</time></trkpt><trkpt lat="43.9434388" lon="11.2735705"><ele>509.0</ele><time>2026-03-28T09:04:41.886Z</time></trkpt><trkpt lat="43.9433898" lon="11.2736681"><ele>507.4</ele><time>2026-03-28T09:04:43.872Z</time></trkpt><trkpt lat="43.9433337" lon="11.2737926"><ele>505.79999999999995</ele><time>2026-03-28T09:04:45.879Z</time></trkpt><trkpt lat="43.94326" lon="11.2739224"><ele>504.20000000000005</ele><time>2026-03-28T09:04:47.872Z</time></trkpt><trkpt lat="43.9431711" lon="11.274017"><ele>502.6</ele><time>2026-03-28T09:04:49.865Z</time></trkpt><trkpt lat="43.9430641" lon="11.2740503"><ele>501.0</ele><time>2026-03-28T09:04:51.862Z</time></trkpt><trkpt lat="43.9429976" lon="11.2740662"><ele>503.8333333333333</ele><time>2026-03-28T09:04:52.862Z</time></trkpt><trkpt lat="43.9429234" lon="11.2740793"><ele>506.66666666666663</ele><time>2026-03-28T09:04:53.868Z</time></trkpt><trkpt lat="43.942854" lon="11.2740945"><ele>509.5</ele><time>2026-03-28T09:04:54.859Z</time></trkpt><trkpt lat="43.9427817" lon="11.2741062"><ele>512.3333333333333</ele><time>2026-03-28T09:04:55.859Z</time></trkpt><trkpt lat="43.9427182" lon="11.2741182"><ele>515.1666666666666</ele><time>2026-03-28T09:04:56.869Z</time></trkpt><trkpt lat="43.9425928" lon="11.2741645"><ele>518.0</ele><time>2026-03-28T09:04:58.863Z</time></trkpt><trkpt lat="43.942523" lon="11.2742005"><ele>518.1666666666666</ele><time>2026-03-28T09:04:59.859Z</time></trkpt><trkpt lat="43.9424459" lon="11.2742271"><ele>518.3333333333333</ele><time>2026-03-28T09:05:00.857Z</time></trkpt><trkpt lat="43.9423714" lon="11.2742565"><ele>518.5</ele><time>2026-03-28T09:05:01.869Z</time></trkpt><trkpt lat="43.9422911" lon="11.274291"><ele>518.6666666666666</ele><time>2026-03-28T09:05:02.862Z</time></trkpt><trkpt lat="43.9422104" lon="11.274313"><ele>518.8333333333334</ele><time>2026-03-28T09:05:03.858Z</time></trkpt><trkpt lat="43.9421248" lon="11.2743244"><ele>519.0</ele><time>2026-03-28T09:05:04.854Z</time></trkpt><trkpt lat="43.9420377" lon="11.274332"><ele>519.0</ele><time>2026-03-28T09:05:05.856Z</time></trkpt><trkpt lat="43.9419547" lon="11.2743454"><ele>519.0</ele><time>2026-03-28T09:05:06.858Z</time></trkpt><trkpt lat="43.9418727" lon="11.2743611"><ele>519.0</ele><time>2026-03-28T09:05:07.867Z</time></trkpt><trkpt lat="43.9417897" lon="11.2743712"><ele>519.0</ele><time>2026-03-28T09:05:08.865Z</time></trkpt><trkpt lat="43.9417074" lon="11.274374"><ele>519.0</ele><time>2026-03-28T09:05:09.857Z</time></trkpt><trkpt lat="43.941643" lon="11.2743815"><ele>519.0</ele><time>2026-03-28T09:05:10.858Z</time></trkpt><trkpt lat="43.9415437" lon="11.2743858"><ele>519.8</ele><time>2026-03-28T09:05:12.87Z</time></trkpt><trkpt lat="43.9415797" lon="11.2744576"><ele>520.5999999999999</ele><time>2026-03-28T09:05:29.885Z</time></trkpt><trkpt lat="43.9416315" lon="11.274601"><ele>521.4</ele><time>2026-03-28T09:05:31.879Z</time></trkpt><trkpt lat="43.9416778" lon="11.2747432"><ele>522.1999999999999</ele><time>2026-03-28T09:05:33.865Z</time></trkpt><trkpt lat="43.9416947" lon="11.2748592"><ele>523.0</ele><time>2026-03-28T09:05:35.878Z</time></trkpt><trkpt lat="43.9417616" lon="11.2749367"><ele>526.1999999999999</ele><time>2026-03-28T09:05:39.876Z</time></trkpt><trkpt lat="43.9418734" lon="11.2749688"><ele>529.4</ele><time>2026-03-28T09:05:41.878Z</time></trkpt><trkpt lat="43.9419803" lon="11.2750196"><ele>532.5999999999999</ele><time>2026-03-28T09:05:43.882Z</time></trkpt><trkpt lat="43.9420548" lon="11.2750839"><ele>535.8</ele><time>2026-03-28T09:05:45.877Z</time></trkpt><trkpt lat="43.9421143" lon="11.2751447"><ele>539.0</ele><time>2026-03-28T09:05:47.874Z</time></trkpt><trkpt lat="43.9421596" lon="11.275233"><ele>539.0</ele><time>2026-03-28T09:05:49.882Z</time></trkpt><trkpt lat="43.9422207" lon="11.2753417"><ele>539.0</ele><time>2026-03-28T09:05:51.879Z</time></trkpt><trkpt lat="43.9423008" lon="11.2754063"><ele>539.0</ele><time>2026-03-28T09:05:53.886Z</time></trkpt><trkpt lat="43.9423757" lon="11.2754685"><ele>539.0</ele><time>2026-03-28T09:05:55.908Z</time></trkpt><trkpt lat="43.9424372" lon="11.2755557"><ele>539.0</ele><time>2026-03-28T09:05:57.879Z</time></trkpt><trkpt lat="43.9424856" lon="11.2756388"><ele>539.0</ele><time>2026-03-28T09:05:59.878Z</time></trkpt><trkpt lat="43.9425096" lon="11.275782"><ele>540.6666666666666</ele><time>2026-03-28T09:06:02.888Z</time></trkpt><trkpt lat="43.9425084" lon="11.2759141"><ele>542.3333333333333</ele><time>2026-03-28T09:06:04.89Z</time></trkpt><trkpt lat="43.9425425" lon="11.2760199"><ele>544.0</ele><time>2026-03-28T09:06:06.892Z</time></trkpt><trkpt lat="43.942606" lon="11.2760983"><ele>545.6666666666666</ele><time>2026-03-28T09:06:08.895Z</time></trkpt><trkpt lat="43.9426896" lon="11.2761682"><ele>547.3333333333334</ele><time>2026-03-28T09:06:10.883Z</time></trkpt><trkpt lat="43.9427438" lon="11.2762168"><ele>549.0</ele><time>2026-03-28T09:06:11.871Z</time></trkpt><trkpt lat="43.9427973" lon="11.2762707"><ele>550.0</ele><time>2026-03-28T09:06:12.882Z</time></trkpt><trkpt lat="43.9428832" lon="11.2763875"><ele>551.0</ele><time>2026-03-28T09:06:14.881Z</time></trkpt><trkpt lat="43.9429661" lon="11.2764636"><ele>552.0</ele><time>2026-03-28T09:06:16.877Z</time></trkpt><trkpt lat="43.9430548" lon="11.2765369"><ele>553.0</ele><time>2026-03-28T09:06:18.884Z</time></trkpt><trkpt lat="43.9431424" lon="11.2766407"><ele>554.0</ele><time>2026-03-28T09:06:20.891Z</time></trkpt><trkpt lat="43.9432211" lon="11.2767528"><ele>554.3333333333333</ele><time>2026-03-28T09:06:22.887Z</time></trkpt><trkpt lat="43.9432894" lon="11.2768301"><ele>554.6666666666666</ele><time>2026-03-28T09:06:24.898Z</time></trkpt><trkpt lat="43.9433684" lon="11.2768946"><ele>555.0</ele><time>2026-03-28T09:06:26.897Z</time></trkpt><trkpt lat="43.9434245" lon="11.2769438"><ele>555.3333333333334</ele><time>2026-03-28T09:06:28.911Z</time></trkpt><trkpt lat="43.9434914" lon="11.2769548"><ele>555.6666666666667</ele><time>2026-03-28T09:06:32.906Z</time></trkpt><trkpt lat="43.9435886" lon="11.2770037"><ele>556.0</ele><time>2026-03-28T09:06:35.901Z</time></trkpt><trkpt lat="43.9436413" lon="11.2770971"><ele>556.0</ele><time>2026-03-28T09:06:37.911Z</time></trkpt><trkpt lat="43.9436267" lon="11.2772248"><ele>556.0</ele><time>2026-03-28T09:06:39.898Z</time></trkpt><trkpt lat="43.9436084" lon="11.2773095"><ele>556.0</ele><time>2026-03-28T09:06:40.901Z</time></trkpt><trkpt lat="43.9435879" lon="11.277396"><ele>556.0</ele><time>2026-03-28T09:06:41.885Z</time></trkpt><trkpt lat="43.9435776" lon="11.2774859"><ele>556.0</ele><time>2026-03-28T09:06:42.89Z</time></trkpt><trkpt lat="43.9435683" lon="11.2776345"><ele>556.0</ele><time>2026-03-28T09:06:44.88Z</time></trkpt><trkpt lat="43.9435658" lon="11.277752"><ele>556.6</ele><time>2026-03-28T09:06:46.897Z</time></trkpt><trkpt lat="43.9435566" lon="11.2778582"><ele>557.2</ele><time>2026-03-28T09:06:48.895Z</time></trkpt><trkpt lat="43.9435374" lon="11.2779713"><ele>557.8</ele><time>2026-03-28T09:06:50.906Z</time></trkpt><trkpt lat="43.9435007" lon="11.2781012"><ele>558.4</ele><time>2026-03-28T09:06:52.899Z</time></trkpt><trkpt lat="43.9434393" lon="11.2782222"><ele>559.0</ele><time>2026-03-28T09:06:54.904Z</time></trkpt><trkpt lat="43.9433488" lon="11.2783333"><ele>557.6666666666667</ele><time>2026-03-28T09:06:56.905Z</time></trkpt><trkpt lat="43.943283" lon="11.2784205"><ele>556.3333333333334</ele><time>2026-03-28T09:06:58.897Z</time></trkpt><trkpt lat="43.9432178" lon="11.2784858"><ele>555.0</ele><time>2026-03-28T09:07:00.89Z</time></trkpt><trkpt lat="43.9431493" lon="11.2785492"><ele>553.6666666666666</ele><time>2026-03-28T09:07:02.89Z</time></trkpt><trkpt lat="43.9430857" lon="11.2785885"><ele>552.3333333333333</ele><time>2026-03-28T09:07:04.889Z</time></trkpt><trkpt lat="43.9430328" lon="11.2786928"><ele>551.0</ele><time>2026-03-28T09:07:07.892Z</time></trkpt><trkpt lat="43.9429851" lon="11.2788015"><ele>551.0</ele><time>2026-03-28T09:07:09.894Z</time></trkpt><trkpt lat="43.9429503" lon="11.2789384"><ele>551.0</ele><time>2026-03-28T09:07:11.885Z</time></trkpt><trkpt lat="43.9429516" lon="11.2790294"><ele>551.0</ele><time>2026-03-28T09:07:12.88Z</time></trkpt><trkpt lat="43.9429617" lon="11.2791388"><ele>551.0</ele><time>2026-03-28T09:07:13.875Z</time></trkpt><trkpt lat="43.942973" lon="11.2792583"><ele>551.0</ele><time>2026-03-28T09:07:14.878Z</time></trkpt><trkpt lat="43.9429884" lon="11.2793808"><ele>551.0</ele><time>2026-03-28T09:07:15.869Z</time></trkpt><trkpt lat="43.9430095" lon="11.279503"><ele>551.0</ele><time>2026-03-28T09:07:16.879Z</time></trkpt><trkpt lat="43.9430235" lon="11.2796112"><ele>551.0</ele><time>2026-03-28T09:07:17.875Z</time></trkpt><trkpt lat="43.9430243" lon="11.2796998"><ele>551.0</ele><time>2026-03-28T09:07:18.879Z</time></trkpt><trkpt lat="43.9430044" lon="11.2798606"><ele>551.0</ele><time>2026-03-28T09:07:20.877Z</time></trkpt><trkpt lat="43.943029" lon="11.2799906"><ele>551.0</ele><time>2026-03-28T09:07:22.882Z</time></trkpt><trkpt lat="43.9431061" lon="11.2801283"><ele>550.9999999999999</ele><time>2026-03-28T09:07:24.878Z</time></trkpt><trkpt lat="43.9431516" lon="11.2802001"><ele>551.0</ele><time>2026-03-28T09:07:25.871Z</time></trkpt><trkpt lat="43.9432046" lon="11.2802655"><ele>551.0</ele><time>2026-03-28T09:07:26.88Z</time></trkpt><trkpt lat="43.9432631" lon="11.2803333"><ele>551.0</ele><time>2026-03-28T09:07:27.887Z</time></trkpt><trkpt lat="43.9433268" lon="11.2803942"><ele>551.0</ele><time>2026-03-28T09:07:28.885Z</time></trkpt><trkpt lat="43.9433894" lon="11.2804564"><ele>550.9999999999999</ele><time>2026-03-28T09:07:29.884Z</time></trkpt><trkpt lat="43.9434424" lon="11.2805242"><ele>551.0</ele><time>2026-03-28T09:07:30.892Z</time></trkpt><trkpt lat="43.9434902" lon="11.2806116"><ele>551.0</ele><time>2026-03-28T09:07:31.881Z</time></trkpt><trkpt lat="43.9435362" lon="11.2807076"><ele>551.0</ele><time>2026-03-28T09:07:32.879Z</time></trkpt><trkpt lat="43.943578" lon="11.2808038"><ele>551.0</ele><time>2026-03-28T09:07:33.884Z</time></trkpt><trkpt lat="43.9436286" lon="11.2808885"><ele>551.0</ele><time>2026-03-28T09:07:34.895Z</time></trkpt><trkpt lat="43.9436767" lon="11.2809692"><ele>551.0</ele><time>2026-03-28T09:07:35.883Z</time></trkpt><trkpt lat="43.9437133" lon="11.2810654"><ele>551.0</ele><time>2026-03-28T09:07:36.876Z</time></trkpt><trkpt lat="43.9437438" lon="11.2811574"><ele>551.0</ele><time>2026-03-28T09:07:37.887Z</time></trkpt><trkpt lat="43.943776" lon="11.2812335"><ele>551.0</ele><time>2026-03-28T09:07:38.888Z</time></trkpt><trkpt lat="43.9438226" lon="11.2813355"><ele>551.0</ele><time>2026-03-28T09:07:40.884Z</time></trkpt><trkpt lat="43.9437967" lon="11.2814279"><ele>551.0</ele><time>2026-03-28T09:07:42.885Z</time></trkpt><trkpt lat="43.9437288" lon="11.2815161"><ele>551.0</ele><time>2026-03-28T09:07:44.886Z</time></trkpt><trkpt lat="43.9436405" lon="11.2815492"><ele>551.0</ele><time>2026-03-28T09:07:49.887Z</time></trkpt><trkpt lat="43.9436649" lon="11.2814575"><ele>550.9999999999999</ele><time>2026-03-28T09:08:42.884Z</time></trkpt><trkpt lat="43.9437022" lon="11.2813769"><ele>551.0</ele><time>2026-03-28T09:08:44.886Z</time></trkpt><trkpt lat="43.9437399" lon="11.2812919"><ele>551.0</ele><time>2026-03-28T09:08:46.886Z</time></trkpt><trkpt lat="43.9437059" lon="11.2811695"><ele>551.0</ele><time>2026-03-28T09:08:55.902Z</time></trkpt><trkpt lat="43.9436754" lon="11.2810825"><ele>551.0</ele><time>2026-03-28T09:08:57.883Z</time></trkpt><trkpt lat="43.9436628" lon="11.2809804"><ele>550.9999999999999</ele><time>2026-03-28T09:09:00.913Z</time></trkpt><trkpt lat="43.943641" lon="11.2808932"><ele>551.0</ele><time>2026-03-28T09:09:07.891Z</time></trkpt><trkpt lat="43.9435707" lon="11.2807797"><ele>551.0</ele><time>2026-03-28T09:09:10.883Z</time></trkpt><trkpt lat="43.9434987" lon="11.2806447"><ele>551.0</ele><time>2026-03-28T09:09:12.871Z</time></trkpt><trkpt lat="43.9434231" lon="11.2805132"><ele>551.0</ele><time>2026-03-28T09:09:14.882Z</time></trkpt><trkpt lat="43.9433443" lon="11.2803918"><ele>551.0</ele><time>2026-03-28T09:09:16.88Z</time></trkpt><trkpt lat="43.9432953" lon="11.2803334"><ele>551.0</ele><time>2026-03-28T09:09:17.874Z</time></trkpt><trkpt lat="43.9432397" lon="11.2802814"><ele>551.0</ele><time>2026-03-28T09:09:18.875Z</time></trkpt><trkpt lat="43.9431829" lon="11.2802279"><ele>551.0</ele><time>2026-03-28T09:09:19.881Z</time></trkpt><trkpt lat="43.943103" lon="11.2801103"><ele>551.0</ele><time>2026-03-28T09:09:21.876Z</time></trkpt><trkpt lat="43.943029" lon="11.2799715"><ele>551.0</ele><time>2026-03-28T09:09:23.882Z</time></trkpt><trkpt lat="43.9429931" lon="11.2798244"><ele>551.0</ele><time>2026-03-28T09:09:25.882Z</time></trkpt><trkpt lat="43.9430079" lon="11.2796997"><ele>551.0</ele><time>2026-03-28T09:09:27.895Z</time></trkpt><trkpt lat="43.9430197" lon="11.2795863"><ele>551.0</ele><time>2026-03-28T09:09:29.908Z</time></trkpt><trkpt lat="43.9430033" lon="11.2794438"><ele>551.0</ele><time>2026-03-28T09:09:31.911Z</time></trkpt><trkpt lat="43.9429808" lon="11.2792846"><ele>551.0</ele><time>2026-03-28T09:09:33.882Z</time></trkpt><trkpt lat="43.9429683" lon="11.2791949"><ele>551.0</ele><time>2026-03-28T09:09:34.882Z</time></trkpt><trkpt lat="43.9429588" lon="11.2790243"><ele>551.0</ele><time>2026-03-28T09:09:36.876Z</time></trkpt><trkpt lat="43.9429542" lon="11.2788714"><ele>551.0</ele><time>2026-03-28T09:09:38.881Z</time></trkpt><trkpt lat="43.9429767" lon="11.2787399"><ele>551.0</ele><time>2026-03-28T09:09:40.873Z</time></trkpt><trkpt lat="43.9430438" lon="11.2786325"><ele>551.0</ele><time>2026-03-28T09:09:42.872Z</time></trkpt><trkpt lat="43.9430735" lon="11.2785417"><ele>551.0</ele><time>2026-03-28T09:09:44.885Z</time></trkpt><trkpt lat="43.9431573" lon="11.2784755"><ele>551.0</ele><time>2026-03-28T09:09:47.91Z</time></trkpt><trkpt lat="43.9432185" lon="11.2784218"><ele>551.0</ele><time>2026-03-28T09:09:49.899Z</time></trkpt><trkpt lat="43.9432922" lon="11.2783322"><ele>551.0</ele><time>2026-03-28T09:09:51.893Z</time></trkpt><trkpt lat="43.9433741" lon="11.2782104"><ele>551.0</ele><time>2026-03-28T09:09:53.888Z</time></trkpt><trkpt lat="43.9434205" lon="11.2781423"><ele>551.0</ele><time>2026-03-28T09:09:54.889Z</time></trkpt><trkpt lat="43.9434574" lon="11.2780704"><ele>551.0</ele><time>2026-03-28T09:09:55.888Z</time></trkpt><trkpt lat="43.9435101" lon="11.277924"><ele>552.0</ele><time>2026-03-28T09:09:57.899Z</time></trkpt><trkpt lat="43.9435389" lon="11.2777876"><ele>553.0</ele><time>2026-03-28T09:09:59.901Z</time></trkpt><trkpt lat="43.9435683" lon="11.2776574"><ele>554.0</ele><time>2026-03-28T09:10:01.894Z</time></trkpt><trkpt lat="43.9435757" lon="11.2775327"><ele>555.0</ele><time>2026-03-28T09:10:03.902Z</time></trkpt><trkpt lat="43.9435889" lon="11.2773982"><ele>556.0</ele><time>2026-03-28T09:10:05.899Z</time></trkpt><trkpt lat="43.9436113" lon="11.2772581"><ele>556.0</ele><time>2026-03-28T09:10:07.899Z</time></trkpt><trkpt lat="43.9436374" lon="11.2771483"><ele>556.0</ele><time>2026-03-28T09:10:09.9Z</time></trkpt><trkpt lat="43.943626" lon="11.2770481"><ele>556.0</ele><time>2026-03-28T09:10:14.901Z</time></trkpt><trkpt lat="43.9435703" lon="11.2769619"><ele>556.0</ele><time>2026-03-28T09:10:17.91Z</time></trkpt><trkpt lat="43.9436353" lon="11.2769462"><ele>556.0</ele><time>2026-03-28T09:10:35.885Z</time></trkpt><trkpt lat="43.9437011" lon="11.2769991"><ele>556.0</ele><time>2026-03-28T09:10:38.879Z</time></trkpt><trkpt lat="43.9437692" lon="11.2770476"><ele>556.0</ele><time>2026-03-28T09:10:40.889Z</time></trkpt><trkpt lat="43.9438377" lon="11.2771186"><ele>556.0</ele><time>2026-03-28T09:10:42.883Z</time></trkpt><trkpt lat="43.9439175" lon="11.2771659"><ele>556.0</ele><time>2026-03-28T09:10:44.914Z</time></trkpt><trkpt lat="43.9440134" lon="11.2772115"><ele>556.0</ele><time>2026-03-28T09:10:46.896Z</time></trkpt><trkpt lat="43.9441086" lon="11.2772543"><ele>556.0</ele><time>2026-03-28T09:10:48.9Z</time></trkpt><trkpt lat="43.9442318" lon="11.277293"><ele>557.3333333333334</ele><time>2026-03-28T09:10:50.898Z</time></trkpt><trkpt lat="43.9443079" lon="11.2773203"><ele>558.6666666666667</ele><time>2026-03-28T09:10:51.89Z</time></trkpt><trkpt lat="43.9443861" lon="11.2773511"><ele>560.0</ele><time>2026-03-28T09:10:52.886Z</time></trkpt><trkpt lat="43.9444643" lon="11.2773899"><ele>561.3333333333334</ele><time>2026-03-28T09:10:53.886Z</time></trkpt><trkpt lat="43.9445324" lon="11.2774299"><ele>562.6666666666666</ele><time>2026-03-28T09:10:54.883Z</time></trkpt><trkpt lat="43.9445926" lon="11.27748"><ele>564.0</ele><time>2026-03-28T09:10:55.884Z</time></trkpt><trkpt lat="43.9446512" lon="11.2775308"><ele>564.0</ele><time>2026-03-28T09:10:56.878Z</time></trkpt><trkpt lat="43.9447075" lon="11.2775899"><ele>564.0</ele><time>2026-03-28T09:10:57.87Z</time></trkpt><trkpt lat="43.9447551" lon="11.2776606"><ele>564.0</ele><time>2026-03-28T09:10:58.874Z</time></trkpt><trkpt lat="43.9448102" lon="11.2777325"><ele>564.0</ele><time>2026-03-28T09:10:59.885Z</time></trkpt><trkpt lat="43.9448674" lon="11.277806"><ele>564.0</ele><time>2026-03-28T09:11:00.879Z</time></trkpt><trkpt lat="43.9449237" lon="11.277872"><ele>564.0</ele><time>2026-03-28T09:11:01.876Z</time></trkpt><trkpt lat="43.9449826" lon="11.2779282"><ele>564.0</ele><time>2026-03-28T09:11:02.875Z</time></trkpt><trkpt lat="43.9450472" lon="11.2779723"><ele>566.6666666666666</ele><time>2026-03-28T09:11:03.894Z</time></trkpt><trkpt lat="43.9451043" lon="11.2780161"><ele>569.3333333333334</ele><time>2026-03-28T09:11:04.877Z</time></trkpt><trkpt lat="43.9451846" lon="11.2781346"><ele>572.0</ele><time>2026-03-28T09:11:06.876Z</time></trkpt><trkpt lat="43.9452252" lon="11.2782756"><ele>574.6666666666667</ele><time>2026-03-28T09:11:08.882Z</time></trkpt><trkpt lat="43.9452497" lon="11.27836"><ele>577.3333333333334</ele><time>2026-03-28T09:11:09.882Z</time></trkpt><trkpt lat="43.9452806" lon="11.2784444"><ele>580.0</ele><time>2026-03-28T09:11:10.88Z</time></trkpt><trkpt lat="43.9453119" lon="11.2785213"><ele>580.1666666666667</ele><time>2026-03-28T09:11:11.873Z</time></trkpt><trkpt lat="43.9453507" lon="11.2785989"><ele>580.3333333333334</ele><time>2026-03-28T09:11:12.879Z</time></trkpt><trkpt lat="43.9453963" lon="11.2786729"><ele>580.5</ele><time>2026-03-28T09:11:13.885Z</time></trkpt><trkpt lat="43.9454826" lon="11.2787742"><ele>580.6666666666666</ele><time>2026-03-28T09:11:15.889Z</time></trkpt><trkpt lat="43.9455617" lon="11.278847"><ele>580.8333333333333</ele><time>2026-03-28T09:11:17.87Z</time></trkpt><trkpt lat="43.9456275" lon="11.2788835"><ele>581.0</ele><time>2026-03-28T09:11:20.906Z</time></trkpt><trkpt lat="43.9456927" lon="11.2789091"><ele>581.0</ele><time>2026-03-28T09:11:22.889Z</time></trkpt><trkpt lat="43.9457815" lon="11.2789169"><ele>581.0</ele><time>2026-03-28T09:11:24.88Z</time></trkpt><trkpt lat="43.945889" lon="11.2788992"><ele>581.0</ele><time>2026-03-28T09:11:26.885Z</time></trkpt><trkpt lat="43.9460107" lon="11.2788487"><ele>581.0</ele><time>2026-03-28T09:11:28.89Z</time></trkpt><trkpt lat="43.9460734" lon="11.2788106"><ele>581.0</ele><time>2026-03-28T09:11:29.902Z</time></trkpt><trkpt lat="43.9461338" lon="11.2787749"><ele>581.0</ele><time>2026-03-28T09:11:30.897Z</time></trkpt><trkpt lat="43.9462405" lon="11.278725"><ele>581.0</ele><time>2026-03-28T09:11:32.895Z</time></trkpt><trkpt lat="43.9463019" lon="11.2787013"><ele>581.0</ele><time>2026-03-28T09:11:34.907Z</time></trkpt><trkpt lat="43.9463703" lon="11.2786932"><ele>581.0</ele><time>2026-03-28T09:11:36.883Z</time></trkpt><trkpt lat="43.9464587" lon="11.2786805"><ele>581.0</ele><time>2026-03-28T09:11:38.886Z</time></trkpt><trkpt lat="43.9465876" lon="11.2786887"><ele>581.0</ele><time>2026-03-28T09:11:40.881Z</time></trkpt><trkpt lat="43.9466635" lon="11.2786918"><ele>581.0</ele><time>2026-03-28T09:11:41.896Z</time></trkpt><trkpt lat="43.9467424" lon="11.2786867"><ele>581.0</ele><time>2026-03-28T09:11:42.896Z</time></trkpt><trkpt lat="43.9468183" lon="11.2786745"><ele>581.0</ele><time>2026-03-28T09:11:43.907Z</time></trkpt><trkpt lat="43.9469014" lon="11.2786548"><ele>581.0</ele><time>2026-03-28T09:11:44.891Z</time></trkpt><trkpt lat="43.9469711" lon="11.2786435"><ele>581.0</ele><time>2026-03-28T09:11:45.885Z</time></trkpt><trkpt lat="43.9470952" lon="11.2786318"><ele>579.1666666666666</ele><time>2026-03-28T09:11:47.898Z</time></trkpt><trkpt lat="43.9471688" lon="11.2786181"><ele>577.3333333333333</ele><time>2026-03-28T09:11:48.88Z</time></trkpt><trkpt lat="43.9472508" lon="11.2785971"><ele>575.5</ele><time>2026-03-28T09:11:49.879Z</time></trkpt><trkpt lat="43.9473288" lon="11.2785717"><ele>573.6666666666666</ele><time>2026-03-28T09:11:50.891Z</time></trkpt><trkpt lat="43.947406" lon="11.2785428"><ele>571.8333333333334</ele><time>2026-03-28T09:11:51.883Z</time></trkpt><trkpt lat="43.9474704" lon="11.2785254"><ele>570.0</ele><time>2026-03-28T09:11:52.88Z</time></trkpt><trkpt lat="43.9475587" lon="11.2784967"><ele>568.0</ele><time>2026-03-28T09:11:54.893Z</time></trkpt><trkpt lat="43.9476504" lon="11.2784866"><ele>566.0</ele><time>2026-03-28T09:11:56.886Z</time></trkpt><trkpt lat="43.9477341" lon="11.2784864"><ele>564.0</ele><time>2026-03-28T09:11:58.892Z</time></trkpt><trkpt lat="43.9478072" lon="11.2785432"><ele>562.0</ele><time>2026-03-28T09:12:25.881Z</time></trkpt><trkpt lat="43.9478123" lon="11.2786703"><ele>560.0</ele><time>2026-03-28T09:12:27.878Z</time></trkpt><trkpt lat="43.947842" lon="11.2787611"><ele>558.0</ele><time>2026-03-28T09:12:29.882Z</time></trkpt><trkpt lat="43.9479196" lon="11.2788702"><ele>556.6</ele><time>2026-03-28T09:12:31.883Z</time></trkpt><trkpt lat="43.9479978" lon="11.2789891"><ele>555.1999999999999</ele><time>2026-03-28T09:12:33.882Z</time></trkpt><trkpt lat="43.9480919" lon="11.2790744"><ele>553.8</ele><time>2026-03-28T09:12:35.874Z</time></trkpt><trkpt lat="43.9481615" lon="11.2791146"><ele>552.4</ele><time>2026-03-28T09:12:36.882Z</time></trkpt><trkpt lat="43.9482346" lon="11.2791785"><ele>551.0</ele><time>2026-03-28T09:12:37.874Z</time></trkpt><trkpt lat="43.9483014" lon="11.2792458"><ele>550.9999999999999</ele><time>2026-03-28T09:12:38.871Z</time></trkpt><trkpt lat="43.9483729" lon="11.2793042"><ele>551.0</ele><time>2026-03-28T09:12:39.869Z</time></trkpt><trkpt lat="43.9484411" lon="11.2793546"><ele>551.0</ele><time>2026-03-28T09:12:40.877Z</time></trkpt><trkpt lat="43.948505" lon="11.279384"><ele>551.0</ele><time>2026-03-28T09:12:41.866Z</time></trkpt><trkpt lat="43.9485752" lon="11.2794039"><ele>551.0</ele><time>2026-03-28T09:12:42.868Z</time></trkpt><trkpt lat="43.9486476" lon="11.2794189"><ele>550.9999999999999</ele><time>2026-03-28T09:12:43.871Z</time></trkpt><trkpt lat="43.9487212" lon="11.2794357"><ele>551.0</ele><time>2026-03-28T09:12:44.874Z</time></trkpt><trkpt lat="43.9487876" lon="11.2794565"><ele>549.5714285714286</ele><time>2026-03-28T09:12:45.871Z</time></trkpt><trkpt lat="43.9488503" lon="11.279468"><ele>548.1428571428571</ele><time>2026-03-28T09:12:46.872Z</time></trkpt><trkpt lat="43.9489557" lon="11.2793975"><ele>546.7142857142858</ele><time>2026-03-28T09:12:48.884Z</time></trkpt><trkpt lat="43.9490004" lon="11.2793337"><ele>545.2857142857142</ele><time>2026-03-28T09:12:49.878Z</time></trkpt><trkpt lat="43.9490516" lon="11.2792756"><ele>543.8571428571429</ele><time>2026-03-28T09:12:50.881Z</time></trkpt><trkpt lat="43.9491088" lon="11.2792235"><ele>542.4285714285714</ele><time>2026-03-28T09:12:51.876Z</time></trkpt><trkpt lat="43.94917" lon="11.2791927"><ele>541.0</ele><time>2026-03-28T09:12:52.894Z</time></trkpt><trkpt lat="43.9492327" lon="11.2791792"><ele>538.0</ele><time>2026-03-28T09:12:53.893Z</time></trkpt><trkpt lat="43.949353" lon="11.2791868"><ele>535.0</ele><time>2026-03-28T09:12:55.896Z</time></trkpt><trkpt lat="43.9494386" lon="11.2792481"><ele>532.0</ele><time>2026-03-28T09:12:57.875Z</time></trkpt><trkpt lat="43.9494553" lon="11.2793698"><ele>529.0</ele><time>2026-03-28T09:12:59.896Z</time></trkpt><trkpt lat="43.9494444" lon="11.279456"><ele>526.0</ele><time>2026-03-28T09:13:00.9Z</time></trkpt><trkpt lat="43.949424" lon="11.2795537"><ele>523.0</ele><time>2026-03-28T09:13:01.889Z</time></trkpt><trkpt lat="43.9494175" lon="11.2796599"><ele>522.4285714285713</ele><time>2026-03-28T09:13:02.881Z</time></trkpt><trkpt lat="43.949425" lon="11.2797686"><ele>521.8571428571429</ele><time>2026-03-28T09:13:03.883Z</time></trkpt><trkpt lat="43.949464" lon="11.2798504"><ele>521.2857142857142</ele><time>2026-03-28T09:13:04.876Z</time></trkpt><trkpt lat="43.9495152" lon="11.2799145"><ele>520.7142857142857</ele><time>2026-03-28T09:13:05.89Z</time></trkpt><trkpt lat="43.9495768" lon="11.2799777"><ele>520.1428571428571</ele><time>2026-03-28T09:13:06.888Z</time></trkpt><trkpt lat="43.94964" lon="11.2800386"><ele>519.5714285714286</ele><time>2026-03-28T09:13:07.898Z</time></trkpt><trkpt lat="43.9497008" lon="11.2800899"><ele>519.0</ele><time>2026-03-28T09:13:08.874Z</time></trkpt><trkpt lat="43.9497832" lon="11.2801997"><ele>519.0</ele><time>2026-03-28T09:13:10.875Z</time></trkpt><trkpt lat="43.9498048" lon="11.2802932"><ele>519.0</ele><time>2026-03-28T09:13:11.866Z</time></trkpt><trkpt lat="43.9498228" lon="11.2804"><ele>519.0</ele><time>2026-03-28T09:13:12.873Z</time></trkpt><trkpt lat="43.9498344" lon="11.2804965"><ele>519.0</ele><time>2026-03-28T09:13:13.874Z</time></trkpt><trkpt lat="43.9498145" lon="11.2806501"><ele>519.0</ele><time>2026-03-28T09:13:15.881Z</time></trkpt><trkpt lat="43.9497868" lon="11.2807882"><ele>519.0</ele><time>2026-03-28T09:13:17.864Z</time></trkpt><trkpt lat="43.9498584" lon="11.2808723"><ele>518.0</ele><time>2026-03-28T09:13:19.877Z</time></trkpt><trkpt lat="43.9499173" lon="11.280912"><ele>517.0</ele><time>2026-03-28T09:13:20.87Z</time></trkpt><trkpt lat="43.94997" lon="11.2809681"><ele>516.0</ele><time>2026-03-28T09:13:21.867Z</time></trkpt><trkpt lat="43.9500264" lon="11.2810916"><ele>515.0</ele><time>2026-03-28T09:13:23.867Z</time></trkpt><trkpt lat="43.9500853" lon="11.2812147"><ele>514.0</ele><time>2026-03-28T09:13:25.874Z</time></trkpt><trkpt lat="43.9501674" lon="11.2813564"><ele>510.2</ele><time>2026-03-28T09:13:27.876Z</time></trkpt><trkpt lat="43.9502012" lon="11.2814486"><ele>506.4</ele><time>2026-03-28T09:13:28.875Z</time></trkpt><trkpt lat="43.9502273" lon="11.281534"><ele>502.6</ele><time>2026-03-28T09:13:29.872Z</time></trkpt><trkpt lat="43.9502501" lon="11.2816927"><ele>498.8</ele><time>2026-03-28T09:13:31.873Z</time></trkpt><trkpt lat="43.9502537" lon="11.2818725"><ele>495.0</ele><time>2026-03-28T09:13:33.878Z</time></trkpt><trkpt lat="43.9502644" lon="11.2819671"><ele>495.0</ele><time>2026-03-28T09:13:34.875Z</time></trkpt><trkpt lat="43.9502891" lon="11.2821313"><ele>495.0</ele><time>2026-03-28T09:13:36.866Z</time></trkpt><trkpt lat="43.9502906" lon="11.2822766"><ele>495.0</ele><time>2026-03-28T09:13:38.89Z</time></trkpt><trkpt lat="43.9503598" lon="11.2824244"><ele>495.0</ele><time>2026-03-28T09:13:40.877Z</time></trkpt><trkpt lat="43.9504068" lon="11.2824863"><ele>495.0</ele><time>2026-03-28T09:13:41.874Z</time></trkpt><trkpt lat="43.9504857" lon="11.2826108"><ele>493.42857142857133</ele><time>2026-03-28T09:13:43.885Z</time></trkpt><trkpt lat="43.9505141" lon="11.282691"><ele>491.85714285714283</ele><time>2026-03-28T09:13:44.884Z</time></trkpt><trkpt lat="43.9505426" lon="11.2827769"><ele>490.2857142857142</ele><time>2026-03-28T09:13:45.898Z</time></trkpt><trkpt lat="43.9505746" lon="11.2828638"><ele>488.71428571428567</ele><time>2026-03-28T09:13:46.883Z</time></trkpt><trkpt lat="43.950613" lon="11.2829447"><ele>487.1428571428571</ele><time>2026-03-28T09:13:47.882Z</time></trkpt><trkpt lat="43.9506621" lon="11.28301"><ele>485.57142857142856</ele><time>2026-03-28T09:13:48.875Z</time></trkpt><trkpt lat="43.9507202" lon="11.2830696"><ele>484.0</ele><time>2026-03-28T09:13:49.875Z</time></trkpt><trkpt lat="43.9507807" lon="11.2831274"><ele>482.4</ele><time>2026-03-28T09:13:50.885Z</time></trkpt><trkpt lat="43.9508486" lon="11.2831845"><ele>480.79999999999995</ele><time>2026-03-28T09:13:51.874Z</time></trkpt><trkpt lat="43.9509243" lon="11.2832463"><ele>479.20000000000005</ele><time>2026-03-28T09:13:52.873Z</time></trkpt><trkpt lat="43.9510075" lon="11.2833103"><ele>477.6</ele><time>2026-03-28T09:13:53.873Z</time></trkpt><trkpt lat="43.9510865" lon="11.2833644"><ele>476.0</ele><time>2026-03-28T09:13:54.872Z</time></trkpt><trkpt lat="43.9511946" lon="11.2833624"><ele>474.16666666666663</ele><time>2026-03-28T09:13:56.882Z</time></trkpt><trkpt lat="43.951261" lon="11.283269"><ele>472.3333333333333</ele><time>2026-03-28T09:13:58.876Z</time></trkpt><trkpt lat="43.9512969" lon="11.2831943"><ele>470.5</ele><time>2026-03-28T09:14:00.874Z</time></trkpt><trkpt lat="43.9513386" lon="11.2831235"><ele>468.66666666666663</ele><time>2026-03-28T09:14:25.897Z</time></trkpt><trkpt lat="43.9513517" lon="11.2829919"><ele>466.8333333333333</ele><time>2026-03-28T09:14:27.886Z</time></trkpt><trkpt lat="43.9513433" lon="11.2828971"><ele>465.0</ele><time>2026-03-28T09:14:28.88Z</time></trkpt><trkpt lat="43.9513313" lon="11.282795"><ele>465.0</ele><time>2026-03-28T09:14:29.875Z</time></trkpt><trkpt lat="43.9513288" lon="11.2826925"><ele>465.0</ele><time>2026-03-28T09:14:30.876Z</time></trkpt><trkpt lat="43.9513369" lon="11.2825935"><ele>465.0</ele><time>2026-03-28T09:14:31.878Z</time></trkpt><trkpt lat="43.9513475" lon="11.2824902"><ele>465.0</ele><time>2026-03-28T09:14:32.88Z</time></trkpt><trkpt lat="43.9513606" lon="11.2823932"><ele>465.0</ele><time>2026-03-28T09:14:33.887Z</time></trkpt><trkpt lat="43.9513698" lon="11.2823033"><ele>465.0</ele><time>2026-03-28T09:14:34.891Z</time></trkpt><trkpt lat="43.9513966" lon="11.2821369"><ele>465.5</ele><time>2026-03-28T09:14:36.89Z</time></trkpt><trkpt lat="43.9514022" lon="11.2820493"><ele>466.0</ele><time>2026-03-28T09:14:37.88Z</time></trkpt><trkpt lat="43.951409" lon="11.2819391"><ele>466.5</ele><time>2026-03-28T09:14:38.886Z</time></trkpt><trkpt lat="43.9514204" lon="11.2818272"><ele>467.0</ele><time>2026-03-28T09:14:39.886Z</time></trkpt><trkpt lat="43.9514366" lon="11.2817166"><ele>467.5</ele><time>2026-03-28T09:14:40.9Z</time></trkpt><trkpt lat="43.9514535" lon="11.2816032"><ele>468.0</ele><time>2026-03-28T09:14:41.896Z</time></trkpt><trkpt lat="43.9514631" lon="11.2814828"><ele>468.0</ele><time>2026-03-28T09:14:42.89Z</time></trkpt><trkpt lat="43.9514739" lon="11.2813569"><ele>468.0</ele><time>2026-03-28T09:14:43.881Z</time></trkpt><trkpt lat="43.951475" lon="11.2812311"><ele>468.0</ele><time>2026-03-28T09:14:44.878Z</time></trkpt><trkpt lat="43.9514646" lon="11.2811145"><ele>468.0</ele><time>2026-03-28T09:14:45.876Z</time></trkpt><trkpt lat="43.9514511" lon="11.2810097"><ele>468.0</ele><time>2026-03-28T09:14:46.891Z</time></trkpt><trkpt lat="43.951426" lon="11.2809171"><ele>468.0</ele><time>2026-03-28T09:14:47.89Z</time></trkpt><trkpt lat="43.951385" lon="11.2808224"><ele>468.0</ele><time>2026-03-28T09:14:48.878Z</time></trkpt><trkpt lat="43.9513442" lon="11.2807295"><ele>468.0</ele><time>2026-03-28T09:14:49.875Z</time></trkpt><trkpt lat="43.951296" lon="11.2806405"><ele>468.0</ele><time>2026-03-28T09:14:50.882Z</time></trkpt><trkpt lat="43.9512473" lon="11.2805618"><ele>468.0</ele><time>2026-03-28T09:14:51.889Z</time></trkpt><trkpt lat="43.95119" lon="11.2804899"><ele>468.0</ele><time>2026-03-28T09:14:52.899Z</time></trkpt><trkpt lat="43.9511186" lon="11.2804163"><ele>468.0</ele><time>2026-03-28T09:14:53.873Z</time></trkpt><trkpt lat="43.9510373" lon="11.2803365"><ele>465.5</ele><time>2026-03-28T09:14:54.862Z</time></trkpt><trkpt lat="43.9509595" lon="11.2802522"><ele>463.0</ele><time>2026-03-28T09:14:55.868Z</time></trkpt><trkpt lat="43.9508902" lon="11.2801701"><ele>460.5</ele><time>2026-03-28T09:14:56.868Z</time></trkpt><trkpt lat="43.9508486" lon="11.2800716"><ele>458.0</ele><time>2026-03-28T09:14:57.87Z</time></trkpt><trkpt lat="43.9508324" lon="11.2799726"><ele>455.5</ele><time>2026-03-28T09:14:58.866Z</time></trkpt><trkpt lat="43.9508132" lon="11.279871"><ele>453.0</ele><time>2026-03-28T09:14:59.866Z</time></trkpt><trkpt lat="43.9507936" lon="11.2797552"><ele>459.6666666666667</ele><time>2026-03-28T09:15:00.87Z</time></trkpt><trkpt lat="43.9507842" lon="11.2796264"><ele>466.33333333333337</ele><time>2026-03-28T09:15:01.881Z</time></trkpt><trkpt lat="43.95077" lon="11.2794988"><ele>473.0</ele><time>2026-03-28T09:15:02.874Z</time></trkpt><trkpt lat="43.950761" lon="11.2793935"><ele>479.6666666666667</ele><time>2026-03-28T09:15:03.872Z</time></trkpt><trkpt lat="43.9507596" lon="11.2792986"><ele>486.33333333333337</ele><time>2026-03-28T09:15:04.871Z</time></trkpt><trkpt lat="43.95076" lon="11.2792004"><ele>493.0</ele><time>2026-03-28T09:15:05.869Z</time></trkpt><trkpt lat="43.9507636" lon="11.2790391"><ele>492.6666666666667</ele><time>2026-03-28T09:15:07.869Z</time></trkpt><trkpt lat="43.9507359" lon="11.2788794"><ele>492.33333333333337</ele><time>2026-03-28T09:15:09.877Z</time></trkpt><trkpt lat="43.9507144" lon="11.2787963"><ele>492.0</ele><time>2026-03-28T09:15:10.875Z</time></trkpt><trkpt lat="43.9506857" lon="11.278702"><ele>491.66666666666663</ele><time>2026-03-28T09:15:11.886Z</time></trkpt><trkpt lat="43.9506639" lon="11.2786023"><ele>491.3333333333333</ele><time>2026-03-28T09:15:12.861Z</time></trkpt><trkpt lat="43.9506456" lon="11.2784957"><ele>491.0</ele><time>2026-03-28T09:15:13.87Z</time></trkpt><trkpt lat="43.9506383" lon="11.2783837"><ele>490.99999999999994</ele><time>2026-03-28T09:15:14.865Z</time></trkpt><trkpt lat="43.9506255" lon="11.2782792"><ele>491.0</ele><time>2026-03-28T09:15:15.883Z</time></trkpt><trkpt lat="43.9506047" lon="11.2781851"><ele>491.0</ele><time>2026-03-28T09:15:16.883Z</time></trkpt><trkpt lat="43.9505886" lon="11.2780966"><ele>491.0</ele><time>2026-03-28T09:15:17.884Z</time></trkpt><trkpt lat="43.9505716" lon="11.2779676"><ele>490.99999999999994</ele><time>2026-03-28T09:15:19.871Z</time></trkpt><trkpt lat="43.9506294" lon="11.2778263"><ele>491.0</ele><time>2026-03-28T09:15:21.873Z</time></trkpt><trkpt lat="43.950662" lon="11.2777418"><ele>491.8333333333333</ele><time>2026-03-28T09:15:22.882Z</time></trkpt><trkpt lat="43.9506813" lon="11.2776412"><ele>492.66666666666663</ele><time>2026-03-28T09:15:23.874Z</time></trkpt><trkpt lat="43.9506992" lon="11.2775313"><ele>493.5</ele><time>2026-03-28T09:15:24.872Z</time></trkpt><trkpt lat="43.9506987" lon="11.2774238"><ele>494.33333333333337</ele><time>2026-03-28T09:15:25.877Z</time></trkpt><trkpt lat="43.9506997" lon="11.2773292"><ele>495.1666666666667</ele><time>2026-03-28T09:15:26.872Z</time></trkpt><trkpt lat="43.9506914" lon="11.2771607"><ele>496.0</ele><time>2026-03-28T09:15:28.891Z</time></trkpt><trkpt lat="43.9506927" lon="11.2770678"><ele>497.1666666666667</ele><time>2026-03-28T09:15:29.896Z</time></trkpt><trkpt lat="43.9506921" lon="11.2769592"><ele>498.33333333333337</ele><time>2026-03-28T09:15:30.882Z</time></trkpt><trkpt lat="43.9506957" lon="11.2768385"><ele>499.5</ele><time>2026-03-28T09:15:31.875Z</time></trkpt><trkpt lat="43.9506988" lon="11.2767231"><ele>500.66666666666663</ele><time>2026-03-28T09:15:32.858Z</time></trkpt><trkpt lat="43.9507015" lon="11.2766119"><ele>501.8333333333333</ele><time>2026-03-28T09:15:33.861Z</time></trkpt><trkpt lat="43.9507048" lon="11.2764948"><ele>503.0</ele><time>2026-03-28T09:15:34.871Z</time></trkpt><trkpt lat="43.9507141" lon="11.2763701"><ele>503.3333333333333</ele><time>2026-03-28T09:15:35.872Z</time></trkpt><trkpt lat="43.9507293" lon="11.2762405"><ele>503.66666666666663</ele><time>2026-03-28T09:15:36.886Z</time></trkpt><trkpt lat="43.9507492" lon="11.2761132"><ele>504.0</ele><time>2026-03-28T09:15:37.878Z</time></trkpt><trkpt lat="43.9507666" lon="11.2759956"><ele>504.33333333333337</ele><time>2026-03-28T09:15:38.871Z</time></trkpt><trkpt lat="43.9507823" lon="11.2759057"><ele>504.6666666666667</ele><time>2026-03-28T09:15:39.869Z</time></trkpt><trkpt lat="43.9508184" lon="11.2758197"><ele>505.0</ele><time>2026-03-28T09:15:42.902Z</time></trkpt><trkpt lat="43.9508679" lon="11.2757552"><ele>503.1666666666667</ele><time>2026-03-28T09:15:44.877Z</time></trkpt><trkpt lat="43.9509316" lon="11.2757097"><ele>501.33333333333337</ele><time>2026-03-28T09:15:52.883Z</time></trkpt><trkpt lat="43.9510235" lon="11.2756649"><ele>499.5</ele><time>2026-03-28T09:15:55.885Z</time></trkpt><trkpt lat="43.9510929" lon="11.2756571"><ele>497.66666666666663</ele><time>2026-03-28T09:15:57.883Z</time></trkpt><trkpt lat="43.9510268" lon="11.2756702"><ele>495.8333333333333</ele><time>2026-03-28T09:16:02.888Z</time></trkpt><trkpt lat="43.950954" lon="11.275727"><ele>494.0</ele><time>2026-03-28T09:16:04.879Z</time></trkpt><trkpt lat="43.9508772" lon="11.2757582"><ele>494.99999999999994</ele><time>2026-03-28T09:16:07.895Z</time></trkpt><trkpt lat="43.9508267" lon="11.2758513"><ele>496.0</ele><time>2026-03-28T09:16:31.877Z</time></trkpt><trkpt lat="43.9507616" lon="11.2758921"><ele>497.0</ele><time>2026-03-28T09:16:34.879Z</time></trkpt><trkpt lat="43.9507292" lon="11.2757958"><ele>498.0</ele><time>2026-03-28T09:16:37.881Z</time></trkpt><trkpt lat="43.9506683" lon="11.2756834"><ele>498.99999999999994</ele><time>2026-03-28T09:16:39.875Z</time></trkpt><trkpt lat="43.9505973" lon="11.2755677"><ele>500.0</ele><time>2026-03-28T09:16:41.886Z</time></trkpt><trkpt lat="43.9505462" lon="11.2754152"><ele>499.99999999999994</ele><time>2026-03-28T09:16:43.892Z</time></trkpt><trkpt lat="43.9505136" lon="11.2752603"><ele>500.0</ele><time>2026-03-28T09:16:45.876Z</time></trkpt><trkpt lat="43.9505042" lon="11.2751669"><ele>500.0</ele><time>2026-03-28T09:16:46.877Z</time></trkpt><trkpt lat="43.9505107" lon="11.2750625"><ele>500.0</ele><time>2026-03-28T09:16:47.88Z</time></trkpt><trkpt lat="43.9505189" lon="11.2749705"><ele>499.99999999999994</ele><time>2026-03-28T09:16:48.879Z</time></trkpt><trkpt lat="43.9505358" lon="11.2748098"><ele>500.0</ele><time>2026-03-28T09:16:50.879Z</time></trkpt><trkpt lat="43.9505371" lon="11.2746689"><ele>499.66666666666663</ele><time>2026-03-28T09:16:52.879Z</time></trkpt><trkpt lat="43.9505198" lon="11.2745676"><ele>499.3333333333333</ele><time>2026-03-28T09:16:54.894Z</time></trkpt><trkpt lat="43.950513" lon="11.2744772"><ele>499.0</ele><time>2026-03-28T09:16:56.9Z</time></trkpt><trkpt lat="43.9505284" lon="11.2743367"><ele>498.66666666666663</ele><time>2026-03-28T09:16:58.897Z</time></trkpt><trkpt lat="43.9505558" lon="11.274158"><ele>498.3333333333333</ele><time>2026-03-28T09:17:00.894Z</time></trkpt><trkpt lat="43.9505657" lon="11.2740688"><ele>498.0</ele><time>2026-03-28T09:17:01.895Z</time></trkpt><trkpt lat="43.950576" lon="11.2739027"><ele>498.0</ele><time>2026-03-28T09:17:03.887Z</time></trkpt><trkpt lat="43.9505671" lon="11.2737382"><ele>497.99999999999994</ele><time>2026-03-28T09:17:05.872Z</time></trkpt><trkpt lat="43.9505666" lon="11.2735992"><ele>497.99999999999994</ele><time>2026-03-28T09:17:07.879Z</time></trkpt><trkpt lat="43.9505888" lon="11.2734778"><ele>498.0</ele><time>2026-03-28T09:17:09.883Z</time></trkpt><trkpt lat="43.9506223" lon="11.273343"><ele>498.0</ele><time>2026-03-28T09:17:11.871Z</time></trkpt><trkpt lat="43.9506388" lon="11.2732239"><ele>497.59999999999997</ele><time>2026-03-28T09:17:13.89Z</time></trkpt><trkpt lat="43.950648" lon="11.2730987"><ele>497.19999999999993</ele><time>2026-03-28T09:17:15.912Z</time></trkpt><trkpt lat="43.9506758" lon="11.2729619"><ele>496.8</ele><time>2026-03-28T09:17:17.881Z</time></trkpt><trkpt lat="43.9507243" lon="11.2728204"><ele>496.4</ele><time>2026-03-28T09:17:19.889Z</time></trkpt><trkpt lat="43.9507584" lon="11.2726839"><ele>496.0</ele><time>2026-03-28T09:17:21.891Z</time></trkpt><trkpt lat="43.9507448" lon="11.2725654"><ele>496.0</ele><time>2026-03-28T09:17:23.905Z</time></trkpt><trkpt lat="43.9507544" lon="11.2724339"><ele>496.0</ele><time>2026-03-28T09:17:25.898Z</time></trkpt><trkpt lat="43.9507576" lon="11.2723043"><ele>496.0</ele><time>2026-03-28T09:17:27.878Z</time></trkpt><trkpt lat="43.9507764" lon="11.2722091"><ele>496.0</ele><time>2026-03-28T09:18:01.9Z</time></trkpt><trkpt lat="43.9508534" lon="11.2722235"><ele>496.0</ele><time>2026-03-28T09:18:03.89Z</time></trkpt><trkpt lat="43.95096" lon="11.2722915"><ele>495.0</ele><time>2026-03-28T09:18:05.88Z</time></trkpt><trkpt lat="43.9510318" lon="11.2723177"><ele>494.0</ele><time>2026-03-28T09:18:06.868Z</time></trkpt><trkpt lat="43.9511095" lon="11.2723402"><ele>493.0</ele><time>2026-03-28T09:18:07.87Z</time></trkpt><trkpt lat="43.9511961" lon="11.2723824"><ele>492.0</ele><time>2026-03-28T09:18:08.873Z</time></trkpt><trkpt lat="43.9512926" lon="11.2724266"><ele>491.0</ele><time>2026-03-28T09:18:09.868Z</time></trkpt><trkpt lat="43.9513871" lon="11.272487"><ele>490.99999999999994</ele><time>2026-03-28T09:18:10.875Z</time></trkpt><trkpt lat="43.9514764" lon="11.2725476"><ele>491.0</ele><time>2026-03-28T09:18:11.875Z</time></trkpt><trkpt lat="43.9515678" lon="11.2725945"><ele>491.0</ele><time>2026-03-28T09:18:12.867Z</time></trkpt><trkpt lat="43.9516571" lon="11.2726259"><ele>491.0</ele><time>2026-03-28T09:18:13.868Z</time></trkpt><trkpt lat="43.9517345" lon="11.2726426"><ele>490.99999999999994</ele><time>2026-03-28T09:18:14.87Z</time></trkpt><trkpt lat="43.9518052" lon="11.2726403"><ele>491.0</ele><time>2026-03-28T09:18:15.88Z</time></trkpt><trkpt lat="43.9518751" lon="11.2726493"><ele>491.49999999999994</ele><time>2026-03-28T09:18:16.884Z</time></trkpt><trkpt lat="43.9519489" lon="11.2726769"><ele>492.0</ele><time>2026-03-28T09:18:17.879Z</time></trkpt><trkpt lat="43.9520185" lon="11.2727283"><ele>492.5</ele><time>2026-03-28T09:18:18.873Z</time></trkpt><trkpt lat="43.9520918" lon="11.2727935"><ele>493.0</ele><time>2026-03-28T09:18:19.864Z</time></trkpt><trkpt lat="43.9521662" lon="11.2728631"><ele>493.49999999999994</ele><time>2026-03-28T09:18:20.873Z</time></trkpt><trkpt lat="43.9522375" lon="11.2729326"><ele>494.0</ele><time>2026-03-28T09:18:21.879Z</time></trkpt><trkpt lat="43.9523083" lon="11.2730046"><ele>493.99999999999994</ele><time>2026-03-28T09:18:22.879Z</time></trkpt><trkpt lat="43.9523749" lon="11.2730722"><ele>494.0</ele><time>2026-03-28T09:18:23.878Z</time></trkpt><trkpt lat="43.9524364" lon="11.2731358"><ele>494.0</ele><time>2026-03-28T09:18:24.865Z</time></trkpt><trkpt lat="43.9525034" lon="11.2732042"><ele>494.0</ele><time>2026-03-28T09:18:25.867Z</time></trkpt><trkpt lat="43.9525649" lon="11.2732821"><ele>493.99999999999994</ele><time>2026-03-28T09:18:26.874Z</time></trkpt><trkpt lat="43.9526216" lon="11.2733582"><ele>494.0</ele><time>2026-03-28T09:18:27.86Z</time></trkpt><trkpt lat="43.9526763" lon="11.2734248"><ele>491.8571428571429</ele><time>2026-03-28T09:18:28.881Z</time></trkpt><trkpt lat="43.9527298" lon="11.2734815"><ele>489.71428571428567</ele><time>2026-03-28T09:18:29.876Z</time></trkpt><trkpt lat="43.9527875" lon="11.2735305"><ele>487.57142857142856</ele><time>2026-03-28T09:18:30.869Z</time></trkpt><trkpt lat="43.9528441" lon="11.2735789"><ele>485.42857142857144</ele><time>2026-03-28T09:18:31.866Z</time></trkpt><trkpt lat="43.9529002" lon="11.2736456"><ele>483.28571428571433</ele><time>2026-03-28T09:18:32.862Z</time></trkpt><trkpt lat="43.9529544" lon="11.273719"><ele>481.1428571428571</ele><time>2026-03-28T09:18:33.869Z</time></trkpt><trkpt lat="43.9530088" lon="11.2737701"><ele>479.0</ele><time>2026-03-28T09:18:34.884Z</time></trkpt><trkpt lat="43.9530714" lon="11.2738029"><ele>478.99999999999994</ele><time>2026-03-28T09:18:35.875Z</time></trkpt><trkpt lat="43.9531467" lon="11.2738273"><ele>479.0</ele><time>2026-03-28T09:18:36.882Z</time></trkpt><trkpt lat="43.9532327" lon="11.2738478"><ele>479.0</ele><time>2026-03-28T09:18:37.874Z</time></trkpt><trkpt lat="43.9533198" lon="11.2738724"><ele>479.0</ele><time>2026-03-28T09:18:38.877Z</time></trkpt><trkpt lat="43.9533983" lon="11.2739167"><ele>478.99999999999994</ele><time>2026-03-28T09:18:39.867Z</time></trkpt><trkpt lat="43.9534761" lon="11.2739817"><ele>479.0</ele><time>2026-03-28T09:18:40.868Z</time></trkpt><trkpt lat="43.9535433" lon="11.2740552"><ele>478.3333333333333</ele><time>2026-03-28T09:18:41.872Z</time></trkpt><trkpt lat="43.9536022" lon="11.2741147"><ele>477.66666666666663</ele><time>2026-03-28T09:18:42.874Z</time></trkpt><trkpt lat="43.9536865" lon="11.2742097"><ele>477.0</ele><time>2026-03-28T09:18:44.878Z</time></trkpt><trkpt lat="43.9537767" lon="11.2741472"><ele>476.33333333333337</ele><time>2026-03-28T09:18:47.872Z</time></trkpt><trkpt lat="43.9538308" lon="11.274082"><ele>475.6666666666667</ele><time>2026-03-28T09:18:48.873Z</time></trkpt><trkpt lat="43.9538932" lon="11.2740053"><ele>475.0</ele><time>2026-03-28T09:18:49.872Z</time></trkpt><trkpt lat="43.9539503" lon="11.2739282"><ele>475.00000000000006</ele><time>2026-03-28T09:18:50.873Z</time></trkpt><trkpt lat="43.9540058" lon="11.2738496"><ele>475.0</ele><time>2026-03-28T09:18:51.869Z</time></trkpt><trkpt lat="43.9540597" lon="11.2737659"><ele>475.0</ele><time>2026-03-28T09:18:52.875Z</time></trkpt><trkpt lat="43.9541168" lon="11.2736761"><ele>475.0</ele><time>2026-03-28T09:18:53.871Z</time></trkpt><trkpt lat="43.9541783" lon="11.2735821"><ele>475.00000000000006</ele><time>2026-03-28T09:18:54.87Z</time></trkpt><trkpt lat="43.954247" lon="11.2734909"><ele>475.0</ele><time>2026-03-28T09:18:55.873Z</time></trkpt><trkpt lat="43.9543232" lon="11.273407"><ele>472.2</ele><time>2026-03-28T09:18:56.868Z</time></trkpt><trkpt lat="43.9544203" lon="11.2733397"><ele>469.4</ele><time>2026-03-28T09:18:57.864Z</time></trkpt><trkpt lat="43.9545182" lon="11.2732948"><ele>466.6</ele><time>2026-03-28T09:18:58.866Z</time></trkpt><trkpt lat="43.9546117" lon="11.2732719"><ele>463.8</ele><time>2026-03-28T09:18:59.87Z</time></trkpt><trkpt lat="43.9547081" lon="11.2732584"><ele>461.0</ele><time>2026-03-28T09:19:00.868Z</time></trkpt><trkpt lat="43.9548042" lon="11.2732452"><ele>461.0</ele><time>2026-03-28T09:19:01.868Z</time></trkpt><trkpt lat="43.954882" lon="11.2732201"><ele>461.0</ele><time>2026-03-28T09:19:02.871Z</time></trkpt><trkpt lat="43.9549719" lon="11.2731238"><ele>461.0</ele><time>2026-03-28T09:19:04.874Z</time></trkpt><trkpt lat="43.9550036" lon="11.2729227"><ele>461.0</ele><time>2026-03-28T09:19:06.865Z</time></trkpt><trkpt lat="43.9550209" lon="11.272774"><ele>463.20000000000005</ele><time>2026-03-28T09:19:07.863Z</time></trkpt><trkpt lat="43.9550345" lon="11.2726297"><ele>465.40000000000003</ele><time>2026-03-28T09:19:08.854Z</time></trkpt><trkpt lat="43.9550467" lon="11.2725019"><ele>467.6</ele><time>2026-03-28T09:19:09.878Z</time></trkpt><trkpt lat="43.955069" lon="11.2723966"><ele>469.8</ele><time>2026-03-28T09:19:10.868Z</time></trkpt><trkpt lat="43.9551013" lon="11.2723142"><ele>472.0</ele><time>2026-03-28T09:19:11.879Z</time></trkpt><trkpt lat="43.9552094" lon="11.2722574"><ele>472.20000000000005</ele><time>2026-03-28T09:19:13.871Z</time></trkpt><trkpt lat="43.9552907" lon="11.272278"><ele>472.40000000000003</ele><time>2026-03-28T09:19:14.87Z</time></trkpt><trkpt lat="43.9553857" lon="11.2722946"><ele>472.59999999999997</ele><time>2026-03-28T09:19:15.866Z</time></trkpt><trkpt lat="43.9554874" lon="11.2723193"><ele>472.79999999999995</ele><time>2026-03-28T09:19:16.871Z</time></trkpt><trkpt lat="43.9555829" lon="11.2723583"><ele>473.0</ele><time>2026-03-28T09:19:17.869Z</time></trkpt><trkpt lat="43.955659" lon="11.2724236"><ele>473.0</ele><time>2026-03-28T09:19:18.871Z</time></trkpt><trkpt lat="43.9557278" lon="11.2725006"><ele>472.99999999999994</ele><time>2026-03-28T09:19:19.882Z</time></trkpt><trkpt lat="43.9557936" lon="11.2725912"><ele>472.99999999999994</ele><time>2026-03-28T09:19:20.874Z</time></trkpt><trkpt lat="43.9558555" lon="11.2726838"><ele>473.0</ele><time>2026-03-28T09:19:21.886Z</time></trkpt><trkpt lat="43.955917" lon="11.2727853"><ele>473.0</ele><time>2026-03-28T09:19:22.891Z</time></trkpt><trkpt lat="43.9559728" lon="11.2728849"><ele>472.49999999999994</ele><time>2026-03-28T09:19:23.89Z</time></trkpt><trkpt lat="43.9560226" lon="11.272978"><ele>472.0</ele><time>2026-03-28T09:19:24.891Z</time></trkpt><trkpt lat="43.9560674" lon="11.2730446"><ele>471.5</ele><time>2026-03-28T09:19:25.903Z</time></trkpt><trkpt lat="43.9561541" lon="11.273033"><ele>471.0</ele><time>2026-03-28T09:19:28.883Z</time></trkpt><trkpt lat="43.9561965" lon="11.2729297"><ele>470.49999999999994</ele><time>2026-03-28T09:19:30.887Z</time></trkpt><trkpt lat="43.9562603" lon="11.2728414"><ele>470.0</ele><time>2026-03-28T09:19:47.875Z</time></trkpt><trkpt lat="43.9563462" lon="11.2728203"><ele>470.0</ele><time>2026-03-28T09:19:49.874Z</time></trkpt><trkpt lat="43.9564566" lon="11.2727399"><ele>470.0</ele><time>2026-03-28T09:19:51.866Z</time></trkpt><trkpt lat="43.956524" lon="11.272691"><ele>470.0</ele><time>2026-03-28T09:19:52.863Z</time></trkpt><trkpt lat="43.9565854" lon="11.2726498"><ele>470.0</ele><time>2026-03-28T09:19:53.868Z</time></trkpt><trkpt lat="43.9567047" lon="11.2726448"><ele>470.0</ele><time>2026-03-28T09:19:55.868Z</time></trkpt><trkpt lat="43.9567978" lon="11.2726676"><ele>469.8333333333333</ele><time>2026-03-28T09:19:57.883Z</time></trkpt><trkpt lat="43.9568537" lon="11.2725796"><ele>469.66666666666663</ele><time>2026-03-28T09:19:59.89Z</time></trkpt><trkpt lat="43.9569276" lon="11.2726696"><ele>469.5</ele><time>2026-03-28T09:20:02.878Z</time></trkpt><trkpt lat="43.9569574" lon="11.2727881"><ele>469.33333333333337</ele><time>2026-03-28T09:20:03.863Z</time></trkpt><trkpt lat="43.9569755" lon="11.2729096"><ele>469.1666666666667</ele><time>2026-03-28T09:20:04.875Z</time></trkpt><trkpt lat="43.9569836" lon="11.2730278"><ele>469.0</ele><time>2026-03-28T09:20:05.866Z</time></trkpt><trkpt lat="43.9569991" lon="11.273154"><ele>469.0</ele><time>2026-03-28T09:20:06.858Z</time></trkpt><trkpt lat="43.9570214" lon="11.2732902"><ele>469.0</ele><time>2026-03-28T09:20:07.868Z</time></trkpt><trkpt lat="43.9570567" lon="11.273432"><ele>469.0</ele><time>2026-03-28T09:20:08.865Z</time></trkpt><trkpt lat="43.957098" lon="11.2735785"><ele>469.0</ele><time>2026-03-28T09:20:09.866Z</time></trkpt><trkpt lat="43.9571401" lon="11.2737088"><ele>469.0</ele><time>2026-03-28T09:20:10.873Z</time></trkpt><trkpt lat="43.9571794" lon="11.2738181"><ele>469.00000000000006</ele><time>2026-03-28T09:20:11.879Z</time></trkpt><trkpt lat="43.9572141" lon="11.2739046"><ele>469.0</ele><time>2026-03-28T09:20:12.878Z</time></trkpt><trkpt lat="43.9572665" lon="11.2739802"><ele>469.0</ele><time>2026-03-28T09:20:13.884Z</time></trkpt><trkpt lat="43.9573424" lon="11.2740554"><ele>469.0</ele><time>2026-03-28T09:20:14.877Z</time></trkpt><trkpt lat="43.9574292" lon="11.2741304"><ele>469.00000000000006</ele><time>2026-03-28T09:20:15.872Z</time></trkpt><trkpt lat="43.9575133" lon="11.2741922"><ele>469.0</ele><time>2026-03-28T09:20:16.876Z</time></trkpt><trkpt lat="43.957594" lon="11.2742416"><ele>468.00000000000006</ele><time>2026-03-28T09:20:17.878Z</time></trkpt><trkpt lat="43.9576655" lon="11.2742891"><ele>467.0</ele><time>2026-03-28T09:20:18.878Z</time></trkpt><trkpt lat="43.9577314" lon="11.2743269"><ele>466.0</ele><time>2026-03-28T09:20:19.87Z</time></trkpt><trkpt lat="43.9577904" lon="11.2743581"><ele>465.0</ele><time>2026-03-28T09:20:20.886Z</time></trkpt><trkpt lat="43.9578954" lon="11.2744224"><ele>464.00000000000006</ele><time>2026-03-28T09:20:22.866Z</time></trkpt><trkpt lat="43.9579562" lon="11.2744591"><ele>463.0</ele><time>2026-03-28T09:20:23.875Z</time></trkpt><trkpt lat="43.9580154" lon="11.2745021"><ele>463.0</ele><time>2026-03-28T09:20:24.881Z</time></trkpt><trkpt lat="43.9581302" lon="11.2745958"><ele>462.99999999999994</ele><time>2026-03-28T09:20:26.887Z</time></trkpt><trkpt lat="43.958208" lon="11.2746426"><ele>462.99999999999994</ele><time>2026-03-28T09:20:27.882Z</time></trkpt><trkpt lat="43.9582888" lon="11.2747028"><ele>463.0</ele><time>2026-03-28T09:20:28.892Z</time></trkpt><trkpt lat="43.9583764" lon="11.2747719"><ele>463.0</ele><time>2026-03-28T09:20:29.887Z</time></trkpt><trkpt lat="43.958464" lon="11.2748509"><ele>460.59999999999997</ele><time>2026-03-28T09:20:30.88Z</time></trkpt><trkpt lat="43.9585581" lon="11.2749259"><ele>458.19999999999993</ele><time>2026-03-28T09:20:31.888Z</time></trkpt><trkpt lat="43.9586492" lon="11.2749991"><ele>455.8</ele><time>2026-03-28T09:20:32.898Z</time></trkpt><trkpt lat="43.9587324" lon="11.2750733"><ele>453.4</ele><time>2026-03-28T09:20:33.882Z</time></trkpt><trkpt lat="43.9587978" lon="11.2751426"><ele>451.0</ele><time>2026-03-28T09:20:34.876Z</time></trkpt><trkpt lat="43.9588462" lon="11.2752"><ele>451.00000000000006</ele><time>2026-03-28T09:20:35.873Z</time></trkpt><trkpt lat="43.9589428" lon="11.2752748"><ele>451.0</ele><time>2026-03-28T09:20:37.874Z</time></trkpt><trkpt lat="43.9590059" lon="11.2752914"><ele>451.0</ele><time>2026-03-28T09:20:38.874Z</time></trkpt><trkpt lat="43.959078" lon="11.2753071"><ele>451.0</ele><time>2026-03-28T09:20:39.873Z</time></trkpt><trkpt lat="43.9591684" lon="11.2753162"><ele>451.00000000000006</ele><time>2026-03-28T09:20:40.867Z</time></trkpt><trkpt lat="43.9592629" lon="11.275327"><ele>451.0</ele><time>2026-03-28T09:20:41.864Z</time></trkpt><trkpt lat="43.9593524" lon="11.2753637"><ele>449.20000000000005</ele><time>2026-03-28T09:20:42.871Z</time></trkpt><trkpt lat="43.9594445" lon="11.2754257"><ele>447.40000000000003</ele><time>2026-03-28T09:20:43.87Z</time></trkpt><trkpt lat="43.9595391" lon="11.2754938"><ele>445.6</ele><time>2026-03-28T09:20:44.869Z</time></trkpt><trkpt lat="43.9596296" lon="11.2755572"><ele>443.8</ele><time>2026-03-28T09:20:45.867Z</time></trkpt><trkpt lat="43.9597077" lon="11.2756208"><ele>442.0</ele><time>2026-03-28T09:20:46.864Z</time></trkpt><trkpt lat="43.9597793" lon="11.2756939"><ele>442.00000000000006</ele><time>2026-03-28T09:20:47.873Z</time></trkpt><trkpt lat="43.9598392" lon="11.275764"><ele>442.0</ele><time>2026-03-28T09:20:48.877Z</time></trkpt><trkpt lat="43.959889" lon="11.2758386"><ele>442.0</ele><time>2026-03-28T09:20:49.869Z</time></trkpt><trkpt lat="43.9599373" lon="11.2759368"><ele>442.0</ele><time>2026-03-28T09:20:50.873Z</time></trkpt><trkpt lat="43.9599892" lon="11.2760468"><ele>442.00000000000006</ele><time>2026-03-28T09:20:51.888Z</time></trkpt><trkpt lat="43.9600386" lon="11.276144"><ele>442.0</ele><time>2026-03-28T09:20:52.873Z</time></trkpt><trkpt lat="43.9600923" lon="11.276231"><ele>441.20000000000005</ele><time>2026-03-28T09:20:53.871Z</time></trkpt><trkpt lat="43.9601362" lon="11.2762988"><ele>440.40000000000003</ele><time>2026-03-28T09:20:54.874Z</time></trkpt><trkpt lat="43.9602294" lon="11.2763666"><ele>439.59999999999997</ele><time>2026-03-28T09:20:56.879Z</time></trkpt><trkpt lat="43.9603109" lon="11.2763792"><ele>438.79999999999995</ele><time>2026-03-28T09:20:58.87Z</time></trkpt><trkpt lat="43.9604072" lon="11.2763167"><ele>438.0</ele><time>2026-03-28T09:23:39.875Z</time></trkpt><trkpt lat="43.9605005" lon="11.276223"><ele>438.0</ele><time>2026-03-28T09:23:41.872Z</time></trkpt><trkpt lat="43.9605508" lon="11.2761654"><ele>438.0</ele><time>2026-03-28T09:23:42.858Z</time></trkpt><trkpt lat="43.9606044" lon="11.2760998"><ele>438.0</ele><time>2026-03-28T09:23:43.862Z</time></trkpt><trkpt lat="43.960667" lon="11.2760253"><ele>438.0</ele><time>2026-03-28T09:23:44.862Z</time></trkpt><trkpt lat="43.960737" lon="11.2759403"><ele>438.0</ele><time>2026-03-28T09:23:45.862Z</time></trkpt><trkpt lat="43.9608137" lon="11.2758425"><ele>438.0</ele><time>2026-03-28T09:23:46.863Z</time></trkpt><trkpt lat="43.9608969" lon="11.2757466"><ele>434.59999999999997</ele><time>2026-03-28T09:23:47.862Z</time></trkpt><trkpt lat="43.9609987" lon="11.2756711"><ele>431.19999999999993</ele><time>2026-03-28T09:23:48.865Z</time></trkpt><trkpt lat="43.9610925" lon="11.2756276"><ele>427.8</ele><time>2026-03-28T09:23:49.868Z</time></trkpt><trkpt lat="43.9611876" lon="11.275611"><ele>424.4</ele><time>2026-03-28T09:23:50.865Z</time></trkpt><trkpt lat="43.9612884" lon="11.2756109"><ele>421.0</ele><time>2026-03-28T09:23:51.861Z</time></trkpt><trkpt lat="43.9613951" lon="11.2756236"><ele>421.0</ele><time>2026-03-28T09:23:52.859Z</time></trkpt><trkpt lat="43.9614901" lon="11.2756299"><ele>421.0</ele><time>2026-03-28T09:23:53.859Z</time></trkpt><trkpt lat="43.9615835" lon="11.2756125"><ele>421.0</ele><time>2026-03-28T09:23:54.858Z</time></trkpt><trkpt lat="43.9616722" lon="11.2755691"><ele>421.0</ele><time>2026-03-28T09:23:55.86Z</time></trkpt><trkpt lat="43.9617576" lon="11.2754999"><ele>421.0</ele><time>2026-03-28T09:23:56.869Z</time></trkpt><trkpt lat="43.961844" lon="11.2754164"><ele>419.20000000000005</ele><time>2026-03-28T09:23:57.875Z</time></trkpt><trkpt lat="43.9619251" lon="11.2753209"><ele>417.40000000000003</ele><time>2026-03-28T09:23:58.869Z</time></trkpt><trkpt lat="43.9620035" lon="11.2752122"><ele>415.6</ele><time>2026-03-28T09:23:59.873Z</time></trkpt><trkpt lat="43.9620755" lon="11.2751004"><ele>413.8</ele><time>2026-03-28T09:24:00.871Z</time></trkpt><trkpt lat="43.962144" lon="11.274992"><ele>412.0</ele><time>2026-03-28T09:24:01.866Z</time></trkpt><trkpt lat="43.9622098" lon="11.2748796"><ele>412.8</ele><time>2026-03-28T09:24:02.875Z</time></trkpt><trkpt lat="43.9622772" lon="11.2747672"><ele>413.6</ele><time>2026-03-28T09:24:03.869Z</time></trkpt><trkpt lat="43.9623424" lon="11.2746616"><ele>414.40000000000003</ele><time>2026-03-28T09:24:04.868Z</time></trkpt><trkpt lat="43.9624074" lon="11.2745598"><ele>415.20000000000005</ele><time>2026-03-28T09:24:05.868Z</time></trkpt><trkpt lat="43.9624709" lon="11.2744551"><ele>416.0</ele><time>2026-03-28T09:24:06.87Z</time></trkpt><trkpt lat="43.9625418" lon="11.2743431"><ele>416.8</ele><time>2026-03-28T09:24:07.872Z</time></trkpt><trkpt lat="43.9626167" lon="11.2742236"><ele>417.6</ele><time>2026-03-28T09:24:08.858Z</time></trkpt><trkpt lat="43.9626887" lon="11.2740939"><ele>418.4</ele><time>2026-03-28T09:24:09.875Z</time></trkpt><trkpt lat="43.9627563" lon="11.2739644"><ele>419.2</ele><time>2026-03-28T09:24:10.874Z</time></trkpt><trkpt lat="43.9628155" lon="11.2738526"><ele>420.0</ele><time>2026-03-28T09:24:11.871Z</time></trkpt><trkpt lat="43.9628749" lon="11.2737722"><ele>420.0</ele><time>2026-03-28T09:24:12.879Z</time></trkpt><trkpt lat="43.9629422" lon="11.2737317"><ele>420.0</ele><time>2026-03-28T09:24:13.871Z</time></trkpt><trkpt lat="43.9630326" lon="11.2737156"><ele>420.0</ele><time>2026-03-28T09:24:14.867Z</time></trkpt><trkpt lat="43.9631335" lon="11.273718"><ele>420.0</ele><time>2026-03-28T09:24:15.857Z</time></trkpt><trkpt lat="43.9632445" lon="11.2737319"><ele>420.0</ele><time>2026-03-28T09:24:16.861Z</time></trkpt><trkpt lat="43.9633524" lon="11.2737513"><ele>416.2</ele><time>2026-03-28T09:24:17.855Z</time></trkpt><trkpt lat="43.9634614" lon="11.2737824"><ele>412.4</ele><time>2026-03-28T09:24:18.859Z</time></trkpt><trkpt lat="43.9635585" lon="11.273817"><ele>408.6</ele><time>2026-03-28T09:24:19.854Z</time></trkpt><trkpt lat="43.9636556" lon="11.2738466"><ele>404.8</ele><time>2026-03-28T09:24:20.864Z</time></trkpt><trkpt lat="43.9637529" lon="11.2738667"><ele>401.0</ele><time>2026-03-28T09:24:21.862Z</time></trkpt><trkpt lat="43.963856" lon="11.2738757"><ele>401.0</ele><time>2026-03-28T09:24:22.865Z</time></trkpt><trkpt lat="43.9639561" lon="11.2738681"><ele>401.0</ele><time>2026-03-28T09:24:23.865Z</time></trkpt><trkpt lat="43.9640578" lon="11.2738436"><ele>401.0</ele><time>2026-03-28T09:24:24.866Z</time></trkpt><trkpt lat="43.9641607" lon="11.2738048"><ele>401.0</ele><time>2026-03-28T09:24:25.885Z</time></trkpt><trkpt lat="43.9642501" lon="11.2737304"><ele>401.0</ele><time>2026-03-28T09:24:26.895Z</time></trkpt><trkpt lat="43.9643249" lon="11.2736426"><ele>395.99999999999994</ele><time>2026-03-28T09:24:27.876Z</time></trkpt><trkpt lat="43.9643741" lon="11.2735709"><ele>391.0</ele><time>2026-03-28T09:24:28.891Z</time></trkpt><trkpt lat="43.964441" lon="11.2734808"><ele>386.0</ele><time>2026-03-28T09:24:30.888Z</time></trkpt><trkpt lat="43.9643973" lon="11.2735923"><ele>381.0</ele><time>2026-03-28T09:24:33.894Z</time></trkpt><trkpt lat="43.9643636" lon="11.2736827"><ele>376.0</ele><time>2026-03-28T09:24:34.888Z</time></trkpt><trkpt lat="43.9643103" lon="11.2737885"><ele>371.0</ele><time>2026-03-28T09:24:35.881Z</time></trkpt><trkpt lat="43.9642488" lon="11.2739061"><ele>374.0</ele><time>2026-03-28T09:24:36.887Z</time></trkpt><trkpt lat="43.9641743" lon="11.2740197"><ele>377.0</ele><time>2026-03-28T09:24:37.884Z</time></trkpt><trkpt lat="43.964096" lon="11.2741247"><ele>380.0</ele><time>2026-03-28T09:24:38.877Z</time></trkpt><trkpt lat="43.9640216" lon="11.2742092"><ele>383.0</ele><time>2026-03-28T09:24:39.87Z</time></trkpt><trkpt lat="43.9639568" lon="11.2742841"><ele>386.0</ele><time>2026-03-28T09:24:40.869Z</time></trkpt><trkpt lat="43.9639118" lon="11.2743885"><ele>386.0</ele><time>2026-03-28T09:24:42.866Z</time></trkpt><trkpt lat="43.9640253" lon="11.2744624"><ele>386.0</ele><time>2026-03-28T09:24:44.872Z</time></trkpt><trkpt lat="43.9641062" lon="11.2745022"><ele>386.0</ele><time>2026-03-28T09:24:45.881Z</time></trkpt><trkpt lat="43.9641716" lon="11.2745308"><ele>386.0</ele><time>2026-03-28T09:24:46.879Z</time></trkpt><trkpt lat="43.9642555" lon="11.2745907"><ele>386.0</ele><time>2026-03-28T09:24:48.887Z</time></trkpt><trkpt lat="43.9643318" lon="11.2747157"><ele>381.6</ele><time>2026-03-28T09:24:50.877Z</time></trkpt><trkpt lat="43.9643715" lon="11.2747888"><ele>377.20000000000005</ele><time>2026-03-28T09:24:51.872Z</time></trkpt><trkpt lat="43.9644424" lon="11.2749099"><ele>372.79999999999995</ele><time>2026-03-28T09:24:53.879Z</time></trkpt><trkpt lat="43.9645212" lon="11.2749997"><ele>368.4</ele><time>2026-03-28T09:24:55.876Z</time></trkpt><trkpt lat="43.9646292" lon="11.2750801"><ele>364.0</ele><time>2026-03-28T09:24:57.871Z</time></trkpt><trkpt lat="43.9646995" lon="11.2751269"><ele>364.0</ele><time>2026-03-28T09:24:58.885Z</time></trkpt><trkpt lat="43.9647667" lon="11.2751765"><ele>364.0</ele><time>2026-03-28T09:24:59.876Z</time></trkpt><trkpt lat="43.9648625" lon="11.2752689"><ele>364.0</ele><time>2026-03-28T09:25:01.875Z</time></trkpt><trkpt lat="43.9648801" lon="11.275364"><ele>364.0</ele><time>2026-03-28T09:25:03.89Z</time></trkpt><trkpt lat="43.9648205" lon="11.2754368"><ele>364.0</ele><time>2026-03-28T09:25:05.88Z</time></trkpt><trkpt lat="43.9647591" lon="11.2754992"><ele>364.0</ele><time>2026-03-28T09:25:07.87Z</time></trkpt><trkpt lat="43.9646996" lon="11.2755821"><ele>363.16666666666663</ele><time>2026-03-28T09:25:09.869Z</time></trkpt><trkpt lat="43.9646552" lon="11.2756647"><ele>362.3333333333333</ele><time>2026-03-28T09:25:11.877Z</time></trkpt><trkpt lat="43.9646019" lon="11.2757498"><ele>361.5</ele><time>2026-03-28T09:25:13.885Z</time></trkpt><trkpt lat="43.9645428" lon="11.2758879"><ele>360.6666666666667</ele><time>2026-03-28T09:25:15.872Z</time></trkpt><trkpt lat="43.9644929" lon="11.2760013"><ele>359.83333333333337</ele><time>2026-03-28T09:25:17.873Z</time></trkpt><trkpt lat="43.9644641" lon="11.2761061"><ele>359.0</ele><time>2026-03-28T09:25:19.878Z</time></trkpt><trkpt lat="43.9644512" lon="11.2762106"><ele>359.0</ele><time>2026-03-28T09:25:21.89Z</time></trkpt><trkpt lat="43.9644284" lon="11.2763183"><ele>359.0</ele><time>2026-03-28T09:25:23.885Z</time></trkpt><trkpt lat="43.9643963" lon="11.2764153"><ele>359.0</ele><time>2026-03-28T09:25:25.879Z</time></trkpt><trkpt lat="43.9643646" lon="11.2765333"><ele>359.0</ele><time>2026-03-28T09:25:28.868Z</time></trkpt><trkpt lat="43.9643885" lon="11.2766254"><ele>359.0</ele><time>2026-03-28T09:25:30.883Z</time></trkpt><trkpt lat="43.9644676" lon="11.276736"><ele>359.0</ele><time>2026-03-28T09:25:32.886Z</time></trkpt><trkpt lat="43.9645201" lon="11.2768056"><ele>357.6666666666667</ele><time>2026-03-28T09:25:33.86Z</time></trkpt><trkpt lat="43.9645716" lon="11.2768756"><ele>356.33333333333337</ele><time>2026-03-28T09:25:34.867Z</time></trkpt><trkpt lat="43.9646086" lon="11.2769598"><ele>355.0</ele><time>2026-03-28T09:25:35.866Z</time></trkpt><trkpt lat="43.9646413" lon="11.2770526"><ele>353.6666666666667</ele><time>2026-03-28T09:25:36.855Z</time></trkpt><trkpt lat="43.9646631" lon="11.2771495"><ele>352.3333333333333</ele><time>2026-03-28T09:25:37.857Z</time></trkpt><trkpt lat="43.9646568" lon="11.2772888"><ele>351.0</ele><time>2026-03-28T09:25:39.856Z</time></trkpt><trkpt lat="43.9646833" lon="11.2774367"><ele>350.4</ele><time>2026-03-28T09:25:41.87Z</time></trkpt><trkpt lat="43.9647145" lon="11.277608"><ele>349.8</ele><time>2026-03-28T09:25:43.882Z</time></trkpt><trkpt lat="43.964738" lon="11.2777272"><ele>349.2</ele><time>2026-03-28T09:25:44.886Z</time></trkpt><trkpt lat="43.9647678" lon="11.2778506"><ele>348.59999999999997</ele><time>2026-03-28T09:25:45.869Z</time></trkpt><trkpt lat="43.9647991" lon="11.2779818"><ele>348.0</ele><time>2026-03-28T09:25:46.868Z</time></trkpt><trkpt lat="43.9648255" lon="11.2781035"><ele>348.0</ele><time>2026-03-28T09:25:47.862Z</time></trkpt><trkpt lat="43.9648369" lon="11.2782079"><ele>348.0</ele><time>2026-03-28T09:25:48.891Z</time></trkpt><trkpt lat="43.9648267" lon="11.2783241"><ele>348.0</ele><time>2026-03-28T09:25:50.883Z</time></trkpt><trkpt lat="43.9647905" lon="11.2784491"><ele>348.0</ele><time>2026-03-28T09:25:52.885Z</time></trkpt><trkpt lat="43.9647329" lon="11.2785861"><ele>348.0</ele><time>2026-03-28T09:25:54.884Z</time></trkpt><trkpt lat="43.9646492" lon="11.2787313"><ele>348.0</ele><time>2026-03-28T09:25:56.883Z</time></trkpt><trkpt lat="43.9645933" lon="11.2788133"><ele>348.0</ele><time>2026-03-28T09:25:57.868Z</time></trkpt><trkpt lat="43.9645286" lon="11.2788971"><ele>348.0</ele><time>2026-03-28T09:25:58.883Z</time></trkpt><trkpt lat="43.9644668" lon="11.2789914"><ele>348.0</ele><time>2026-03-28T09:25:59.892Z</time></trkpt><trkpt lat="43.9643964" lon="11.2790797"><ele>348.0</ele><time>2026-03-28T09:26:00.89Z</time></trkpt><trkpt lat="43.9643142" lon="11.2791406"><ele>346.4</ele><time>2026-03-28T09:26:01.89Z</time></trkpt><trkpt lat="43.9642336" lon="11.279191"><ele>344.79999999999995</ele><time>2026-03-28T09:26:02.896Z</time></trkpt><trkpt lat="43.9641517" lon="11.2792214"><ele>343.2</ele><time>2026-03-28T09:26:03.894Z</time></trkpt><trkpt lat="43.964055" lon="11.2792314"><ele>341.6</ele><time>2026-03-28T09:26:04.882Z</time></trkpt><trkpt lat="43.9639511" lon="11.279231"><ele>340.0</ele><time>2026-03-28T09:26:05.879Z</time></trkpt><trkpt lat="43.9638474" lon="11.2792175"><ele>343.2</ele><time>2026-03-28T09:26:06.887Z</time></trkpt><trkpt lat="43.9637502" lon="11.279174"><ele>346.4</ele><time>2026-03-28T09:26:07.878Z</time></trkpt><trkpt lat="43.9636599" lon="11.2791336"><ele>349.6</ele><time>2026-03-28T09:26:08.884Z</time></trkpt><trkpt lat="43.9635887" lon="11.2791236"><ele>352.8</ele><time>2026-03-28T09:26:09.885Z</time></trkpt><trkpt lat="43.9634973" lon="11.279195"><ele>356.0</ele><time>2026-03-28T09:26:11.854Z</time></trkpt><trkpt lat="43.9634101" lon="11.2792548"><ele>357.6666666666667</ele><time>2026-03-28T09:26:13.867Z</time></trkpt><trkpt lat="43.9632889" lon="11.2792904"><ele>359.33333333333337</ele><time>2026-03-28T09:26:15.866Z</time></trkpt><trkpt lat="43.9632263" lon="11.2793268"><ele>361.0</ele><time>2026-03-28T09:26:16.877Z</time></trkpt><trkpt lat="43.9631668" lon="11.2793761"><ele>362.6666666666667</ele><time>2026-03-28T09:26:17.89Z</time></trkpt><trkpt lat="43.9631082" lon="11.2794264"><ele>364.3333333333333</ele><time>2026-03-28T09:26:18.894Z</time></trkpt><trkpt lat="43.9630283" lon="11.2795238"><ele>366.0</ele><time>2026-03-28T09:26:20.875Z</time></trkpt><trkpt lat="43.9630036" lon="11.2796302"><ele>363.0</ele><time>2026-03-28T09:26:22.884Z</time></trkpt><trkpt lat="43.9630316" lon="11.279794"><ele>360.0</ele><time>2026-03-28T09:26:24.858Z</time></trkpt><trkpt lat="43.9630368" lon="11.2798838"><ele>357.0</ele><time>2026-03-28T09:26:25.86Z</time></trkpt><trkpt lat="43.9630479" lon="11.2799845"><ele>354.0</ele><time>2026-03-28T09:26:26.865Z</time></trkpt><trkpt lat="43.9630586" lon="11.2800863"><ele>351.0</ele><time>2026-03-28T09:26:27.857Z</time></trkpt><trkpt lat="43.9630311" lon="11.280256"><ele>351.0</ele><time>2026-03-28T09:26:29.851Z</time></trkpt><trkpt lat="43.9629577" lon="11.2803591"><ele>351.0</ele><time>2026-03-28T09:26:31.865Z</time></trkpt><trkpt lat="43.9629477" lon="11.280466"><ele>351.0</ele><time>2026-03-28T09:26:33.856Z</time></trkpt><trkpt lat="43.9630395" lon="11.2805556"><ele>351.0</ele><time>2026-03-28T09:26:35.86Z</time></trkpt><trkpt lat="43.9631024" lon="11.2805856"><ele>351.0</ele><time>2026-03-28T09:26:36.839Z</time></trkpt><trkpt lat="43.9631792" lon="11.2806215"><ele>351.0</ele><time>2026-03-28T09:26:37.845Z</time></trkpt><trkpt lat="43.9632638" lon="11.2806381"><ele>353.1666666666667</ele><time>2026-03-28T09:26:38.842Z</time></trkpt><trkpt lat="43.9633415" lon="11.280636"><ele>355.3333333333333</ele><time>2026-03-28T09:26:39.845Z</time></trkpt><trkpt lat="43.9634114" lon="11.2806374"><ele>357.5</ele><time>2026-03-28T09:26:40.856Z</time></trkpt><trkpt lat="43.9634861" lon="11.2806478"><ele>359.66666666666663</ele><time>2026-03-28T09:26:41.86Z</time></trkpt><trkpt lat="43.9635623" lon="11.2806818"><ele>361.8333333333333</ele><time>2026-03-28T09:26:42.87Z</time></trkpt><trkpt lat="43.9636241" lon="11.2807404"><ele>364.0</ele><time>2026-03-28T09:26:43.875Z</time></trkpt><trkpt lat="43.963675" lon="11.2808203"><ele>359.3333333333333</ele><time>2026-03-28T09:26:44.866Z</time></trkpt><trkpt lat="43.9637227" lon="11.2809172"><ele>354.66666666666663</ele><time>2026-03-28T09:26:45.877Z</time></trkpt><trkpt lat="43.9637656" lon="11.2810139"><ele>350.0</ele><time>2026-03-28T09:26:46.878Z</time></trkpt><trkpt lat="43.9638095" lon="11.2811093"><ele>345.3333333333333</ele><time>2026-03-28T09:26:47.886Z</time></trkpt><trkpt lat="43.963855" lon="11.2811993"><ele>340.6666666666667</ele><time>2026-03-28T09:26:48.889Z</time></trkpt><trkpt lat="43.9639106" lon="11.2812885"><ele>336.0</ele><time>2026-03-28T09:26:49.884Z</time></trkpt><trkpt lat="43.9639651" lon="11.2813779"><ele>334.20000000000005</ele><time>2026-03-28T09:26:50.887Z</time></trkpt><trkpt lat="43.9640112" lon="11.2814734"><ele>332.40000000000003</ele><time>2026-03-28T09:26:51.897Z</time></trkpt><trkpt lat="43.9640499" lon="11.2815748"><ele>330.6</ele><time>2026-03-28T09:26:52.892Z</time></trkpt><trkpt lat="43.9640817" lon="11.2816665"><ele>328.8</ele><time>2026-03-28T09:26:53.876Z</time></trkpt><trkpt lat="43.9641559" lon="11.281755"><ele>327.0</ele><time>2026-03-28T09:26:55.883Z</time></trkpt><trkpt lat="43.964298" lon="11.2817523"><ele>327.0</ele><time>2026-03-28T09:26:57.907Z</time></trkpt><trkpt lat="43.9643715" lon="11.2817647"><ele>327.0</ele><time>2026-03-28T09:26:58.902Z</time></trkpt><trkpt lat="43.9644512" lon="11.2818003"><ele>327.0</ele><time>2026-03-28T09:26:59.906Z</time></trkpt><trkpt lat="43.9645231" lon="11.281831"><ele>327.0</ele><time>2026-03-28T09:27:00.898Z</time></trkpt><trkpt lat="43.964624" lon="11.2818993"><ele>327.0</ele><time>2026-03-28T09:27:02.895Z</time></trkpt><trkpt lat="43.9647029" lon="11.2819775"><ele>327.0</ele><time>2026-03-28T09:27:04.877Z</time></trkpt><trkpt lat="43.9647809" lon="11.2820602"><ele>327.0</ele><time>2026-03-28T09:27:06.873Z</time></trkpt><trkpt lat="43.9648296" lon="11.2821866"><ele>327.0</ele><time>2026-03-28T09:27:08.873Z</time></trkpt><trkpt lat="43.9648756" lon="11.2823222"><ele>327.0</ele><time>2026-03-28T09:27:10.868Z</time></trkpt><trkpt lat="43.9649058" lon="11.2824101"><ele>327.0</ele><time>2026-03-28T09:27:11.868Z</time></trkpt><trkpt lat="43.9649432" lon="11.282484"><ele>327.0</ele><time>2026-03-28T09:27:12.866Z</time></trkpt><trkpt lat="43.9649906" lon="11.2825437"><ele>327.0</ele><time>2026-03-28T09:27:13.865Z</time></trkpt><trkpt lat="43.9650525" lon="11.2826463"><ele>325.0</ele><time>2026-03-28T09:27:15.872Z</time></trkpt><trkpt lat="43.9651029" lon="11.2827698"><ele>323.0</ele><time>2026-03-28T09:27:17.872Z</time></trkpt><trkpt lat="43.9651647" lon="11.2828845"><ele>321.0</ele><time>2026-03-28T09:27:19.869Z</time></trkpt><trkpt lat="43.9652694" lon="11.2830071"><ele>319.0</ele><time>2026-03-28T09:27:21.869Z</time></trkpt><trkpt lat="43.9653513" lon="11.2830733"><ele>317.0</ele><time>2026-03-28T09:27:22.869Z</time></trkpt><trkpt lat="43.9654378" lon="11.2831316"><ele>317.0</ele><time>2026-03-28T09:27:23.878Z</time></trkpt><trkpt lat="43.965518" lon="11.2831562"><ele>317.0</ele><time>2026-03-28T09:27:24.872Z</time></trkpt><trkpt lat="43.9655969" lon="11.2831644"><ele>317.0</ele><time>2026-03-28T09:27:25.875Z</time></trkpt><trkpt lat="43.9656896" lon="11.2831939"><ele>317.0</ele><time>2026-03-28T09:27:26.875Z</time></trkpt><trkpt lat="43.9657816" lon="11.2832313"><ele>317.0</ele><time>2026-03-28T09:27:27.876Z</time></trkpt><trkpt lat="43.9658655" lon="11.2832617"><ele>317.0</ele><time>2026-03-28T09:27:28.867Z</time></trkpt><trkpt lat="43.9659518" lon="11.2833008"><ele>315.83333333333337</ele><time>2026-03-28T09:27:29.878Z</time></trkpt><trkpt lat="43.9660204" lon="11.2833278"><ele>314.6666666666667</ele><time>2026-03-28T09:27:30.876Z</time></trkpt><trkpt lat="43.9660847" lon="11.283355"><ele>313.5</ele><time>2026-03-28T09:27:31.87Z</time></trkpt><trkpt lat="43.966151" lon="11.283408"><ele>312.3333333333333</ele><time>2026-03-28T09:27:32.887Z</time></trkpt><trkpt lat="43.9662148" lon="11.2834974"><ele>311.16666666666663</ele><time>2026-03-28T09:27:33.876Z</time></trkpt><trkpt lat="43.9662843" lon="11.2835983"><ele>310.0</ele><time>2026-03-28T09:27:34.871Z</time></trkpt><trkpt lat="43.9663537" lon="11.283678"><ele>310.0</ele><time>2026-03-28T09:27:35.875Z</time></trkpt><trkpt lat="43.9664191" lon="11.2837292"><ele>310.0</ele><time>2026-03-28T09:27:36.868Z</time></trkpt><trkpt lat="43.9664819" lon="11.2837728"><ele>310.0</ele><time>2026-03-28T09:27:37.871Z</time></trkpt><trkpt lat="43.96654" lon="11.2838152"><ele>310.0</ele><time>2026-03-28T09:27:38.879Z</time></trkpt><trkpt lat="43.9666021" lon="11.2838518"><ele>310.0</ele><time>2026-03-28T09:27:39.869Z</time></trkpt><trkpt lat="43.9666608" lon="11.2839005"><ele>310.0</ele><time>2026-03-28T09:27:40.88Z</time></trkpt><trkpt lat="43.9667185" lon="11.2839655"><ele>310.0</ele><time>2026-03-28T09:27:41.877Z</time></trkpt><trkpt lat="43.9667639" lon="11.2840447"><ele>311.3333333333333</ele><time>2026-03-28T09:27:42.87Z</time></trkpt><trkpt lat="43.966793" lon="11.2841455"><ele>312.66666666666663</ele><time>2026-03-28T09:27:43.86Z</time></trkpt><trkpt lat="43.9668335" lon="11.2842325"><ele>314.0</ele><time>2026-03-28T09:27:44.873Z</time></trkpt><trkpt lat="43.9668776" lon="11.2842984"><ele>315.3333333333333</ele><time>2026-03-28T09:27:45.874Z</time></trkpt><trkpt lat="43.9669609" lon="11.2842833"><ele>316.6666666666667</ele><time>2026-03-28T09:27:47.872Z</time></trkpt><trkpt lat="43.9670141" lon="11.2842066"><ele>318.0</ele><time>2026-03-28T09:27:48.872Z</time></trkpt><trkpt lat="43.967078" lon="11.2841264"><ele>318.0</ele><time>2026-03-28T09:27:49.876Z</time></trkpt><trkpt lat="43.9671329" lon="11.2840683"><ele>318.0</ele><time>2026-03-28T09:27:50.878Z</time></trkpt><trkpt lat="43.9672509" lon="11.2840653"><ele>318.0</ele><time>2026-03-28T09:27:52.89Z</time></trkpt><trkpt lat="43.9673275" lon="11.2841154"><ele>318.0</ele><time>2026-03-28T09:27:53.888Z</time></trkpt><trkpt lat="43.9674026" lon="11.284135"><ele>318.0</ele><time>2026-03-28T09:27:54.885Z</time></trkpt><trkpt lat="43.9674667" lon="11.2841217"><ele>318.0</ele><time>2026-03-28T09:27:55.877Z</time></trkpt><trkpt lat="43.9675585" lon="11.2840391"><ele>319.0</ele><time>2026-03-28T09:27:57.883Z</time></trkpt><trkpt lat="43.9676296" lon="11.2839564"><ele>320.0</ele><time>2026-03-28T09:27:59.895Z</time></trkpt><trkpt lat="43.9676688" lon="11.2838842"><ele>321.0</ele><time>2026-03-28T09:28:00.886Z</time></trkpt><trkpt lat="43.9677116" lon="11.2837868"><ele>322.0</ele><time>2026-03-28T09:28:01.893Z</time></trkpt><trkpt lat="43.9677586" lon="11.2837012"><ele>323.0</ele><time>2026-03-28T09:28:02.888Z</time></trkpt><trkpt lat="43.9678468" lon="11.283667"><ele>324.0</ele><time>2026-03-28T09:28:04.873Z</time></trkpt><trkpt lat="43.9679328" lon="11.2837047"><ele>324.0</ele><time>2026-03-28T09:28:06.866Z</time></trkpt><trkpt lat="43.9680217" lon="11.2837061"><ele>324.0</ele><time>2026-03-28T09:28:08.88Z</time></trkpt><trkpt lat="43.9681028" lon="11.2836195"><ele>324.0</ele><time>2026-03-28T09:28:10.874Z</time></trkpt><trkpt lat="43.9681952" lon="11.2835411"><ele>324.0</ele><time>2026-03-28T09:28:12.882Z</time></trkpt><trkpt lat="43.9683101" lon="11.2835324"><ele>324.0</ele><time>2026-03-28T09:28:14.883Z</time></trkpt><trkpt lat="43.9683847" lon="11.2835405"><ele>322.6666666666667</ele><time>2026-03-28T09:28:15.877Z</time></trkpt><trkpt lat="43.9684641" lon="11.2835589"><ele>321.3333333333333</ele><time>2026-03-28T09:28:16.877Z</time></trkpt><trkpt lat="43.9685277" lon="11.283582"><ele>320.0</ele><time>2026-03-28T09:28:17.888Z</time></trkpt><trkpt lat="43.9686253" lon="11.2836331"><ele>318.66666666666663</ele><time>2026-03-28T09:28:19.888Z</time></trkpt><trkpt lat="43.9687" lon="11.2836856"><ele>317.3333333333333</ele><time>2026-03-28T09:28:21.879Z</time></trkpt><trkpt lat="43.968766" lon="11.2837908"><ele>316.0</ele><time>2026-03-28T09:28:23.882Z</time></trkpt><trkpt lat="43.968798" lon="11.283871"><ele>317.16666666666663</ele><time>2026-03-28T09:28:24.873Z</time></trkpt><trkpt lat="43.9688321" lon="11.2839695"><ele>318.3333333333333</ele><time>2026-03-28T09:28:25.88Z</time></trkpt><trkpt lat="43.9688579" lon="11.2840742"><ele>319.5</ele><time>2026-03-28T09:28:26.87Z</time></trkpt><trkpt lat="43.9688834" lon="11.284174"><ele>320.6666666666667</ele><time>2026-03-28T09:28:27.865Z</time></trkpt><trkpt lat="43.9689216" lon="11.284255"><ele>321.83333333333337</ele><time>2026-03-28T09:28:28.886Z</time></trkpt><trkpt lat="43.9690054" lon="11.2843646"><ele>323.0</ele><time>2026-03-28T09:28:30.865Z</time></trkpt><trkpt lat="43.9690937" lon="11.2844743"><ele>323.0</ele><time>2026-03-28T09:28:32.872Z</time></trkpt><trkpt lat="43.9691437" lon="11.284554"><ele>323.0</ele><time>2026-03-28T09:28:33.873Z</time></trkpt><trkpt lat="43.9692028" lon="11.2846678"><ele>323.0</ele><time>2026-03-28T09:28:34.872Z</time></trkpt><trkpt lat="43.9692553" lon="11.284785"><ele>323.0</ele><time>2026-03-28T09:28:35.88Z</time></trkpt><trkpt lat="43.9692986" lon="11.2848874"><ele>323.0</ele><time>2026-03-28T09:28:36.881Z</time></trkpt><trkpt lat="43.9693424" lon="11.2849708"><ele>323.0</ele><time>2026-03-28T09:28:37.88Z</time></trkpt><trkpt lat="43.9693965" lon="11.2850428"><ele>322.6666666666667</ele><time>2026-03-28T09:28:38.876Z</time></trkpt><trkpt lat="43.9694641" lon="11.2850855"><ele>322.33333333333337</ele><time>2026-03-28T09:28:39.877Z</time></trkpt><trkpt lat="43.969536" lon="11.2850916"><ele>322.0</ele><time>2026-03-28T09:28:40.876Z</time></trkpt><trkpt lat="43.9696089" lon="11.2850672"><ele>321.6666666666667</ele><time>2026-03-28T09:28:41.875Z</time></trkpt><trkpt lat="43.9696724" lon="11.2850206"><ele>321.3333333333333</ele><time>2026-03-28T09:28:42.867Z</time></trkpt><trkpt lat="43.9697538" lon="11.2849346"><ele>321.0</ele><time>2026-03-28T09:28:44.88Z</time></trkpt><trkpt lat="43.969854" lon="11.2848056"><ele>320.57142857142856</ele><time>2026-03-28T09:28:46.881Z</time></trkpt><trkpt lat="43.9699029" lon="11.2847326"><ele>320.1428571428571</ele><time>2026-03-28T09:28:47.878Z</time></trkpt><trkpt lat="43.9699535" lon="11.2846613"><ele>319.71428571428567</ele><time>2026-03-28T09:28:48.878Z</time></trkpt><trkpt lat="43.9700033" lon="11.2845847"><ele>319.2857142857143</ele><time>2026-03-28T09:28:49.876Z</time></trkpt><trkpt lat="43.970061" lon="11.2845127"><ele>318.8571428571429</ele><time>2026-03-28T09:28:50.878Z</time></trkpt><trkpt lat="43.9701251" lon="11.2844558"><ele>318.4285714285714</ele><time>2026-03-28T09:28:51.867Z</time></trkpt><trkpt lat="43.9701888" lon="11.2844135"><ele>318.0</ele><time>2026-03-28T09:28:52.87Z</time></trkpt><trkpt lat="43.970289" lon="11.2843512"><ele>317.5</ele><time>2026-03-28T09:28:54.873Z</time></trkpt><trkpt lat="43.9703679" lon="11.2843126"><ele>317.0</ele><time>2026-03-28T09:28:56.886Z</time></trkpt><trkpt lat="43.9704715" lon="11.2842752"><ele>316.5</ele><time>2026-03-28T09:28:58.882Z</time></trkpt><trkpt lat="43.9705326" lon="11.2842422"><ele>316.0</ele><time>2026-03-28T09:28:59.896Z</time></trkpt><trkpt lat="43.9706005" lon="11.2842106"><ele>315.5</ele><time>2026-03-28T09:29:00.905Z</time></trkpt><trkpt lat="43.9706705" lon="11.2841825"><ele>315.0</ele><time>2026-03-28T09:29:01.901Z</time></trkpt><trkpt lat="43.9707403" lon="11.2841439"><ele>315.0</ele><time>2026-03-28T09:29:02.898Z</time></trkpt><trkpt lat="43.9708106" lon="11.2841084"><ele>315.0</ele><time>2026-03-28T09:29:03.868Z</time></trkpt><trkpt lat="43.9708836" lon="11.2840905"><ele>315.0</ele><time>2026-03-28T09:29:04.895Z</time></trkpt><trkpt lat="43.9709527" lon="11.2840918"><ele>315.0</ele><time>2026-03-28T09:29:05.894Z</time></trkpt><trkpt lat="43.9710623" lon="11.2840896"><ele>315.0</ele><time>2026-03-28T09:29:07.873Z</time></trkpt><trkpt lat="43.9711365" lon="11.2840756"><ele>315.0</ele><time>2026-03-28T09:29:09.89Z</time></trkpt><trkpt lat="43.9712311" lon="11.2840766"><ele>313.6666666666667</ele><time>2026-03-28T09:29:11.881Z</time></trkpt><trkpt lat="43.9713199" lon="11.2840521"><ele>312.3333333333333</ele><time>2026-03-28T09:29:13.915Z</time></trkpt><trkpt lat="43.9714355" lon="11.2839667"><ele>311.0</ele><time>2026-03-28T09:29:15.883Z</time></trkpt><trkpt lat="43.9714981" lon="11.2839011"><ele>309.66666666666663</ele><time>2026-03-28T09:29:16.883Z</time></trkpt><trkpt lat="43.9715549" lon="11.2838387"><ele>308.3333333333333</ele><time>2026-03-28T09:29:17.884Z</time></trkpt><trkpt lat="43.9716206" lon="11.2837871"><ele>307.0</ele><time>2026-03-28T09:29:18.892Z</time></trkpt><trkpt lat="43.9716964" lon="11.2837465"><ele>306.3333333333333</ele><time>2026-03-28T09:29:19.886Z</time></trkpt><trkpt lat="43.9717771" lon="11.283704"><ele>305.66666666666663</ele><time>2026-03-28T09:29:20.901Z</time></trkpt><trkpt lat="43.9718543" lon="11.2836526"><ele>305.0</ele><time>2026-03-28T09:29:21.886Z</time></trkpt><trkpt lat="43.9719237" lon="11.2835978"><ele>304.3333333333333</ele><time>2026-03-28T09:29:22.902Z</time></trkpt><trkpt lat="43.9719933" lon="11.2835465"><ele>303.6666666666667</ele><time>2026-03-28T09:29:23.894Z</time></trkpt><trkpt lat="43.9720644" lon="11.2834903"><ele>303.0</ele><time>2026-03-28T09:29:24.877Z</time></trkpt><trkpt lat="43.9721343" lon="11.2834348"><ele>303.0</ele><time>2026-03-28T09:29:25.893Z</time></trkpt><trkpt lat="43.9722049" lon="11.2833815"><ele>303.0</ele><time>2026-03-28T09:29:26.906Z</time></trkpt><trkpt lat="43.9722731" lon="11.2833308"><ele>303.0</ele><time>2026-03-28T09:29:27.9Z</time></trkpt><trkpt lat="43.9723411" lon="11.2832765"><ele>303.0</ele><time>2026-03-28T09:29:28.908Z</time></trkpt><trkpt lat="43.9724075" lon="11.2832227"><ele>303.0</ele><time>2026-03-28T09:29:29.889Z</time></trkpt><trkpt lat="43.9724769" lon="11.2831625"><ele>303.0</ele><time>2026-03-28T09:29:30.898Z</time></trkpt><trkpt lat="43.9725463" lon="11.2830949"><ele>300.4</ele><time>2026-03-28T09:29:31.906Z</time></trkpt><trkpt lat="43.9726154" lon="11.2830149"><ele>297.8</ele><time>2026-03-28T09:29:32.896Z</time></trkpt><trkpt lat="43.9726912" lon="11.2829305"><ele>295.2</ele><time>2026-03-28T09:29:33.872Z</time></trkpt><trkpt lat="43.9727778" lon="11.2828571"><ele>292.6</ele><time>2026-03-28T09:29:34.884Z</time></trkpt><trkpt lat="43.9728701" lon="11.2828019"><ele>290.0</ele><time>2026-03-28T09:29:35.873Z</time></trkpt><trkpt lat="43.9729664" lon="11.2827719"><ele>290.0</ele><time>2026-03-28T09:29:36.872Z</time></trkpt><trkpt lat="43.9730544" lon="11.2827479"><ele>290.0</ele><time>2026-03-28T09:29:37.885Z</time></trkpt><trkpt lat="43.9731306" lon="11.2827212"><ele>290.0</ele><time>2026-03-28T09:29:38.868Z</time></trkpt><trkpt lat="43.9731983" lon="11.2826983"><ele>290.0</ele><time>2026-03-28T09:29:39.874Z</time></trkpt><trkpt lat="43.9732633" lon="11.2826932"><ele>290.0</ele><time>2026-03-28T09:29:40.894Z</time></trkpt><trkpt lat="43.9733357" lon="11.2827226"><ele>290.0</ele><time>2026-03-28T09:29:41.881Z</time></trkpt><trkpt lat="43.9734073" lon="11.2827929"><ele>289.0</ele><time>2026-03-28T09:29:42.877Z</time></trkpt><trkpt lat="43.9734674" lon="11.2828827"><ele>288.0</ele><time>2026-03-28T09:29:43.879Z</time></trkpt><trkpt lat="43.9735241" lon="11.2829685"><ele>287.0</ele><time>2026-03-28T09:29:44.879Z</time></trkpt><trkpt lat="43.9735741" lon="11.2830553"><ele>286.0</ele><time>2026-03-28T09:29:45.857Z</time></trkpt><trkpt lat="43.9736202" lon="11.2831515"><ele>285.0</ele><time>2026-03-28T09:29:46.867Z</time></trkpt><trkpt lat="43.9736573" lon="11.2832567"><ele>284.0</ele><time>2026-03-28T09:29:47.879Z</time></trkpt><trkpt lat="43.9736914" lon="11.2833725"><ele>284.0</ele><time>2026-03-28T09:29:48.861Z</time></trkpt><trkpt lat="43.973725" lon="11.2835022"><ele>284.0</ele><time>2026-03-28T09:29:49.868Z</time></trkpt><trkpt lat="43.9737596" lon="11.2836245"><ele>284.0</ele><time>2026-03-28T09:29:50.86Z</time></trkpt><trkpt lat="43.9737878" lon="11.2837332"><ele>284.0</ele><time>2026-03-28T09:29:51.873Z</time></trkpt><trkpt lat="43.9738124" lon="11.283822"><ele>284.0</ele><time>2026-03-28T09:29:52.871Z</time></trkpt><trkpt lat="43.9738957" lon="11.283925"><ele>283.83333333333337</ele><time>2026-03-28T09:29:54.876Z</time></trkpt><trkpt lat="43.9739632" lon="11.2839489"><ele>283.6666666666667</ele><time>2026-03-28T09:29:55.877Z</time></trkpt><trkpt lat="43.9740352" lon="11.2839641"><ele>283.5</ele><time>2026-03-28T09:29:56.882Z</time></trkpt><trkpt lat="43.9741001" lon="11.2839808"><ele>283.3333333333333</ele><time>2026-03-28T09:29:57.867Z</time></trkpt><trkpt lat="43.9742059" lon="11.2840419"><ele>283.16666666666663</ele><time>2026-03-28T09:29:59.874Z</time></trkpt><trkpt lat="43.9742202" lon="11.2841561"><ele>283.0</ele><time>2026-03-28T09:30:01.873Z</time></trkpt><trkpt lat="43.9741856" lon="11.2842817"><ele>283.0</ele><time>2026-03-28T09:30:03.876Z</time></trkpt><trkpt lat="43.9741218" lon="11.284411"><ele>283.0</ele><time>2026-03-28T09:30:05.866Z</time></trkpt><trkpt lat="43.9740457" lon="11.2845401"><ele>283.0</ele><time>2026-03-28T09:30:07.857Z</time></trkpt><trkpt lat="43.9739924" lon="11.2846093"><ele>283.0</ele><time>2026-03-28T09:30:08.873Z</time></trkpt><trkpt lat="43.9739361" lon="11.2846814"><ele>283.0</ele><time>2026-03-28T09:30:09.875Z</time></trkpt><trkpt lat="43.9738839" lon="11.2847555"><ele>280.16666666666663</ele><time>2026-03-28T09:30:10.868Z</time></trkpt><trkpt lat="43.973833" lon="11.2848334"><ele>277.3333333333333</ele><time>2026-03-28T09:30:11.868Z</time></trkpt><trkpt lat="43.9737829" lon="11.2849232"><ele>274.5</ele><time>2026-03-28T09:30:12.86Z</time></trkpt><trkpt lat="43.9737407" lon="11.2850264"><ele>271.6666666666667</ele><time>2026-03-28T09:30:13.878Z</time></trkpt><trkpt lat="43.9737103" lon="11.2851476"><ele>268.83333333333337</ele><time>2026-03-28T09:30:14.867Z</time></trkpt><trkpt lat="43.9736864" lon="11.2852738"><ele>266.0</ele><time>2026-03-28T09:30:15.87Z</time></trkpt><trkpt lat="43.9736584" lon="11.2853987"><ele>266.0</ele><time>2026-03-28T09:30:16.868Z</time></trkpt><trkpt lat="43.9736235" lon="11.2855281"><ele>266.0</ele><time>2026-03-28T09:30:17.866Z</time></trkpt><trkpt lat="43.9735902" lon="11.2856603"><ele>266.0</ele><time>2026-03-28T09:30:18.868Z</time></trkpt><trkpt lat="43.9735595" lon="11.2857775"><ele>266.0</ele><time>2026-03-28T09:30:19.867Z</time></trkpt><trkpt lat="43.9735442" lon="11.2858781"><ele>266.0</ele><time>2026-03-28T09:30:20.86Z</time></trkpt><trkpt lat="43.9735439" lon="11.285967"><ele>266.0</ele><time>2026-03-28T09:30:21.86Z</time></trkpt><trkpt lat="43.9735397" lon="11.286089"><ele>263.40000000000003</ele><time>2026-03-28T09:30:23.869Z</time></trkpt><trkpt lat="43.9734593" lon="11.2861295"><ele>260.8</ele><time>2026-03-28T09:30:25.867Z</time></trkpt><trkpt lat="43.9733245" lon="11.2860823"><ele>258.20000000000005</ele><time>2026-03-28T09:30:27.854Z</time></trkpt><trkpt lat="43.9732413" lon="11.2860339"><ele>255.60000000000002</ele><time>2026-03-28T09:30:28.856Z</time></trkpt><trkpt lat="43.9731525" lon="11.2859957"><ele>253.0</ele><time>2026-03-28T09:30:29.86Z</time></trkpt><trkpt lat="43.9730614" lon="11.2859731"><ele>252.99999999999997</ele><time>2026-03-28T09:30:30.856Z</time></trkpt><trkpt lat="43.9729705" lon="11.2859495"><ele>253.0</ele><time>2026-03-28T09:30:31.857Z</time></trkpt><trkpt lat="43.9728917" lon="11.285923"><ele>253.0</ele><time>2026-03-28T09:30:32.856Z</time></trkpt><trkpt lat="43.9728244" lon="11.2859081"><ele>253.0</ele><time>2026-03-28T09:30:33.851Z</time></trkpt><trkpt lat="43.9727603" lon="11.2859089"><ele>252.99999999999997</ele><time>2026-03-28T09:30:34.86Z</time></trkpt><trkpt lat="43.9726724" lon="11.2859825"><ele>253.0</ele><time>2026-03-28T09:30:36.856Z</time></trkpt><trkpt lat="43.9727057" lon="11.2861515"><ele>253.0</ele><time>2026-03-28T09:30:38.852Z</time></trkpt><trkpt lat="43.9727495" lon="11.2862682"><ele>253.0</ele><time>2026-03-28T09:30:39.862Z</time></trkpt><trkpt lat="43.972787" lon="11.2863856"><ele>253.0</ele><time>2026-03-28T09:30:40.858Z</time></trkpt><trkpt lat="43.972816" lon="11.2864932"><ele>253.0</ele><time>2026-03-28T09:30:41.854Z</time></trkpt><trkpt lat="43.9728475" lon="11.2865999"><ele>253.0</ele><time>2026-03-28T09:30:42.858Z</time></trkpt><trkpt lat="43.9728886" lon="11.2867243"><ele>249.5</ele><time>2026-03-28T09:30:43.86Z</time></trkpt><trkpt lat="43.9729382" lon="11.2868698"><ele>246.0</ele><time>2026-03-28T09:30:44.865Z</time></trkpt><trkpt lat="43.9729868" lon="11.287032"><ele>242.5</ele><time>2026-03-28T09:30:45.868Z</time></trkpt><trkpt lat="43.9730319" lon="11.2871968"><ele>239.0</ele><time>2026-03-28T09:30:46.866Z</time></trkpt><trkpt lat="43.9730645" lon="11.2873576"><ele>236.5</ele><time>2026-03-28T09:30:47.859Z</time></trkpt><trkpt lat="43.973077" lon="11.2875176"><ele>234.0</ele><time>2026-03-28T09:30:48.858Z</time></trkpt><trkpt lat="43.9730659" lon="11.2876734"><ele>231.5</ele><time>2026-03-28T09:30:49.863Z</time></trkpt><trkpt lat="43.9730157" lon="11.2878224"><ele>229.0</ele><time>2026-03-28T09:30:50.862Z</time></trkpt><trkpt lat="43.9729513" lon="11.2879646"><ele>228.2</ele><time>2026-03-28T09:30:51.862Z</time></trkpt><trkpt lat="43.9729025" lon="11.2881078"><ele>227.39999999999998</ele><time>2026-03-28T09:30:52.862Z</time></trkpt><trkpt lat="43.9728878" lon="11.2882512"><ele>226.6</ele><time>2026-03-28T09:30:53.867Z</time></trkpt><trkpt lat="43.9729012" lon="11.2883883"><ele>225.8</ele><time>2026-03-28T09:30:54.861Z</time></trkpt><trkpt lat="43.9729207" lon="11.2885119"><ele>225.0</ele><time>2026-03-28T09:30:55.864Z</time></trkpt><trkpt lat="43.9729288" lon="11.2886354"><ele>225.0</ele><time>2026-03-28T09:30:56.863Z</time></trkpt><trkpt lat="43.9729163" lon="11.2887632"><ele>225.0</ele><time>2026-03-28T09:30:57.862Z</time></trkpt><trkpt lat="43.9729003" lon="11.2888994"><ele>225.0</ele><time>2026-03-28T09:30:58.861Z</time></trkpt><trkpt lat="43.9729052" lon="11.2890276"><ele>225.0</ele><time>2026-03-28T09:30:59.867Z</time></trkpt><trkpt lat="43.9729426" lon="11.2891333"><ele>225.0</ele><time>2026-03-28T09:31:00.862Z</time></trkpt><trkpt lat="43.9730134" lon="11.2892128"><ele>224.4</ele><time>2026-03-28T09:31:01.869Z</time></trkpt><trkpt lat="43.9731021" lon="11.2892517"><ele>223.8</ele><time>2026-03-28T09:31:02.866Z</time></trkpt><trkpt lat="43.9731994" lon="11.2892475"><ele>223.2</ele><time>2026-03-28T09:31:03.864Z</time></trkpt><trkpt lat="43.9732985" lon="11.2891898"><ele>222.6</ele><time>2026-03-28T09:31:04.865Z</time></trkpt><trkpt lat="43.973385" lon="11.2890792"><ele>222.0</ele><time>2026-03-28T09:31:05.863Z</time></trkpt><trkpt lat="43.9734562" lon="11.2889295"><ele>222.0</ele><time>2026-03-28T09:31:06.861Z</time></trkpt><trkpt lat="43.9735251" lon="11.2887647"><ele>222.0</ele><time>2026-03-28T09:31:07.861Z</time></trkpt><trkpt lat="43.9735997" lon="11.28861"><ele>222.0</ele><time>2026-03-28T09:31:08.869Z</time></trkpt><trkpt lat="43.9736942" lon="11.2884881"><ele>222.0</ele><time>2026-03-28T09:31:09.863Z</time></trkpt><trkpt lat="43.9738061" lon="11.2884176"><ele>222.0</ele><time>2026-03-28T09:31:10.871Z</time></trkpt><trkpt lat="43.9739343" lon="11.28838"><ele>222.0</ele><time>2026-03-28T09:31:11.863Z</time></trkpt><trkpt lat="43.9740732" lon="11.2883447"><ele>222.0</ele><time>2026-03-28T09:31:12.862Z</time></trkpt><trkpt lat="43.9742114" lon="11.2883106"><ele>222.0</ele><time>2026-03-28T09:31:13.863Z</time></trkpt><trkpt lat="43.9743439" lon="11.2882748"><ele>222.5</ele><time>2026-03-28T09:31:14.861Z</time></trkpt><trkpt lat="43.9744758" lon="11.2882406"><ele>223.0</ele><time>2026-03-28T09:31:15.862Z</time></trkpt><trkpt lat="43.9746105" lon="11.2882096"><ele>223.5</ele><time>2026-03-28T09:31:16.862Z</time></trkpt><trkpt lat="43.9747468" lon="11.2881836"><ele>224.0</ele><time>2026-03-28T09:31:17.861Z</time></trkpt><trkpt lat="43.9748827" lon="11.28816"><ele>224.0</ele><time>2026-03-28T09:31:18.862Z</time></trkpt><trkpt lat="43.9750174" lon="11.28814"><ele>224.0</ele><time>2026-03-28T09:31:19.865Z</time></trkpt><trkpt lat="43.9751527" lon="11.2881244"><ele>224.0</ele><time>2026-03-28T09:31:20.866Z</time></trkpt><trkpt lat="43.9752882" lon="11.2881166"><ele>224.0</ele><time>2026-03-28T09:31:21.87Z</time></trkpt><trkpt lat="43.975422" lon="11.2881152"><ele>223.5</ele><time>2026-03-28T09:31:22.872Z</time></trkpt><trkpt lat="43.9755559" lon="11.2881143"><ele>223.0</ele><time>2026-03-28T09:31:23.869Z</time></trkpt><trkpt lat="43.9756943" lon="11.2881186"><ele>222.5</ele><time>2026-03-28T09:31:24.867Z</time></trkpt><trkpt lat="43.9758359" lon="11.2881322"><ele>222.0</ele><time>2026-03-28T09:31:25.869Z</time></trkpt><trkpt lat="43.9759739" lon="11.2881474"><ele>222.0</ele><time>2026-03-28T09:31:26.869Z</time></trkpt><trkpt lat="43.9761084" lon="11.2881701"><ele>222.0</ele><time>2026-03-28T09:31:27.867Z</time></trkpt><trkpt lat="43.976243" lon="11.288194"><ele>222.0</ele><time>2026-03-28T09:31:28.866Z</time></trkpt><trkpt lat="43.9763796" lon="11.288223"><ele>222.0</ele><time>2026-03-28T09:31:29.869Z</time></trkpt><trkpt lat="43.9765182" lon="11.2882589"><ele>222.0</ele><time>2026-03-28T09:31:30.868Z</time></trkpt><trkpt lat="43.9766559" lon="11.2882846"><ele>222.0</ele><time>2026-03-28T09:31:31.867Z</time></trkpt><trkpt lat="43.976795" lon="11.2883102"><ele>222.0</ele><time>2026-03-28T09:31:32.87Z</time></trkpt><trkpt lat="43.976936" lon="11.2883325"><ele>222.0</ele><time>2026-03-28T09:31:33.865Z</time></trkpt><trkpt lat="43.977072" lon="11.288355"><ele>223.5</ele><time>2026-03-28T09:31:34.867Z</time></trkpt><trkpt lat="43.9772126" lon="11.2883834"><ele>225.0</ele><time>2026-03-28T09:31:35.87Z</time></trkpt><trkpt lat="43.9773542" lon="11.2884066"><ele>226.5</ele><time>2026-03-28T09:31:36.868Z</time></trkpt><trkpt lat="43.9774929" lon="11.2884297"><ele>228.0</ele><time>2026-03-28T09:31:37.87Z</time></trkpt><trkpt lat="43.9776272" lon="11.2884563"><ele>229.0</ele><time>2026-03-28T09:31:38.868Z</time></trkpt><trkpt lat="43.9777579" lon="11.2884795"><ele>230.0</ele><time>2026-03-28T09:31:39.867Z</time></trkpt><trkpt lat="43.9778918" lon="11.2884969"><ele>231.0</ele><time>2026-03-28T09:31:40.866Z</time></trkpt><trkpt lat="43.9780258" lon="11.2885158"><ele>232.0</ele><time>2026-03-28T09:31:41.876Z</time></trkpt><trkpt lat="43.9781427" lon="11.2885289"><ele>231.99999999999997</ele><time>2026-03-28T09:31:42.867Z</time></trkpt><trkpt lat="43.9782498" lon="11.2885347"><ele>232.0</ele><time>2026-03-28T09:31:43.862Z</time></trkpt><trkpt lat="43.9783499" lon="11.2885411"><ele>232.0</ele><time>2026-03-28T09:31:44.868Z</time></trkpt><trkpt lat="43.9784382" lon="11.2885464"><ele>232.0</ele><time>2026-03-28T09:31:45.866Z</time></trkpt><trkpt lat="43.9785093" lon="11.288561"><ele>231.99999999999997</ele><time>2026-03-28T09:31:46.865Z</time></trkpt><trkpt lat="43.9785734" lon="11.2885909"><ele>232.0</ele><time>2026-03-28T09:31:47.864Z</time></trkpt><trkpt lat="43.9786225" lon="11.2886905"><ele>232.0</ele><time>2026-03-28T09:31:49.87Z</time></trkpt><trkpt lat="43.9785672" lon="11.2887759"><ele>232.0</ele><time>2026-03-28T09:31:51.878Z</time></trkpt><trkpt lat="43.9784341" lon="11.2888065"><ele>232.0</ele><time>2026-03-28T09:31:53.862Z</time></trkpt><trkpt lat="43.9783466" lon="11.2888028"><ele>232.0</ele><time>2026-03-28T09:31:54.865Z</time></trkpt><trkpt lat="43.9782405" lon="11.288789"><ele>232.0</ele><time>2026-03-28T09:31:55.868Z</time></trkpt><trkpt lat="43.978128" lon="11.2887659"><ele>232.0</ele><time>2026-03-28T09:31:56.864Z</time></trkpt><trkpt lat="43.9780066" lon="11.2887421"><ele>232.0</ele><time>2026-03-28T09:31:57.867Z</time></trkpt><trkpt lat="43.9778829" lon="11.2887191"><ele>232.0</ele><time>2026-03-28T09:31:58.866Z</time></trkpt><trkpt lat="43.9777642" lon="11.2887027"><ele>232.0</ele><time>2026-03-28T09:31:59.866Z</time></trkpt><trkpt lat="43.9776567" lon="11.2886905"><ele>232.0</ele><time>2026-03-28T09:32:00.866Z</time></trkpt><trkpt lat="43.9775552" lon="11.2886923"><ele>232.0</ele><time>2026-03-28T09:32:01.866Z</time></trkpt><trkpt lat="43.9774665" lon="11.288709"><ele>232.0</ele><time>2026-03-28T09:32:02.863Z</time></trkpt><trkpt lat="43.9773896" lon="11.2887505"><ele>232.0</ele><time>2026-03-28T09:32:03.865Z</time></trkpt><trkpt lat="43.9773247" lon="11.2888303"><ele>232.0</ele><time>2026-03-28T09:32:04.859Z</time></trkpt><trkpt lat="43.9772601" lon="11.2889367"><ele>232.25</ele><time>2026-03-28T09:32:05.859Z</time></trkpt><trkpt lat="43.9771911" lon="11.2890718"><ele>232.5</ele><time>2026-03-28T09:32:06.861Z</time></trkpt><trkpt lat="43.9771186" lon="11.2892195"><ele>232.75</ele><time>2026-03-28T09:32:07.86Z</time></trkpt><trkpt lat="43.9770416" lon="11.2893741"><ele>233.0</ele><time>2026-03-28T09:32:08.861Z</time></trkpt><trkpt lat="43.9769634" lon="11.289532"><ele>233.0</ele><time>2026-03-28T09:32:09.862Z</time></trkpt><trkpt lat="43.9768869" lon="11.2896919"><ele>233.0</ele><time>2026-03-28T09:32:10.861Z</time></trkpt><trkpt lat="43.9768117" lon="11.2898555"><ele>233.0</ele><time>2026-03-28T09:32:11.868Z</time></trkpt><trkpt lat="43.9767312" lon="11.2900222"><ele>233.0</ele><time>2026-03-28T09:32:12.867Z</time></trkpt><trkpt lat="43.9766393" lon="11.2902049"><ele>232.75</ele><time>2026-03-28T09:32:13.863Z</time></trkpt><trkpt lat="43.9765494" lon="11.2903844"><ele>232.5</ele><time>2026-03-28T09:32:14.862Z</time></trkpt><trkpt lat="43.9764668" lon="11.2905496"><ele>232.25</ele><time>2026-03-28T09:32:15.858Z</time></trkpt><trkpt lat="43.9763947" lon="11.2906957"><ele>232.0</ele><time>2026-03-28T09:32:16.858Z</time></trkpt><trkpt lat="43.9763251" lon="11.2908344"><ele>232.0</ele><time>2026-03-28T09:32:17.861Z</time></trkpt><trkpt lat="43.9762598" lon="11.2909683"><ele>232.0</ele><time>2026-03-28T09:32:18.86Z</time></trkpt><trkpt lat="43.9761965" lon="11.291093"><ele>232.0</ele><time>2026-03-28T09:32:19.859Z</time></trkpt><trkpt lat="43.9761328" lon="11.2911995"><ele>232.0</ele><time>2026-03-28T09:32:20.869Z</time></trkpt><trkpt lat="43.9760732" lon="11.2912795"><ele>232.0</ele><time>2026-03-28T09:32:21.865Z</time></trkpt><trkpt lat="43.9759795" lon="11.2913416"><ele>231.99999999999997</ele><time>2026-03-28T09:32:23.86Z</time></trkpt><trkpt lat="43.9758825" lon="11.2913049"><ele>232.0</ele><time>2026-03-28T09:32:25.861Z</time></trkpt><trkpt lat="43.9758127" lon="11.2912802"><ele>232.0</ele><time>2026-03-28T09:32:26.862Z</time></trkpt><trkpt lat="43.9757302" lon="11.291266"><ele>232.0</ele><time>2026-03-28T09:32:27.857Z</time></trkpt><trkpt lat="43.9756602" lon="11.2912674"><ele>231.99999999999997</ele><time>2026-03-28T09:32:28.853Z</time></trkpt><trkpt lat="43.9755583" lon="11.2913184"><ele>232.0</ele><time>2026-03-28T09:32:30.85Z</time></trkpt><trkpt lat="43.9755507" lon="11.2914057"><ele>231.16666666666666</ele><time>2026-03-28T09:32:32.868Z</time></trkpt><trkpt lat="43.9755875" lon="11.29148"><ele>230.33333333333331</ele><time>2026-03-28T09:32:48.882Z</time></trkpt><trkpt lat="43.9756166" lon="11.2915999"><ele>229.5</ele><time>2026-03-28T09:32:50.873Z</time></trkpt><trkpt lat="43.9756444" lon="11.2916958"><ele>228.66666666666669</ele><time>2026-03-28T09:32:51.874Z</time></trkpt><trkpt lat="43.9756856" lon="11.2918035"><ele>227.83333333333334</ele><time>2026-03-28T09:32:52.856Z</time></trkpt><trkpt lat="43.9757321" lon="11.291916"><ele>227.0</ele><time>2026-03-28T09:32:53.867Z</time></trkpt><trkpt lat="43.9757775" lon="11.2920258"><ele>227.0</ele><time>2026-03-28T09:32:54.859Z</time></trkpt><trkpt lat="43.9758224" lon="11.2921342"><ele>227.0</ele><time>2026-03-28T09:32:55.861Z</time></trkpt><trkpt lat="43.9758679" lon="11.2922484"><ele>227.0</ele><time>2026-03-28T09:32:56.864Z</time></trkpt><trkpt lat="43.9759118" lon="11.2923704"><ele>227.0</ele><time>2026-03-28T09:32:57.862Z</time></trkpt><trkpt lat="43.9759553" lon="11.2924961"><ele>227.0</ele><time>2026-03-28T09:32:58.861Z</time></trkpt><trkpt lat="43.9759955" lon="11.2926199"><ele>229.2</ele><time>2026-03-28T09:32:59.87Z</time></trkpt><trkpt lat="43.9760333" lon="11.2927441"><ele>231.39999999999998</ele><time>2026-03-28T09:33:00.86Z</time></trkpt><trkpt lat="43.9760668" lon="11.2928698"><ele>233.60000000000002</ele><time>2026-03-28T09:33:01.869Z</time></trkpt><trkpt lat="43.9760979" lon="11.2929961"><ele>235.8</ele><time>2026-03-28T09:33:02.861Z</time></trkpt><trkpt lat="43.9761284" lon="11.2931235"><ele>238.0</ele><time>2026-03-28T09:33:03.861Z</time></trkpt><trkpt lat="43.9761565" lon="11.2932516"><ele>239.4</ele><time>2026-03-28T09:33:04.859Z</time></trkpt><trkpt lat="43.9761844" lon="11.2933801"><ele>240.8</ele><time>2026-03-28T09:33:05.861Z</time></trkpt><trkpt lat="43.9762171" lon="11.2935035"><ele>242.2</ele><time>2026-03-28T09:33:06.858Z</time></trkpt><trkpt lat="43.976254" lon="11.2936249"><ele>243.6</ele><time>2026-03-28T09:33:07.861Z</time></trkpt><trkpt lat="43.9762906" lon="11.2937382"><ele>245.0</ele><time>2026-03-28T09:33:08.857Z</time></trkpt><trkpt lat="43.9763224" lon="11.293832"><ele>244.8</ele><time>2026-03-28T09:33:09.86Z</time></trkpt><trkpt lat="43.9763655" lon="11.2939323"><ele>244.6</ele><time>2026-03-28T09:33:11.856Z</time></trkpt><trkpt lat="43.9763671" lon="11.2940718"><ele>244.39999999999998</ele><time>2026-03-28T09:33:14.875Z</time></trkpt><trkpt lat="43.9763674" lon="11.2941771"><ele>244.2</ele><time>2026-03-28T09:33:15.856Z</time></trkpt><trkpt lat="43.9763599" lon="11.2943073"><ele>244.0</ele><time>2026-03-28T09:33:16.855Z</time></trkpt><trkpt lat="43.9763436" lon="11.2944475"><ele>244.0</ele><time>2026-03-28T09:33:17.855Z</time></trkpt><trkpt lat="43.9763217" lon="11.294592"><ele>243.99999999999997</ele><time>2026-03-28T09:33:18.853Z</time></trkpt><trkpt lat="43.9762912" lon="11.294734"><ele>243.99999999999997</ele><time>2026-03-28T09:33:19.856Z</time></trkpt><trkpt lat="43.9762599" lon="11.2948733"><ele>244.0</ele><time>2026-03-28T09:33:20.859Z</time></trkpt><trkpt lat="43.9762242" lon="11.2950122"><ele>244.0</ele><time>2026-03-28T09:33:21.858Z</time></trkpt><trkpt lat="43.9761852" lon="11.2951498"><ele>244.0</ele><time>2026-03-28T09:33:22.863Z</time></trkpt><trkpt lat="43.9761416" lon="11.2952868"><ele>243.99999999999997</ele><time>2026-03-28T09:33:23.86Z</time></trkpt><trkpt lat="43.9761014" lon="11.2954272"><ele>243.99999999999997</ele><time>2026-03-28T09:33:24.863Z</time></trkpt><trkpt lat="43.9760657" lon="11.2955718"><ele>244.0</ele><time>2026-03-28T09:33:25.872Z</time></trkpt><trkpt lat="43.9760326" lon="11.2957203"><ele>244.0</ele><time>2026-03-28T09:33:26.873Z</time></trkpt><trkpt lat="43.9760077" lon="11.2958716"><ele>244.0</ele><time>2026-03-28T09:33:27.877Z</time></trkpt><trkpt lat="43.975988" lon="11.2960266"><ele>243.99999999999997</ele><time>2026-03-28T09:33:28.882Z</time></trkpt><trkpt lat="43.9759721" lon="11.296175"><ele>243.99999999999997</ele><time>2026-03-28T09:33:29.891Z</time></trkpt><trkpt lat="43.9759495" lon="11.2963132"><ele>244.0</ele><time>2026-03-28T09:33:30.892Z</time></trkpt><trkpt lat="43.9759138" lon="11.2964417"><ele>244.0</ele><time>2026-03-28T09:33:31.889Z</time></trkpt><trkpt lat="43.9758596" lon="11.2965631"><ele>245.6</ele><time>2026-03-28T09:33:32.873Z</time></trkpt><trkpt lat="43.9757908" lon="11.2966777"><ele>247.2</ele><time>2026-03-28T09:33:33.859Z</time></trkpt><trkpt lat="43.9757201" lon="11.296782"><ele>248.79999999999998</ele><time>2026-03-28T09:33:34.861Z</time></trkpt><trkpt lat="43.9756548" lon="11.2968869"><ele>250.39999999999998</ele><time>2026-03-28T09:33:35.869Z</time></trkpt><trkpt lat="43.9756044" lon="11.2969956"><ele>252.0</ele><time>2026-03-28T09:33:36.858Z</time></trkpt><trkpt lat="43.9755615" lon="11.2971147"><ele>252.0</ele><time>2026-03-28T09:33:37.86Z</time></trkpt><trkpt lat="43.9755263" lon="11.2972385"><ele>252.0</ele><time>2026-03-28T09:33:38.861Z</time></trkpt><trkpt lat="43.9754917" lon="11.2973616"><ele>252.0</ele><time>2026-03-28T09:33:39.86Z</time></trkpt><trkpt lat="43.975456" lon="11.2974776"><ele>252.0</ele><time>2026-03-28T09:33:40.866Z</time></trkpt><trkpt lat="43.9754119" lon="11.2975862"><ele>252.0</ele><time>2026-03-28T09:33:41.86Z</time></trkpt><trkpt lat="43.9753534" lon="11.2976831"><ele>251.39999999999998</ele><time>2026-03-28T09:33:42.868Z</time></trkpt><trkpt lat="43.9752831" lon="11.2977587"><ele>250.79999999999998</ele><time>2026-03-28T09:33:43.858Z</time></trkpt><trkpt lat="43.9752046" lon="11.2978185"><ele>250.2</ele><time>2026-03-28T09:33:44.865Z</time></trkpt><trkpt lat="43.9751175" lon="11.297876"><ele>249.6</ele><time>2026-03-28T09:33:45.887Z</time></trkpt><trkpt lat="43.9750241" lon="11.2979376"><ele>249.0</ele><time>2026-03-28T09:33:46.871Z</time></trkpt><trkpt lat="43.9749318" lon="11.2980048"><ele>251.2</ele><time>2026-03-28T09:33:47.872Z</time></trkpt><trkpt lat="43.9748386" lon="11.298076"><ele>253.39999999999998</ele><time>2026-03-28T09:33:48.864Z</time></trkpt><trkpt lat="43.9747455" lon="11.2981597"><ele>255.6</ele><time>2026-03-28T09:33:49.871Z</time></trkpt><trkpt lat="43.9746566" lon="11.2982513"><ele>257.8</ele><time>2026-03-28T09:33:50.87Z</time></trkpt><trkpt lat="43.9745699" lon="11.2983512"><ele>260.0</ele><time>2026-03-28T09:33:51.873Z</time></trkpt><trkpt lat="43.9744877" lon="11.2984567"><ele>260.0</ele><time>2026-03-28T09:33:52.874Z</time></trkpt><trkpt lat="43.974409" lon="11.2985718"><ele>260.0</ele><time>2026-03-28T09:33:53.875Z</time></trkpt><trkpt lat="43.9743349" lon="11.2986975"><ele>260.0</ele><time>2026-03-28T09:33:54.869Z</time></trkpt><trkpt lat="43.9742672" lon="11.2988336"><ele>260.0</ele><time>2026-03-28T09:33:55.862Z</time></trkpt><trkpt lat="43.9742043" lon="11.2989784"><ele>262.5</ele><time>2026-03-28T09:33:56.87Z</time></trkpt><trkpt lat="43.9741483" lon="11.2991276"><ele>265.0</ele><time>2026-03-28T09:33:57.866Z</time></trkpt><trkpt lat="43.9740905" lon="11.2992733"><ele>267.5</ele><time>2026-03-28T09:33:58.864Z</time></trkpt><trkpt lat="43.9740329" lon="11.2994152"><ele>270.0</ele><time>2026-03-28T09:33:59.869Z</time></trkpt><trkpt lat="43.9739767" lon="11.2995498"><ele>270.0</ele><time>2026-03-28T09:34:00.863Z</time></trkpt><trkpt lat="43.9739208" lon="11.2996736"><ele>270.0</ele><time>2026-03-28T09:34:01.869Z</time></trkpt><trkpt lat="43.9738669" lon="11.2997831"><ele>270.0</ele><time>2026-03-28T09:34:02.874Z</time></trkpt><trkpt lat="43.9738204" lon="11.2998779"><ele>270.0</ele><time>2026-03-28T09:34:03.861Z</time></trkpt><trkpt lat="43.9737862" lon="11.2999709"><ele>270.0</ele><time>2026-03-28T09:34:04.865Z</time></trkpt><trkpt lat="43.9737602" lon="11.3000695"><ele>270.0</ele><time>2026-03-28T09:34:05.866Z</time></trkpt><trkpt lat="43.9737508" lon="11.3001694"><ele>268.3333333333333</ele><time>2026-03-28T09:34:06.861Z</time></trkpt><trkpt lat="43.973763" lon="11.3002641"><ele>266.6666666666667</ele><time>2026-03-28T09:34:07.872Z</time></trkpt><trkpt lat="43.9737996" lon="11.3003402"><ele>265.0</ele><time>2026-03-28T09:34:08.864Z</time></trkpt><trkpt lat="43.9738633" lon="11.3003936"><ele>263.33333333333337</ele><time>2026-03-28T09:34:09.86Z</time></trkpt><trkpt lat="43.973942" lon="11.3004406"><ele>261.6666666666667</ele><time>2026-03-28T09:34:10.861Z</time></trkpt><trkpt lat="43.9740269" lon="11.3004919"><ele>260.0</ele><time>2026-03-28T09:34:11.864Z</time></trkpt><trkpt lat="43.9741192" lon="11.3005467"><ele>259.4</ele><time>2026-03-28T09:34:12.865Z</time></trkpt><trkpt lat="43.9742152" lon="11.300608"><ele>258.8</ele><time>2026-03-28T09:34:13.864Z</time></trkpt><trkpt lat="43.9743093" lon="11.3006785"><ele>258.2</ele><time>2026-03-28T09:34:14.864Z</time></trkpt><trkpt lat="43.9744019" lon="11.3007463"><ele>257.6</ele><time>2026-03-28T09:34:15.87Z</time></trkpt><trkpt lat="43.97449" lon="11.3008096"><ele>257.0</ele><time>2026-03-28T09:34:16.861Z</time></trkpt><trkpt lat="43.9745768" lon="11.3008706"><ele>257.0</ele><time>2026-03-28T09:34:17.863Z</time></trkpt><trkpt lat="43.9746667" lon="11.3009306"><ele>257.0</ele><time>2026-03-28T09:34:18.863Z</time></trkpt><trkpt lat="43.9747567" lon="11.3009818"><ele>257.0</ele><time>2026-03-28T09:34:19.866Z</time></trkpt><trkpt lat="43.9748341" lon="11.3010135"><ele>257.0</ele><time>2026-03-28T09:34:20.867Z</time></trkpt><trkpt lat="43.9749235" lon="11.3010258"><ele>257.0</ele><time>2026-03-28T09:34:22.865Z</time></trkpt><trkpt lat="43.9750172" lon="11.3010287"><ele>256.83333333333337</ele><time>2026-03-28T09:34:25.876Z</time></trkpt><trkpt lat="43.9751371" lon="11.3010641"><ele>256.6666666666667</ele><time>2026-03-28T09:34:27.87Z</time></trkpt><trkpt lat="43.9752058" lon="11.3010955"><ele>256.5</ele><time>2026-03-28T09:34:28.863Z</time></trkpt><trkpt lat="43.9752782" lon="11.3011417"><ele>256.3333333333333</ele><time>2026-03-28T09:34:29.869Z</time></trkpt><trkpt lat="43.9753514" lon="11.3011957"><ele>256.16666666666663</ele><time>2026-03-28T09:34:30.872Z</time></trkpt><trkpt lat="43.9754082" lon="11.3012398"><ele>256.0</ele><time>2026-03-28T09:34:31.866Z</time></trkpt><trkpt lat="43.9754909" lon="11.3013102"><ele>255.99999999999997</ele><time>2026-03-28T09:34:33.864Z</time></trkpt><trkpt lat="43.9755521" lon="11.3013868"><ele>256.0</ele><time>2026-03-28T09:34:35.864Z</time></trkpt><trkpt lat="43.9756256" lon="11.3014921"><ele>256.0</ele><time>2026-03-28T09:34:37.865Z</time></trkpt><trkpt lat="43.9756825" lon="11.3015722"><ele>256.0</ele><time>2026-03-28T09:34:39.864Z</time></trkpt><trkpt lat="43.9757437" lon="11.3016267"><ele>255.99999999999997</ele><time>2026-03-28T09:34:41.875Z</time></trkpt><trkpt lat="43.9758184" lon="11.3016753"><ele>256.0</ele><time>2026-03-28T09:34:43.884Z</time></trkpt><trkpt lat="43.9759022" lon="11.3017141"><ele>257.3333333333333</ele><time>2026-03-28T09:34:45.881Z</time></trkpt><trkpt lat="43.9759739" lon="11.3017663"><ele>258.66666666666663</ele><time>2026-03-28T09:34:47.881Z</time></trkpt><trkpt lat="43.9760459" lon="11.3018316"><ele>260.0</ele><time>2026-03-28T09:34:49.885Z</time></trkpt><trkpt lat="43.9761376" lon="11.3018962"><ele>261.3333333333333</ele><time>2026-03-28T09:34:51.871Z</time></trkpt><trkpt lat="43.9761992" lon="11.3019285"><ele>262.6666666666667</ele><time>2026-03-28T09:34:52.875Z</time></trkpt><trkpt lat="43.976261" lon="11.3019599"><ele>264.0</ele><time>2026-03-28T09:34:53.87Z</time></trkpt><trkpt lat="43.9763636" lon="11.3019961"><ele>264.0</ele><time>2026-03-28T09:34:55.891Z</time></trkpt><trkpt lat="43.9764523" lon="11.3020311"><ele>264.0</ele><time>2026-03-28T09:34:57.886Z</time></trkpt><trkpt lat="43.9765624" lon="11.3020959"><ele>264.0</ele><time>2026-03-28T09:34:59.876Z</time></trkpt><trkpt lat="43.9766223" lon="11.302128"><ele>264.0</ele><time>2026-03-28T09:35:00.861Z</time></trkpt><trkpt lat="43.9766916" lon="11.3021582"><ele>264.0</ele><time>2026-03-28T09:35:01.864Z</time></trkpt><trkpt lat="43.9767705" lon="11.3021868"><ele>264.0</ele><time>2026-03-28T09:35:02.864Z</time></trkpt><trkpt lat="43.9768624" lon="11.3022083"><ele>264.0</ele><time>2026-03-28T09:35:03.861Z</time></trkpt><trkpt lat="43.9769675" lon="11.3022226"><ele>264.0</ele><time>2026-03-28T09:35:04.86Z</time></trkpt><trkpt lat="43.9770822" lon="11.302239"><ele>264.0</ele><time>2026-03-28T09:35:05.856Z</time></trkpt><trkpt lat="43.9771949" lon="11.3022693"><ele>264.0</ele><time>2026-03-28T09:35:06.858Z</time></trkpt><trkpt lat="43.9772925" lon="11.3023028"><ele>264.0</ele><time>2026-03-28T09:35:07.859Z</time></trkpt><trkpt lat="43.9773799" lon="11.3023255"><ele>264.3333333333333</ele><time>2026-03-28T09:35:08.863Z</time></trkpt><trkpt lat="43.9774547" lon="11.3023339"><ele>264.6666666666667</ele><time>2026-03-28T09:35:09.856Z</time></trkpt><trkpt lat="43.977554" lon="11.3023466"><ele>265.0</ele><time>2026-03-28T09:35:11.864Z</time></trkpt><trkpt lat="43.9776277" lon="11.3023827"><ele>265.33333333333337</ele><time>2026-03-28T09:35:15.865Z</time></trkpt><trkpt lat="43.9776929" lon="11.3023791"><ele>265.6666666666667</ele><time>2026-03-28T09:35:17.875Z</time></trkpt><trkpt lat="43.9777937" lon="11.3024125"><ele>266.0</ele><time>2026-03-28T09:35:19.869Z</time></trkpt><trkpt lat="43.9778581" lon="11.30242"><ele>266.1666666666667</ele><time>2026-03-28T09:35:20.854Z</time></trkpt><trkpt lat="43.9779345" lon="11.3024232"><ele>266.33333333333337</ele><time>2026-03-28T09:35:21.859Z</time></trkpt><trkpt lat="43.9780169" lon="11.3024291"><ele>266.5</ele><time>2026-03-28T09:35:22.858Z</time></trkpt><trkpt lat="43.9781009" lon="11.3024458"><ele>266.6666666666667</ele><time>2026-03-28T09:35:23.867Z</time></trkpt><trkpt lat="43.9781838" lon="11.3024637"><ele>266.8333333333333</ele><time>2026-03-28T09:35:24.866Z</time></trkpt><trkpt lat="43.9782563" lon="11.3024762"><ele>267.0</ele><time>2026-03-28T09:35:25.866Z</time></trkpt><trkpt lat="43.9783254" lon="11.3024822"><ele>266.8333333333333</ele><time>2026-03-28T09:35:26.87Z</time></trkpt><trkpt lat="43.9784408" lon="11.3024738"><ele>266.6666666666667</ele><time>2026-03-28T09:35:28.868Z</time></trkpt><trkpt lat="43.9785457" lon="11.3024681"><ele>266.5</ele><time>2026-03-28T09:35:30.885Z</time></trkpt><trkpt lat="43.9786115" lon="11.3024703"><ele>266.33333333333337</ele><time>2026-03-28T09:35:31.872Z</time></trkpt><trkpt lat="43.9786787" lon="11.302473"><ele>266.1666666666667</ele><time>2026-03-28T09:35:32.879Z</time></trkpt><trkpt lat="43.9787483" lon="11.3024726"><ele>266.0</ele><time>2026-03-28T09:35:33.879Z</time></trkpt><trkpt lat="43.9788186" lon="11.3024729"><ele>266.0</ele><time>2026-03-28T09:35:34.878Z</time></trkpt><trkpt lat="43.9788872" lon="11.3024726"><ele>266.0</ele><time>2026-03-28T09:35:35.871Z</time></trkpt><trkpt lat="43.978961" lon="11.3024722"><ele>266.0</ele><time>2026-03-28T09:35:36.876Z</time></trkpt><trkpt lat="43.979037" lon="11.3024724"><ele>266.0</ele><time>2026-03-28T09:35:37.885Z</time></trkpt><trkpt lat="43.9791124" lon="11.3024711"><ele>266.0</ele><time>2026-03-28T09:35:38.876Z</time></trkpt><trkpt lat="43.9791809" lon="11.3024747"><ele>266.0</ele><time>2026-03-28T09:35:39.881Z</time></trkpt><trkpt lat="43.9793043" lon="11.3024816"><ele>266.2</ele><time>2026-03-28T09:35:41.867Z</time></trkpt><trkpt lat="43.9793765" lon="11.3024865"><ele>266.40000000000003</ele><time>2026-03-28T09:35:42.865Z</time></trkpt><trkpt lat="43.9794573" lon="11.3024907"><ele>266.6</ele><time>2026-03-28T09:35:43.87Z</time></trkpt><trkpt lat="43.9795516" lon="11.3024974"><ele>266.8</ele><time>2026-03-28T09:35:44.878Z</time></trkpt><trkpt lat="43.979655" lon="11.3025074"><ele>267.0</ele><time>2026-03-28T09:35:45.868Z</time></trkpt><trkpt lat="43.9797647" lon="11.3025193"><ele>267.0</ele><time>2026-03-28T09:35:46.879Z</time></trkpt><trkpt lat="43.9798706" lon="11.3025312"><ele>267.0</ele><time>2026-03-28T09:35:47.882Z</time></trkpt><trkpt lat="43.9799698" lon="11.3025409"><ele>267.0</ele><time>2026-03-28T09:35:48.89Z</time></trkpt><trkpt lat="43.9800567" lon="11.3025484"><ele>267.0</ele><time>2026-03-28T09:35:49.871Z</time></trkpt><trkpt lat="43.9801346" lon="11.3025531"><ele>267.0</ele><time>2026-03-28T09:35:50.868Z</time></trkpt><trkpt lat="43.9801983" lon="11.302551"><ele>267.0</ele><time>2026-03-28T09:35:51.875Z</time></trkpt><trkpt lat="43.9802958" lon="11.3025239"><ele>267.1666666666667</ele><time>2026-03-28T09:35:53.875Z</time></trkpt><trkpt lat="43.9803755" lon="11.3025332"><ele>267.3333333333333</ele><time>2026-03-28T09:35:55.885Z</time></trkpt><trkpt lat="43.9804561" lon="11.3025448"><ele>267.5</ele><time>2026-03-28T09:35:57.88Z</time></trkpt><trkpt lat="43.9805522" lon="11.3025503"><ele>267.66666666666663</ele><time>2026-03-28T09:35:59.874Z</time></trkpt><trkpt lat="43.9806696" lon="11.3025528"><ele>267.8333333333333</ele><time>2026-03-28T09:36:01.872Z</time></trkpt><trkpt lat="43.980738" lon="11.3025499"><ele>268.0</ele><time>2026-03-28T09:36:02.87Z</time></trkpt><trkpt lat="43.9808183" lon="11.3025507"><ele>267.6</ele><time>2026-03-28T09:36:03.867Z</time></trkpt><trkpt lat="43.9809087" lon="11.3025547"><ele>267.20000000000005</ele><time>2026-03-28T09:36:04.873Z</time></trkpt><trkpt lat="43.981008" lon="11.3025539"><ele>266.8</ele><time>2026-03-28T09:36:05.87Z</time></trkpt><trkpt lat="43.9811195" lon="11.3025503"><ele>266.40000000000003</ele><time>2026-03-28T09:36:06.87Z</time></trkpt><trkpt lat="43.9812339" lon="11.3025588"><ele>266.0</ele><time>2026-03-28T09:36:07.882Z</time></trkpt><trkpt lat="43.9813423" lon="11.3025726"><ele>266.0</ele><time>2026-03-28T09:36:08.876Z</time></trkpt><trkpt lat="43.98145" lon="11.3025806"><ele>266.0</ele><time>2026-03-28T09:36:09.862Z</time></trkpt><trkpt lat="43.9815577" lon="11.3025848"><ele>266.0</ele><time>2026-03-28T09:36:10.86Z</time></trkpt><trkpt lat="43.9816638" lon="11.3025835"><ele>266.0</ele><time>2026-03-28T09:36:11.861Z</time></trkpt><trkpt lat="43.9817642" lon="11.3025704"><ele>266.0</ele><time>2026-03-28T09:36:12.857Z</time></trkpt><trkpt lat="43.9818615" lon="11.3025475"><ele>266.33333333333337</ele><time>2026-03-28T09:36:13.857Z</time></trkpt><trkpt lat="43.9819542" lon="11.3025186"><ele>266.6666666666667</ele><time>2026-03-28T09:36:14.858Z</time></trkpt><trkpt lat="43.9820388" lon="11.3024884"><ele>267.0</ele><time>2026-03-28T09:36:15.861Z</time></trkpt><trkpt lat="43.9821143" lon="11.3024783"><ele>267.3333333333333</ele><time>2026-03-28T09:36:16.861Z</time></trkpt><trkpt lat="43.9821845" lon="11.3024798"><ele>267.66666666666663</ele><time>2026-03-28T09:36:17.869Z</time></trkpt><trkpt lat="43.9822479" lon="11.3024921"><ele>268.0</ele><time>2026-03-28T09:36:18.863Z</time></trkpt><trkpt lat="43.9823659" lon="11.3025376"><ele>268.0</ele><time>2026-03-28T09:36:20.864Z</time></trkpt><trkpt lat="43.9824687" lon="11.3025621"><ele>268.0</ele><time>2026-03-28T09:36:22.862Z</time></trkpt><trkpt lat="43.9825559" lon="11.3025425"><ele>268.0</ele><time>2026-03-28T09:36:24.863Z</time></trkpt><trkpt lat="43.9826454" lon="11.302556"><ele>268.0</ele><time>2026-03-28T09:36:26.859Z</time></trkpt><trkpt lat="43.9827552" lon="11.3026072"><ele>268.0</ele><time>2026-03-28T09:36:28.863Z</time></trkpt><trkpt lat="43.9828217" lon="11.3026444"><ele>268.16666666666663</ele><time>2026-03-28T09:36:29.863Z</time></trkpt><trkpt lat="43.9828975" lon="11.3026905"><ele>268.3333333333333</ele><time>2026-03-28T09:36:30.855Z</time></trkpt><trkpt lat="43.9829822" lon="11.3027361"><ele>268.5</ele><time>2026-03-28T09:36:31.861Z</time></trkpt><trkpt lat="43.9830704" lon="11.3027699"><ele>268.6666666666667</ele><time>2026-03-28T09:36:32.869Z</time></trkpt><trkpt lat="43.9831539" lon="11.3027851"><ele>268.83333333333337</ele><time>2026-03-28T09:36:33.855Z</time></trkpt><trkpt lat="43.9832324" lon="11.3027828"><ele>269.0</ele><time>2026-03-28T09:36:34.864Z</time></trkpt><trkpt lat="43.9833102" lon="11.3027774"><ele>269.33333333333337</ele><time>2026-03-28T09:36:35.848Z</time></trkpt><trkpt lat="43.983385" lon="11.3027647"><ele>269.6666666666667</ele><time>2026-03-28T09:36:36.859Z</time></trkpt><trkpt lat="43.9834594" lon="11.3027534"><ele>270.0</ele><time>2026-03-28T09:36:37.875Z</time></trkpt><trkpt lat="43.9835357" lon="11.3027285"><ele>270.3333333333333</ele><time>2026-03-28T09:36:38.867Z</time></trkpt><trkpt lat="43.9836216" lon="11.3026978"><ele>270.66666666666663</ele><time>2026-03-28T09:36:39.866Z</time></trkpt><trkpt lat="43.983718" lon="11.3026578"><ele>271.0</ele><time>2026-03-28T09:36:40.867Z</time></trkpt><trkpt lat="43.983824" lon="11.3026146"><ele>271.0</ele><time>2026-03-28T09:36:41.867Z</time></trkpt><trkpt lat="43.9839323" lon="11.3025733"><ele>271.0</ele><time>2026-03-28T09:36:42.872Z</time></trkpt><trkpt lat="43.9840428" lon="11.30253"><ele>271.0</ele><time>2026-03-28T09:36:43.872Z</time></trkpt><trkpt lat="43.9841535" lon="11.3024811"><ele>271.0</ele><time>2026-03-28T09:36:44.87Z</time></trkpt><trkpt lat="43.9842615" lon="11.302432"><ele>270.75</ele><time>2026-03-28T09:36:45.87Z</time></trkpt><trkpt lat="43.9843687" lon="11.3023883"><ele>270.5</ele><time>2026-03-28T09:36:46.866Z</time></trkpt><trkpt lat="43.9844769" lon="11.3023453"><ele>270.25</ele><time>2026-03-28T09:36:47.88Z</time></trkpt><trkpt lat="43.9845854" lon="11.3023003"><ele>270.0</ele><time>2026-03-28T09:36:48.876Z</time></trkpt><trkpt lat="43.984697" lon="11.3022546"><ele>269.4</ele><time>2026-03-28T09:36:49.873Z</time></trkpt><trkpt lat="43.98481" lon="11.3022078"><ele>268.8</ele><time>2026-03-28T09:36:50.889Z</time></trkpt><trkpt lat="43.9849089" lon="11.3021639"><ele>268.2</ele><time>2026-03-28T09:36:51.874Z</time></trkpt><trkpt lat="43.9849958" lon="11.3021267"><ele>267.6</ele><time>2026-03-28T09:36:52.885Z</time></trkpt><trkpt lat="43.9850762" lon="11.3020965"><ele>267.0</ele><time>2026-03-28T09:36:53.882Z</time></trkpt><trkpt lat="43.9851479" lon="11.3020737"><ele>267.0</ele><time>2026-03-28T09:36:54.88Z</time></trkpt><trkpt lat="43.985226" lon="11.302056"><ele>267.0</ele><time>2026-03-28T09:36:55.885Z</time></trkpt><trkpt lat="43.9853114" lon="11.3020401"><ele>267.0</ele><time>2026-03-28T09:36:56.877Z</time></trkpt><trkpt lat="43.9854033" lon="11.302032"><ele>267.0</ele><time>2026-03-28T09:36:57.872Z</time></trkpt><trkpt lat="43.9854922" lon="11.3020297"><ele>267.0</ele><time>2026-03-28T09:36:58.879Z</time></trkpt><trkpt lat="43.9855835" lon="11.3020324"><ele>267.0</ele><time>2026-03-28T09:36:59.881Z</time></trkpt><trkpt lat="43.9856818" lon="11.3020445"><ele>267.0</ele><time>2026-03-28T09:37:00.867Z</time></trkpt><trkpt lat="43.985788" lon="11.3020601"><ele>267.0</ele><time>2026-03-28T09:37:01.878Z</time></trkpt><trkpt lat="43.9858877" lon="11.3020757"><ele>267.0</ele><time>2026-03-28T09:37:02.861Z</time></trkpt><trkpt lat="43.9859755" lon="11.3020891"><ele>267.0</ele><time>2026-03-28T09:37:03.856Z</time></trkpt><trkpt lat="43.9860561" lon="11.3021013"><ele>267.0</ele><time>2026-03-28T09:37:04.856Z</time></trkpt><trkpt lat="43.9861335" lon="11.3021158"><ele>268.0</ele><time>2026-03-28T09:37:05.859Z</time></trkpt><trkpt lat="43.9862114" lon="11.3021325"><ele>269.0</ele><time>2026-03-28T09:37:06.856Z</time></trkpt><trkpt lat="43.9862828" lon="11.3021463"><ele>270.0</ele><time>2026-03-28T09:37:07.854Z</time></trkpt><trkpt lat="43.9863469" lon="11.3021608"><ele>271.0</ele><time>2026-03-28T09:37:08.852Z</time></trkpt><trkpt lat="43.9864158" lon="11.3022085"><ele>272.0</ele><time>2026-03-28T09:37:10.861Z</time></trkpt><trkpt lat="43.9863894" lon="11.302071"><ele>273.0</ele><time>2026-03-28T09:37:18.874Z</time></trkpt><trkpt lat="43.9863674" lon="11.3019333"><ele>273.0</ele><time>2026-03-28T09:37:20.864Z</time></trkpt><trkpt lat="43.9863613" lon="11.3018101"><ele>273.0</ele><time>2026-03-28T09:37:22.865Z</time></trkpt><trkpt lat="43.9863652" lon="11.3016714"><ele>273.0</ele><time>2026-03-28T09:37:24.872Z</time></trkpt><trkpt lat="43.9863605" lon="11.3015784"><ele>273.0</ele><time>2026-03-28T09:37:25.861Z</time></trkpt><trkpt lat="43.9863521" lon="11.3014753"><ele>273.0</ele><time>2026-03-28T09:37:26.867Z</time></trkpt><trkpt lat="43.9863392" lon="11.3013711"><ele>273.0</ele><time>2026-03-28T09:37:27.858Z</time></trkpt><trkpt lat="43.9863331" lon="11.3012619"><ele>272.6</ele><time>2026-03-28T09:37:28.858Z</time></trkpt><trkpt lat="43.9863337" lon="11.3011351"><ele>272.20000000000005</ele><time>2026-03-28T09:37:29.868Z</time></trkpt><trkpt lat="43.9863367" lon="11.3010079"><ele>271.8</ele><time>2026-03-28T09:37:30.864Z</time></trkpt><trkpt lat="43.9863394" lon="11.3008739"><ele>271.40000000000003</ele><time>2026-03-28T09:37:31.858Z</time></trkpt><trkpt lat="43.9863398" lon="11.3007334"><ele>271.0</ele><time>2026-03-28T09:37:32.86Z</time></trkpt><trkpt lat="43.98634" lon="11.3005931"><ele>269.6</ele><time>2026-03-28T09:37:33.85Z</time></trkpt><trkpt lat="43.986341" lon="11.3004541"><ele>268.20000000000005</ele><time>2026-03-28T09:37:34.852Z</time></trkpt><trkpt lat="43.9863429" lon="11.3003239"><ele>266.79999999999995</ele><time>2026-03-28T09:37:35.855Z</time></trkpt><trkpt lat="43.9863446" lon="11.3001955"><ele>265.4</ele><time>2026-03-28T09:37:36.857Z</time></trkpt><trkpt lat="43.986349" lon="11.3000762"><ele>264.0</ele><time>2026-03-28T09:37:37.86Z</time></trkpt><trkpt lat="43.9863529" lon="11.299957"><ele>264.0</ele><time>2026-03-28T09:37:38.858Z</time></trkpt><trkpt lat="43.9863553" lon="11.299837"><ele>264.0</ele><time>2026-03-28T09:37:39.859Z</time></trkpt><trkpt lat="43.9863575" lon="11.2997159"><ele>264.0</ele><time>2026-03-28T09:37:40.862Z</time></trkpt><trkpt lat="43.9863646" lon="11.2995886"><ele>264.0</ele><time>2026-03-28T09:37:41.862Z</time></trkpt><trkpt lat="43.9863701" lon="11.2994643"><ele>264.0</ele><time>2026-03-28T09:37:42.86Z</time></trkpt><trkpt lat="43.9863778" lon="11.2993344"><ele>264.0</ele><time>2026-03-28T09:37:43.868Z</time></trkpt><trkpt lat="43.9863847" lon="11.2992012"><ele>262.59999999999997</ele><time>2026-03-28T09:37:44.86Z</time></trkpt><trkpt lat="43.986388" lon="11.2990642"><ele>261.2</ele><time>2026-03-28T09:37:45.864Z</time></trkpt><trkpt lat="43.986389" lon="11.2989312"><ele>259.79999999999995</ele><time>2026-03-28T09:37:46.855Z</time></trkpt><trkpt lat="43.9863937" lon="11.2987969"><ele>258.4</ele><time>2026-03-28T09:37:47.855Z</time></trkpt><trkpt lat="43.9864013" lon="11.2986633"><ele>257.0</ele><time>2026-03-28T09:37:48.855Z</time></trkpt><trkpt lat="43.9864122" lon="11.2985282"><ele>257.6</ele><time>2026-03-28T09:37:49.854Z</time></trkpt><trkpt lat="43.9864274" lon="11.2983861"><ele>258.2</ele><time>2026-03-28T09:37:50.856Z</time></trkpt><trkpt lat="43.9864405" lon="11.2982422"><ele>258.8</ele><time>2026-03-28T09:37:51.852Z</time></trkpt><trkpt lat="43.9864397" lon="11.2980989"><ele>259.4</ele><time>2026-03-28T09:37:52.86Z</time></trkpt><trkpt lat="43.9864207" lon="11.297957"><ele>260.0</ele><time>2026-03-28T09:37:53.856Z</time></trkpt><trkpt lat="43.9863875" lon="11.2978176"><ele>260.0</ele><time>2026-03-28T09:37:54.861Z</time></trkpt><trkpt lat="43.986346" lon="11.2976665"><ele>260.0</ele><time>2026-03-28T09:37:55.874Z</time></trkpt><trkpt lat="43.9863008" lon="11.2975108"><ele>260.0</ele><time>2026-03-28T09:37:56.867Z</time></trkpt><trkpt lat="43.9862591" lon="11.2973557"><ele>260.0</ele><time>2026-03-28T09:37:57.855Z</time></trkpt><trkpt lat="43.986236" lon="11.2971998"><ele>261.25</ele><time>2026-03-28T09:37:58.851Z</time></trkpt><trkpt lat="43.9862142" lon="11.2970477"><ele>262.5</ele><time>2026-03-28T09:37:59.865Z</time></trkpt><trkpt lat="43.9861984" lon="11.2968854"><ele>263.75</ele><time>2026-03-28T09:38:00.863Z</time></trkpt><trkpt lat="43.9861938" lon="11.2967284"><ele>265.0</ele><time>2026-03-28T09:38:01.866Z</time></trkpt><trkpt lat="43.9861996" lon="11.2965753"><ele>265.0</ele><time>2026-03-28T09:38:02.869Z</time></trkpt><trkpt lat="43.9862148" lon="11.2964239"><ele>265.0</ele><time>2026-03-28T09:38:03.86Z</time></trkpt><trkpt lat="43.9862428" lon="11.2962627"><ele>265.0</ele><time>2026-03-28T09:38:04.863Z</time></trkpt><trkpt lat="43.986275" lon="11.2960977"><ele>265.0</ele><time>2026-03-28T09:38:05.863Z</time></trkpt><trkpt lat="43.9863032" lon="11.2959247"><ele>265.25</ele><time>2026-03-28T09:38:06.863Z</time></trkpt><trkpt lat="43.986334" lon="11.2957602"><ele>265.5</ele><time>2026-03-28T09:38:07.866Z</time></trkpt><trkpt lat="43.9863765" lon="11.2955973"><ele>265.75</ele><time>2026-03-28T09:38:08.865Z</time></trkpt><trkpt lat="43.9864229" lon="11.2954325"><ele>266.0</ele><time>2026-03-28T09:38:09.87Z</time></trkpt><trkpt lat="43.9864719" lon="11.2952676"><ele>266.0</ele><time>2026-03-28T09:38:10.87Z</time></trkpt><trkpt lat="43.9865155" lon="11.2950987"><ele>266.0</ele><time>2026-03-28T09:38:11.867Z</time></trkpt><trkpt lat="43.9865473" lon="11.2949366"><ele>266.0</ele><time>2026-03-28T09:38:12.858Z</time></trkpt><trkpt lat="43.9865733" lon="11.2947957"><ele>266.0</ele><time>2026-03-28T09:38:13.86Z</time></trkpt><trkpt lat="43.9865912" lon="11.2946747"><ele>266.0</ele><time>2026-03-28T09:38:14.872Z</time></trkpt><trkpt lat="43.9866205" lon="11.2945917"><ele>266.2</ele><time>2026-03-28T09:38:15.864Z</time></trkpt><trkpt lat="43.9866958" lon="11.2945667"><ele>266.40000000000003</ele><time>2026-03-28T09:38:17.864Z</time></trkpt><trkpt lat="43.9867809" lon="11.2946934"><ele>266.6</ele><time>2026-03-28T09:38:19.882Z</time></trkpt><trkpt lat="43.986842" lon="11.2947753"><ele>266.8</ele><time>2026-03-28T09:38:20.869Z</time></trkpt><trkpt lat="43.9869213" lon="11.2948527"><ele>267.0</ele><time>2026-03-28T09:38:21.869Z</time></trkpt><trkpt lat="43.9870137" lon="11.2949153"><ele>267.5</ele><time>2026-03-28T09:38:22.87Z</time></trkpt><trkpt lat="43.9871177" lon="11.2949768"><ele>268.0</ele><time>2026-03-28T09:38:23.889Z</time></trkpt><trkpt lat="43.9872276" lon="11.2950319"><ele>268.5</ele><time>2026-03-28T09:38:24.873Z</time></trkpt><trkpt lat="43.9873403" lon="11.2950717"><ele>269.0</ele><time>2026-03-28T09:38:25.882Z</time></trkpt><trkpt lat="43.9874497" lon="11.2950926"><ele>269.25</ele><time>2026-03-28T09:38:26.884Z</time></trkpt><trkpt lat="43.9875681" lon="11.2951075"><ele>269.5</ele><time>2026-03-28T09:38:27.861Z</time></trkpt><trkpt lat="43.9876814" lon="11.295121"><ele>269.75</ele><time>2026-03-28T09:38:28.864Z</time></trkpt><trkpt lat="43.9878042" lon="11.2951392"><ele>270.0</ele><time>2026-03-28T09:38:29.873Z</time></trkpt><trkpt lat="43.9879253" lon="11.2951492"><ele>270.0</ele><time>2026-03-28T09:38:30.875Z</time></trkpt><trkpt lat="43.9880402" lon="11.2951468"><ele>270.0</ele><time>2026-03-28T09:38:31.865Z</time></trkpt><trkpt lat="43.9881554" lon="11.2951407"><ele>270.0</ele><time>2026-03-28T09:38:32.884Z</time></trkpt><trkpt lat="43.9882737" lon="11.2951245"><ele>270.0</ele><time>2026-03-28T09:38:33.876Z</time></trkpt><trkpt lat="43.9883923" lon="11.2950881"><ele>270.5</ele><time>2026-03-28T09:38:34.855Z</time></trkpt><trkpt lat="43.9885155" lon="11.2950544"><ele>271.0</ele><time>2026-03-28T09:38:35.869Z</time></trkpt><trkpt lat="43.9886475" lon="11.2950218"><ele>271.5</ele><time>2026-03-28T09:38:36.866Z</time></trkpt><trkpt lat="43.9887897" lon="11.295007"><ele>272.0</ele><time>2026-03-28T09:38:37.864Z</time></trkpt><trkpt lat="43.9889237" lon="11.2950077"><ele>272.0</ele><time>2026-03-28T09:38:38.862Z</time></trkpt><trkpt lat="43.9890476" lon="11.2950097"><ele>272.0</ele><time>2026-03-28T09:38:39.866Z</time></trkpt><trkpt lat="43.9891676" lon="11.2950031"><ele>272.0</ele><time>2026-03-28T09:38:40.862Z</time></trkpt><trkpt lat="43.9892875" lon="11.2950112"><ele>272.0</ele><time>2026-03-28T09:38:41.863Z</time></trkpt><trkpt lat="43.9893987" lon="11.2950515"><ele>272.4</ele><time>2026-03-28T09:38:42.867Z</time></trkpt><trkpt lat="43.9894998" lon="11.2951275"><ele>272.79999999999995</ele><time>2026-03-28T09:38:43.859Z</time></trkpt><trkpt lat="43.9895884" lon="11.2952049"><ele>273.2</ele><time>2026-03-28T09:38:44.86Z</time></trkpt><trkpt lat="43.9896696" lon="11.2952756"><ele>273.59999999999997</ele><time>2026-03-28T09:38:45.864Z</time></trkpt><trkpt lat="43.9897321" lon="11.2953296"><ele>274.0</ele><time>2026-03-28T09:38:46.86Z</time></trkpt><trkpt lat="43.9898424" lon="11.2953929"><ele>274.0</ele><time>2026-03-28T09:38:48.862Z</time></trkpt><trkpt lat="43.9899525" lon="11.295424"><ele>274.0</ele><time>2026-03-28T09:38:50.866Z</time></trkpt><trkpt lat="43.9900193" lon="11.2954434"><ele>274.0</ele><time>2026-03-28T09:38:51.863Z</time></trkpt><trkpt lat="43.9901021" lon="11.29548"><ele>274.0</ele><time>2026-03-28T09:38:52.861Z</time></trkpt><trkpt lat="43.9901991" lon="11.295534"><ele>274.0</ele><time>2026-03-28T09:38:53.87Z</time></trkpt><trkpt lat="43.9903098" lon="11.2955902"><ele>273.8</ele><time>2026-03-28T09:38:54.862Z</time></trkpt><trkpt lat="43.9904165" lon="11.2956532"><ele>273.59999999999997</ele><time>2026-03-28T09:38:55.864Z</time></trkpt><trkpt lat="43.9905069" lon="11.295702"><ele>273.4</ele><time>2026-03-28T09:38:56.87Z</time></trkpt><trkpt lat="43.9905907" lon="11.295727"><ele>273.2</ele><time>2026-03-28T09:38:57.861Z</time></trkpt><trkpt lat="43.9906678" lon="11.2957253"><ele>273.0</ele><time>2026-03-28T09:38:58.859Z</time></trkpt><trkpt lat="43.9907445" lon="11.2957093"><ele>273.0</ele><time>2026-03-28T09:38:59.864Z</time></trkpt><trkpt lat="43.9908368" lon="11.2956933"><ele>273.0</ele><time>2026-03-28T09:39:00.86Z</time></trkpt><trkpt lat="43.9909353" lon="11.2956917"><ele>273.0</ele><time>2026-03-28T09:39:01.861Z</time></trkpt><trkpt lat="43.9910295" lon="11.2956985"><ele>273.0</ele><time>2026-03-28T09:39:02.863Z</time></trkpt><trkpt lat="43.9911208" lon="11.2957184"><ele>273.0</ele><time>2026-03-28T09:39:03.861Z</time></trkpt><trkpt lat="43.9912119" lon="11.2957544"><ele>274.1666666666667</ele><time>2026-03-28T09:39:04.864Z</time></trkpt><trkpt lat="43.991298" lon="11.2958004"><ele>275.3333333333333</ele><time>2026-03-28T09:39:05.862Z</time></trkpt><trkpt lat="43.9913767" lon="11.295855"><ele>276.5</ele><time>2026-03-28T09:39:06.862Z</time></trkpt><trkpt lat="43.9914517" lon="11.295916"><ele>277.66666666666663</ele><time>2026-03-28T09:39:07.866Z</time></trkpt><trkpt lat="43.9915269" lon="11.2959736"><ele>278.8333333333333</ele><time>2026-03-28T09:39:08.863Z</time></trkpt><trkpt lat="43.9916033" lon="11.2960207"><ele>280.0</ele><time>2026-03-28T09:39:09.862Z</time></trkpt><trkpt lat="43.9916818" lon="11.2960437"><ele>280.0</ele><time>2026-03-28T09:39:10.859Z</time></trkpt><trkpt lat="43.9917648" lon="11.2960488"><ele>280.0</ele><time>2026-03-28T09:39:11.859Z</time></trkpt><trkpt lat="43.9918471" lon="11.29604"><ele>280.0</ele><time>2026-03-28T09:39:12.861Z</time></trkpt><trkpt lat="43.9919228" lon="11.296032"><ele>280.0</ele><time>2026-03-28T09:39:13.863Z</time></trkpt><trkpt lat="43.9919978" lon="11.2960316"><ele>280.0</ele><time>2026-03-28T09:39:14.865Z</time></trkpt><trkpt lat="43.9920746" lon="11.2960327"><ele>280.0</ele><time>2026-03-28T09:39:15.87Z</time></trkpt><trkpt lat="43.9921488" lon="11.296032"><ele>280.0</ele><time>2026-03-28T09:39:16.873Z</time></trkpt><trkpt lat="43.9922225" lon="11.296026"><ele>280.0</ele><time>2026-03-28T09:39:17.867Z</time></trkpt><trkpt lat="43.9922944" lon="11.2960082"><ele>280.0</ele><time>2026-03-28T09:39:18.862Z</time></trkpt><trkpt lat="43.9923621" lon="11.2959818"><ele>280.0</ele><time>2026-03-28T09:39:19.87Z</time></trkpt><trkpt lat="43.9924308" lon="11.2959511"><ele>280.0</ele><time>2026-03-28T09:39:20.861Z</time></trkpt><trkpt lat="43.9924987" lon="11.295918"><ele>280.0</ele><time>2026-03-28T09:39:21.862Z</time></trkpt><trkpt lat="43.992569" lon="11.2958833"><ele>280.0</ele><time>2026-03-28T09:39:22.866Z</time></trkpt><trkpt lat="43.9926456" lon="11.295846"><ele>279.8333333333333</ele><time>2026-03-28T09:39:23.87Z</time></trkpt><trkpt lat="43.9927248" lon="11.295813"><ele>279.66666666666663</ele><time>2026-03-28T09:39:24.879Z</time></trkpt><trkpt lat="43.9927998" lon="11.2957875"><ele>279.5</ele><time>2026-03-28T09:39:25.875Z</time></trkpt><trkpt lat="43.9928772" lon="11.2957661"><ele>279.3333333333333</ele><time>2026-03-28T09:39:26.88Z</time></trkpt><trkpt lat="43.9929561" lon="11.295736"><ele>279.1666666666667</ele><time>2026-03-28T09:39:27.87Z</time></trkpt><trkpt lat="43.9930349" lon="11.295697"><ele>279.0</ele><time>2026-03-28T09:39:28.878Z</time></trkpt><trkpt lat="43.9931129" lon="11.2956593"><ele>279.0</ele><time>2026-03-28T09:39:29.889Z</time></trkpt><trkpt lat="43.9931839" lon="11.2956311"><ele>279.0</ele><time>2026-03-28T09:39:30.878Z</time></trkpt><trkpt lat="43.9932563" lon="11.2956024"><ele>279.0</ele><time>2026-03-28T09:39:31.887Z</time></trkpt><trkpt lat="43.9933183" lon="11.2955806"><ele>279.0</ele><time>2026-03-28T09:39:32.881Z</time></trkpt><trkpt lat="43.9934203" lon="11.2955376"><ele>279.0</ele><time>2026-03-28T09:39:34.875Z</time></trkpt><trkpt lat="43.9934903" lon="11.2955258"><ele>279.0</ele><time>2026-03-28T09:39:36.873Z</time></trkpt><trkpt lat="43.9935552" lon="11.2955017"><ele>279.4</ele><time>2026-03-28T09:39:40.883Z</time></trkpt><trkpt lat="43.9936623" lon="11.2954036"><ele>279.79999999999995</ele><time>2026-03-28T09:40:01.878Z</time></trkpt><trkpt lat="43.9937284" lon="11.2953442"><ele>280.20000000000005</ele><time>2026-03-28T09:40:02.88Z</time></trkpt><trkpt lat="43.9938028" lon="11.2952973"><ele>280.6</ele><time>2026-03-28T09:40:03.878Z</time></trkpt><trkpt lat="43.9938854" lon="11.2952561"><ele>281.0</ele><time>2026-03-28T09:40:04.878Z</time></trkpt><trkpt lat="43.9939717" lon="11.2952254"><ele>281.0</ele><time>2026-03-28T09:40:05.876Z</time></trkpt><trkpt lat="43.9940566" lon="11.2952047"><ele>281.0</ele><time>2026-03-28T09:40:06.874Z</time></trkpt><trkpt lat="43.9941368" lon="11.2951821"><ele>281.0</ele><time>2026-03-28T09:40:07.871Z</time></trkpt><trkpt lat="43.9942131" lon="11.2951564"><ele>281.0</ele><time>2026-03-28T09:40:08.87Z</time></trkpt><trkpt lat="43.9942838" lon="11.2951183"><ele>281.0</ele><time>2026-03-28T09:40:09.882Z</time></trkpt><trkpt lat="43.9943592" lon="11.2950727"><ele>281.0</ele><time>2026-03-28T09:40:10.888Z</time></trkpt><trkpt lat="43.9944373" lon="11.2950185"><ele>281.28571428571433</ele><time>2026-03-28T09:40:11.885Z</time></trkpt><trkpt lat="43.9945091" lon="11.2949696"><ele>281.57142857142856</ele><time>2026-03-28T09:40:12.885Z</time></trkpt><trkpt lat="43.9945753" lon="11.2949213"><ele>281.8571428571429</ele><time>2026-03-28T09:40:13.881Z</time></trkpt><trkpt lat="43.9946334" lon="11.2948789"><ele>282.14285714285717</ele><time>2026-03-28T09:40:14.875Z</time></trkpt><trkpt lat="43.9946853" lon="11.2948286"><ele>282.42857142857144</ele><time>2026-03-28T09:40:15.867Z</time></trkpt><trkpt lat="43.9947359" lon="11.2947744"><ele>282.7142857142857</ele><time>2026-03-28T09:40:16.882Z</time></trkpt><trkpt lat="43.9947974" lon="11.2947295"><ele>283.0</ele><time>2026-03-28T09:40:17.878Z</time></trkpt><trkpt lat="43.994861" lon="11.2946869"><ele>283.0</ele><time>2026-03-28T09:40:18.873Z</time></trkpt><trkpt lat="43.9949232" lon="11.2946275"><ele>283.0</ele><time>2026-03-28T09:40:19.877Z</time></trkpt><trkpt lat="43.994984" lon="11.2945777"><ele>283.0</ele><time>2026-03-28T09:40:20.872Z</time></trkpt><trkpt lat="43.9950521" lon="11.2945226"><ele>283.0</ele><time>2026-03-28T09:40:21.871Z</time></trkpt><trkpt lat="43.9951213" lon="11.2944672"><ele>283.0</ele><time>2026-03-28T09:40:22.875Z</time></trkpt><trkpt lat="43.9951983" lon="11.2944183"><ele>283.0</ele><time>2026-03-28T09:40:23.879Z</time></trkpt><trkpt lat="43.9952817" lon="11.2943771"><ele>282.8333333333333</ele><time>2026-03-28T09:40:24.873Z</time></trkpt><trkpt lat="43.995364" lon="11.2943376"><ele>282.66666666666663</ele><time>2026-03-28T09:40:25.878Z</time></trkpt><trkpt lat="43.995445" lon="11.2943026"><ele>282.5</ele><time>2026-03-28T09:40:26.886Z</time></trkpt><trkpt lat="43.995524" lon="11.2942826"><ele>282.3333333333333</ele><time>2026-03-28T09:40:27.865Z</time></trkpt><trkpt lat="43.9956085" lon="11.2942816"><ele>282.1666666666667</ele><time>2026-03-28T09:40:28.865Z</time></trkpt><trkpt lat="43.9956923" lon="11.2942739"><ele>282.0</ele><time>2026-03-28T09:40:29.875Z</time></trkpt><trkpt lat="43.9957766" lon="11.2942567"><ele>281.1666666666667</ele><time>2026-03-28T09:40:30.868Z</time></trkpt><trkpt lat="43.9958617" lon="11.2942365"><ele>280.3333333333333</ele><time>2026-03-28T09:40:31.862Z</time></trkpt><trkpt lat="43.995944" lon="11.2942194"><ele>279.5</ele><time>2026-03-28T09:40:32.862Z</time></trkpt><trkpt lat="43.9960193" lon="11.2941977"><ele>278.66666666666663</ele><time>2026-03-28T09:40:33.862Z</time></trkpt><trkpt lat="43.9960865" lon="11.2941741"><ele>277.8333333333333</ele><time>2026-03-28T09:40:34.861Z</time></trkpt><trkpt lat="43.9961531" lon="11.294145"><ele>277.0</ele><time>2026-03-28T09:40:35.87Z</time></trkpt><trkpt lat="43.9962156" lon="11.2941065"><ele>277.0</ele><time>2026-03-28T09:40:36.869Z</time></trkpt><trkpt lat="43.9962814" lon="11.2940638"><ele>277.0</ele><time>2026-03-28T09:40:37.871Z</time></trkpt><trkpt lat="43.9963459" lon="11.2940255"><ele>277.0</ele><time>2026-03-28T09:40:38.868Z</time></trkpt><trkpt lat="43.9964079" lon="11.2939877"><ele>277.0</ele><time>2026-03-28T09:40:39.86Z</time></trkpt><trkpt lat="43.9964732" lon="11.2939499"><ele>277.0</ele><time>2026-03-28T09:40:40.86Z</time></trkpt><trkpt lat="43.9965446" lon="11.2939126"><ele>277.0</ele><time>2026-03-28T09:40:41.866Z</time></trkpt><trkpt lat="43.9966148" lon="11.2938699"><ele>277.0</ele><time>2026-03-28T09:40:42.862Z</time></trkpt><trkpt lat="43.9966894" lon="11.2938288"><ele>278.3333333333333</ele><time>2026-03-28T09:40:43.869Z</time></trkpt><trkpt lat="43.996763" lon="11.293791"><ele>279.66666666666663</ele><time>2026-03-28T09:40:44.863Z</time></trkpt><trkpt lat="43.9968326" lon="11.2937528"><ele>281.0</ele><time>2026-03-28T09:40:45.862Z</time></trkpt><trkpt lat="43.9969042" lon="11.2937076"><ele>282.3333333333333</ele><time>2026-03-28T09:40:46.866Z</time></trkpt><trkpt lat="43.9969784" lon="11.2936612"><ele>283.6666666666667</ele><time>2026-03-28T09:40:47.865Z</time></trkpt><trkpt lat="43.9970544" lon="11.2936217"><ele>285.0</ele><time>2026-03-28T09:40:48.865Z</time></trkpt><trkpt lat="43.9971353" lon="11.2935833"><ele>285.0</ele><time>2026-03-28T09:40:49.87Z</time></trkpt><trkpt lat="43.9972228" lon="11.2935417"><ele>285.0</ele><time>2026-03-28T09:40:50.866Z</time></trkpt><trkpt lat="43.9973107" lon="11.2934946"><ele>285.0</ele><time>2026-03-28T09:40:51.866Z</time></trkpt><trkpt lat="43.9974004" lon="11.2934454"><ele>285.0</ele><time>2026-03-28T09:40:52.866Z</time></trkpt><trkpt lat="43.9974927" lon="11.2933943"><ele>285.0</ele><time>2026-03-28T09:40:53.867Z</time></trkpt><trkpt lat="43.9975867" lon="11.2933357"><ele>283.75</ele><time>2026-03-28T09:40:54.869Z</time></trkpt><trkpt lat="43.9976858" lon="11.2932658"><ele>282.5</ele><time>2026-03-28T09:40:55.867Z</time></trkpt><trkpt lat="43.9977886" lon="11.2931836"><ele>281.25</ele><time>2026-03-28T09:40:56.873Z</time></trkpt><trkpt lat="43.9978932" lon="11.2930881"><ele>280.0</ele><time>2026-03-28T09:40:57.879Z</time></trkpt><trkpt lat="43.9979965" lon="11.2929885"><ele>281.25</ele><time>2026-03-28T09:40:58.866Z</time></trkpt><trkpt lat="43.998108" lon="11.2928964"><ele>282.5</ele><time>2026-03-28T09:40:59.871Z</time></trkpt><trkpt lat="43.9982234" lon="11.292804"><ele>283.75</ele><time>2026-03-28T09:41:00.868Z</time></trkpt><trkpt lat="43.9983487" lon="11.2927207"><ele>285.0</ele><time>2026-03-28T09:41:01.867Z</time></trkpt><trkpt lat="43.9984749" lon="11.2926309"><ele>285.0</ele><time>2026-03-28T09:41:02.865Z</time></trkpt><trkpt lat="43.9985984" lon="11.2925333"><ele>285.0</ele><time>2026-03-28T09:41:03.864Z</time></trkpt><trkpt lat="43.9987126" lon="11.2924375"><ele>285.0</ele><time>2026-03-28T09:41:04.857Z</time></trkpt><trkpt lat="43.9988151" lon="11.2923533"><ele>285.0</ele><time>2026-03-28T09:41:05.858Z</time></trkpt><trkpt lat="43.998918" lon="11.292264"><ele>285.25</ele><time>2026-03-28T09:41:06.859Z</time></trkpt><trkpt lat="43.9990162" lon="11.2921765"><ele>285.5</ele><time>2026-03-28T09:41:07.866Z</time></trkpt><trkpt lat="43.9991234" lon="11.2921102"><ele>285.75</ele><time>2026-03-28T09:41:08.859Z</time></trkpt><trkpt lat="43.9992464" lon="11.2920475"><ele>286.0</ele><time>2026-03-28T09:41:09.871Z</time></trkpt><trkpt lat="43.9993752" lon="11.2919981"><ele>286.5</ele><time>2026-03-28T09:41:10.87Z</time></trkpt><trkpt lat="43.9995071" lon="11.2919455"><ele>287.0</ele><time>2026-03-28T09:41:11.873Z</time></trkpt><trkpt lat="43.9996419" lon="11.2919046"><ele>287.5</ele><time>2026-03-28T09:41:12.867Z</time></trkpt><trkpt lat="43.999776" lon="11.291876"><ele>288.0</ele><time>2026-03-28T09:41:13.865Z</time></trkpt><trkpt lat="43.999911" lon="11.2918544"><ele>288.0</ele><time>2026-03-28T09:41:14.872Z</time></trkpt><trkpt lat="44.0000444" lon="11.2918412"><ele>288.0</ele><time>2026-03-28T09:41:15.869Z</time></trkpt><trkpt lat="44.0001773" lon="11.2918363"><ele>288.0</ele><time>2026-03-28T09:41:16.871Z</time></trkpt><trkpt lat="44.0003124" lon="11.2918314"><ele>288.0</ele><time>2026-03-28T09:41:17.873Z</time></trkpt><trkpt lat="44.0004475" lon="11.2918361"><ele>288.0</ele><time>2026-03-28T09:41:18.874Z</time></trkpt><trkpt lat="44.0005863" lon="11.2918251"><ele>288.0</ele><time>2026-03-28T09:41:19.871Z</time></trkpt><trkpt lat="44.0007223" lon="11.2918081"><ele>288.0</ele><time>2026-03-28T09:41:20.878Z</time></trkpt><trkpt lat="44.0008479" lon="11.2917846"><ele>288.0</ele><time>2026-03-28T09:41:21.878Z</time></trkpt><trkpt lat="44.0009686" lon="11.2917599"><ele>287.5</ele><time>2026-03-28T09:41:22.877Z</time></trkpt><trkpt lat="44.0010973" lon="11.2917439"><ele>287.0</ele><time>2026-03-28T09:41:23.874Z</time></trkpt><trkpt lat="44.0012242" lon="11.2917409"><ele>286.5</ele><time>2026-03-28T09:41:24.882Z</time></trkpt><trkpt lat="44.0013341" lon="11.2917421"><ele>286.0</ele><time>2026-03-28T09:41:25.88Z</time></trkpt><trkpt lat="44.0014379" lon="11.2917449"><ele>286.0</ele><time>2026-03-28T09:41:26.884Z</time></trkpt><trkpt lat="44.0015368" lon="11.2917518"><ele>286.0</ele><time>2026-03-28T09:41:27.872Z</time></trkpt><trkpt lat="44.0016412" lon="11.2917675"><ele>286.0</ele><time>2026-03-28T09:41:28.883Z</time></trkpt><trkpt lat="44.0017555" lon="11.2917913"><ele>286.0</ele><time>2026-03-28T09:41:29.877Z</time></trkpt><trkpt lat="44.0018719" lon="11.2918132"><ele>286.0</ele><time>2026-03-28T09:41:30.871Z</time></trkpt><trkpt lat="44.0019832" lon="11.2918359"><ele>286.25</ele><time>2026-03-28T09:41:31.868Z</time></trkpt><trkpt lat="44.0020931" lon="11.2918694"><ele>286.5</ele><time>2026-03-28T09:41:32.87Z</time></trkpt><trkpt lat="44.0022042" lon="11.2919106"><ele>286.75</ele><time>2026-03-28T09:41:33.865Z</time></trkpt><trkpt lat="44.0023196" lon="11.2919573"><ele>287.0</ele><time>2026-03-28T09:41:34.867Z</time></trkpt><trkpt lat="44.0024391" lon="11.2920007"><ele>287.0</ele><time>2026-03-28T09:41:35.86Z</time></trkpt><trkpt lat="44.0025588" lon="11.2920352"><ele>287.0</ele><time>2026-03-28T09:41:36.866Z</time></trkpt><trkpt lat="44.0026898" lon="11.292051"><ele>287.0</ele><time>2026-03-28T09:41:37.872Z</time></trkpt><trkpt lat="44.0028217" lon="11.292054"><ele>287.0</ele><time>2026-03-28T09:41:38.865Z</time></trkpt><trkpt lat="44.0029603" lon="11.2920534"><ele>287.0</ele><time>2026-03-28T09:41:39.87Z</time></trkpt><trkpt lat="44.0031016" lon="11.292041"><ele>287.0</ele><time>2026-03-28T09:41:40.868Z</time></trkpt><trkpt lat="44.003246" lon="11.2920238"><ele>287.0</ele><time>2026-03-28T09:41:41.868Z</time></trkpt><trkpt lat="44.0034114" lon="11.2920079"><ele>286.33333333333337</ele><time>2026-03-28T09:41:42.868Z</time></trkpt><trkpt lat="44.0035857" lon="11.2920114"><ele>285.6666666666667</ele><time>2026-03-28T09:41:43.87Z</time></trkpt><trkpt lat="44.0037582" lon="11.2920527"><ele>285.0</ele><time>2026-03-28T09:41:44.866Z</time></trkpt><trkpt lat="44.0039252" lon="11.2921092"><ele>285.0</ele><time>2026-03-28T09:41:45.864Z</time></trkpt><trkpt lat="44.00409" lon="11.2921643"><ele>285.0</ele><time>2026-03-28T09:41:46.869Z</time></trkpt><trkpt lat="44.0042527" lon="11.2922288"><ele>285.0</ele><time>2026-03-28T09:41:47.862Z</time></trkpt><trkpt lat="44.0044061" lon="11.2922997"><ele>286.0</ele><time>2026-03-28T09:41:48.864Z</time></trkpt><trkpt lat="44.0045542" lon="11.2923859"><ele>287.0</ele><time>2026-03-28T09:41:49.868Z</time></trkpt><trkpt lat="44.0047043" lon="11.292455"><ele>288.0</ele><time>2026-03-28T09:41:50.869Z</time></trkpt><trkpt lat="44.0048548" lon="11.2925098"><ele>288.0</ele><time>2026-03-28T09:41:51.865Z</time></trkpt><trkpt lat="44.0049946" lon="11.2925639"><ele>288.0</ele><time>2026-03-28T09:41:52.868Z</time></trkpt><trkpt lat="44.0051273" lon="11.2926252"><ele>288.0</ele><time>2026-03-28T09:41:53.872Z</time></trkpt><trkpt lat="44.0052597" lon="11.292691"><ele>288.0</ele><time>2026-03-28T09:41:54.868Z</time></trkpt><trkpt lat="44.0053949" lon="11.2927657"><ele>287.5</ele><time>2026-03-28T09:41:55.871Z</time></trkpt><trkpt lat="44.0055264" lon="11.2928308"><ele>287.0</ele><time>2026-03-28T09:41:56.878Z</time></trkpt><trkpt lat="44.0056636" lon="11.292874"><ele>286.5</ele><time>2026-03-28T09:41:57.877Z</time></trkpt><trkpt lat="44.0057934" lon="11.2929101"><ele>286.0</ele><time>2026-03-28T09:41:58.875Z</time></trkpt><trkpt lat="44.0058991" lon="11.2929303"><ele>285.6</ele><time>2026-03-28T09:41:59.877Z</time></trkpt><trkpt lat="44.005987" lon="11.2929375"><ele>285.20000000000005</ele><time>2026-03-28T09:42:00.866Z</time></trkpt><trkpt lat="44.0060857" lon="11.2929315"><ele>284.79999999999995</ele><time>2026-03-28T09:42:01.865Z</time></trkpt><trkpt lat="44.0061862" lon="11.2929238"><ele>284.4</ele><time>2026-03-28T09:42:02.863Z</time></trkpt><trkpt lat="44.0062965" lon="11.2929171"><ele>284.0</ele><time>2026-03-28T09:42:03.861Z</time></trkpt><trkpt lat="44.0064067" lon="11.2929168"><ele>284.0</ele><time>2026-03-28T09:42:04.871Z</time></trkpt><trkpt lat="44.0065033" lon="11.2929212"><ele>284.0</ele><time>2026-03-28T09:42:05.869Z</time></trkpt><trkpt lat="44.0066032" lon="11.2929474"><ele>284.0</ele><time>2026-03-28T09:42:06.869Z</time></trkpt><trkpt lat="44.0067099" lon="11.2929936"><ele>284.0</ele><time>2026-03-28T09:42:07.872Z</time></trkpt><trkpt lat="44.0068169" lon="11.2930595"><ele>284.0</ele><time>2026-03-28T09:42:08.863Z</time></trkpt><trkpt lat="44.0069137" lon="11.2931328"><ele>284.25</ele><time>2026-03-28T09:42:09.868Z</time></trkpt><trkpt lat="44.0070253" lon="11.293184"><ele>284.5</ele><time>2026-03-28T09:42:10.863Z</time></trkpt><trkpt lat="44.0071439" lon="11.2931938"><ele>284.75</ele><time>2026-03-28T09:42:11.872Z</time></trkpt><trkpt lat="44.0072552" lon="11.2931482"><ele>285.0</ele><time>2026-03-28T09:42:12.861Z</time></trkpt><trkpt lat="44.0073697" lon="11.2930594"><ele>283.75</ele><time>2026-03-28T09:42:13.859Z</time></trkpt><trkpt lat="44.0074904" lon="11.2929492"><ele>282.5</ele><time>2026-03-28T09:42:14.86Z</time></trkpt><trkpt lat="44.0076209" lon="11.2928447"><ele>281.25</ele><time>2026-03-28T09:42:15.852Z</time></trkpt><trkpt lat="44.0077502" lon="11.2927623"><ele>280.0</ele><time>2026-03-28T09:42:16.86Z</time></trkpt><trkpt lat="44.0078901" lon="11.2927245"><ele>280.0</ele><time>2026-03-28T09:42:17.86Z</time></trkpt><trkpt lat="44.0080213" lon="11.2927008"><ele>280.0</ele><time>2026-03-28T09:42:18.863Z</time></trkpt><trkpt lat="44.0081463" lon="11.2926956"><ele>280.0</ele><time>2026-03-28T09:42:19.859Z</time></trkpt><trkpt lat="44.0082716" lon="11.2927182"><ele>280.0</ele><time>2026-03-28T09:42:20.86Z</time></trkpt><trkpt lat="44.008388" lon="11.2927759"><ele>280.5</ele><time>2026-03-28T09:42:21.862Z</time></trkpt><trkpt lat="44.0085012" lon="11.2928349"><ele>281.0</ele><time>2026-03-28T09:42:22.859Z</time></trkpt><trkpt lat="44.008622" lon="11.2928643"><ele>281.5</ele><time>2026-03-28T09:42:23.862Z</time></trkpt><trkpt lat="44.0087458" lon="11.2928689"><ele>282.0</ele><time>2026-03-28T09:42:24.866Z</time></trkpt><trkpt lat="44.008864" lon="11.2928423"><ele>282.0</ele><time>2026-03-28T09:42:25.861Z</time></trkpt><trkpt lat="44.0090008" lon="11.2927994"><ele>282.0</ele><time>2026-03-28T09:42:26.866Z</time></trkpt><trkpt lat="44.0091387" lon="11.2927442"><ele>282.0</ele><time>2026-03-28T09:42:27.861Z</time></trkpt><trkpt lat="44.0092877" lon="11.2926719"><ele>282.0</ele><time>2026-03-28T09:42:28.861Z</time></trkpt><trkpt lat="44.0094437" lon="11.2926067"><ele>281.75</ele><time>2026-03-28T09:42:29.874Z</time></trkpt><trkpt lat="44.0095903" lon="11.2925612"><ele>281.5</ele><time>2026-03-28T09:42:30.87Z</time></trkpt><trkpt lat="44.0097257" lon="11.2925277"><ele>281.25</ele><time>2026-03-28T09:42:31.871Z</time></trkpt><trkpt lat="44.0098347" lon="11.292487"><ele>281.0</ele><time>2026-03-28T09:42:32.864Z</time></trkpt><trkpt lat="44.0099377" lon="11.2924028"><ele>281.0</ele><time>2026-03-28T09:42:33.86Z</time></trkpt><trkpt lat="44.0100415" lon="11.2923094"><ele>281.0</ele><time>2026-03-28T09:42:34.867Z</time></trkpt><trkpt lat="44.0101456" lon="11.2922131"><ele>281.0</ele><time>2026-03-28T09:42:35.859Z</time></trkpt><trkpt lat="44.0102529" lon="11.2921431"><ele>281.0</ele><time>2026-03-28T09:42:36.861Z</time></trkpt><trkpt lat="44.0103664" lon="11.2921162"><ele>281.0</ele><time>2026-03-28T09:42:37.863Z</time></trkpt><trkpt lat="44.0104875" lon="11.2920966"><ele>281.0</ele><time>2026-03-28T09:42:38.86Z</time></trkpt><trkpt lat="44.0106158" lon="11.2920793"><ele>281.0</ele><time>2026-03-28T09:42:39.864Z</time></trkpt><trkpt lat="44.010734" lon="11.292072"><ele>281.0</ele><time>2026-03-28T09:42:40.871Z</time></trkpt><trkpt lat="44.0108426" lon="11.2920803"><ele>281.5</ele><time>2026-03-28T09:42:41.868Z</time></trkpt><trkpt lat="44.0109527" lon="11.2920963"><ele>282.0</ele><time>2026-03-28T09:42:42.866Z</time></trkpt><trkpt lat="44.0110657" lon="11.2921155"><ele>282.5</ele><time>2026-03-28T09:42:43.863Z</time></trkpt><trkpt lat="44.0111794" lon="11.2921352"><ele>283.0</ele><time>2026-03-28T09:42:44.862Z</time></trkpt><trkpt lat="44.0113059" lon="11.2921429"><ele>283.0</ele><time>2026-03-28T09:42:45.869Z</time></trkpt><trkpt lat="44.0114313" lon="11.2921356"><ele>283.0</ele><time>2026-03-28T09:42:46.867Z</time></trkpt><trkpt lat="44.0115601" lon="11.2921207"><ele>283.0</ele><time>2026-03-28T09:42:47.863Z</time></trkpt><trkpt lat="44.0116899" lon="11.292097"><ele>283.0</ele><time>2026-03-28T09:42:48.861Z</time></trkpt><trkpt lat="44.011819" lon="11.2920536"><ele>283.75</ele><time>2026-03-28T09:42:49.864Z</time></trkpt><trkpt lat="44.0119487" lon="11.2919784"><ele>284.5</ele><time>2026-03-28T09:42:50.867Z</time></trkpt><trkpt lat="44.0120751" lon="11.2918787"><ele>285.25</ele><time>2026-03-28T09:42:51.864Z</time></trkpt><trkpt lat="44.0122039" lon="11.2917633"><ele>286.0</ele><time>2026-03-28T09:42:52.862Z</time></trkpt><trkpt lat="44.0123392" lon="11.2916626"><ele>286.0</ele><time>2026-03-28T09:42:53.867Z</time></trkpt><trkpt lat="44.0124611" lon="11.2915802"><ele>286.0</ele><time>2026-03-28T09:42:54.87Z</time></trkpt><trkpt lat="44.0125784" lon="11.2915163"><ele>286.0</ele><time>2026-03-28T09:42:55.872Z</time></trkpt><trkpt lat="44.0126989" lon="11.2914743"><ele>286.0</ele><time>2026-03-28T09:42:56.866Z</time></trkpt><trkpt lat="44.0128301" lon="11.2914357"><ele>285.75</ele><time>2026-03-28T09:42:57.868Z</time></trkpt><trkpt lat="44.0129614" lon="11.2913994"><ele>285.5</ele><time>2026-03-28T09:42:58.878Z</time></trkpt><trkpt lat="44.0130974" lon="11.2913791"><ele>285.25</ele><time>2026-03-28T09:42:59.867Z</time></trkpt><trkpt lat="44.0132411" lon="11.2913473"><ele>285.0</ele><time>2026-03-28T09:43:00.866Z</time></trkpt><trkpt lat="44.013387" lon="11.2913133"><ele>285.5</ele><time>2026-03-28T09:43:01.879Z</time></trkpt><trkpt lat="44.0135275" lon="11.2912775"><ele>286.0</ele><time>2026-03-28T09:43:02.873Z</time></trkpt><trkpt lat="44.0136635" lon="11.2912502"><ele>286.5</ele><time>2026-03-28T09:43:03.869Z</time></trkpt><trkpt lat="44.0138069" lon="11.2912254"><ele>287.0</ele><time>2026-03-28T09:43:04.861Z</time></trkpt><trkpt lat="44.0139504" lon="11.2912045"><ele>287.0</ele><time>2026-03-28T09:43:05.866Z</time></trkpt><trkpt lat="44.0140849" lon="11.2911928"><ele>287.0</ele><time>2026-03-28T09:43:06.87Z</time></trkpt><trkpt lat="44.0142047" lon="11.2911724"><ele>287.0</ele><time>2026-03-28T09:43:07.869Z</time></trkpt><trkpt lat="44.0143154" lon="11.2911588"><ele>287.0</ele><time>2026-03-28T09:43:08.871Z</time></trkpt><trkpt lat="44.0144109" lon="11.2911511"><ele>287.2</ele><time>2026-03-28T09:43:09.875Z</time></trkpt><trkpt lat="44.0144841" lon="11.2911476"><ele>287.4</ele><time>2026-03-28T09:43:10.875Z</time></trkpt><trkpt lat="44.0145735" lon="11.2911891"><ele>287.6</ele><time>2026-03-28T09:43:12.871Z</time></trkpt><trkpt lat="44.0146445" lon="11.2913426"><ele>287.8</ele><time>2026-03-28T09:43:14.864Z</time></trkpt><trkpt lat="44.0146722" lon="11.2914687"><ele>288.0</ele><time>2026-03-28T09:43:15.866Z</time></trkpt><trkpt lat="44.0146963" lon="11.2916055"><ele>288.6</ele><time>2026-03-28T09:43:16.864Z</time></trkpt><trkpt lat="44.0147155" lon="11.2917503"><ele>289.20000000000005</ele><time>2026-03-28T09:43:17.865Z</time></trkpt><trkpt lat="44.0147246" lon="11.2918998"><ele>289.8</ele><time>2026-03-28T09:43:18.865Z</time></trkpt><trkpt lat="44.0147287" lon="11.2920548"><ele>290.40000000000003</ele><time>2026-03-28T09:43:19.866Z</time></trkpt><trkpt lat="44.014727" lon="11.2922089"><ele>291.0</ele><time>2026-03-28T09:43:20.871Z</time></trkpt><trkpt lat="44.0147256" lon="11.292363"><ele>291.40000000000003</ele><time>2026-03-28T09:43:21.869Z</time></trkpt><trkpt lat="44.0147251" lon="11.2925198"><ele>291.8</ele><time>2026-03-28T09:43:22.872Z</time></trkpt><trkpt lat="44.0147225" lon="11.2926737"><ele>292.20000000000005</ele><time>2026-03-28T09:43:23.869Z</time></trkpt><trkpt lat="44.0147288" lon="11.2928225"><ele>292.6</ele><time>2026-03-28T09:43:24.871Z</time></trkpt><trkpt lat="44.0147384" lon="11.292971"><ele>293.0</ele><time>2026-03-28T09:43:25.868Z</time></trkpt><trkpt lat="44.0147618" lon="11.2931134"><ele>293.6</ele><time>2026-03-28T09:43:26.869Z</time></trkpt><trkpt lat="44.0147979" lon="11.2932572"><ele>294.20000000000005</ele><time>2026-03-28T09:43:27.866Z</time></trkpt><trkpt lat="44.0148457" lon="11.2933923"><ele>294.8</ele><time>2026-03-28T09:43:28.867Z</time></trkpt><trkpt lat="44.0149036" lon="11.2935198"><ele>295.40000000000003</ele><time>2026-03-28T09:43:29.871Z</time></trkpt><trkpt lat="44.0149717" lon="11.2936393"><ele>296.0</ele><time>2026-03-28T09:43:30.868Z</time></trkpt><trkpt lat="44.0150549" lon="11.2937598"><ele>296.0</ele><time>2026-03-28T09:43:31.868Z</time></trkpt><trkpt lat="44.0151482" lon="11.2938741"><ele>296.0</ele><time>2026-03-28T09:43:32.878Z</time></trkpt><trkpt lat="44.0152468" lon="11.2939786"><ele>296.0</ele><time>2026-03-28T09:43:33.865Z</time></trkpt><trkpt lat="44.0153515" lon="11.2940798"><ele>296.0</ele><time>2026-03-28T09:43:34.872Z</time></trkpt><trkpt lat="44.0154628" lon="11.2941809"><ele>296.25</ele><time>2026-03-28T09:43:35.866Z</time></trkpt><trkpt lat="44.0155725" lon="11.2942842"><ele>296.5</ele><time>2026-03-28T09:43:36.87Z</time></trkpt><trkpt lat="44.0156816" lon="11.2943835"><ele>296.75</ele><time>2026-03-28T09:43:37.865Z</time></trkpt><trkpt lat="44.0157866" lon="11.2944801"><ele>297.0</ele><time>2026-03-28T09:43:38.868Z</time></trkpt><trkpt lat="44.0158883" lon="11.294577"><ele>297.5</ele><time>2026-03-28T09:43:39.872Z</time></trkpt><trkpt lat="44.0159875" lon="11.294672"><ele>298.0</ele><time>2026-03-28T09:43:40.869Z</time></trkpt><trkpt lat="44.0160868" lon="11.2947738"><ele>298.5</ele><time>2026-03-28T09:43:41.868Z</time></trkpt><trkpt lat="44.0161873" lon="11.2948753"><ele>299.0</ele><time>2026-03-28T09:43:42.874Z</time></trkpt><trkpt lat="44.016292" lon="11.2949773"><ele>300.25</ele><time>2026-03-28T09:43:43.878Z</time></trkpt><trkpt lat="44.0163981" lon="11.2950787"><ele>301.5</ele><time>2026-03-28T09:43:44.865Z</time></trkpt><trkpt lat="44.0165033" lon="11.2951809"><ele>302.75</ele><time>2026-03-28T09:43:45.868Z</time></trkpt><trkpt lat="44.0166102" lon="11.2952838"><ele>304.0</ele><time>2026-03-28T09:43:46.869Z</time></trkpt><trkpt lat="44.0167151" lon="11.2953873"><ele>304.0</ele><time>2026-03-28T09:43:47.867Z</time></trkpt><trkpt lat="44.0168182" lon="11.2954906"><ele>304.0</ele><time>2026-03-28T09:43:48.875Z</time></trkpt><trkpt lat="44.0169189" lon="11.2955929"><ele>304.0</ele><time>2026-03-28T09:43:49.868Z</time></trkpt><trkpt lat="44.0170196" lon="11.2956999"><ele>304.0</ele><time>2026-03-28T09:43:50.869Z</time></trkpt><trkpt lat="44.017116" lon="11.295805"><ele>305.4</ele><time>2026-03-28T09:43:51.868Z</time></trkpt><trkpt lat="44.0172068" lon="11.2959181"><ele>306.79999999999995</ele><time>2026-03-28T09:43:52.872Z</time></trkpt><trkpt lat="44.0172919" lon="11.2960335"><ele>308.20000000000005</ele><time>2026-03-28T09:43:53.869Z</time></trkpt><trkpt lat="44.0173652" lon="11.2961467"><ele>309.6</ele><time>2026-03-28T09:43:54.869Z</time></trkpt><trkpt lat="44.0174231" lon="11.2962531"><ele>311.0</ele><time>2026-03-28T09:43:55.867Z</time></trkpt><trkpt lat="44.0174732" lon="11.2963502"><ele>311.33333333333337</ele><time>2026-03-28T09:43:56.871Z</time></trkpt><trkpt lat="44.0175166" lon="11.296435"><ele>311.6666666666667</ele><time>2026-03-28T09:43:57.866Z</time></trkpt><trkpt lat="44.0175546" lon="11.2965115"><ele>312.0</ele><time>2026-03-28T09:43:58.864Z</time></trkpt><trkpt lat="44.0176495" lon="11.2966283"><ele>312.3333333333333</ele><time>2026-03-28T09:44:00.868Z</time></trkpt><trkpt lat="44.017719" lon="11.29667"><ele>312.66666666666663</ele><time>2026-03-28T09:44:01.863Z</time></trkpt><trkpt lat="44.0178022" lon="11.2967028"><ele>313.0</ele><time>2026-03-28T09:44:02.875Z</time></trkpt><trkpt lat="44.017886" lon="11.2967265"><ele>313.0</ele><time>2026-03-28T09:44:03.876Z</time></trkpt><trkpt lat="44.0179732" lon="11.2967499"><ele>313.0</ele><time>2026-03-28T09:44:04.867Z</time></trkpt><trkpt lat="44.0180582" lon="11.2967739"><ele>313.0</ele><time>2026-03-28T09:44:05.869Z</time></trkpt><trkpt lat="44.0181444" lon="11.2967977"><ele>313.0</ele><time>2026-03-28T09:44:06.871Z</time></trkpt><trkpt lat="44.0182254" lon="11.2968187"><ele>313.0</ele><time>2026-03-28T09:44:07.872Z</time></trkpt><trkpt lat="44.0183019" lon="11.2968369"><ele>313.0</ele><time>2026-03-28T09:44:08.868Z</time></trkpt><trkpt lat="44.0183751" lon="11.2968488"><ele>313.5</ele><time>2026-03-28T09:44:09.872Z</time></trkpt><trkpt lat="44.0184432" lon="11.296854"><ele>314.0</ele><time>2026-03-28T09:44:10.869Z</time></trkpt><trkpt lat="44.018565" lon="11.296882"><ele>314.5</ele><time>2026-03-28T09:44:12.872Z</time></trkpt><trkpt lat="44.0186244" lon="11.2969139"><ele>315.0</ele><time>2026-03-28T09:44:13.868Z</time></trkpt><trkpt lat="44.0187307" lon="11.2969857"><ele>315.5</ele><time>2026-03-28T09:44:15.865Z</time></trkpt><trkpt lat="44.0187791" lon="11.2970644"><ele>316.0</ele><time>2026-03-28T09:44:17.875Z</time></trkpt><trkpt lat="44.0187501" lon="11.2971761"><ele>316.40000000000003</ele><time>2026-03-28T09:44:19.888Z</time></trkpt><trkpt lat="44.0188044" lon="11.2972682"><ele>316.8</ele><time>2026-03-28T09:44:22.885Z</time></trkpt><trkpt lat="44.0189283" lon="11.2972965"><ele>317.20000000000005</ele><time>2026-03-28T09:44:24.87Z</time></trkpt><trkpt lat="44.0190062" lon="11.2973234"><ele>317.6</ele><time>2026-03-28T09:44:25.87Z</time></trkpt><trkpt lat="44.0190934" lon="11.2973541"><ele>318.0</ele><time>2026-03-28T09:44:26.869Z</time></trkpt><trkpt lat="44.0191897" lon="11.2973922"><ele>318.25</ele><time>2026-03-28T09:44:27.864Z</time></trkpt><trkpt lat="44.0192983" lon="11.2974362"><ele>318.5</ele><time>2026-03-28T09:44:28.877Z</time></trkpt><trkpt lat="44.0194125" lon="11.2974823"><ele>318.75</ele><time>2026-03-28T09:44:29.87Z</time></trkpt><trkpt lat="44.0195388" lon="11.2975301"><ele>319.0</ele><time>2026-03-28T09:44:30.871Z</time></trkpt><trkpt lat="44.0196714" lon="11.2975858"><ele>319.0</ele><time>2026-03-28T09:44:31.867Z</time></trkpt><trkpt lat="44.0198113" lon="11.2976466"><ele>319.0</ele><time>2026-03-28T09:44:32.872Z</time></trkpt><trkpt lat="44.0199491" lon="11.297706"><ele>319.0</ele><time>2026-03-28T09:44:33.87Z</time></trkpt><trkpt lat="44.0200991" lon="11.2977699"><ele>319.0</ele><time>2026-03-28T09:44:34.884Z</time></trkpt><trkpt lat="44.0202467" lon="11.2978313"><ele>319.75</ele><time>2026-03-28T09:44:35.87Z</time></trkpt><trkpt lat="44.0203913" lon="11.2978897"><ele>320.5</ele><time>2026-03-28T09:44:36.868Z</time></trkpt><trkpt lat="44.0205333" lon="11.2979371"><ele>321.25</ele><time>2026-03-28T09:44:37.87Z</time></trkpt><trkpt lat="44.020667" lon="11.2979883"><ele>322.0</ele><time>2026-03-28T09:44:38.868Z</time></trkpt><trkpt lat="44.0207961" lon="11.2980385"><ele>323.75</ele><time>2026-03-28T09:44:39.869Z</time></trkpt><trkpt lat="44.0209187" lon="11.2980906"><ele>325.5</ele><time>2026-03-28T09:44:40.871Z</time></trkpt><trkpt lat="44.0210558" lon="11.2981415"><ele>327.25</ele><time>2026-03-28T09:44:41.87Z</time></trkpt><trkpt lat="44.0211806" lon="11.2982009"><ele>329.0</ele><time>2026-03-28T09:44:42.869Z</time></trkpt><trkpt lat="44.0212926" lon="11.2982498"><ele>329.0</ele><time>2026-03-28T09:44:43.869Z</time></trkpt><trkpt lat="44.0214" lon="11.2982884"><ele>329.0</ele><time>2026-03-28T09:44:44.871Z</time></trkpt><trkpt lat="44.021512" lon="11.2983144"><ele>329.0</ele><time>2026-03-28T09:44:45.869Z</time></trkpt><trkpt lat="44.0216084" lon="11.2983329"><ele>329.0</ele><time>2026-03-28T09:44:46.869Z</time></trkpt><trkpt lat="44.0217013" lon="11.2983447"><ele>329.0</ele><time>2026-03-28T09:44:47.868Z</time></trkpt><trkpt lat="44.0217952" lon="11.2983667"><ele>330.79999999999995</ele><time>2026-03-28T09:44:48.869Z</time></trkpt><trkpt lat="44.0218885" lon="11.2984002"><ele>332.59999999999997</ele><time>2026-03-28T09:44:49.867Z</time></trkpt><trkpt lat="44.0219766" lon="11.2984253"><ele>334.4</ele><time>2026-03-28T09:44:50.867Z</time></trkpt><trkpt lat="44.0220657" lon="11.2984376"><ele>336.2</ele><time>2026-03-28T09:44:51.863Z</time></trkpt><trkpt lat="44.0221612" lon="11.2984462"><ele>338.0</ele><time>2026-03-28T09:44:52.867Z</time></trkpt><trkpt lat="44.0222563" lon="11.2984675"><ele>338.0</ele><time>2026-03-28T09:44:53.865Z</time></trkpt><trkpt lat="44.0223359" lon="11.2985015"><ele>338.0</ele><time>2026-03-28T09:44:54.868Z</time></trkpt><trkpt lat="44.0223923" lon="11.2985467"><ele>338.0</ele><time>2026-03-28T09:44:55.868Z</time></trkpt><trkpt lat="44.0224456" lon="11.2985987"><ele>338.0</ele><time>2026-03-28T09:44:56.875Z</time></trkpt><trkpt lat="44.0225102" lon="11.298652"><ele>338.0</ele><time>2026-03-28T09:44:57.868Z</time></trkpt><trkpt lat="44.0225919" lon="11.2987001"><ele>338.0</ele><time>2026-03-28T09:44:58.872Z</time></trkpt><trkpt lat="44.0226826" lon="11.2987373"><ele>338.1666666666667</ele><time>2026-03-28T09:44:59.872Z</time></trkpt><trkpt lat="44.0227735" lon="11.2987699"><ele>338.33333333333337</ele><time>2026-03-28T09:45:00.869Z</time></trkpt><trkpt lat="44.0228538" lon="11.2988046"><ele>338.5</ele><time>2026-03-28T09:45:01.88Z</time></trkpt><trkpt lat="44.0229237" lon="11.2988507"><ele>338.6666666666667</ele><time>2026-03-28T09:45:02.881Z</time></trkpt><trkpt lat="44.022994" lon="11.2989087"><ele>338.8333333333333</ele><time>2026-03-28T09:45:03.88Z</time></trkpt><trkpt lat="44.0230648" lon="11.2989675"><ele>339.0</ele><time>2026-03-28T09:45:04.879Z</time></trkpt><trkpt lat="44.0231383" lon="11.2990254"><ele>339.0</ele><time>2026-03-28T09:45:05.892Z</time></trkpt><trkpt lat="44.0232202" lon="11.2990787"><ele>339.0</ele><time>2026-03-28T09:45:06.883Z</time></trkpt><trkpt lat="44.0233079" lon="11.2991167"><ele>339.0</ele><time>2026-03-28T09:45:07.88Z</time></trkpt><trkpt lat="44.0234048" lon="11.2991523"><ele>339.0</ele><time>2026-03-28T09:45:08.884Z</time></trkpt><trkpt lat="44.0235024" lon="11.2991953"><ele>339.0</ele><time>2026-03-28T09:45:09.881Z</time></trkpt><trkpt lat="44.0236049" lon="11.2992416"><ele>341.75</ele><time>2026-03-28T09:45:10.881Z</time></trkpt><trkpt lat="44.0237126" lon="11.2992959"><ele>344.5</ele><time>2026-03-28T09:45:11.884Z</time></trkpt><trkpt lat="44.0238248" lon="11.2993444"><ele>347.25</ele><time>2026-03-28T09:45:12.87Z</time></trkpt><trkpt lat="44.0239381" lon="11.2993933"><ele>350.0</ele><time>2026-03-28T09:45:13.871Z</time></trkpt><trkpt lat="44.0240577" lon="11.2994439"><ele>352.5</ele><time>2026-03-28T09:45:14.869Z</time></trkpt><trkpt lat="44.0241817" lon="11.2995002"><ele>355.0</ele><time>2026-03-28T09:45:15.874Z</time></trkpt><trkpt lat="44.0243139" lon="11.2995599"><ele>357.5</ele><time>2026-03-28T09:45:16.871Z</time></trkpt><trkpt lat="44.024445" lon="11.2996133"><ele>360.0</ele><time>2026-03-28T09:45:17.87Z</time></trkpt><trkpt lat="44.0245685" lon="11.2996619"><ele>360.0</ele><time>2026-03-28T09:45:18.874Z</time></trkpt><trkpt lat="44.0246838" lon="11.2997048"><ele>360.0</ele><time>2026-03-28T09:45:19.869Z</time></trkpt><trkpt lat="44.0247943" lon="11.2997447"><ele>360.0</ele><time>2026-03-28T09:45:20.87Z</time></trkpt><trkpt lat="44.0249002" lon="11.2997885"><ele>360.0</ele><time>2026-03-28T09:45:21.876Z</time></trkpt><trkpt lat="44.0250009" lon="11.2998297"><ele>360.0</ele><time>2026-03-28T09:45:22.875Z</time></trkpt><trkpt lat="44.0251051" lon="11.2998707"><ele>363.2</ele><time>2026-03-28T09:45:23.88Z</time></trkpt><trkpt lat="44.0252064" lon="11.2999091"><ele>366.4</ele><time>2026-03-28T09:45:24.878Z</time></trkpt><trkpt lat="44.0253021" lon="11.2999552"><ele>369.6</ele><time>2026-03-28T09:45:25.873Z</time></trkpt><trkpt lat="44.0253924" lon="11.2999995"><ele>372.8</ele><time>2026-03-28T09:45:26.88Z</time></trkpt><trkpt lat="44.0254731" lon="11.3000329"><ele>376.0</ele><time>2026-03-28T09:45:27.876Z</time></trkpt><trkpt lat="44.0255517" lon="11.3000643"><ele>376.0</ele><time>2026-03-28T09:45:28.878Z</time></trkpt><trkpt lat="44.0256398" lon="11.3000971"><ele>376.0</ele><time>2026-03-28T09:45:29.886Z</time></trkpt><trkpt lat="44.0257275" lon="11.3001384"><ele>376.0</ele><time>2026-03-28T09:45:30.874Z</time></trkpt><trkpt lat="44.02581" lon="11.3001787"><ele>376.0</ele><time>2026-03-28T09:45:31.88Z</time></trkpt><trkpt lat="44.0258944" lon="11.3002119"><ele>376.0</ele><time>2026-03-28T09:45:32.876Z</time></trkpt><trkpt lat="44.0259862" lon="11.3002517"><ele>377.3333333333333</ele><time>2026-03-28T09:45:33.874Z</time></trkpt><trkpt lat="44.0260751" lon="11.3002918"><ele>378.66666666666663</ele><time>2026-03-28T09:45:34.872Z</time></trkpt><trkpt lat="44.026159" lon="11.3003249"><ele>380.0</ele><time>2026-03-28T09:45:35.876Z</time></trkpt><trkpt lat="44.0262281" lon="11.3003591"><ele>381.3333333333333</ele><time>2026-03-28T09:45:36.871Z</time></trkpt><trkpt lat="44.0262851" lon="11.3004426"><ele>382.6666666666667</ele><time>2026-03-28T09:45:38.873Z</time></trkpt><trkpt lat="44.0262272" lon="11.3005749"><ele>384.0</ele><time>2026-03-28T09:45:40.886Z</time></trkpt><trkpt lat="44.0261913" lon="11.3006902"><ele>383.99999999999994</ele><time>2026-03-28T09:45:42.875Z</time></trkpt><trkpt lat="44.0262699" lon="11.3007348"><ele>384.0</ele><time>2026-03-28T09:45:46.894Z</time></trkpt><trkpt lat="44.0263433" lon="11.3007637"><ele>384.0</ele><time>2026-03-28T09:45:49.882Z</time></trkpt><trkpt lat="44.0262786" lon="11.3007864"><ele>384.0</ele><time>2026-03-28T09:45:58.878Z</time></trkpt><trkpt lat="44.0262127" lon="11.3007131"><ele>384.0</ele><time>2026-03-28T09:46:00.878Z</time></trkpt><trkpt lat="44.0261514" lon="11.300692"><ele>383.99999999999994</ele><time>2026-03-28T09:46:05.875Z</time></trkpt><trkpt lat="44.026138" lon="11.3006019"><ele>384.0</ele><time>2026-03-28T09:46:15.891Z</time></trkpt><trkpt lat="44.0261624" lon="11.3004935"><ele>384.0</ele><time>2026-03-28T09:46:18.882Z</time></trkpt><trkpt lat="44.0261607" lon="11.300379"><ele>384.0</ele><time>2026-03-28T09:46:21.879Z</time></trkpt><trkpt lat="44.0260961" lon="11.3003259"><ele>384.0</ele><time>2026-03-28T09:46:24.889Z</time></trkpt><trkpt lat="44.0260158" lon="11.3003086"><ele>384.0</ele><time>2026-03-28T09:46:26.889Z</time></trkpt><trkpt lat="44.0259311" lon="11.3002674"><ele>384.0</ele><time>2026-03-28T09:46:28.88Z</time></trkpt><trkpt lat="44.0258421" lon="11.3002249"><ele>384.0</ele><time>2026-03-28T09:46:30.879Z</time></trkpt><trkpt lat="44.0257702" lon="11.3001977"><ele>382.6666666666667</ele><time>2026-03-28T09:46:32.88Z</time></trkpt><trkpt lat="44.0257114" lon="11.3001653"><ele>381.3333333333333</ele><time>2026-03-28T09:46:34.885Z</time></trkpt><trkpt lat="44.0256452" lon="11.3001234"><ele>380.0</ele><time>2026-03-28T09:46:36.88Z</time></trkpt><trkpt lat="44.0255612" lon="11.3000809"><ele>378.66666666666663</ele><time>2026-03-28T09:46:38.893Z</time></trkpt><trkpt lat="44.0254541" lon="11.3000369"><ele>377.3333333333333</ele><time>2026-03-28T09:46:40.892Z</time></trkpt><trkpt lat="44.0253479" lon="11.2999959"><ele>376.0</ele><time>2026-03-28T09:46:42.878Z</time></trkpt><trkpt lat="44.0252666" lon="11.2999645"><ele>376.0</ele><time>2026-03-28T09:46:44.884Z</time></trkpt><trkpt lat="44.0252082" lon="11.2999299"><ele>376.0</ele><time>2026-03-28T09:46:46.878Z</time></trkpt><trkpt lat="44.0253045" lon="11.2999655"><ele>376.0</ele><time>2026-03-28T09:47:37.877Z</time></trkpt><trkpt lat="44.0253696" lon="11.2999974"><ele>376.0</ele><time>2026-03-28T09:47:38.868Z</time></trkpt><trkpt lat="44.0254367" lon="11.3000291"><ele>376.0</ele><time>2026-03-28T09:47:39.863Z</time></trkpt><trkpt lat="44.025505" lon="11.3000608"><ele>376.0</ele><time>2026-03-28T09:47:40.884Z</time></trkpt><trkpt lat="44.0255781" lon="11.3000884"><ele>376.0</ele><time>2026-03-28T09:47:41.868Z</time></trkpt><trkpt lat="44.0256478" lon="11.3001211"><ele>376.0</ele><time>2026-03-28T09:47:42.867Z</time></trkpt><trkpt lat="44.0257126" lon="11.3001551"><ele>376.0</ele><time>2026-03-28T09:47:43.869Z</time></trkpt><trkpt lat="44.0257801" lon="11.3001842"><ele>376.0</ele><time>2026-03-28T09:47:44.876Z</time></trkpt><trkpt lat="44.0258493" lon="11.3002215"><ele>376.0</ele><time>2026-03-28T09:47:45.88Z</time></trkpt><trkpt lat="44.0259227" lon="11.3002576"><ele>376.0</ele><time>2026-03-28T09:47:46.875Z</time></trkpt><trkpt lat="44.0259999" lon="11.300296"><ele>376.0</ele><time>2026-03-28T09:47:47.875Z</time></trkpt><trkpt lat="44.0260794" lon="11.3003272"><ele>377.3333333333333</ele><time>2026-03-28T09:47:48.875Z</time></trkpt><trkpt lat="44.0261537" lon="11.3003493"><ele>378.66666666666663</ele><time>2026-03-28T09:47:49.863Z</time></trkpt><trkpt lat="44.0262432" lon="11.3004046"><ele>380.0</ele><time>2026-03-28T09:47:51.877Z</time></trkpt><trkpt lat="44.0262256" lon="11.3005038"><ele>381.3333333333333</ele><time>2026-03-28T09:47:53.888Z</time></trkpt><trkpt lat="44.0261726" lon="11.3006265"><ele>382.6666666666667</ele><time>2026-03-28T09:47:55.889Z</time></trkpt><trkpt lat="44.0261897" lon="11.3007112"><ele>384.0</ele><time>2026-03-28T09:47:57.879Z</time></trkpt><trkpt lat="44.0262813" lon="11.3007668"><ele>385.1666666666667</ele><time>2026-03-28T09:47:59.878Z</time></trkpt><trkpt lat="44.0263934" lon="11.3008386"><ele>386.33333333333337</ele><time>2026-03-28T09:48:01.864Z</time></trkpt><trkpt lat="44.0264526" lon="11.3008797"><ele>387.5</ele><time>2026-03-28T09:48:02.873Z</time></trkpt><trkpt lat="44.0265122" lon="11.3009176"><ele>388.6666666666667</ele><time>2026-03-28T09:48:03.868Z</time></trkpt><trkpt lat="44.0265712" lon="11.3009602"><ele>389.83333333333337</ele><time>2026-03-28T09:48:04.873Z</time></trkpt><trkpt lat="44.0266289" lon="11.3010166"><ele>391.0</ele><time>2026-03-28T09:48:05.871Z</time></trkpt><trkpt lat="44.0266937" lon="11.3010802"><ele>392.50000000000006</ele><time>2026-03-28T09:48:06.868Z</time></trkpt><trkpt lat="44.0267558" lon="11.3011513"><ele>394.0</ele><time>2026-03-28T09:48:07.871Z</time></trkpt><trkpt lat="44.0268147" lon="11.3012126"><ele>395.5</ele><time>2026-03-28T09:48:08.875Z</time></trkpt><trkpt lat="44.0268751" lon="11.3012721"><ele>397.0</ele><time>2026-03-28T09:48:09.867Z</time></trkpt><trkpt lat="44.0269352" lon="11.3013379"><ele>398.50000000000006</ele><time>2026-03-28T09:48:10.88Z</time></trkpt><trkpt lat="44.026986" lon="11.3014146"><ele>400.0</ele><time>2026-03-28T09:48:11.867Z</time></trkpt><trkpt lat="44.027025" lon="11.3015022"><ele>401.83333333333337</ele><time>2026-03-28T09:48:12.864Z</time></trkpt><trkpt lat="44.027051" lon="11.3016038"><ele>403.6666666666667</ele><time>2026-03-28T09:48:13.864Z</time></trkpt><trkpt lat="44.0270728" lon="11.3017139"><ele>405.5</ele><time>2026-03-28T09:48:14.867Z</time></trkpt><trkpt lat="44.0270928" lon="11.3018321"><ele>407.33333333333337</ele><time>2026-03-28T09:48:15.874Z</time></trkpt><trkpt lat="44.0271117" lon="11.301949"><ele>409.1666666666667</ele><time>2026-03-28T09:48:16.872Z</time></trkpt><trkpt lat="44.0271411" lon="11.3020507"><ele>411.0</ele><time>2026-03-28T09:48:17.867Z</time></trkpt><trkpt lat="44.0271809" lon="11.3021338"><ele>411.0</ele><time>2026-03-28T09:48:18.869Z</time></trkpt><trkpt lat="44.0272286" lon="11.3022006"><ele>411.0</ele><time>2026-03-28T09:48:19.874Z</time></trkpt><trkpt lat="44.0272862" lon="11.302261"><ele>411.0</ele><time>2026-03-28T09:48:20.87Z</time></trkpt><trkpt lat="44.0273485" lon="11.3023149"><ele>411.0</ele><time>2026-03-28T09:48:21.872Z</time></trkpt><trkpt lat="44.0274156" lon="11.3023704"><ele>411.0</ele><time>2026-03-28T09:48:22.88Z</time></trkpt><trkpt lat="44.0274885" lon="11.3024334"><ele>411.0</ele><time>2026-03-28T09:48:23.88Z</time></trkpt><trkpt lat="44.0275609" lon="11.3025095"><ele>413.3333333333333</ele><time>2026-03-28T09:48:24.878Z</time></trkpt><trkpt lat="44.0276278" lon="11.3025915"><ele>415.66666666666663</ele><time>2026-03-28T09:48:25.878Z</time></trkpt><trkpt lat="44.0276826" lon="11.3026799"><ele>418.0</ele><time>2026-03-28T09:48:26.879Z</time></trkpt><trkpt lat="44.0277432" lon="11.3027741"><ele>420.3333333333333</ele><time>2026-03-28T09:48:27.876Z</time></trkpt><trkpt lat="44.0277957" lon="11.3028764"><ele>422.66666666666663</ele><time>2026-03-28T09:48:28.862Z</time></trkpt><trkpt lat="44.0278385" lon="11.3029718"><ele>425.0</ele><time>2026-03-28T09:48:29.88Z</time></trkpt><trkpt lat="44.0278833" lon="11.3030629"><ele>424.8</ele><time>2026-03-28T09:48:30.864Z</time></trkpt><trkpt lat="44.0279301" lon="11.3031666"><ele>424.6</ele><time>2026-03-28T09:48:31.865Z</time></trkpt><trkpt lat="44.0279752" lon="11.3032792"><ele>424.4</ele><time>2026-03-28T09:48:32.871Z</time></trkpt><trkpt lat="44.0280112" lon="11.3034007"><ele>424.2</ele><time>2026-03-28T09:48:33.876Z</time></trkpt><trkpt lat="44.0280531" lon="11.3035157"><ele>424.0</ele><time>2026-03-28T09:48:34.877Z</time></trkpt><trkpt lat="44.0280993" lon="11.3036144"><ele>424.00000000000006</ele><time>2026-03-28T09:48:35.872Z</time></trkpt><trkpt lat="44.0281586" lon="11.3036967"><ele>424.0</ele><time>2026-03-28T09:48:36.872Z</time></trkpt><trkpt lat="44.0282263" lon="11.3037751"><ele>424.0</ele><time>2026-03-28T09:48:37.881Z</time></trkpt><trkpt lat="44.0282844" lon="11.3038611"><ele>424.0</ele><time>2026-03-28T09:48:38.878Z</time></trkpt><trkpt lat="44.0283165" lon="11.3039533"><ele>424.00000000000006</ele><time>2026-03-28T09:48:39.879Z</time></trkpt><trkpt lat="44.0283333" lon="11.3040477"><ele>424.0</ele><time>2026-03-28T09:48:40.877Z</time></trkpt><trkpt lat="44.0283447" lon="11.3041491"><ele>425.83333333333337</ele><time>2026-03-28T09:48:41.882Z</time></trkpt><trkpt lat="44.0283699" lon="11.3042341"><ele>427.6666666666667</ele><time>2026-03-28T09:48:42.869Z</time></trkpt><trkpt lat="44.0284074" lon="11.304305"><ele>429.5</ele><time>2026-03-28T09:48:43.88Z</time></trkpt><trkpt lat="44.0285237" lon="11.3043774"><ele>431.33333333333337</ele><time>2026-03-28T09:48:45.875Z</time></trkpt><trkpt lat="44.0286022" lon="11.304406"><ele>433.1666666666667</ele><time>2026-03-28T09:48:46.871Z</time></trkpt><trkpt lat="44.0286872" lon="11.3044415"><ele>435.0</ele><time>2026-03-28T09:48:47.873Z</time></trkpt><trkpt lat="44.0287651" lon="11.3044719"><ele>435.0</ele><time>2026-03-28T09:48:48.873Z</time></trkpt><trkpt lat="44.0288421" lon="11.3044786"><ele>435.0</ele><time>2026-03-28T09:48:49.869Z</time></trkpt><trkpt lat="44.0289155" lon="11.3044638"><ele>435.0</ele><time>2026-03-28T09:48:50.873Z</time></trkpt><trkpt lat="44.0289873" lon="11.3044487"><ele>435.0</ele><time>2026-03-28T09:48:51.874Z</time></trkpt><trkpt lat="44.0290569" lon="11.3044399"><ele>435.0</ele><time>2026-03-28T09:48:52.868Z</time></trkpt><trkpt lat="44.0291353" lon="11.3044299"><ele>435.0</ele><time>2026-03-28T09:48:53.867Z</time></trkpt><trkpt lat="44.0292149" lon="11.3044283"><ele>437.1666666666667</ele><time>2026-03-28T09:48:54.875Z</time></trkpt><trkpt lat="44.0292951" lon="11.3044484"><ele>439.33333333333337</ele><time>2026-03-28T09:48:55.876Z</time></trkpt><trkpt lat="44.0293805" lon="11.304479"><ele>441.5</ele><time>2026-03-28T09:48:56.876Z</time></trkpt><trkpt lat="44.0294662" lon="11.3045165"><ele>443.6666666666667</ele><time>2026-03-28T09:48:57.873Z</time></trkpt><trkpt lat="44.0295488" lon="11.3045518"><ele>445.83333333333337</ele><time>2026-03-28T09:48:58.875Z</time></trkpt><trkpt lat="44.0296232" lon="11.3045832"><ele>448.0</ele><time>2026-03-28T09:48:59.877Z</time></trkpt><trkpt lat="44.0297001" lon="11.3046124"><ele>448.00000000000006</ele><time>2026-03-28T09:49:00.874Z</time></trkpt><trkpt lat="44.0297795" lon="11.3046416"><ele>448.0</ele><time>2026-03-28T09:49:01.871Z</time></trkpt><trkpt lat="44.0298632" lon="11.3046709"><ele>448.0</ele><time>2026-03-28T09:49:02.883Z</time></trkpt><trkpt lat="44.0299423" lon="11.3046976"><ele>448.0</ele><time>2026-03-28T09:49:03.872Z</time></trkpt><trkpt lat="44.0300179" lon="11.3047149"><ele>448.00000000000006</ele><time>2026-03-28T09:49:04.875Z</time></trkpt><trkpt lat="44.0300936" lon="11.3047294"><ele>448.0</ele><time>2026-03-28T09:49:05.862Z</time></trkpt><trkpt lat="44.0301693" lon="11.3047458"><ele>448.00000000000006</ele><time>2026-03-28T09:49:06.873Z</time></trkpt><trkpt lat="44.0302498" lon="11.3047752"><ele>448.0</ele><time>2026-03-28T09:49:07.871Z</time></trkpt><trkpt lat="44.0303205" lon="11.3048236"><ele>448.0</ele><time>2026-03-28T09:49:08.872Z</time></trkpt><trkpt lat="44.030384" lon="11.304888"><ele>448.0</ele><time>2026-03-28T09:49:09.87Z</time></trkpt><trkpt lat="44.0304423" lon="11.3049543"><ele>448.00000000000006</ele><time>2026-03-28T09:49:10.87Z</time></trkpt><trkpt lat="44.0305083" lon="11.3050088"><ele>448.0</ele><time>2026-03-28T09:49:11.87Z</time></trkpt><trkpt lat="44.0305804" lon="11.3050455"><ele>448.0</ele><time>2026-03-28T09:49:12.878Z</time></trkpt><trkpt lat="44.0306531" lon="11.3050647"><ele>447.99999999999994</ele><time>2026-03-28T09:49:13.868Z</time></trkpt><trkpt lat="44.0307687" lon="11.3050736"><ele>447.99999999999994</ele><time>2026-03-28T09:49:15.871Z</time></trkpt><trkpt lat="44.0307545" lon="11.3049603"><ele>448.0</ele><time>2026-03-28T09:49:18.873Z</time></trkpt><trkpt lat="44.030665" lon="11.3048849"><ele>448.0</ele><time>2026-03-28T09:49:20.884Z</time></trkpt><trkpt lat="44.0306273" lon="11.3047793"><ele>450.4</ele><time>2026-03-28T09:49:22.883Z</time></trkpt><trkpt lat="44.0305861" lon="11.3046601"><ele>452.79999999999995</ele><time>2026-03-28T09:49:24.878Z</time></trkpt><trkpt lat="44.0305578" lon="11.3045435"><ele>455.2</ele><time>2026-03-28T09:49:26.885Z</time></trkpt><trkpt lat="44.0305584" lon="11.3044112"><ele>457.6</ele><time>2026-03-28T09:49:28.883Z</time></trkpt><trkpt lat="44.0305603" lon="11.3042686"><ele>460.0</ele><time>2026-03-28T09:49:30.88Z</time></trkpt><trkpt lat="44.0305597" lon="11.3041095"><ele>460.00000000000006</ele><time>2026-03-28T09:49:32.878Z</time></trkpt><trkpt lat="44.0305661" lon="11.3039391"><ele>460.0</ele><time>2026-03-28T09:49:34.875Z</time></trkpt><trkpt lat="44.0305782" lon="11.3038514"><ele>460.0</ele><time>2026-03-28T09:49:35.87Z</time></trkpt><trkpt lat="44.0305992" lon="11.3037625"><ele>460.0</ele><time>2026-03-28T09:49:36.879Z</time></trkpt><trkpt lat="44.0306269" lon="11.3036745"><ele>460.00000000000006</ele><time>2026-03-28T09:49:37.869Z</time></trkpt><trkpt lat="44.030657" lon="11.3035916"><ele>460.0</ele><time>2026-03-28T09:49:38.87Z</time></trkpt><trkpt lat="44.0306863" lon="11.3035061"><ele>460.6666666666667</ele><time>2026-03-28T09:49:39.87Z</time></trkpt><trkpt lat="44.0307195" lon="11.3034174"><ele>461.33333333333337</ele><time>2026-03-28T09:49:40.879Z</time></trkpt><trkpt lat="44.0307538" lon="11.3033367"><ele>462.0</ele><time>2026-03-28T09:49:41.869Z</time></trkpt><trkpt lat="44.030815" lon="11.3031924"><ele>462.66666666666663</ele><time>2026-03-28T09:49:43.888Z</time></trkpt><trkpt lat="44.0308487" lon="11.3031059"><ele>463.3333333333333</ele><time>2026-03-28T09:49:44.873Z</time></trkpt><trkpt lat="44.0308877" lon="11.3030116"><ele>464.0</ele><time>2026-03-28T09:49:45.87Z</time></trkpt><trkpt lat="44.030941" lon="11.3029229"><ele>464.3333333333333</ele><time>2026-03-28T09:49:46.863Z</time></trkpt><trkpt lat="44.0309967" lon="11.3028436"><ele>464.66666666666663</ele><time>2026-03-28T09:49:47.867Z</time></trkpt><trkpt lat="44.0310542" lon="11.3027744"><ele>465.0</ele><time>2026-03-28T09:49:48.865Z</time></trkpt><trkpt lat="44.0311101" lon="11.3027012"><ele>465.33333333333337</ele><time>2026-03-28T09:49:49.86Z</time></trkpt><trkpt lat="44.0311652" lon="11.3026167"><ele>465.6666666666667</ele><time>2026-03-28T09:49:50.861Z</time></trkpt><trkpt lat="44.0312199" lon="11.3025251"><ele>466.0</ele><time>2026-03-28T09:49:51.859Z</time></trkpt><trkpt lat="44.0312782" lon="11.3024243"><ele>466.00000000000006</ele><time>2026-03-28T09:49:52.863Z</time></trkpt><trkpt lat="44.031335" lon="11.3023102"><ele>466.0</ele><time>2026-03-28T09:49:53.866Z</time></trkpt><trkpt lat="44.0313897" lon="11.3022052"><ele>466.0</ele><time>2026-03-28T09:49:54.874Z</time></trkpt><trkpt lat="44.0314345" lon="11.3021084"><ele>466.0</ele><time>2026-03-28T09:49:55.87Z</time></trkpt><trkpt lat="44.031466" lon="11.3020188"><ele>466.00000000000006</ele><time>2026-03-28T09:49:56.864Z</time></trkpt><trkpt lat="44.0315007" lon="11.3018941"><ele>466.0</ele><time>2026-03-28T09:49:58.878Z</time></trkpt><trkpt lat="44.0315537" lon="11.3018311"><ele>466.4</ele><time>2026-03-28T09:50:01.89Z</time></trkpt><trkpt lat="44.0316392" lon="11.301704"><ele>466.8</ele><time>2026-03-28T09:50:03.875Z</time></trkpt><trkpt lat="44.0317066" lon="11.3015933"><ele>467.19999999999993</ele><time>2026-03-28T09:50:05.875Z</time></trkpt><trkpt lat="44.031791" lon="11.3015938"><ele>467.59999999999997</ele><time>2026-03-28T09:50:07.891Z</time></trkpt><trkpt lat="44.0319176" lon="11.3015929"><ele>468.0</ele><time>2026-03-28T09:50:09.878Z</time></trkpt><trkpt lat="44.0319841" lon="11.3015834"><ele>468.3333333333333</ele><time>2026-03-28T09:50:10.871Z</time></trkpt><trkpt lat="44.032069" lon="11.3015573"><ele>468.66666666666663</ele><time>2026-03-28T09:50:12.866Z</time></trkpt><trkpt lat="44.0321344" lon="11.3015565"><ele>469.0</ele><time>2026-03-28T09:50:20.892Z</time></trkpt><trkpt lat="44.0322389" lon="11.3015055"><ele>469.3333333333333</ele><time>2026-03-28T09:50:23.885Z</time></trkpt><trkpt lat="44.032305" lon="11.3014734"><ele>469.66666666666663</ele><time>2026-03-28T09:50:24.888Z</time></trkpt><trkpt lat="44.0323713" lon="11.3014315"><ele>470.0</ele><time>2026-03-28T09:50:25.871Z</time></trkpt><trkpt lat="44.0324366" lon="11.3013798"><ele>467.99999999999994</ele><time>2026-03-28T09:50:26.857Z</time></trkpt><trkpt lat="44.0325131" lon="11.3013257"><ele>466.0</ele><time>2026-03-28T09:50:27.856Z</time></trkpt><trkpt lat="44.0325965" lon="11.3012753"><ele>464.0</ele><time>2026-03-28T09:50:28.858Z</time></trkpt><trkpt lat="44.0326794" lon="11.3012264"><ele>462.0</ele><time>2026-03-28T09:50:29.869Z</time></trkpt><trkpt lat="44.0327515" lon="11.3011806"><ele>459.99999999999994</ele><time>2026-03-28T09:50:30.859Z</time></trkpt><trkpt lat="44.0328239" lon="11.3011228"><ele>458.0</ele><time>2026-03-28T09:50:31.861Z</time></trkpt><trkpt lat="44.0328763" lon="11.3010661"><ele>457.99999999999994</ele><time>2026-03-28T09:50:32.858Z</time></trkpt><trkpt lat="44.0329912" lon="11.3009863"><ele>458.0</ele><time>2026-03-28T09:50:34.867Z</time></trkpt><trkpt lat="44.0330561" lon="11.3009535"><ele>458.0</ele><time>2026-03-28T09:50:35.867Z</time></trkpt><trkpt lat="44.0331245" lon="11.3009267"><ele>458.0</ele><time>2026-03-28T09:50:36.868Z</time></trkpt><trkpt lat="44.0331908" lon="11.3009005"><ele>457.99999999999994</ele><time>2026-03-28T09:50:37.867Z</time></trkpt><trkpt lat="44.0332655" lon="11.300873"><ele>458.0</ele><time>2026-03-28T09:50:38.871Z</time></trkpt><trkpt lat="44.0333383" lon="11.3008388"><ele>458.8333333333333</ele><time>2026-03-28T09:50:39.859Z</time></trkpt><trkpt lat="44.033408" lon="11.3007956"><ele>459.66666666666663</ele><time>2026-03-28T09:50:40.866Z</time></trkpt><trkpt lat="44.033482" lon="11.3007457"><ele>460.5</ele><time>2026-03-28T09:50:41.871Z</time></trkpt><trkpt lat="44.0335522" lon="11.3007013"><ele>461.33333333333337</ele><time>2026-03-28T09:50:42.868Z</time></trkpt><trkpt lat="44.0336108" lon="11.3006634"><ele>462.1666666666667</ele><time>2026-03-28T09:50:43.867Z</time></trkpt><trkpt lat="44.033693" lon="11.3006248"><ele>463.0</ele><time>2026-03-28T09:50:45.864Z</time></trkpt><trkpt lat="44.0337658" lon="11.3006133"><ele>460.1666666666667</ele><time>2026-03-28T09:50:47.877Z</time></trkpt><trkpt lat="44.0338679" lon="11.300556"><ele>457.33333333333337</ele><time>2026-03-28T09:50:49.861Z</time></trkpt><trkpt lat="44.0339323" lon="11.30051"><ele>454.5</ele><time>2026-03-28T09:50:50.861Z</time></trkpt><trkpt lat="44.0340005" lon="11.3004727"><ele>451.66666666666663</ele><time>2026-03-28T09:50:51.86Z</time></trkpt><trkpt lat="44.0340781" lon="11.3004521"><ele>448.8333333333333</ele><time>2026-03-28T09:50:52.872Z</time></trkpt><trkpt lat="44.0341557" lon="11.3004529"><ele>446.0</ele><time>2026-03-28T09:50:53.868Z</time></trkpt><trkpt lat="44.0342229" lon="11.3004711"><ele>446.0</ele><time>2026-03-28T09:50:54.876Z</time></trkpt><trkpt lat="44.0343206" lon="11.3005459"><ele>446.0</ele><time>2026-03-28T09:50:56.874Z</time></trkpt><trkpt lat="44.0344193" lon="11.3006589"><ele>446.0</ele><time>2026-03-28T09:50:58.866Z</time></trkpt><trkpt lat="44.0344862" lon="11.3007048"><ele>446.0</ele><time>2026-03-28T09:50:59.87Z</time></trkpt><trkpt lat="44.0345664" lon="11.300753"><ele>446.0</ele><time>2026-03-28T09:51:00.863Z</time></trkpt><trkpt lat="44.0346456" lon="11.3007952"><ele>447.7142857142857</ele><time>2026-03-28T09:51:01.855Z</time></trkpt><trkpt lat="44.0347163" lon="11.3008272"><ele>449.42857142857144</ele><time>2026-03-28T09:51:02.862Z</time></trkpt><trkpt lat="44.0347843" lon="11.3008461"><ele>451.1428571428571</ele><time>2026-03-28T09:51:03.858Z</time></trkpt><trkpt lat="44.0348512" lon="11.3008554"><ele>452.8571428571429</ele><time>2026-03-28T09:51:04.857Z</time></trkpt><trkpt lat="44.0349286" lon="11.3008641"><ele>454.5714285714286</ele><time>2026-03-28T09:51:05.858Z</time></trkpt><trkpt lat="44.035002" lon="11.3008693"><ele>456.2857142857143</ele><time>2026-03-28T09:51:06.855Z</time></trkpt><trkpt lat="44.0350669" lon="11.3008689"><ele>458.0</ele><time>2026-03-28T09:51:07.864Z</time></trkpt><trkpt lat="44.0351825" lon="11.3008111"><ele>457.99999999999994</ele><time>2026-03-28T09:51:09.87Z</time></trkpt><trkpt lat="44.035239" lon="11.300746"><ele>458.0</ele><time>2026-03-28T09:51:10.873Z</time></trkpt><trkpt lat="44.0352847" lon="11.3006764"><ele>458.0</ele><time>2026-03-28T09:51:11.86Z</time></trkpt><trkpt lat="44.0353386" lon="11.3005754"><ele>458.0</ele><time>2026-03-28T09:51:13.874Z</time></trkpt><trkpt lat="44.0354142" lon="11.3004804"><ele>457.99999999999994</ele><time>2026-03-28T09:51:15.874Z</time></trkpt><trkpt lat="44.0354794" lon="11.3004416"><ele>458.0</ele><time>2026-03-28T09:51:16.882Z</time></trkpt><trkpt lat="44.0355657" lon="11.300417"><ele>457.2</ele><time>2026-03-28T09:51:17.871Z</time></trkpt><trkpt lat="44.0356624" lon="11.3004059"><ele>456.4</ele><time>2026-03-28T09:51:18.863Z</time></trkpt><trkpt lat="44.0357549" lon="11.3004227"><ele>455.59999999999997</ele><time>2026-03-28T09:51:19.861Z</time></trkpt><trkpt lat="44.0358427" lon="11.3004515"><ele>454.79999999999995</ele><time>2026-03-28T09:51:20.861Z</time></trkpt><trkpt lat="44.0359137" lon="11.3004613"><ele>454.0</ele><time>2026-03-28T09:51:21.862Z</time></trkpt><trkpt lat="44.0360287" lon="11.300412"><ele>454.00000000000006</ele><time>2026-03-28T09:51:23.869Z</time></trkpt><trkpt lat="44.0360874" lon="11.300373"><ele>454.0</ele><time>2026-03-28T09:51:24.871Z</time></trkpt><trkpt lat="44.036211" lon="11.3003365"><ele>454.0</ele><time>2026-03-28T09:51:26.866Z</time></trkpt><trkpt lat="44.0362825" lon="11.3003458"><ele>454.0</ele><time>2026-03-28T09:51:27.865Z</time></trkpt><trkpt lat="44.0363602" lon="11.3003761"><ele>454.00000000000006</ele><time>2026-03-28T09:51:28.861Z</time></trkpt><trkpt lat="44.0364365" lon="11.3004318"><ele>454.0</ele><time>2026-03-28T09:51:29.871Z</time></trkpt><trkpt lat="44.0365103" lon="11.3004777"><ele>454.0</ele><time>2026-03-28T09:51:30.871Z</time></trkpt><trkpt lat="44.0365869" lon="11.300513"><ele>454.0</ele><time>2026-03-28T09:51:31.869Z</time></trkpt><trkpt lat="44.0366679" lon="11.3005364"><ele>454.0</ele><time>2026-03-28T09:51:32.872Z</time></trkpt><trkpt lat="44.036759" lon="11.3005563"><ele>454.0</ele><time>2026-03-28T09:51:33.871Z</time></trkpt><trkpt lat="44.0368583" lon="11.3005671"><ele>454.0</ele><time>2026-03-28T09:51:34.872Z</time></trkpt><trkpt lat="44.0369654" lon="11.300559"><ele>454.79999999999995</ele><time>2026-03-28T09:51:35.875Z</time></trkpt><trkpt lat="44.0370768" lon="11.3005468"><ele>455.59999999999997</ele><time>2026-03-28T09:51:36.869Z</time></trkpt><trkpt lat="44.0371911" lon="11.3005354"><ele>456.4</ele><time>2026-03-28T09:51:37.873Z</time></trkpt><trkpt lat="44.0372979" lon="11.3005201"><ele>457.2</ele><time>2026-03-28T09:51:38.875Z</time></trkpt><trkpt lat="44.0374004" lon="11.3005027"><ele>458.0</ele><time>2026-03-28T09:51:39.873Z</time></trkpt><trkpt lat="44.0374991" lon="11.3004801"><ele>459.0</ele><time>2026-03-28T09:51:40.887Z</time></trkpt><trkpt lat="44.0375956" lon="11.3004673"><ele>459.99999999999994</ele><time>2026-03-28T09:51:41.885Z</time></trkpt><trkpt lat="44.0376921" lon="11.3004453"><ele>460.99999999999994</ele><time>2026-03-28T09:51:42.876Z</time></trkpt><trkpt lat="44.0377894" lon="11.3004213"><ele>462.0</ele><time>2026-03-28T09:51:43.88Z</time></trkpt><trkpt lat="44.0378837" lon="11.3003948"><ele>463.0</ele><time>2026-03-28T09:51:44.877Z</time></trkpt><trkpt lat="44.0379827" lon="11.3003818"><ele>463.0</ele><time>2026-03-28T09:51:45.872Z</time></trkpt><trkpt lat="44.0380882" lon="11.3003804"><ele>462.99999999999994</ele><time>2026-03-28T09:51:46.889Z</time></trkpt><trkpt lat="44.0381919" lon="11.3003749"><ele>462.99999999999994</ele><time>2026-03-28T09:51:47.893Z</time></trkpt><trkpt lat="44.0382933" lon="11.3003778"><ele>463.0</ele><time>2026-03-28T09:51:48.886Z</time></trkpt><trkpt lat="44.03839" lon="11.3003951"><ele>463.0</ele><time>2026-03-28T09:51:49.89Z</time></trkpt><trkpt lat="44.0384871" lon="11.3004383"><ele>463.33333333333337</ele><time>2026-03-28T09:51:50.893Z</time></trkpt><trkpt lat="44.0385671" lon="11.3004911"><ele>463.6666666666667</ele><time>2026-03-28T09:51:51.888Z</time></trkpt><trkpt lat="44.0386282" lon="11.3005438"><ele>464.0</ele><time>2026-03-28T09:51:52.895Z</time></trkpt><trkpt lat="44.0386942" lon="11.300574"><ele>464.33333333333337</ele><time>2026-03-28T09:51:53.885Z</time></trkpt><trkpt lat="44.0387671" lon="11.3005971"><ele>464.6666666666667</ele><time>2026-03-28T09:51:54.889Z</time></trkpt><trkpt lat="44.0388458" lon="11.3006045"><ele>465.0</ele><time>2026-03-28T09:51:55.875Z</time></trkpt><trkpt lat="44.0389287" lon="11.3006078"><ele>465.4</ele><time>2026-03-28T09:51:56.873Z</time></trkpt><trkpt lat="44.0390098" lon="11.3006109"><ele>465.8</ele><time>2026-03-28T09:51:57.871Z</time></trkpt><trkpt lat="44.039094" lon="11.3006138"><ele>466.20000000000005</ele><time>2026-03-28T09:51:58.869Z</time></trkpt><trkpt lat="44.0391879" lon="11.3006165"><ele>466.6</ele><time>2026-03-28T09:51:59.878Z</time></trkpt><trkpt lat="44.0392865" lon="11.3006209"><ele>467.0</ele><time>2026-03-28T09:52:00.875Z</time></trkpt><trkpt lat="44.0393861" lon="11.3006293"><ele>467.0</ele><time>2026-03-28T09:52:01.877Z</time></trkpt><trkpt lat="44.0394823" lon="11.3006442"><ele>467.00000000000006</ele><time>2026-03-28T09:52:02.884Z</time></trkpt><trkpt lat="44.0395799" lon="11.3006755"><ele>467.00000000000006</ele><time>2026-03-28T09:52:03.885Z</time></trkpt><trkpt lat="44.0396674" lon="11.3007454"><ele>467.0</ele><time>2026-03-28T09:52:04.867Z</time></trkpt><trkpt lat="44.0397443" lon="11.3008415"><ele>467.0</ele><time>2026-03-28T09:52:05.867Z</time></trkpt><trkpt lat="44.0398357" lon="11.3009257"><ele>467.0</ele><time>2026-03-28T09:52:06.865Z</time></trkpt><trkpt lat="44.0399315" lon="11.3010011"><ele>467.00000000000006</ele><time>2026-03-28T09:52:07.857Z</time></trkpt><trkpt lat="44.0400252" lon="11.3010557"><ele>467.00000000000006</ele><time>2026-03-28T09:52:08.863Z</time></trkpt><trkpt lat="44.0401118" lon="11.3010963"><ele>467.0</ele><time>2026-03-28T09:52:09.875Z</time></trkpt><trkpt lat="44.0401917" lon="11.301109"><ele>467.0</ele><time>2026-03-28T09:52:10.881Z</time></trkpt><trkpt lat="44.0402733" lon="11.3011136"><ele>464.8333333333333</ele><time>2026-03-28T09:52:11.869Z</time></trkpt><trkpt lat="44.0403569" lon="11.3011025"><ele>462.66666666666663</ele><time>2026-03-28T09:52:12.851Z</time></trkpt><trkpt lat="44.0404397" lon="11.3010709"><ele>460.5</ele><time>2026-03-28T09:52:13.859Z</time></trkpt><trkpt lat="44.0405162" lon="11.3010209"><ele>458.33333333333337</ele><time>2026-03-28T09:52:14.865Z</time></trkpt><trkpt lat="44.0405796" lon="11.3009601"><ele>456.1666666666667</ele><time>2026-03-28T09:52:15.865Z</time></trkpt><trkpt lat="44.0406426" lon="11.3009132"><ele>454.0</ele><time>2026-03-28T09:52:16.866Z</time></trkpt><trkpt lat="44.0407095" lon="11.3008992"><ele>454.00000000000006</ele><time>2026-03-28T09:52:17.871Z</time></trkpt><trkpt lat="44.0407979" lon="11.3009116"><ele>454.0</ele><time>2026-03-28T09:52:18.875Z</time></trkpt><trkpt lat="44.0408818" lon="11.3009282"><ele>454.0</ele><time>2026-03-28T09:52:19.871Z</time></trkpt><trkpt lat="44.0409529" lon="11.3009439"><ele>454.0</ele><time>2026-03-28T09:52:20.859Z</time></trkpt><trkpt lat="44.0410204" lon="11.300952"><ele>454.00000000000006</ele><time>2026-03-28T09:52:21.862Z</time></trkpt><trkpt lat="44.0410841" lon="11.3009551"><ele>454.0</ele><time>2026-03-28T09:52:22.866Z</time></trkpt><trkpt lat="44.0411708" lon="11.3008782"><ele>452.2</ele><time>2026-03-28T09:52:24.881Z</time></trkpt><trkpt lat="44.0411676" lon="11.3007249"><ele>450.4</ele><time>2026-03-28T09:52:26.88Z</time></trkpt><trkpt lat="44.0411327" lon="11.3006496"><ele>448.6</ele><time>2026-03-28T09:52:27.866Z</time></trkpt><trkpt lat="44.0410729" lon="11.3005734"><ele>446.8</ele><time>2026-03-28T09:52:28.86Z</time></trkpt><trkpt lat="44.0410053" lon="11.3004836"><ele>445.0</ele><time>2026-03-28T09:52:29.874Z</time></trkpt><trkpt lat="44.0409239" lon="11.3003994"><ele>445.6</ele><time>2026-03-28T09:52:30.872Z</time></trkpt><trkpt lat="44.0408436" lon="11.300315"><ele>446.2</ele><time>2026-03-28T09:52:31.87Z</time></trkpt><trkpt lat="44.0407616" lon="11.3002256"><ele>446.79999999999995</ele><time>2026-03-28T09:52:32.867Z</time></trkpt><trkpt lat="44.0406822" lon="11.300132"><ele>447.4</ele><time>2026-03-28T09:52:33.857Z</time></trkpt><trkpt lat="44.0406048" lon="11.3000365"><ele>448.0</ele><time>2026-03-28T09:52:34.851Z</time></trkpt><trkpt lat="44.0405323" lon="11.299942"><ele>448.00000000000006</ele><time>2026-03-28T09:52:35.859Z</time></trkpt><trkpt lat="44.0404743" lon="11.2998316"><ele>448.0</ele><time>2026-03-28T09:52:36.859Z</time></trkpt><trkpt lat="44.0404376" lon="11.2997113"><ele>448.0</ele><time>2026-03-28T09:52:37.856Z</time></trkpt><trkpt lat="44.0404249" lon="11.2995871"><ele>448.0</ele><time>2026-03-28T09:52:38.856Z</time></trkpt><trkpt lat="44.0404326" lon="11.2994722"><ele>448.00000000000006</ele><time>2026-03-28T09:52:39.858Z</time></trkpt><trkpt lat="44.0404459" lon="11.2993692"><ele>448.0</ele><time>2026-03-28T09:52:40.876Z</time></trkpt><trkpt lat="44.0404638" lon="11.2992809"><ele>445.59999999999997</ele><time>2026-03-28T09:52:41.875Z</time></trkpt><trkpt lat="44.0404899" lon="11.299171"><ele>443.19999999999993</ele><time>2026-03-28T09:52:43.869Z</time></trkpt><trkpt lat="44.0405074" lon="11.299051"><ele>440.8</ele><time>2026-03-28T09:53:38.867Z</time></trkpt><trkpt lat="44.0404283" lon="11.2989181"><ele>438.4</ele><time>2026-03-28T09:53:40.86Z</time></trkpt><trkpt lat="44.0403663" lon="11.2988515"><ele>436.0</ele><time>2026-03-28T09:53:41.864Z</time></trkpt><trkpt lat="44.0402997" lon="11.2987839"><ele>434.4</ele><time>2026-03-28T09:53:42.863Z</time></trkpt><trkpt lat="44.0402261" lon="11.2987178"><ele>432.8</ele><time>2026-03-28T09:53:43.862Z</time></trkpt><trkpt lat="44.0401451" lon="11.2986518"><ele>431.19999999999993</ele><time>2026-03-28T09:53:44.867Z</time></trkpt><trkpt lat="44.0400644" lon="11.2985773"><ele>429.59999999999997</ele><time>2026-03-28T09:53:45.865Z</time></trkpt><trkpt lat="44.0399782" lon="11.2985039"><ele>428.0</ele><time>2026-03-28T09:53:46.869Z</time></trkpt><trkpt lat="44.0398931" lon="11.2984361"><ele>427.99999999999994</ele><time>2026-03-28T09:53:47.865Z</time></trkpt><trkpt lat="44.0398113" lon="11.2983642"><ele>428.0</ele><time>2026-03-28T09:53:48.865Z</time></trkpt><trkpt lat="44.0397366" lon="11.2982903"><ele>428.0</ele><time>2026-03-28T09:53:49.861Z</time></trkpt><trkpt lat="44.0396725" lon="11.2982262"><ele>428.0</ele><time>2026-03-28T09:53:50.88Z</time></trkpt><trkpt lat="44.0396154" lon="11.298164"><ele>427.99999999999994</ele><time>2026-03-28T09:53:51.862Z</time></trkpt><trkpt lat="44.0395624" lon="11.2980997"><ele>428.0</ele><time>2026-03-28T09:53:52.862Z</time></trkpt><trkpt lat="44.0395107" lon="11.2980381"><ele>424.8333333333333</ele><time>2026-03-28T09:53:53.874Z</time></trkpt><trkpt lat="44.0394628" lon="11.2979799"><ele>421.66666666666663</ele><time>2026-03-28T09:53:54.861Z</time></trkpt><trkpt lat="44.0394049" lon="11.297876"><ele>418.5</ele><time>2026-03-28T09:53:56.865Z</time></trkpt><trkpt lat="44.0393768" lon="11.297748"><ele>415.33333333333337</ele><time>2026-03-28T09:53:58.858Z</time></trkpt><trkpt lat="44.0393487" lon="11.2976605"><ele>412.1666666666667</ele><time>2026-03-28T09:53:59.863Z</time></trkpt><trkpt lat="44.0393224" lon="11.2975785"><ele>409.0</ele><time>2026-03-28T09:54:00.855Z</time></trkpt><trkpt lat="44.0392736" lon="11.2974941"><ele>409.00000000000006</ele><time>2026-03-28T09:54:01.873Z</time></trkpt><trkpt lat="44.039221" lon="11.2974337"><ele>409.0</ele><time>2026-03-28T09:54:02.865Z</time></trkpt><trkpt lat="44.039154" lon="11.2973288"><ele>409.0</ele><time>2026-03-28T09:54:04.85Z</time></trkpt><trkpt lat="44.0391339" lon="11.297226"><ele>409.0</ele><time>2026-03-28T09:54:06.865Z</time></trkpt><trkpt lat="44.0391635" lon="11.2971194"><ele>409.00000000000006</ele><time>2026-03-28T09:54:08.862Z</time></trkpt><trkpt lat="44.0392269" lon="11.2970017"><ele>409.0</ele><time>2026-03-28T09:54:10.861Z</time></trkpt><trkpt lat="44.0392736" lon="11.2969268"><ele>407.1666666666667</ele><time>2026-03-28T09:54:11.856Z</time></trkpt><trkpt lat="44.0393186" lon="11.2968517"><ele>405.33333333333337</ele><time>2026-03-28T09:54:12.859Z</time></trkpt><trkpt lat="44.0393571" lon="11.2967746"><ele>403.5</ele><time>2026-03-28T09:54:13.863Z</time></trkpt><trkpt lat="44.0394197" lon="11.2966483"><ele>401.66666666666663</ele><time>2026-03-28T09:54:15.87Z</time></trkpt><trkpt lat="44.0394783" lon="11.2965596"><ele>399.8333333333333</ele><time>2026-03-28T09:54:17.889Z</time></trkpt><trkpt lat="44.0395293" lon="11.2964747"><ele>398.0</ele><time>2026-03-28T09:54:19.886Z</time></trkpt><trkpt lat="44.0395482" lon="11.2963465"><ele>397.16666666666663</ele><time>2026-03-28T09:54:22.877Z</time></trkpt><trkpt lat="44.0395447" lon="11.2962472"><ele>396.3333333333333</ele><time>2026-03-28T09:54:24.88Z</time></trkpt><trkpt lat="44.039541" lon="11.296139"><ele>395.5</ele><time>2026-03-28T09:54:26.899Z</time></trkpt><trkpt lat="44.0395088" lon="11.2960418"><ele>394.66666666666663</ele><time>2026-03-28T09:54:28.875Z</time></trkpt><trkpt lat="44.0394489" lon="11.2959499"><ele>393.8333333333333</ele><time>2026-03-28T09:54:30.89Z</time></trkpt><trkpt lat="44.0393764" lon="11.2958672"><ele>393.0</ele><time>2026-03-28T09:54:32.888Z</time></trkpt><trkpt lat="44.0392948" lon="11.2957935"><ele>393.00000000000006</ele><time>2026-03-28T09:54:34.888Z</time></trkpt><trkpt lat="44.0392257" lon="11.2957666"><ele>393.0</ele><time>2026-03-28T09:54:36.883Z</time></trkpt><trkpt lat="44.0391908" lon="11.295687"><ele>393.0</ele><time>2026-03-28T10:03:38.896Z</time></trkpt><trkpt lat="44.0391964" lon="11.295599"><ele>393.0</ele><time>2026-03-28T10:03:43.898Z</time></trkpt><trkpt lat="44.0392186" lon="11.2954979"><ele>393.0</ele><time>2026-03-28T10:04:06.888Z</time></trkpt><trkpt lat="44.0392752" lon="11.2954162"><ele>393.00000000000006</ele><time>2026-03-28T10:04:08.893Z</time></trkpt><trkpt lat="44.0393326" lon="11.295353"><ele>393.0</ele><time>2026-03-28T10:04:10.903Z</time></trkpt><trkpt lat="44.0394203" lon="11.2953166"><ele>393.3333333333333</ele><time>2026-03-28T10:04:13.894Z</time></trkpt><trkpt lat="44.0394811" lon="11.2952786"><ele>393.66666666666663</ele><time>2026-03-28T10:04:15.906Z</time></trkpt><trkpt lat="44.039554" lon="11.2952455"><ele>394.0</ele><time>2026-03-28T10:04:17.911Z</time></trkpt><trkpt lat="44.0396344" lon="11.2952222"><ele>394.3333333333333</ele><time>2026-03-28T10:04:21.886Z</time></trkpt><trkpt lat="44.0397163" lon="11.2952272"><ele>394.66666666666663</ele><time>2026-03-28T10:04:23.897Z</time></trkpt><trkpt lat="44.0397986" lon="11.29523"><ele>395.0</ele><time>2026-03-28T10:04:25.897Z</time></trkpt><trkpt lat="44.0398723" lon="11.295192"><ele>395.0</ele><time>2026-03-28T10:04:27.889Z</time></trkpt><trkpt lat="44.0399494" lon="11.2951409"><ele>395.0</ele><time>2026-03-28T10:04:29.895Z</time></trkpt><trkpt lat="44.0400193" lon="11.2951279"><ele>395.0</ele><time>2026-03-28T10:04:31.901Z</time></trkpt><trkpt lat="44.0400827" lon="11.295115"><ele>395.0</ele><time>2026-03-28T10:04:33.891Z</time></trkpt><trkpt lat="44.0401543" lon="11.2950789"><ele>395.0</ele><time>2026-03-28T10:04:36.905Z</time></trkpt><trkpt lat="44.04022" lon="11.2950155"><ele>395.0</ele><time>2026-03-28T10:04:41.901Z</time></trkpt><trkpt lat="44.0402777" lon="11.29496"><ele>395.0</ele><time>2026-03-28T10:04:44.889Z</time></trkpt><trkpt lat="44.0403367" lon="11.294896"><ele>396.2857142857143</ele><time>2026-03-28T10:04:48.888Z</time></trkpt><trkpt lat="44.0404057" lon="11.2948376"><ele>397.5714285714286</ele><time>2026-03-28T10:04:55.885Z</time></trkpt><trkpt lat="44.0404726" lon="11.2947837"><ele>398.8571428571429</ele><time>2026-03-28T10:04:58.886Z</time></trkpt><trkpt lat="44.0405436" lon="11.2947364"><ele>400.1428571428571</ele><time>2026-03-28T10:05:01.891Z</time></trkpt><trkpt lat="44.0405865" lon="11.2946679"><ele>401.42857142857144</ele><time>2026-03-28T10:05:05.896Z</time></trkpt><trkpt lat="44.0406189" lon="11.2945912"><ele>402.7142857142857</ele><time>2026-03-28T10:05:11.906Z</time></trkpt><trkpt lat="44.0406673" lon="11.2945109"><ele>404.0</ele><time>2026-03-28T10:05:24.896Z</time></trkpt><trkpt lat="44.0407218" lon="11.2944566"><ele>405.3333333333333</ele><time>2026-03-28T10:05:27.888Z</time></trkpt><trkpt lat="44.0407737" lon="11.2943769"><ele>406.66666666666663</ele><time>2026-03-28T10:05:30.894Z</time></trkpt><trkpt lat="44.0408185" lon="11.2942953"><ele>408.0</ele><time>2026-03-28T10:05:32.909Z</time></trkpt><trkpt lat="44.0408563" lon="11.2942169"><ele>409.33333333333337</ele><time>2026-03-28T10:05:34.899Z</time></trkpt><trkpt lat="44.040895" lon="11.2941296"><ele>410.6666666666667</ele><time>2026-03-28T10:05:36.884Z</time></trkpt><trkpt lat="44.0409243" lon="11.2940464"><ele>412.0</ele><time>2026-03-28T10:05:44.881Z</time></trkpt><trkpt lat="44.0409537" lon="11.293927"><ele>415.6666666666667</ele><time>2026-03-28T10:05:48.898Z</time></trkpt><trkpt lat="44.0409493" lon="11.2938289"><ele>419.33333333333337</ele><time>2026-03-28T10:05:52.9Z</time></trkpt><trkpt lat="44.0409615" lon="11.2936985"><ele>423.0</ele><time>2026-03-28T10:05:56.89Z</time></trkpt><trkpt lat="44.041" lon="11.293628"><ele>426.66666666666663</ele><time>2026-03-28T10:05:58.884Z</time></trkpt><trkpt lat="44.0410728" lon="11.2935599"><ele>430.3333333333333</ele><time>2026-03-28T10:06:01.881Z</time></trkpt><trkpt lat="44.0411503" lon="11.2935798"><ele>434.0</ele><time>2026-03-28T10:06:04.894Z</time></trkpt><trkpt lat="44.0412174" lon="11.2936234"><ele>433.99999999999994</ele><time>2026-03-28T10:06:07.897Z</time></trkpt><trkpt lat="44.0413048" lon="11.2936153"><ele>434.0</ele><time>2026-03-28T10:06:17.884Z</time></trkpt><trkpt lat="44.0413705" lon="11.29356"><ele>434.0</ele><time>2026-03-28T10:06:20.884Z</time></trkpt><trkpt lat="44.0414072" lon="11.2934525"><ele>434.0</ele><time>2026-03-28T10:06:24.885Z</time></trkpt><trkpt lat="44.0414477" lon="11.2933728"><ele>433.99999999999994</ele><time>2026-03-28T10:06:26.884Z</time></trkpt><trkpt lat="44.0414942" lon="11.2932851"><ele>434.0</ele><time>2026-03-28T10:06:28.895Z</time></trkpt><trkpt lat="44.0415276" lon="11.2932037"><ele>434.0</ele><time>2026-03-28T10:06:31.896Z</time></trkpt><trkpt lat="44.0415631" lon="11.2931243"><ele>434.0</ele><time>2026-03-28T10:06:46.88Z</time></trkpt><trkpt lat="44.041613" lon="11.2930593"><ele>434.0</ele><time>2026-03-28T10:07:03.886Z</time></trkpt><trkpt lat="44.0416734" lon="11.2930283"><ele>434.0</ele><time>2026-03-28T10:07:09.875Z</time></trkpt><trkpt lat="44.0417536" lon="11.2930328"><ele>434.0</ele><time>2026-03-28T10:07:12.896Z</time></trkpt><trkpt lat="44.0418277" lon="11.2930106"><ele>434.0</ele><time>2026-03-28T10:07:17.895Z</time></trkpt><trkpt lat="44.0419093" lon="11.2930091"><ele>434.0</ele><time>2026-03-28T10:07:39.893Z</time></trkpt><trkpt lat="44.0419902" lon="11.2930208"><ele>435.8333333333333</ele><time>2026-03-28T10:07:41.886Z</time></trkpt><trkpt lat="44.0420776" lon="11.2930179"><ele>437.66666666666663</ele><time>2026-03-28T10:07:43.888Z</time></trkpt><trkpt lat="44.0421788" lon="11.2930306"><ele>439.5</ele><time>2026-03-28T10:07:45.886Z</time></trkpt><trkpt lat="44.0422615" lon="11.29305"><ele>441.33333333333337</ele><time>2026-03-28T10:07:47.884Z</time></trkpt><trkpt lat="44.0423287" lon="11.2930783"><ele>443.1666666666667</ele><time>2026-03-28T10:07:49.899Z</time></trkpt><trkpt lat="44.0423939" lon="11.2931062"><ele>445.0</ele><time>2026-03-28T10:07:51.899Z</time></trkpt><trkpt lat="44.0424625" lon="11.2931168"><ele>446.14285714285717</ele><time>2026-03-28T10:07:53.89Z</time></trkpt><trkpt lat="44.0425294" lon="11.293122"><ele>447.2857142857142</ele><time>2026-03-28T10:07:55.888Z</time></trkpt><trkpt lat="44.0425972" lon="11.2931679"><ele>448.4285714285714</ele><time>2026-03-28T10:07:58.889Z</time></trkpt><trkpt lat="44.0426176" lon="11.2932752"><ele>449.57142857142856</ele><time>2026-03-28T10:08:01.888Z</time></trkpt><trkpt lat="44.0426668" lon="11.2933331"><ele>450.71428571428567</ele><time>2026-03-28T10:08:04.896Z</time></trkpt><trkpt lat="44.0427512" lon="11.2933459"><ele>451.8571428571428</ele><time>2026-03-28T10:08:07.903Z</time></trkpt><trkpt lat="44.0428236" lon="11.2933515"><ele>452.99999999999994</ele><time>2026-03-28T10:08:09.908Z</time></trkpt><trkpt lat="44.042914" lon="11.2933237"><ele>453.0</ele><time>2026-03-28T10:08:11.897Z</time></trkpt><trkpt lat="44.0429692" lon="11.2932461"><ele>453.0</ele><time>2026-03-28T10:08:13.893Z</time></trkpt><trkpt lat="44.0429963" lon="11.2931576"><ele>453.0</ele><time>2026-03-28T10:08:20.903Z</time></trkpt><trkpt lat="44.0430607" lon="11.2930929"><ele>453.0</ele><time>2026-03-28T10:08:23.891Z</time></trkpt><trkpt lat="44.0431184" lon="11.2930486"><ele>453.0</ele><time>2026-03-28T10:08:25.896Z</time></trkpt><trkpt lat="44.0431843" lon="11.2929872"><ele>453.0</ele><time>2026-03-28T10:08:28.895Z</time></trkpt><trkpt lat="44.0432663" lon="11.2929242"><ele>456.8333333333333</ele><time>2026-03-28T10:08:31.91Z</time></trkpt><trkpt lat="44.0433352" lon="11.2928496"><ele>460.66666666666663</ele><time>2026-03-28T10:08:34.892Z</time></trkpt><trkpt lat="44.0433956" lon="11.2927835"><ele>464.5</ele><time>2026-03-28T10:08:37.887Z</time></trkpt><trkpt lat="44.0434719" lon="11.2927482"><ele>468.3333333333333</ele><time>2026-03-28T10:08:41.903Z</time></trkpt><trkpt lat="44.0435406" lon="11.2927499"><ele>472.16666666666663</ele><time>2026-03-28T10:08:46.894Z</time></trkpt><trkpt lat="44.0436194" lon="11.2927835"><ele>476.0</ele><time>2026-03-28T10:08:49.888Z</time></trkpt><trkpt lat="44.0437038" lon="11.2927523"><ele>476.0</ele><time>2026-03-28T10:08:52.897Z</time></trkpt><trkpt lat="44.043761" lon="11.2926801"><ele>476.0</ele><time>2026-03-28T10:08:54.899Z</time></trkpt><trkpt lat="44.0437914" lon="11.2925886"><ele>476.0</ele><time>2026-03-28T10:08:57.895Z</time></trkpt><trkpt lat="44.0437704" lon="11.2924788"><ele>476.0</ele><time>2026-03-28T10:09:00.896Z</time></trkpt><trkpt lat="44.0437741" lon="11.2923831"><ele>476.0</ele><time>2026-03-28T10:09:07.896Z</time></trkpt><trkpt lat="44.0437857" lon="11.2922968"><ele>476.0</ele><time>2026-03-28T10:09:10.881Z</time></trkpt><trkpt lat="44.0438329" lon="11.292205"><ele>476.0</ele><time>2026-03-28T10:09:13.888Z</time></trkpt><trkpt lat="44.0438919" lon="11.2921305"><ele>477.99999999999994</ele><time>2026-03-28T10:09:15.878Z</time></trkpt><trkpt lat="44.0438966" lon="11.2920243"><ele>480.0</ele><time>2026-03-28T10:09:17.874Z</time></trkpt><trkpt lat="44.0439332" lon="11.291905"><ele>482.0</ele><time>2026-03-28T10:09:20.881Z</time></trkpt><trkpt lat="44.04396" lon="11.2918208"><ele>484.0</ele><time>2026-03-28T10:09:22.878Z</time></trkpt><trkpt lat="44.0439487" lon="11.2917315"><ele>485.99999999999994</ele><time>2026-03-28T10:09:24.895Z</time></trkpt><trkpt lat="44.0439042" lon="11.291643"><ele>488.0</ele><time>2026-03-28T10:09:26.895Z</time></trkpt><trkpt lat="44.0438813" lon="11.2915471"><ele>488.0</ele><time>2026-03-28T10:09:28.888Z</time></trkpt><trkpt lat="44.0438802" lon="11.2914404"><ele>487.99999999999994</ele><time>2026-03-28T10:09:30.875Z</time></trkpt><trkpt lat="44.0439138" lon="11.2913364"><ele>487.99999999999994</ele><time>2026-03-28T10:09:32.895Z</time></trkpt><trkpt lat="44.0439674" lon="11.2912228"><ele>488.0</ele><time>2026-03-28T10:09:34.892Z</time></trkpt><trkpt lat="44.0440342" lon="11.2911015"><ele>488.0</ele><time>2026-03-28T10:09:36.874Z</time></trkpt><trkpt lat="44.0441082" lon="11.2909742"><ele>491.0</ele><time>2026-03-28T10:09:38.877Z</time></trkpt><trkpt lat="44.04418" lon="11.2908541"><ele>493.99999999999994</ele><time>2026-03-28T10:09:40.877Z</time></trkpt><trkpt lat="44.044238" lon="11.2907462"><ele>496.99999999999994</ele><time>2026-03-28T10:09:42.867Z</time></trkpt><trkpt lat="44.0442885" lon="11.290619"><ele>500.0</ele><time>2026-03-28T10:09:44.866Z</time></trkpt><trkpt lat="44.0443344" lon="11.2904886"><ele>503.0</ele><time>2026-03-28T10:09:46.869Z</time></trkpt><trkpt lat="44.0443456" lon="11.2903673"><ele>502.49999999999994</ele><time>2026-03-28T10:09:48.866Z</time></trkpt><trkpt lat="44.0443166" lon="11.2902701"><ele>502.0</ele><time>2026-03-28T10:09:50.886Z</time></trkpt><trkpt lat="44.044263" lon="11.2902026"><ele>501.5</ele><time>2026-03-28T10:09:52.886Z</time></trkpt><trkpt lat="44.044188" lon="11.2901527"><ele>501.0</ele><time>2026-03-28T10:09:55.888Z</time></trkpt><trkpt lat="44.0441327" lon="11.2901063"><ele>500.49999999999994</ele><time>2026-03-28T10:09:57.886Z</time></trkpt><trkpt lat="44.0440637" lon="11.2900147"><ele>500.0</ele><time>2026-03-28T10:09:59.882Z</time></trkpt><trkpt lat="44.0439855" lon="11.2898898"><ele>499.99999999999994</ele><time>2026-03-28T10:10:01.865Z</time></trkpt><trkpt lat="44.0439334" lon="11.2898208"><ele>500.0</ele><time>2026-03-28T10:10:02.888Z</time></trkpt><trkpt lat="44.0438835" lon="11.2897552"><ele>500.0</ele><time>2026-03-28T10:10:03.867Z</time></trkpt><trkpt lat="44.0438365" lon="11.2896891"><ele>500.0</ele><time>2026-03-28T10:10:04.879Z</time></trkpt><trkpt lat="44.0437902" lon="11.2896257"><ele>499.99999999999994</ele><time>2026-03-28T10:10:05.869Z</time></trkpt><trkpt lat="44.0437197" lon="11.289521"><ele>500.0</ele><time>2026-03-28T10:10:07.878Z</time></trkpt><trkpt lat="44.0436648" lon="11.2894362"><ele>501.2</ele><time>2026-03-28T10:10:09.866Z</time></trkpt><trkpt lat="44.043614" lon="11.2893525"><ele>502.4</ele><time>2026-03-28T10:10:11.889Z</time></trkpt><trkpt lat="44.043558" lon="11.2892726"><ele>503.6</ele><time>2026-03-28T10:10:13.885Z</time></trkpt><trkpt lat="44.0434818" lon="11.28916"><ele>504.8</ele><time>2026-03-28T10:10:15.878Z</time></trkpt><trkpt lat="44.0434062" lon="11.2890447"><ele>506.0</ele><time>2026-03-28T10:10:17.874Z</time></trkpt><trkpt lat="44.0433567" lon="11.2889619"><ele>505.99999999999994</ele><time>2026-03-28T10:10:19.878Z</time></trkpt><trkpt lat="44.0432793" lon="11.2889417"><ele>506.0</ele><time>2026-03-28T10:10:21.887Z</time></trkpt><trkpt lat="44.0432069" lon="11.2889063"><ele>506.0</ele><time>2026-03-28T10:10:23.878Z</time></trkpt><trkpt lat="44.0431767" lon="11.2887938"><ele>506.0</ele><time>2026-03-28T10:10:25.879Z</time></trkpt><trkpt lat="44.0431835" lon="11.2887043"><ele>505.99999999999994</ele><time>2026-03-28T10:10:26.879Z</time></trkpt><trkpt lat="44.0431949" lon="11.2886168"><ele>506.0</ele><time>2026-03-28T10:10:27.869Z</time></trkpt><trkpt lat="44.0432009" lon="11.2884646"><ele>505.99999999999994</ele><time>2026-03-28T10:10:29.868Z</time></trkpt><trkpt lat="44.0431926" lon="11.288316"><ele>506.0</ele><time>2026-03-28T10:10:31.866Z</time></trkpt><trkpt lat="44.043173" lon="11.2881509"><ele>506.0</ele><time>2026-03-28T10:10:33.865Z</time></trkpt><trkpt lat="44.0431637" lon="11.2880583"><ele>506.0</ele><time>2026-03-28T10:10:34.872Z</time></trkpt><trkpt lat="44.0431541" lon="11.2879651"><ele>505.99999999999994</ele><time>2026-03-28T10:10:35.869Z</time></trkpt><trkpt lat="44.0431425" lon="11.2878709"><ele>506.0</ele><time>2026-03-28T10:10:36.879Z</time></trkpt><trkpt lat="44.0431275" lon="11.2877774"><ele>506.49999999999994</ele><time>2026-03-28T10:10:37.885Z</time></trkpt><trkpt lat="44.0431125" lon="11.2876824"><ele>507.0</ele><time>2026-03-28T10:10:38.875Z</time></trkpt><trkpt lat="44.0430982" lon="11.2875932"><ele>507.5</ele><time>2026-03-28T10:10:39.867Z</time></trkpt><trkpt lat="44.0430683" lon="11.2874604"><ele>508.0</ele><time>2026-03-28T10:10:41.866Z</time></trkpt><trkpt lat="44.0430438" lon="11.2873698"><ele>508.49999999999994</ele><time>2026-03-28T10:10:43.883Z</time></trkpt><trkpt lat="44.0430849" lon="11.287288"><ele>509.0</ele><time>2026-03-28T10:11:15.882Z</time></trkpt><trkpt lat="44.043181" lon="11.2872557"><ele>509.4</ele><time>2026-03-28T10:11:17.879Z</time></trkpt><trkpt lat="44.0432959" lon="11.2872662"><ele>509.79999999999995</ele><time>2026-03-28T10:11:19.87Z</time></trkpt><trkpt lat="44.0434021" lon="11.287288"><ele>510.20000000000005</ele><time>2026-03-28T10:11:21.875Z</time></trkpt><trkpt lat="44.0435255" lon="11.2872703"><ele>510.6</ele><time>2026-03-28T10:11:23.863Z</time></trkpt><trkpt lat="44.0435866" lon="11.2872466"><ele>511.0</ele><time>2026-03-28T10:11:24.867Z</time></trkpt><trkpt lat="44.0436876" lon="11.2871619"><ele>511.6</ele><time>2026-03-28T10:11:26.866Z</time></trkpt><trkpt lat="44.0437766" lon="11.287064"><ele>512.2</ele><time>2026-03-28T10:11:28.864Z</time></trkpt><trkpt lat="44.0438658" lon="11.2869672"><ele>512.8</ele><time>2026-03-28T10:11:30.865Z</time></trkpt><trkpt lat="44.0439189" lon="11.2868749"><ele>513.4</ele><time>2026-03-28T10:11:32.876Z</time></trkpt><trkpt lat="44.0439888" lon="11.2868267"><ele>514.0</ele><time>2026-03-28T10:11:34.889Z</time></trkpt><trkpt lat="44.0440456" lon="11.2867426"><ele>514.0</ele><time>2026-03-28T10:11:36.887Z</time></trkpt><trkpt lat="44.0440987" lon="11.2865891"><ele>514.0</ele><time>2026-03-28T10:11:38.87Z</time></trkpt><trkpt lat="44.0441721" lon="11.2864536"><ele>514.0</ele><time>2026-03-28T10:11:40.869Z</time></trkpt><trkpt lat="44.0442565" lon="11.2863764"><ele>514.0</ele><time>2026-03-28T10:11:42.864Z</time></trkpt><trkpt lat="44.0443641" lon="11.2863137"><ele>514.5</ele><time>2026-03-28T10:11:44.871Z</time></trkpt><trkpt lat="44.0444522" lon="11.286285"><ele>515.0</ele><time>2026-03-28T10:11:46.878Z</time></trkpt><trkpt lat="44.0445244" lon="11.2862508"><ele>515.5</ele><time>2026-03-28T10:11:48.887Z</time></trkpt><trkpt lat="44.0445898" lon="11.28622"><ele>516.0</ele><time>2026-03-28T10:11:50.9Z</time></trkpt><trkpt lat="44.0446575" lon="11.2861744"><ele>516.5</ele><time>2026-03-28T10:11:52.898Z</time></trkpt><trkpt lat="44.0447238" lon="11.2861536"><ele>517.0</ele><time>2026-03-28T10:12:43.883Z</time></trkpt><trkpt lat="44.0448077" lon="11.2861589"><ele>517.0</ele><time>2026-03-28T10:12:46.892Z</time></trkpt><trkpt lat="44.0448859" lon="11.2861693"><ele>517.0</ele><time>2026-03-28T10:12:49.887Z</time></trkpt><trkpt lat="44.04496" lon="11.2861864"><ele>517.0</ele><time>2026-03-28T10:12:53.897Z</time></trkpt><trkpt lat="44.0450424" lon="11.2861818"><ele>517.0</ele><time>2026-03-28T10:12:56.895Z</time></trkpt><trkpt lat="44.0451197" lon="11.286171"><ele>517.0</ele><time>2026-03-28T10:12:58.894Z</time></trkpt><trkpt lat="44.0451932" lon="11.2861528"><ele>517.0</ele><time>2026-03-28T10:13:00.9Z</time></trkpt><trkpt lat="44.0452666" lon="11.2861318"><ele>517.5</ele><time>2026-03-28T10:13:02.901Z</time></trkpt><trkpt lat="44.0453484" lon="11.2861077"><ele>518.0</ele><time>2026-03-28T10:13:05.886Z</time></trkpt><trkpt lat="44.0454126" lon="11.2860865"><ele>518.5</ele><time>2026-03-28T10:13:07.89Z</time></trkpt><trkpt lat="44.0454816" lon="11.2860522"><ele>519.0</ele><time>2026-03-28T10:13:10.889Z</time></trkpt><trkpt lat="44.0455514" lon="11.2860102"><ele>519.5</ele><time>2026-03-28T10:13:12.889Z</time></trkpt><trkpt lat="44.0456204" lon="11.2859616"><ele>520.0</ele><time>2026-03-28T10:13:14.89Z</time></trkpt><trkpt lat="44.0456811" lon="11.2859002"><ele>520.0</ele><time>2026-03-28T10:13:16.874Z</time></trkpt><trkpt lat="44.0457223" lon="11.285824"><ele>520.0</ele><time>2026-03-28T10:13:18.881Z</time></trkpt><trkpt lat="44.0457559" lon="11.2857138"><ele>520.0</ele><time>2026-03-28T10:13:20.894Z</time></trkpt><trkpt lat="44.0458015" lon="11.285587"><ele>520.0</ele><time>2026-03-28T10:13:22.89Z</time></trkpt><trkpt lat="44.0458794" lon="11.2854814"><ele>520.0</ele><time>2026-03-28T10:13:24.876Z</time></trkpt><trkpt lat="44.0459577" lon="11.2853694"><ele>520.0</ele><time>2026-03-28T10:13:26.877Z</time></trkpt><trkpt lat="44.0460275" lon="11.2852325"><ele>520.0</ele><time>2026-03-28T10:13:28.881Z</time></trkpt><trkpt lat="44.0460669" lon="11.2851116"><ele>520.0</ele><time>2026-03-28T10:13:30.881Z</time></trkpt><trkpt lat="44.0461048" lon="11.2850036"><ele>520.0</ele><time>2026-03-28T10:13:32.897Z</time></trkpt><trkpt lat="44.0461253" lon="11.2848737"><ele>520.0</ele><time>2026-03-28T10:13:34.873Z</time></trkpt><trkpt lat="44.0461029" lon="11.2847548"><ele>519.6666666666667</ele><time>2026-03-28T10:13:36.88Z</time></trkpt><trkpt lat="44.0460861" lon="11.2846682"><ele>519.3333333333334</ele><time>2026-03-28T10:13:38.884Z</time></trkpt><trkpt lat="44.0460716" lon="11.2845825"><ele>519.0</ele><time>2026-03-28T10:13:40.884Z</time></trkpt><trkpt lat="44.0460505" lon="11.2844852"><ele>518.6666666666666</ele><time>2026-03-28T10:13:42.883Z</time></trkpt><trkpt lat="44.0460452" lon="11.2843642"><ele>518.3333333333333</ele><time>2026-03-28T10:13:45.885Z</time></trkpt><trkpt lat="44.0459889" lon="11.284244"><ele>518.0</ele><time>2026-03-28T10:13:48.901Z</time></trkpt><trkpt lat="44.0459688" lon="11.2840753"><ele>518.0</ele><time>2026-03-28T10:13:50.886Z</time></trkpt><trkpt lat="44.045963" lon="11.2839625"><ele>518.0</ele><time>2026-03-28T10:13:51.882Z</time></trkpt><trkpt lat="44.0459501" lon="11.2838463"><ele>518.0</ele><time>2026-03-28T10:13:52.881Z</time></trkpt><trkpt lat="44.0459485" lon="11.2837365"><ele>518.0</ele><time>2026-03-28T10:13:53.874Z</time></trkpt><trkpt lat="44.04596" lon="11.2836333"><ele>518.0</ele><time>2026-03-28T10:13:54.877Z</time></trkpt><trkpt lat="44.0459701" lon="11.28354"><ele>518.0</ele><time>2026-03-28T10:13:55.872Z</time></trkpt><trkpt lat="44.046006" lon="11.283379"><ele>517.0</ele><time>2026-03-28T10:13:57.882Z</time></trkpt><trkpt lat="44.0460561" lon="11.2832512"><ele>516.0</ele><time>2026-03-28T10:13:59.878Z</time></trkpt><trkpt lat="44.0461237" lon="11.2831871"><ele>515.0</ele><time>2026-03-28T10:14:01.896Z</time></trkpt><trkpt lat="44.046202" lon="11.2831882"><ele>514.0</ele><time>2026-03-28T10:14:03.887Z</time></trkpt><trkpt lat="44.0463026" lon="11.2832427"><ele>513.0</ele><time>2026-03-28T10:14:05.881Z</time></trkpt><trkpt lat="44.0463915" lon="11.2832663"><ele>513.0</ele><time>2026-03-28T10:14:07.881Z</time></trkpt><trkpt lat="44.0464827" lon="11.2831919"><ele>513.0</ele><time>2026-03-28T10:14:09.886Z</time></trkpt><trkpt lat="44.0465706" lon="11.2830861"><ele>513.0</ele><time>2026-03-28T10:14:11.889Z</time></trkpt><trkpt lat="44.0466406" lon="11.2829604"><ele>513.0</ele><time>2026-03-28T10:14:13.882Z</time></trkpt><trkpt lat="44.0466782" lon="11.2828559"><ele>513.0</ele><time>2026-03-28T10:14:15.893Z</time></trkpt><trkpt lat="44.0467057" lon="11.2827589"><ele>513.4285714285714</ele><time>2026-03-28T10:14:18.9Z</time></trkpt><trkpt lat="44.0467326" lon="11.282677"><ele>513.8571428571429</ele><time>2026-03-28T10:14:28.899Z</time></trkpt><trkpt lat="44.0467729" lon="11.2825909"><ele>514.2857142857142</ele><time>2026-03-28T10:14:31.896Z</time></trkpt><trkpt lat="44.0468271" lon="11.2825296"><ele>514.7142857142858</ele><time>2026-03-28T10:14:34.893Z</time></trkpt><trkpt lat="44.046873" lon="11.2824572"><ele>515.1428571428571</ele><time>2026-03-28T10:14:38.895Z</time></trkpt><trkpt lat="44.0469384" lon="11.2823922"><ele>515.5714285714286</ele><time>2026-03-28T10:14:41.89Z</time></trkpt><trkpt lat="44.0469883" lon="11.2823337"><ele>516.0</ele><time>2026-03-28T10:14:43.893Z</time></trkpt><trkpt lat="44.0470554" lon="11.2822819"><ele>516.0</ele><time>2026-03-28T10:14:46.899Z</time></trkpt><trkpt lat="44.0471448" lon="11.2822731"><ele>516.0</ele><time>2026-03-28T10:14:49.898Z</time></trkpt><trkpt lat="44.047215" lon="11.2822152"><ele>516.0</ele><time>2026-03-28T10:14:54.894Z</time></trkpt><trkpt lat="44.0477477" lon="11.2817386"><ele>514.0</ele><time>2026-03-28T10:15:33.906Z</time></trkpt><trkpt lat="44.0490001" lon="11.2810006"><ele>523.0</ele><time>2026-03-28T10:16:01.89Z</time></trkpt><trkpt lat="44.0503666" lon="11.2807526"><ele>524.0</ele><time>2026-03-28T10:16:41.916Z</time></trkpt><trkpt lat="44.0517017" lon="11.2813207"><ele>525.0</ele><time>2026-03-28T10:17:14.884Z</time></trkpt><trkpt lat="44.0529078" lon="11.2822716"><ele>536.0</ele><time>2026-03-28T10:17:39.871Z</time></trkpt><trkpt lat="44.0550206" lon="11.2823551"><ele>531.0</ele><time>2026-03-28T10:18:05.886Z</time></trkpt><trkpt lat="44.056888" lon="11.2836953"><ele>556.0</ele><time>2026-03-28T10:18:31.885Z</time></trkpt><trkpt lat="44.0578251" lon="11.2862534"><ele>618.0</ele><time>2026-03-28T10:19:05.883Z</time></trkpt><trkpt lat="44.0577707" lon="11.2901235"><ele>623.0</ele><time>2026-03-28T10:19:35.867Z</time></trkpt><trkpt lat="44.0598415" lon="11.2898625"><ele>591.0</ele><time>2026-03-28T10:20:33.863Z</time></trkpt><trkpt lat="44.0625559" lon="11.289635"><ele>586.0</ele><time>2026-03-28T10:20:56.877Z</time></trkpt><trkpt lat="44.0653309" lon="11.2894907"><ele>582.0</ele><time>2026-03-28T10:22:12.861Z</time></trkpt><trkpt lat="44.0672616" lon="11.2881679"><ele>566.0</ele><time>2026-03-28T10:22:29.87Z</time></trkpt><trkpt lat="44.0699295" lon="11.2874826"><ele>559.0</ele><time>2026-03-28T10:22:50.876Z</time></trkpt><trkpt lat="44.0702516" lon="11.2846347"><ele>531.0</ele><time>2026-03-28T10:23:09.866Z</time></trkpt><trkpt lat="44.0682029" lon="11.2849159"><ele>509.0</ele><time>2026-03-28T10:23:35.871Z</time></trkpt><trkpt lat="44.0656459" lon="11.2835949"><ele>511.0</ele><time>2026-03-28T10:23:57.883Z</time></trkpt><trkpt lat="44.0644956" lon="11.2802017"><ele>516.0</ele><time>2026-03-28T10:24:22.87Z</time></trkpt><trkpt lat="44.0643482" lon="11.2773978"><ele>534.0</ele><time>2026-03-28T10:24:41.876Z</time></trkpt><trkpt lat="44.0625562" lon="11.2745789"><ele>521.0</ele><time>2026-03-28T10:25:26.887Z</time></trkpt><trkpt lat="44.0613416" lon="11.2721532"><ele>518.0</ele><time>2026-03-28T10:25:51.883Z</time></trkpt><trkpt lat="44.0597848" lon="11.270225"><ele>526.0</ele><time>2026-03-28T10:26:09.874Z</time></trkpt><trkpt lat="44.0585163" lon="11.2680277"><ele>526.0</ele><time>2026-03-28T10:26:32.877Z</time></trkpt><trkpt lat="44.0565075" lon="11.2654643"><ele>530.0</ele><time>2026-03-28T10:26:56.881Z</time></trkpt><trkpt lat="44.054864" lon="11.2624916"><ele>528.0</ele><time>2026-03-28T10:27:20.864Z</time></trkpt><trkpt lat="44.0530906" lon="11.2609515"><ele>516.0</ele><time>2026-03-28T10:28:37.873Z</time></trkpt><trkpt lat="44.0503867" lon="11.2612584"><ele>519.0</ele><time>2026-03-28T10:28:58.878Z</time></trkpt><trkpt lat="44.0473087" lon="11.259302"><ele>487.0</ele><time>2026-03-28T10:29:19.889Z</time></trkpt><trkpt lat="44.0437877" lon="11.2588846"><ele>494.0</ele><time>2026-03-28T10:29:43.875Z</time></trkpt><trkpt lat="44.0404022" lon="11.2586402"><ele>502.0</ele><time>2026-03-28T10:30:06.88Z</time></trkpt><trkpt lat="44.037813" lon="11.2571675"><ele>469.0</ele><time>2026-03-28T10:30:32.885Z</time></trkpt><trkpt lat="44.0355455" lon="11.2550529"><ele>469.0</ele><time>2026-03-28T10:31:02.881Z</time></trkpt><trkpt lat="44.0350303" lon="11.25037"><ele>490.0</ele><time>2026-03-28T10:31:34.874Z</time></trkpt><trkpt lat="44.0331332" lon="11.2489811"><ele>487.0</ele><time>2026-03-28T10:31:52.897Z</time></trkpt><trkpt lat="44.0304292" lon="11.2488808"><ele>475.0</ele><time>2026-03-28T10:32:22.877Z</time></trkpt><trkpt lat="44.0286129" lon="11.247555"><ele>470.0</ele><time>2026-03-28T10:32:44.872Z</time></trkpt><trkpt lat="44.0268327" lon="11.2462039"><ele>463.0</ele><time>2026-03-28T10:33:05.898Z</time></trkpt><trkpt lat="44.0250821" lon="11.2447802"><ele>421.0</ele><time>2026-03-28T10:33:25.886Z</time></trkpt><trkpt lat="44.0231001" lon="11.2441219"><ele>404.0</ele><time>2026-03-28T10:33:47.877Z</time></trkpt><trkpt lat="44.0211035" lon="11.2450415"><ele>379.0</ele><time>2026-03-28T10:34:11.867Z</time></trkpt><trkpt lat="44.0190963" lon="11.2457536"><ele>359.0</ele><time>2026-03-28T10:34:26.88Z</time></trkpt><trkpt lat="44.0174759" lon="11.2439458"><ele>343.0</ele><time>2026-03-28T10:34:45.879Z</time></trkpt><trkpt lat="44.0153393" lon="11.2415698"><ele>322.0</ele><time>2026-03-28T10:35:13.877Z</time></trkpt><trkpt lat="44.0125264" lon="11.2412033"><ele>287.0</ele><time>2026-03-28T10:35:34.879Z</time></trkpt><trkpt lat="44.0097517" lon="11.2416403"><ele>302.0</ele><time>2026-03-28T10:35:56.877Z</time></trkpt><trkpt lat="44.0072753" lon="11.2432991"><ele>332.0</ele><time>2026-03-28T10:36:49.864Z</time></trkpt><trkpt lat="44.007303" lon="11.2461107"><ele>318.0</ele><time>2026-03-28T10:37:12.86Z</time></trkpt><trkpt lat="44.0089009" lon="11.2478378"><ele>320.0</ele><time>2026-03-28T10:37:34.876Z</time></trkpt><trkpt lat="44.0075475" lon="11.2474637"><ele>358.0</ele><time>2026-03-28T10:37:53.877Z</time></trkpt><trkpt lat="44.0057124" lon="11.2487101"><ele>327.0</ele><time>2026-03-28T10:38:21.873Z</time></trkpt><trkpt lat="44.0036886" lon="11.2481395"><ele>300.0</ele><time>2026-03-28T10:41:12.873Z</time></trkpt><trkpt lat="44.0016584" lon="11.2482891"><ele>301.0</ele><time>2026-03-28T10:41:40.867Z</time></trkpt><trkpt lat="43.9997148" lon="11.2491764"><ele>309.0</ele><time>2026-03-28T10:42:00.873Z</time></trkpt><trkpt lat="43.9970896" lon="11.2503025"><ele>295.0</ele><time>2026-03-28T10:42:21.869Z</time></trkpt><trkpt lat="43.9954495" lon="11.2472171"><ele>261.0</ele><time>2026-03-28T10:43:08.862Z</time></trkpt><trkpt lat="43.995541" lon="11.2443338"><ele>260.0</ele><time>2026-03-28T10:43:44.858Z</time></trkpt><trkpt lat="43.9965444" lon="11.2418913"><ele>265.0</ele><time>2026-03-28T10:44:08.87Z</time></trkpt><trkpt lat="43.9949251" lon="11.2402016"><ele>262.0</ele><time>2026-03-28T10:44:41.87Z</time></trkpt><trkpt lat="43.9924823" lon="11.2385401"><ele>263.0</ele><time>2026-03-28T10:45:17.883Z</time></trkpt><trkpt lat="43.9919644" lon="11.2367059"><ele>260.0</ele><time>2026-03-28T10:49:33.873Z</time></trkpt><trkpt lat="43.9897562" lon="11.2345495"><ele>260.0</ele><time>2026-03-28T10:49:59.883Z</time></trkpt><trkpt lat="43.9872643" lon="11.2329458"><ele>273.0</ele><time>2026-03-28T10:50:19.88Z</time></trkpt><trkpt lat="43.9845447" lon="11.233217"><ele>268.0</ele><time>2026-03-28T10:50:49.859Z</time></trkpt><trkpt lat="43.9831521" lon="11.2327952"><ele>266.0</ele><time>2026-03-28T10:51:13.878Z</time></trkpt><trkpt lat="43.9803576" lon="11.2324249"><ele>253.0</ele><time>2026-03-28T10:51:44.867Z</time></trkpt><trkpt lat="43.9786129" lon="11.2307637"><ele>265.0</ele><time>2026-03-28T10:52:05.872Z</time></trkpt><trkpt lat="43.9766357" lon="11.2300337"><ele>283.0</ele><time>2026-03-28T10:52:22.864Z</time></trkpt><trkpt lat="43.9745761" lon="11.23022"><ele>302.0</ele><time>2026-03-28T10:52:50.869Z</time></trkpt><trkpt lat="43.971998" lon="11.2315921"><ele>338.0</ele><time>2026-03-28T10:53:23.873Z</time></trkpt><trkpt lat="43.9706333" lon="11.2314108"><ele>385.0</ele><time>2026-03-28T10:53:38.861Z</time></trkpt><trkpt lat="43.9691996" lon="11.2294003"><ele>386.0</ele><time>2026-03-28T10:54:08.857Z</time></trkpt><trkpt lat="43.9682262" lon="11.2268781"><ele>386.0</ele><time>2026-03-28T10:54:50.863Z</time></trkpt><trkpt lat="43.9671202" lon="11.2256843"><ele>388.0</ele><time>2026-03-28T10:55:11.872Z</time></trkpt><trkpt lat="43.9651616" lon="11.2249332"><ele>380.0</ele><time>2026-03-28T10:56:45.894Z</time></trkpt><trkpt lat="43.9644621" lon="11.2249308"><ele>363.0</ele><time>2026-03-28T10:57:05.873Z</time></trkpt><trkpt lat="43.9623873" lon="11.2249641"><ele>323.0</ele><time>2026-03-28T10:57:38.89Z</time></trkpt><trkpt lat="43.96205" lon="11.2231116"><ele>317.0</ele><time>2026-03-28T10:58:32.87Z</time></trkpt><trkpt lat="43.9600434" lon="11.2224492"><ele>323.0</ele><time>2026-03-28T10:59:22.86Z</time></trkpt><trkpt lat="43.957979" lon="11.2223608"><ele>335.0</ele><time>2026-03-28T10:59:52.862Z</time></trkpt><trkpt lat="43.9568469" lon="11.2246896"><ele>392.0</ele><time>2026-03-28T11:00:19.859Z</time></trkpt><trkpt lat="43.9572847" lon="11.2274718"><ele>392.0</ele><time>2026-03-28T11:02:05.86Z</time></trkpt><trkpt lat="43.9560642" lon="11.2282756"><ele>419.0</ele><time>2026-03-28T11:02:43.879Z</time></trkpt><trkpt lat="43.9548308" lon="11.2290407"><ele>424.0</ele><time>2026-03-28T11:03:07.854Z</time></trkpt><trkpt lat="43.9537423" lon="11.2301483"><ele>431.0</ele><time>2026-03-28T11:03:33.878Z</time></trkpt><trkpt lat="43.9524591" lon="11.2294369"><ele>430.0</ele><time>2026-03-28T11:03:52.866Z</time></trkpt><trkpt lat="43.9503525" lon="11.2297924"><ele>423.0</ele><time>2026-03-28T11:04:17.86Z</time></trkpt><trkpt lat="43.9481443" lon="11.227603"><ele>426.0</ele><time>2026-03-28T11:05:20.865Z</time></trkpt><trkpt lat="43.9461417" lon="11.2269981"><ele>447.0</ele><time>2026-03-28T11:05:37.858Z</time></trkpt><trkpt lat="43.9448766" lon="11.2236513"><ele>457.0</ele><time>2026-03-28T11:06:01.865Z</time></trkpt><trkpt lat="43.944378" lon="11.2208882"><ele>452.0</ele><time>2026-03-28T11:06:21.883Z</time></trkpt><trkpt lat="43.9436417" lon="11.2182181"><ele>421.0</ele><time>2026-03-28T11:06:42.869Z</time></trkpt><trkpt lat="43.9438643" lon="11.2153608"><ele>429.0</ele><time>2026-03-28T11:07:06.861Z</time></trkpt><trkpt lat="43.945456" lon="11.2136073"><ele>448.0</ele><time>2026-03-28T11:07:31.866Z</time></trkpt><trkpt lat="43.9457248" lon="11.2117279"><ele>451.0</ele><time>2026-03-28T11:07:46.863Z</time></trkpt><trkpt lat="43.9451897" lon="11.2088652"><ele>491.0</ele><time>2026-03-28T11:08:02.863Z</time></trkpt><trkpt lat="43.9449433" lon="11.2050909"><ele>497.0</ele><time>2026-03-28T11:08:22.882Z</time></trkpt><trkpt lat="43.9445456" lon="11.2013755"><ele>495.0</ele><time>2026-03-28T11:11:53.877Z</time></trkpt><trkpt lat="43.9446015" lon="11.198526"><ele>540.0</ele><time>2026-03-28T11:12:12.857Z</time></trkpt><trkpt lat="43.9440717" lon="11.1948562"><ele>580.0</ele><time>2026-03-28T11:12:54.87Z</time></trkpt><trkpt lat="43.9438346" lon="11.1920721"><ele>606.0</ele><time>2026-03-28T11:13:30.876Z</time></trkpt><trkpt lat="43.9443758" lon="11.190331"><ele>543.0</ele><time>2026-03-28T11:14:00.874Z</time></trkpt><trkpt lat="43.942496" lon="11.1892506"><ele>540.0</ele><time>2026-03-28T11:15:00.877Z</time></trkpt><trkpt lat="43.9413405" lon="11.1881764"><ele>516.0</ele><time>2026-03-28T11:15:27.865Z</time></trkpt><trkpt lat="43.9392695" lon="11.188182"><ele>509.0</ele><time>2026-03-28T11:15:49.862Z</time></trkpt><trkpt lat="43.9365278" lon="11.1878744"><ele>521.0</ele><time>2026-03-28T11:16:27.872Z</time></trkpt><trkpt lat="43.934759" lon="11.1864765"><ele>548.0</ele><time>2026-03-28T11:16:49.887Z</time></trkpt><trkpt lat="43.932594" lon="11.1841223"><ele>546.0</ele><time>2026-03-28T11:17:18.869Z</time></trkpt><trkpt lat="43.9325189" lon="11.1811858"><ele>534.0</ele><time>2026-03-28T11:17:41.877Z</time></trkpt><trkpt lat="43.9324435" lon="11.1783812"><ele>531.0</ele><time>2026-03-28T11:18:01.865Z</time></trkpt><trkpt lat="43.9343114" lon="11.1772338"><ele>590.0</ele><time>2026-03-28T11:18:22.859Z</time></trkpt><trkpt lat="43.9331953" lon="11.1747662"><ele>570.0</ele><time>2026-03-28T11:19:05.848Z</time></trkpt><trkpt lat="43.9314838" lon="11.1732137"><ele>585.0</ele><time>2026-03-28T11:19:26.869Z</time></trkpt><trkpt lat="43.9315014" lon="11.1703939"><ele>594.0</ele><time>2026-03-28T11:19:42.866Z</time></trkpt><trkpt lat="43.9322808" lon="11.1668035"><ele>599.0</ele><time>2026-03-28T11:20:08.86Z</time></trkpt><trkpt lat="43.9315052" lon="11.1652299"><ele>638.0</ele><time>2026-03-28T11:20:39.85Z</time></trkpt><trkpt lat="43.9295158" lon="11.1646718"><ele>625.0</ele><time>2026-03-28T11:23:31.857Z</time></trkpt><trkpt lat="43.9278694" lon="11.1629021"><ele>608.0</ele><time>2026-03-28T11:24:09.868Z</time></trkpt><trkpt lat="43.9270258" lon="11.1614318"><ele>621.0</ele><time>2026-03-28T11:24:28.87Z</time></trkpt><trkpt lat="43.9270216" lon="11.1586229"><ele>643.0</ele><time>2026-03-28T11:24:56.872Z</time></trkpt><trkpt lat="43.9273422" lon="11.1557702"><ele>669.0</ele><time>2026-03-28T11:25:24.866Z</time></trkpt><trkpt lat="43.9270777" lon="11.1528702"><ele>581.0</ele><time>2026-03-28T11:25:44.852Z</time></trkpt><trkpt lat="43.9289698" lon="11.1501745"><ele>510.0</ele><time>2026-03-28T11:26:28.851Z</time></trkpt><trkpt lat="43.9308755" lon="11.1490423"><ele>482.0</ele><time>2026-03-28T11:27:01.869Z</time></trkpt><trkpt lat="43.9322108" lon="11.1487388"><ele>441.0</ele><time>2026-03-28T11:27:23.849Z</time></trkpt><trkpt lat="43.9335602" lon="11.1490108"><ele>427.0</ele><time>2026-03-28T11:27:43.856Z</time></trkpt><trkpt lat="43.932981" lon="11.1463094"><ele>386.0</ele><time>2026-03-28T11:28:36.853Z</time></trkpt><trkpt lat="43.9329155" lon="11.1434355"><ele>370.0</ele><time>2026-03-28T11:29:13.846Z</time></trkpt><trkpt lat="43.9315389" lon="11.143435"><ele>337.0</ele><time>2026-03-28T11:29:36.847Z</time></trkpt><trkpt lat="43.9331278" lon="11.141619"><ele>323.0</ele><time>2026-03-28T11:30:10.864Z</time></trkpt><trkpt lat="43.9310673" lon="11.1417652"><ele>278.0</ele><time>2026-03-28T11:31:03.84Z</time></trkpt><trkpt lat="43.9286594" lon="11.1398695"><ele>278.0</ele><time>2026-03-28T11:31:40.846Z</time></trkpt><trkpt lat="43.9272299" lon="11.1365467"><ele>199.0</ele><time>2026-03-28T11:32:06.845Z</time></trkpt><trkpt lat="43.9280986" lon="11.132938"><ele>164.0</ele><time>2026-03-28T11:33:15.855Z</time></trkpt><trkpt lat="43.9264703" lon="11.1310479"><ele>143.0</ele><time>2026-03-28T11:33:41.847Z</time></trkpt><trkpt lat="43.9237647" lon="11.1300472"><ele>104.0</ele><time>2026-03-28T11:34:03.849Z</time></trkpt><trkpt lat="43.9213935" lon="11.1282243"><ele>129.0</ele><time>2026-03-28T11:34:40.849Z</time></trkpt><trkpt lat="43.9200373" lon="11.1282941"><ele>137.0</ele><time>2026-03-28T11:34:57.846Z</time></trkpt><trkpt lat="43.9179631" lon="11.1282444"><ele>131.0</ele><time>2026-03-28T11:35:20.832Z</time></trkpt><trkpt lat="43.9160113" lon="11.1290446"><ele>137.0</ele><time>2026-03-28T11:35:54.859Z</time></trkpt><trkpt lat="43.9146521" lon="11.1292022"><ele>126.0</ele><time>2026-03-28T11:36:28.876Z</time></trkpt><trkpt lat="43.9133977" lon="11.1283621"><ele>109.0</ele><time>2026-03-28T11:37:16.838Z</time></trkpt><trkpt lat="43.911615" lon="11.1269243"><ele>91.0</ele><time>2026-03-28T11:37:49.871Z</time></trkpt><trkpt lat="43.9109789" lon="11.124221"><ele>100.0</ele><time>2026-03-28T11:38:12.855Z</time></trkpt><trkpt lat="43.9084463" lon="11.1227027"><ele>96.0</ele><time>2026-03-28T11:38:47.842Z</time></trkpt><trkpt lat="43.9066366" lon="11.1213773"><ele>88.0</ele><time>2026-03-28T11:39:03.853Z</time></trkpt><trkpt lat="43.9044472" lon="11.119122"><ele>84.0</ele><time>2026-03-28T11:39:27.846Z</time></trkpt><trkpt lat="43.902243" lon="11.1169237"><ele>82.0</ele><time>2026-03-28T11:39:50.861Z</time></trkpt><trkpt lat="43.900473" lon="11.1152702"><ele>90.0</ele><time>2026-03-28T11:40:07.86Z</time></trkpt><trkpt lat="43.8980603" lon="11.1132835"><ele>74.0</ele><time>2026-03-28T11:40:36.854Z</time></trkpt><trkpt lat="43.8967882" lon="11.1109449"><ele>71.0</ele><time>2026-03-28T11:40:58.87Z</time></trkpt><trkpt lat="43.8955047" lon="11.1086744"><ele>72.0</ele><time>2026-03-28T11:41:43.851Z</time></trkpt><trkpt lat="43.8935896" lon="11.1075913"><ele>70.0</ele><time>2026-03-28T11:42:02.861Z</time></trkpt><trkpt lat="43.8909705" lon="11.1064119"><ele>67.0</ele><time>2026-03-28T11:42:27.853Z</time></trkpt><trkpt lat="43.8884573" lon="11.1049965"><ele>67.0</ele><time>2026-03-28T11:43:13.871Z</time></trkpt><trkpt lat="43.8866316" lon="11.1063708"><ele>67.0</ele><time>2026-03-28T11:43:40.861Z</time></trkpt><trkpt lat="43.884733" lon="11.1076616"><ele>67.0</ele><time>2026-03-28T11:44:01.856Z</time></trkpt><trkpt lat="43.8828894" lon="11.1090221"><ele>68.0</ele><time>2026-03-28T11:44:22.852Z</time></trkpt><trkpt lat="43.8805174" lon="11.110868"><ele>63.0</ele><time>2026-03-28T11:44:47.846Z</time></trkpt><trkpt lat="43.8781831" lon="11.1129126"><ele>62.0</ele><time>2026-03-28T11:45:28.858Z</time></trkpt><trkpt lat="43.8769993" lon="11.1139491"><ele>62.0</ele><time>2026-03-28T11:45:38.848Z</time></trkpt></trkseg></trk></gpx>